<?xml version="1.0" encoding="UTF-8" standalone="no" ?>
<gpx xmlns="http://www.topografix.com/GPX/1/1" xmlns:xsi="http://www.w3.org/2001/XMLSchema-instance" xsi:schemaLocation="http://www.topografix.com/GPX/1/1 http://www.topografix.com/GPX/1/1/gpx.xsd" version="1.1" creator="VisuGPX - https://www.visugpx.com">
  <metadata>
    <name>Vogüé vtt 05/06/2022</name>
  </metadata>
  <trk>
    <name><![CDATA[Vogüé Cyclisme]]></name>
    <extensions>
      <line xmlns="http://www.topografix.com/GPX/gpx_style/0/2">
        <color>0000FF</color>
        <width>4</width>
      </line>
    </extensions>
    <trkseg>
      <trkpt lat="44.54737" lon="4.41402">
        <ele>180.8</ele>
        <time>2022-06-05T06:30:26Z</time>
      </trkpt>
      <trkpt lat="44.54736" lon="4.4138">
        <ele>180.8</ele>
        <time>2022-06-05T06:37:50Z</time>
      </trkpt>
      <trkpt lat="44.54737" lon="4.41379">
        <ele>180.8</ele>
        <time>2022-06-05T06:37:52Z</time>
      </trkpt>
      <trkpt lat="44.54748" lon="4.41372">
        <ele>180.8</ele>
        <time>2022-06-05T06:38:01Z</time>
      </trkpt>
      <trkpt lat="44.54767" lon="4.41378">
        <ele>180.8</ele>
        <time>2022-06-05T06:38:05Z</time>
      </trkpt>
      <trkpt lat="44.54802" lon="4.41384">
        <ele>180.8</ele>
        <time>2022-06-05T06:38:13Z</time>
      </trkpt>
      <trkpt lat="44.54835" lon="4.41382">
        <ele>180.8</ele>
        <time>2022-06-05T06:38:22Z</time>
      </trkpt>
      <trkpt lat="44.5486" lon="4.41368">
        <ele>180.8</ele>
        <time>2022-06-05T06:38:28Z</time>
      </trkpt>
      <trkpt lat="44.5488" lon="4.41348">
        <ele>180.4</ele>
        <time>2022-06-05T06:38:33Z</time>
      </trkpt>
      <trkpt lat="44.54884" lon="4.41343">
        <ele>180</ele>
        <time>2022-06-05T06:38:34Z</time>
      </trkpt>
      <trkpt lat="44.54888" lon="4.41338">
        <ele>179.6</ele>
        <time>2022-06-05T06:38:35Z</time>
      </trkpt>
      <trkpt lat="44.54892" lon="4.41334">
        <ele>179.2</ele>
        <time>2022-06-05T06:38:36Z</time>
      </trkpt>
      <trkpt lat="44.54896" lon="4.41329">
        <ele>178.8</ele>
        <time>2022-06-05T06:38:37Z</time>
      </trkpt>
      <trkpt lat="44.54926" lon="4.41291">
        <ele>178.8</ele>
        <time>2022-06-05T06:38:45Z</time>
      </trkpt>
      <trkpt lat="44.54941" lon="4.41273">
        <ele>178.8</ele>
        <time>2022-06-05T06:38:49Z</time>
      </trkpt>
      <trkpt lat="44.54951" lon="4.41258">
        <ele>178.8</ele>
        <time>2022-06-05T06:38:52Z</time>
      </trkpt>
      <trkpt lat="44.54968" lon="4.41234">
        <ele>178.8</ele>
        <time>2022-06-05T06:38:58Z</time>
      </trkpt>
      <trkpt lat="44.54971" lon="4.41233">
        <ele>178.8</ele>
        <time>2022-06-05T06:38:59Z</time>
      </trkpt>
      <trkpt lat="44.54978" lon="4.41234">
        <ele>178.8</ele>
        <time>2022-06-05T06:39:02Z</time>
      </trkpt>
      <trkpt lat="44.54999" lon="4.41248">
        <ele>178.8</ele>
        <time>2022-06-05T06:39:09Z</time>
      </trkpt>
      <trkpt lat="44.55013" lon="4.41256">
        <ele>178.8</ele>
        <time>2022-06-05T06:39:13Z</time>
      </trkpt>
      <trkpt lat="44.5502" lon="4.41258">
        <ele>178.8</ele>
        <time>2022-06-05T06:39:17Z</time>
      </trkpt>
      <trkpt lat="44.55033" lon="4.41265">
        <ele>178.8</ele>
        <time>2022-06-05T06:39:21Z</time>
      </trkpt>
      <trkpt lat="44.55041" lon="4.4127">
        <ele>178.8</ele>
        <time>2022-06-05T06:39:23Z</time>
      </trkpt>
      <trkpt lat="44.55054" lon="4.41283">
        <ele>178.8</ele>
        <time>2022-06-05T06:39:26Z</time>
      </trkpt>
      <trkpt lat="44.55058" lon="4.41289">
        <ele>178.4</ele>
        <time>2022-06-05T06:39:27Z</time>
      </trkpt>
      <trkpt lat="44.55062" lon="4.41295">
        <ele>178</ele>
        <time>2022-06-05T06:39:28Z</time>
      </trkpt>
      <trkpt lat="44.55067" lon="4.41302">
        <ele>177.6</ele>
        <time>2022-06-05T06:39:29Z</time>
      </trkpt>
      <trkpt lat="44.55071" lon="4.41308">
        <ele>177.2</ele>
        <time>2022-06-05T06:39:30Z</time>
      </trkpt>
      <trkpt lat="44.55075" lon="4.41315">
        <ele>176.8</ele>
        <time>2022-06-05T06:39:31Z</time>
      </trkpt>
      <trkpt lat="44.55079" lon="4.41322">
        <ele>176.8</ele>
        <time>2022-06-05T06:39:32Z</time>
      </trkpt>
      <trkpt lat="44.55093" lon="4.41351">
        <ele>175.8</ele>
        <time>2022-06-05T06:39:36Z</time>
      </trkpt>
      <trkpt lat="44.55094" lon="4.41357">
        <ele>175.4</ele>
        <time>2022-06-05T06:39:37Z</time>
      </trkpt>
      <trkpt lat="44.55094" lon="4.41362">
        <ele>175</ele>
        <time>2022-06-05T06:39:38Z</time>
      </trkpt>
      <trkpt lat="44.55093" lon="4.41367">
        <ele>174.6</ele>
        <time>2022-06-05T06:39:39Z</time>
      </trkpt>
      <trkpt lat="44.5509" lon="4.41375">
        <ele>174.6</ele>
        <time>2022-06-05T06:39:41Z</time>
      </trkpt>
      <trkpt lat="44.55087" lon="4.41379">
        <ele>174.6</ele>
        <time>2022-06-05T06:39:43Z</time>
      </trkpt>
      <trkpt lat="44.55082" lon="4.41386">
        <ele>174.6</ele>
        <time>2022-06-05T06:39:47Z</time>
      </trkpt>
      <trkpt lat="44.55072" lon="4.41405">
        <ele>174.6</ele>
        <time>2022-06-05T06:39:57Z</time>
      </trkpt>
      <trkpt lat="44.55064" lon="4.41414">
        <ele>174.6</ele>
        <time>2022-06-05T06:40:05Z</time>
      </trkpt>
      <trkpt lat="44.55061" lon="4.41417">
        <ele>174.2</ele>
        <time>2022-06-05T06:40:08Z</time>
      </trkpt>
      <trkpt lat="44.5506" lon="4.41418">
        <ele>173.8</ele>
        <time>2022-06-05T06:40:09Z</time>
      </trkpt>
      <trkpt lat="44.55059" lon="4.41419">
        <ele>173.4</ele>
        <time>2022-06-05T06:40:10Z</time>
      </trkpt>
      <trkpt lat="44.55058" lon="4.4142">
        <ele>173</ele>
        <time>2022-06-05T06:40:11Z</time>
      </trkpt>
      <trkpt lat="44.55057" lon="4.41421">
        <ele>172.6</ele>
        <time>2022-06-05T06:40:12Z</time>
      </trkpt>
      <trkpt lat="44.55047" lon="4.41443">
        <ele>172.6</ele>
        <time>2022-06-05T06:41:31Z</time>
      </trkpt>
      <trkpt lat="44.55046" lon="4.41442">
        <ele>172.6</ele>
        <time>2022-06-05T06:41:32Z</time>
      </trkpt>
      <trkpt lat="44.55046" lon="4.41417">
        <ele>172.6</ele>
        <time>2022-06-05T06:41:40Z</time>
      </trkpt>
      <trkpt lat="44.55043" lon="4.4141">
        <ele>172.6</ele>
        <time>2022-06-05T06:41:42Z</time>
      </trkpt>
      <trkpt lat="44.55045" lon="4.41398">
        <ele>172.6</ele>
        <time>2022-06-05T06:41:46Z</time>
      </trkpt>
      <trkpt lat="44.55046" lon="4.41386">
        <ele>172.6</ele>
        <time>2022-06-05T06:41:51Z</time>
      </trkpt>
      <trkpt lat="44.55039" lon="4.41375">
        <ele>172.6</ele>
        <time>2022-06-05T06:42:17Z</time>
      </trkpt>
      <trkpt lat="44.5504" lon="4.41372">
        <ele>172.6</ele>
        <time>2022-06-05T06:42:18Z</time>
      </trkpt>
      <trkpt lat="44.55041" lon="4.41369">
        <ele>172.6</ele>
        <time>2022-06-05T06:42:19Z</time>
      </trkpt>
      <trkpt lat="44.55042" lon="4.41363">
        <ele>172.6</ele>
        <time>2022-06-05T06:42:22Z</time>
      </trkpt>
      <trkpt lat="44.55044" lon="4.41345">
        <ele>172.6</ele>
        <time>2022-06-05T06:42:28Z</time>
      </trkpt>
      <trkpt lat="44.55046" lon="4.41325">
        <ele>172.2</ele>
        <time>2022-06-05T06:42:32Z</time>
      </trkpt>
      <trkpt lat="44.55047" lon="4.41321">
        <ele>171.8</ele>
        <time>2022-06-05T06:42:33Z</time>
      </trkpt>
      <trkpt lat="44.55047" lon="4.41318">
        <ele>171.4</ele>
        <time>2022-06-05T06:42:34Z</time>
      </trkpt>
      <trkpt lat="44.55047" lon="4.41315">
        <ele>170.8</ele>
        <time>2022-06-05T06:42:35Z</time>
      </trkpt>
      <trkpt lat="44.55046" lon="4.41312">
        <ele>170.4</ele>
        <time>2022-06-05T06:42:36Z</time>
      </trkpt>
      <trkpt lat="44.55045" lon="4.41309">
        <ele>170.4</ele>
        <time>2022-06-05T06:42:38Z</time>
      </trkpt>
      <trkpt lat="44.55043" lon="4.41311">
        <ele>170.4</ele>
        <time>2022-06-05T06:42:42Z</time>
      </trkpt>
      <trkpt lat="44.55043" lon="4.41312">
        <ele>170.4</ele>
        <time>2022-06-05T06:42:43Z</time>
      </trkpt>
      <trkpt lat="44.55039" lon="4.41329">
        <ele>170.4</ele>
        <time>2022-06-05T06:42:49Z</time>
      </trkpt>
      <trkpt lat="44.55026" lon="4.41361">
        <ele>170.4</ele>
        <time>2022-06-05T06:42:57Z</time>
      </trkpt>
      <trkpt lat="44.55008" lon="4.414">
        <ele>170.4</ele>
        <time>2022-06-05T06:43:06Z</time>
      </trkpt>
      <trkpt lat="44.55001" lon="4.41412">
        <ele>170.4</ele>
        <time>2022-06-05T06:43:09Z</time>
      </trkpt>
      <trkpt lat="44.54991" lon="4.41426">
        <ele>170.4</ele>
        <time>2022-06-05T06:43:12Z</time>
      </trkpt>
      <trkpt lat="44.54971" lon="4.41461">
        <ele>170.4</ele>
        <time>2022-06-05T06:43:18Z</time>
      </trkpt>
      <trkpt lat="44.54969" lon="4.41468">
        <ele>170</ele>
        <time>2022-06-05T06:43:19Z</time>
      </trkpt>
      <trkpt lat="44.54966" lon="4.41474">
        <ele>169.6</ele>
        <time>2022-06-05T06:43:20Z</time>
      </trkpt>
      <trkpt lat="44.54963" lon="4.4148">
        <ele>169.2</ele>
        <time>2022-06-05T06:43:21Z</time>
      </trkpt>
      <trkpt lat="44.5496" lon="4.41486">
        <ele>168.8</ele>
        <time>2022-06-05T06:43:22Z</time>
      </trkpt>
      <trkpt lat="44.54957" lon="4.41493">
        <ele>168.4</ele>
        <time>2022-06-05T06:43:23Z</time>
      </trkpt>
      <trkpt lat="44.54949" lon="4.41507">
        <ele>168.4</ele>
        <time>2022-06-05T06:43:26Z</time>
      </trkpt>
      <trkpt lat="44.54947" lon="4.41512">
        <ele>168.4</ele>
        <time>2022-06-05T06:43:27Z</time>
      </trkpt>
      <trkpt lat="44.54947" lon="4.41522">
        <ele>168.4</ele>
        <time>2022-06-05T06:43:30Z</time>
      </trkpt>
      <trkpt lat="44.54947" lon="4.41526">
        <ele>168.8</ele>
        <time>2022-06-05T06:43:32Z</time>
      </trkpt>
      <trkpt lat="44.54946" lon="4.41528">
        <ele>169.2</ele>
        <time>2022-06-05T06:43:33Z</time>
      </trkpt>
      <trkpt lat="44.54944" lon="4.41531">
        <ele>170.6</ele>
        <time>2022-06-05T06:43:36Z</time>
      </trkpt>
      <trkpt lat="44.54943" lon="4.41532">
        <ele>170.6</ele>
        <time>2022-06-05T06:43:37Z</time>
      </trkpt>
      <trkpt lat="44.54942" lon="4.41538">
        <ele>170.6</ele>
        <time>2022-06-05T06:43:41Z</time>
      </trkpt>
      <trkpt lat="44.54943" lon="4.41542">
        <ele>170.6</ele>
        <time>2022-06-05T06:43:43Z</time>
      </trkpt>
      <trkpt lat="44.54949" lon="4.41561">
        <ele>170.6</ele>
        <time>2022-06-05T06:43:50Z</time>
      </trkpt>
      <trkpt lat="44.54955" lon="4.41574">
        <ele>170.6</ele>
        <time>2022-06-05T06:43:58Z</time>
      </trkpt>
      <trkpt lat="44.5495" lon="4.41579">
        <ele>170.6</ele>
        <time>2022-06-05T06:44:08Z</time>
      </trkpt>
      <trkpt lat="44.54944" lon="4.41583">
        <ele>170.6</ele>
        <time>2022-06-05T06:44:11Z</time>
      </trkpt>
      <trkpt lat="44.54934" lon="4.41587">
        <ele>171</ele>
        <time>2022-06-05T06:44:17Z</time>
      </trkpt>
      <trkpt lat="44.54932" lon="4.41587">
        <ele>171.4</ele>
        <time>2022-06-05T06:44:18Z</time>
      </trkpt>
      <trkpt lat="44.54931" lon="4.41588">
        <ele>171.8</ele>
        <time>2022-06-05T06:44:19Z</time>
      </trkpt>
      <trkpt lat="44.54937" lon="4.416">
        <ele>174.2</ele>
        <time>2022-06-05T06:44:43Z</time>
      </trkpt>
      <trkpt lat="44.54939" lon="4.41601">
        <ele>174.6</ele>
        <time>2022-06-05T06:44:44Z</time>
      </trkpt>
      <trkpt lat="44.54943" lon="4.41606">
        <ele>174.6</ele>
        <time>2022-06-05T06:44:48Z</time>
      </trkpt>
      <trkpt lat="44.5495" lon="4.41614">
        <ele>174.6</ele>
        <time>2022-06-05T06:44:53Z</time>
      </trkpt>
      <trkpt lat="44.54953" lon="4.41614">
        <ele>175</ele>
        <time>2022-06-05T06:44:54Z</time>
      </trkpt>
      <trkpt lat="44.54955" lon="4.41614">
        <ele>175.6</ele>
        <time>2022-06-05T06:44:55Z</time>
      </trkpt>
      <trkpt lat="44.54957" lon="4.41614">
        <ele>176.4</ele>
        <time>2022-06-05T06:44:56Z</time>
      </trkpt>
      <trkpt lat="44.54959" lon="4.41615">
        <ele>176.8</ele>
        <time>2022-06-05T06:44:57Z</time>
      </trkpt>
      <trkpt lat="44.54962" lon="4.41617">
        <ele>177.4</ele>
        <time>2022-06-05T06:44:59Z</time>
      </trkpt>
      <trkpt lat="44.54963" lon="4.41617">
        <ele>177.8</ele>
        <time>2022-06-05T06:45:00Z</time>
      </trkpt>
      <trkpt lat="44.54964" lon="4.41615">
        <ele>178.2</ele>
        <time>2022-06-05T06:45:01Z</time>
      </trkpt>
      <trkpt lat="44.54968" lon="4.4161">
        <ele>179.2</ele>
        <time>2022-06-05T06:45:04Z</time>
      </trkpt>
      <trkpt lat="44.54973" lon="4.41604">
        <ele>179.2</ele>
        <time>2022-06-05T06:45:06Z</time>
      </trkpt>
      <trkpt lat="44.54986" lon="4.41587">
        <ele>179.2</ele>
        <time>2022-06-05T06:45:15Z</time>
      </trkpt>
      <trkpt lat="44.5499" lon="4.41583">
        <ele>179.2</ele>
        <time>2022-06-05T06:45:18Z</time>
      </trkpt>
      <trkpt lat="44.54993" lon="4.41583">
        <ele>179.2</ele>
        <time>2022-06-05T06:45:20Z</time>
      </trkpt>
      <trkpt lat="44.54996" lon="4.41583">
        <ele>179.2</ele>
        <time>2022-06-05T06:45:22Z</time>
      </trkpt>
      <trkpt lat="44.54997" lon="4.41583">
        <ele>179.6</ele>
        <time>2022-06-05T06:45:23Z</time>
      </trkpt>
      <trkpt lat="44.54998" lon="4.41583">
        <ele>180</ele>
        <time>2022-06-05T06:45:24Z</time>
      </trkpt>
      <trkpt lat="44.55001" lon="4.41582">
        <ele>180.4</ele>
        <time>2022-06-05T06:45:25Z</time>
      </trkpt>
      <trkpt lat="44.55002" lon="4.41582">
        <ele>180.8</ele>
        <time>2022-06-05T06:45:26Z</time>
      </trkpt>
      <trkpt lat="44.55004" lon="4.4158">
        <ele>181.2</ele>
        <time>2022-06-05T06:45:27Z</time>
      </trkpt>
      <trkpt lat="44.55005" lon="4.41578">
        <ele>181.2</ele>
        <time>2022-06-05T06:45:28Z</time>
      </trkpt>
      <trkpt lat="44.55006" lon="4.41576">
        <ele>181.2</ele>
        <time>2022-06-05T06:45:29Z</time>
      </trkpt>
      <trkpt lat="44.55013" lon="4.41567">
        <ele>181.6</ele>
        <time>2022-06-05T06:45:34Z</time>
      </trkpt>
      <trkpt lat="44.55015" lon="4.41566">
        <ele>182.2</ele>
        <time>2022-06-05T06:45:35Z</time>
      </trkpt>
      <trkpt lat="44.55017" lon="4.41564">
        <ele>182.6</ele>
        <time>2022-06-05T06:45:36Z</time>
      </trkpt>
      <trkpt lat="44.55021" lon="4.41563">
        <ele>183</ele>
        <time>2022-06-05T06:45:37Z</time>
      </trkpt>
      <trkpt lat="44.55024" lon="4.41562">
        <ele>183.6</ele>
        <time>2022-06-05T06:45:38Z</time>
      </trkpt>
      <trkpt lat="44.5503" lon="4.41556">
        <ele>183.6</ele>
        <time>2022-06-05T06:45:40Z</time>
      </trkpt>
      <trkpt lat="44.55045" lon="4.41538">
        <ele>184</ele>
        <time>2022-06-05T06:45:47Z</time>
      </trkpt>
      <trkpt lat="44.55047" lon="4.41536">
        <ele>184.4</ele>
        <time>2022-06-05T06:45:48Z</time>
      </trkpt>
      <trkpt lat="44.55049" lon="4.41533">
        <ele>184.8</ele>
        <time>2022-06-05T06:45:49Z</time>
      </trkpt>
      <trkpt lat="44.55051" lon="4.41531">
        <ele>185.2</ele>
        <time>2022-06-05T06:45:50Z</time>
      </trkpt>
      <trkpt lat="44.55053" lon="4.41529">
        <ele>185.6</ele>
        <time>2022-06-05T06:45:51Z</time>
      </trkpt>
      <trkpt lat="44.55071" lon="4.41512">
        <ele>185.6</ele>
        <time>2022-06-05T06:46:00Z</time>
      </trkpt>
      <trkpt lat="44.55091" lon="4.41491">
        <ele>185.6</ele>
        <time>2022-06-05T06:46:08Z</time>
      </trkpt>
      <trkpt lat="44.55111" lon="4.41473">
        <ele>185.6</ele>
        <time>2022-06-05T06:46:15Z</time>
      </trkpt>
      <trkpt lat="44.55115" lon="4.4147">
        <ele>185.6</ele>
        <time>2022-06-05T06:46:17Z</time>
      </trkpt>
      <trkpt lat="44.55123" lon="4.41472">
        <ele>185.6</ele>
        <time>2022-06-05T06:46:20Z</time>
      </trkpt>
      <trkpt lat="44.55134" lon="4.41477">
        <ele>186</ele>
        <time>2022-06-05T06:46:25Z</time>
      </trkpt>
      <trkpt lat="44.55136" lon="4.41479">
        <ele>186.4</ele>
        <time>2022-06-05T06:46:26Z</time>
      </trkpt>
      <trkpt lat="44.55138" lon="4.41481">
        <ele>187</ele>
        <time>2022-06-05T06:46:27Z</time>
      </trkpt>
      <trkpt lat="44.55139" lon="4.41484">
        <ele>187.4</ele>
        <time>2022-06-05T06:46:28Z</time>
      </trkpt>
      <trkpt lat="44.55141" lon="4.41486">
        <ele>187.8</ele>
        <time>2022-06-05T06:46:29Z</time>
      </trkpt>
      <trkpt lat="44.55142" lon="4.41496">
        <ele>188.2</ele>
        <time>2022-06-05T06:46:32Z</time>
      </trkpt>
      <trkpt lat="44.55141" lon="4.415">
        <ele>188.6</ele>
        <time>2022-06-05T06:46:33Z</time>
      </trkpt>
      <trkpt lat="44.5514" lon="4.41504">
        <ele>189.2</ele>
        <time>2022-06-05T06:46:34Z</time>
      </trkpt>
      <trkpt lat="44.5514" lon="4.41508">
        <ele>190</ele>
        <time>2022-06-05T06:46:35Z</time>
      </trkpt>
      <trkpt lat="44.55135" lon="4.41522">
        <ele>190.6</ele>
        <time>2022-06-05T06:46:40Z</time>
      </trkpt>
      <trkpt lat="44.55135" lon="4.41524">
        <ele>191</ele>
        <time>2022-06-05T06:46:41Z</time>
      </trkpt>
      <trkpt lat="44.55134" lon="4.41527">
        <ele>191.6</ele>
        <time>2022-06-05T06:46:42Z</time>
      </trkpt>
      <trkpt lat="44.55133" lon="4.4153">
        <ele>192</ele>
        <time>2022-06-05T06:46:43Z</time>
      </trkpt>
      <trkpt lat="44.55132" lon="4.41533">
        <ele>192.4</ele>
        <time>2022-06-05T06:46:44Z</time>
      </trkpt>
      <trkpt lat="44.55123" lon="4.41548">
        <ele>192.8</ele>
        <time>2022-06-05T06:46:50Z</time>
      </trkpt>
      <trkpt lat="44.55122" lon="4.4155">
        <ele>193.4</ele>
        <time>2022-06-05T06:46:51Z</time>
      </trkpt>
      <trkpt lat="44.55121" lon="4.41552">
        <ele>193.8</ele>
        <time>2022-06-05T06:46:52Z</time>
      </trkpt>
      <trkpt lat="44.5512" lon="4.41554">
        <ele>194.2</ele>
        <time>2022-06-05T06:46:53Z</time>
      </trkpt>
      <trkpt lat="44.5512" lon="4.41556">
        <ele>194.6</ele>
        <time>2022-06-05T06:46:54Z</time>
      </trkpt>
      <trkpt lat="44.55116" lon="4.41567">
        <ele>195</ele>
        <time>2022-06-05T06:46:59Z</time>
      </trkpt>
      <trkpt lat="44.55114" lon="4.41569">
        <ele>195.8</ele>
        <time>2022-06-05T06:47:00Z</time>
      </trkpt>
      <trkpt lat="44.55113" lon="4.41571">
        <ele>196.4</ele>
        <time>2022-06-05T06:47:01Z</time>
      </trkpt>
      <trkpt lat="44.55112" lon="4.41573">
        <ele>196.8</ele>
        <time>2022-06-05T06:47:02Z</time>
      </trkpt>
      <trkpt lat="44.55108" lon="4.41581">
        <ele>197.2</ele>
        <time>2022-06-05T06:47:06Z</time>
      </trkpt>
      <trkpt lat="44.55107" lon="4.41583">
        <ele>197.6</ele>
        <time>2022-06-05T06:47:07Z</time>
      </trkpt>
      <trkpt lat="44.55106" lon="4.41585">
        <ele>198</ele>
        <time>2022-06-05T06:47:08Z</time>
      </trkpt>
      <trkpt lat="44.55105" lon="4.41587">
        <ele>198.4</ele>
        <time>2022-06-05T06:47:09Z</time>
      </trkpt>
      <trkpt lat="44.55103" lon="4.41589">
        <ele>198.8</ele>
        <time>2022-06-05T06:47:10Z</time>
      </trkpt>
      <trkpt lat="44.55099" lon="4.41594">
        <ele>199.2</ele>
        <time>2022-06-05T06:47:13Z</time>
      </trkpt>
      <trkpt lat="44.55098" lon="4.41595">
        <ele>199.6</ele>
        <time>2022-06-05T06:47:14Z</time>
      </trkpt>
      <trkpt lat="44.55097" lon="4.41597">
        <ele>200.2</ele>
        <time>2022-06-05T06:47:15Z</time>
      </trkpt>
      <trkpt lat="44.55095" lon="4.41598">
        <ele>200.6</ele>
        <time>2022-06-05T06:47:16Z</time>
      </trkpt>
      <trkpt lat="44.55094" lon="4.416">
        <ele>201</ele>
        <time>2022-06-05T06:47:17Z</time>
      </trkpt>
      <trkpt lat="44.55092" lon="4.41605">
        <ele>201</ele>
        <time>2022-06-05T06:47:19Z</time>
      </trkpt>
      <trkpt lat="44.55089" lon="4.41609">
        <ele>201.4</ele>
        <time>2022-06-05T06:47:22Z</time>
      </trkpt>
      <trkpt lat="44.55088" lon="4.4161">
        <ele>202.2</ele>
        <time>2022-06-05T06:47:23Z</time>
      </trkpt>
      <trkpt lat="44.55087" lon="4.41611">
        <ele>202.6</ele>
        <time>2022-06-05T06:47:24Z</time>
      </trkpt>
      <trkpt lat="44.55086" lon="4.41612">
        <ele>203</ele>
        <time>2022-06-05T06:47:25Z</time>
      </trkpt>
      <trkpt lat="44.55084" lon="4.41616">
        <ele>203</ele>
        <time>2022-06-05T06:47:28Z</time>
      </trkpt>
      <trkpt lat="44.55079" lon="4.41624">
        <ele>203.4</ele>
        <time>2022-06-05T06:47:33Z</time>
      </trkpt>
      <trkpt lat="44.55077" lon="4.41626">
        <ele>204</ele>
        <time>2022-06-05T06:47:34Z</time>
      </trkpt>
      <trkpt lat="44.55076" lon="4.41628">
        <ele>204.4</ele>
        <time>2022-06-05T06:47:35Z</time>
      </trkpt>
      <trkpt lat="44.55075" lon="4.4163">
        <ele>204.8</ele>
        <time>2022-06-05T06:47:36Z</time>
      </trkpt>
      <trkpt lat="44.55073" lon="4.41631">
        <ele>205.2</ele>
        <time>2022-06-05T06:47:37Z</time>
      </trkpt>
      <trkpt lat="44.55063" lon="4.41639">
        <ele>205.2</ele>
        <time>2022-06-05T06:47:43Z</time>
      </trkpt>
      <trkpt lat="44.55063" lon="4.41641">
        <ele>205.6</ele>
        <time>2022-06-05T06:47:44Z</time>
      </trkpt>
      <trkpt lat="44.55062" lon="4.41645">
        <ele>206.4</ele>
        <time>2022-06-05T06:47:46Z</time>
      </trkpt>
      <trkpt lat="44.55061" lon="4.41647">
        <ele>206.8</ele>
        <time>2022-06-05T06:47:47Z</time>
      </trkpt>
      <trkpt lat="44.5506" lon="4.41649">
        <ele>207.2</ele>
        <time>2022-06-05T06:47:48Z</time>
      </trkpt>
      <trkpt lat="44.55058" lon="4.41653">
        <ele>207.6</ele>
        <time>2022-06-05T06:47:50Z</time>
      </trkpt>
      <trkpt lat="44.55057" lon="4.41655">
        <ele>208</ele>
        <time>2022-06-05T06:47:51Z</time>
      </trkpt>
      <trkpt lat="44.55056" lon="4.41657">
        <ele>208.4</ele>
        <time>2022-06-05T06:47:52Z</time>
      </trkpt>
      <trkpt lat="44.55055" lon="4.41658">
        <ele>208.8</ele>
        <time>2022-06-05T06:47:53Z</time>
      </trkpt>
      <trkpt lat="44.55054" lon="4.4166">
        <ele>209.2</ele>
        <time>2022-06-05T06:47:54Z</time>
      </trkpt>
      <trkpt lat="44.55045" lon="4.41667">
        <ele>209.2</ele>
        <time>2022-06-05T06:48:00Z</time>
      </trkpt>
      <trkpt lat="44.55042" lon="4.41669">
        <ele>209.6</ele>
        <time>2022-06-05T06:48:02Z</time>
      </trkpt>
      <trkpt lat="44.5504" lon="4.4167">
        <ele>210</ele>
        <time>2022-06-05T06:48:03Z</time>
      </trkpt>
      <trkpt lat="44.55039" lon="4.41671">
        <ele>210.4</ele>
        <time>2022-06-05T06:48:04Z</time>
      </trkpt>
      <trkpt lat="44.55037" lon="4.41672">
        <ele>210.8</ele>
        <time>2022-06-05T06:48:05Z</time>
      </trkpt>
      <trkpt lat="44.55036" lon="4.41673">
        <ele>211.2</ele>
        <time>2022-06-05T06:48:06Z</time>
      </trkpt>
      <trkpt lat="44.55031" lon="4.41679">
        <ele>211.2</ele>
        <time>2022-06-05T06:48:10Z</time>
      </trkpt>
      <trkpt lat="44.55028" lon="4.41683">
        <ele>211.6</ele>
        <time>2022-06-05T06:48:13Z</time>
      </trkpt>
      <trkpt lat="44.55026" lon="4.41684">
        <ele>212.2</ele>
        <time>2022-06-05T06:48:14Z</time>
      </trkpt>
      <trkpt lat="44.55025" lon="4.41686">
        <ele>212.6</ele>
        <time>2022-06-05T06:48:15Z</time>
      </trkpt>
      <trkpt lat="44.55024" lon="4.41687">
        <ele>213</ele>
        <time>2022-06-05T06:48:16Z</time>
      </trkpt>
      <trkpt lat="44.55023" lon="4.41688">
        <ele>213.4</ele>
        <time>2022-06-05T06:48:17Z</time>
      </trkpt>
      <trkpt lat="44.54983" lon="4.41698">
        <ele>217.8</ele>
        <time>2022-06-05T06:51:39Z</time>
      </trkpt>
      <trkpt lat="44.54982" lon="4.41697">
        <ele>217.8</ele>
        <time>2022-06-05T06:51:40Z</time>
      </trkpt>
      <trkpt lat="44.54983" lon="4.41694">
        <ele>215.8</ele>
        <time>2022-06-05T06:52:04Z</time>
      </trkpt>
      <trkpt lat="44.54985" lon="4.41694">
        <ele>215.8</ele>
        <time>2022-06-05T06:52:06Z</time>
      </trkpt>
      <trkpt lat="44.54985" lon="4.417">
        <ele>216.2</ele>
        <time>2022-06-05T06:52:10Z</time>
      </trkpt>
      <trkpt lat="44.54985" lon="4.41702">
        <ele>216.6</ele>
        <time>2022-06-05T06:52:11Z</time>
      </trkpt>
      <trkpt lat="44.54985" lon="4.41704">
        <ele>217</ele>
        <time>2022-06-05T06:52:12Z</time>
      </trkpt>
      <trkpt lat="44.54984" lon="4.41707">
        <ele>217.6</ele>
        <time>2022-06-05T06:52:13Z</time>
      </trkpt>
      <trkpt lat="44.54984" lon="4.41709">
        <ele>218</ele>
        <time>2022-06-05T06:52:14Z</time>
      </trkpt>
      <trkpt lat="44.54983" lon="4.41712">
        <ele>218</ele>
        <time>2022-06-05T06:52:15Z</time>
      </trkpt>
      <trkpt lat="44.54981" lon="4.4172">
        <ele>218.4</ele>
        <time>2022-06-05T06:52:18Z</time>
      </trkpt>
      <trkpt lat="44.5498" lon="4.41723">
        <ele>218.8</ele>
        <time>2022-06-05T06:52:19Z</time>
      </trkpt>
      <trkpt lat="44.54979" lon="4.41725">
        <ele>219.4</ele>
        <time>2022-06-05T06:52:20Z</time>
      </trkpt>
      <trkpt lat="44.54979" lon="4.41728">
        <ele>219.8</ele>
        <time>2022-06-05T06:52:21Z</time>
      </trkpt>
      <trkpt lat="44.54978" lon="4.41731">
        <ele>220.2</ele>
        <time>2022-06-05T06:52:22Z</time>
      </trkpt>
      <trkpt lat="44.54971" lon="4.41748">
        <ele>221.2</ele>
        <time>2022-06-05T06:52:29Z</time>
      </trkpt>
      <trkpt lat="44.54971" lon="4.41751">
        <ele>221.6</ele>
        <time>2022-06-05T06:52:30Z</time>
      </trkpt>
      <trkpt lat="44.5497" lon="4.41753">
        <ele>222</ele>
        <time>2022-06-05T06:52:31Z</time>
      </trkpt>
      <trkpt lat="44.5497" lon="4.41755">
        <ele>222.6</ele>
        <time>2022-06-05T06:52:32Z</time>
      </trkpt>
      <trkpt lat="44.54972" lon="4.4176">
        <ele>222.6</ele>
        <time>2022-06-05T06:52:35Z</time>
      </trkpt>
      <trkpt lat="44.54977" lon="4.41775">
        <ele>222.6</ele>
        <time>2022-06-05T06:52:42Z</time>
      </trkpt>
      <trkpt lat="44.54979" lon="4.41778">
        <ele>223</ele>
        <time>2022-06-05T06:52:43Z</time>
      </trkpt>
      <trkpt lat="44.5498" lon="4.41779">
        <ele>223.4</ele>
        <time>2022-06-05T06:52:44Z</time>
      </trkpt>
      <trkpt lat="44.54981" lon="4.41781">
        <ele>223.8</ele>
        <time>2022-06-05T06:52:45Z</time>
      </trkpt>
      <trkpt lat="44.54981" lon="4.41783">
        <ele>224.2</ele>
        <time>2022-06-05T06:52:46Z</time>
      </trkpt>
      <trkpt lat="44.54982" lon="4.41785">
        <ele>224.6</ele>
        <time>2022-06-05T06:52:47Z</time>
      </trkpt>
      <trkpt lat="44.54984" lon="4.41793">
        <ele>224.6</ele>
        <time>2022-06-05T06:52:50Z</time>
      </trkpt>
      <trkpt lat="44.54993" lon="4.41809">
        <ele>225</ele>
        <time>2022-06-05T06:52:58Z</time>
      </trkpt>
      <trkpt lat="44.54994" lon="4.4181">
        <ele>225.4</ele>
        <time>2022-06-05T06:52:59Z</time>
      </trkpt>
      <trkpt lat="44.54995" lon="4.41812">
        <ele>226</ele>
        <time>2022-06-05T06:53:00Z</time>
      </trkpt>
      <trkpt lat="44.54996" lon="4.41813">
        <ele>226.4</ele>
        <time>2022-06-05T06:53:01Z</time>
      </trkpt>
      <trkpt lat="44.54997" lon="4.41815">
        <ele>226.8</ele>
        <time>2022-06-05T06:53:02Z</time>
      </trkpt>
      <trkpt lat="44.55003" lon="4.41823">
        <ele>226.8</ele>
        <time>2022-06-05T06:53:07Z</time>
      </trkpt>
      <trkpt lat="44.55007" lon="4.41828">
        <ele>227.2</ele>
        <time>2022-06-05T06:53:10Z</time>
      </trkpt>
      <trkpt lat="44.55008" lon="4.41828">
        <ele>227.6</ele>
        <time>2022-06-05T06:53:11Z</time>
      </trkpt>
      <trkpt lat="44.55008" lon="4.41829">
        <ele>228</ele>
        <time>2022-06-05T06:53:12Z</time>
      </trkpt>
      <trkpt lat="44.5501" lon="4.41854">
        <ele>229</ele>
        <time>2022-06-05T06:53:42Z</time>
      </trkpt>
      <trkpt lat="44.55016" lon="4.41864">
        <ele>229</ele>
        <time>2022-06-05T06:53:48Z</time>
      </trkpt>
      <trkpt lat="44.55028" lon="4.41873">
        <ele>229</ele>
        <time>2022-06-05T06:53:56Z</time>
      </trkpt>
      <trkpt lat="44.55045" lon="4.41889">
        <ele>229.4</ele>
        <time>2022-06-05T06:54:06Z</time>
      </trkpt>
      <trkpt lat="44.55047" lon="4.41891">
        <ele>229.8</ele>
        <time>2022-06-05T06:54:07Z</time>
      </trkpt>
      <trkpt lat="44.55049" lon="4.41893">
        <ele>230.2</ele>
        <time>2022-06-05T06:54:08Z</time>
      </trkpt>
      <trkpt lat="44.5505" lon="4.41895">
        <ele>231</ele>
        <time>2022-06-05T06:54:09Z</time>
      </trkpt>
      <trkpt lat="44.55057" lon="4.41903">
        <ele>231</ele>
        <time>2022-06-05T06:54:14Z</time>
      </trkpt>
      <trkpt lat="44.55067" lon="4.4192">
        <ele>231.4</ele>
        <time>2022-06-05T06:54:21Z</time>
      </trkpt>
      <trkpt lat="44.55069" lon="4.41923">
        <ele>231.8</ele>
        <time>2022-06-05T06:54:22Z</time>
      </trkpt>
      <trkpt lat="44.5507" lon="4.41927">
        <ele>232.4</ele>
        <time>2022-06-05T06:54:23Z</time>
      </trkpt>
      <trkpt lat="44.55071" lon="4.41929">
        <ele>232.8</ele>
        <time>2022-06-05T06:54:24Z</time>
      </trkpt>
      <trkpt lat="44.55073" lon="4.41932">
        <ele>233.2</ele>
        <time>2022-06-05T06:54:25Z</time>
      </trkpt>
      <trkpt lat="44.55077" lon="4.41939">
        <ele>233.2</ele>
        <time>2022-06-05T06:54:28Z</time>
      </trkpt>
      <trkpt lat="44.55089" lon="4.41951">
        <ele>233.2</ele>
        <time>2022-06-05T06:54:36Z</time>
      </trkpt>
      <trkpt lat="44.5509" lon="4.41952">
        <ele>233.6</ele>
        <time>2022-06-05T06:54:37Z</time>
      </trkpt>
      <trkpt lat="44.55092" lon="4.41954">
        <ele>234</ele>
        <time>2022-06-05T06:54:38Z</time>
      </trkpt>
      <trkpt lat="44.55093" lon="4.41956">
        <ele>234.4</ele>
        <time>2022-06-05T06:54:39Z</time>
      </trkpt>
      <trkpt lat="44.55095" lon="4.41957">
        <ele>234.8</ele>
        <time>2022-06-05T06:54:40Z</time>
      </trkpt>
      <trkpt lat="44.55097" lon="4.41959">
        <ele>235.2</ele>
        <time>2022-06-05T06:54:41Z</time>
      </trkpt>
      <trkpt lat="44.55103" lon="4.41965">
        <ele>235.2</ele>
        <time>2022-06-05T06:54:44Z</time>
      </trkpt>
      <trkpt lat="44.55115" lon="4.41978">
        <ele>235.2</ele>
        <time>2022-06-05T06:54:52Z</time>
      </trkpt>
      <trkpt lat="44.55124" lon="4.41984">
        <ele>235.2</ele>
        <time>2022-06-05T06:54:58Z</time>
      </trkpt>
      <trkpt lat="44.55125" lon="4.41985">
        <ele>236.2</ele>
        <time>2022-06-05T06:54:59Z</time>
      </trkpt>
      <trkpt lat="44.55127" lon="4.41986">
        <ele>236.6</ele>
        <time>2022-06-05T06:55:00Z</time>
      </trkpt>
      <trkpt lat="44.55128" lon="4.41986">
        <ele>237</ele>
        <time>2022-06-05T06:55:01Z</time>
      </trkpt>
      <trkpt lat="44.5513" lon="4.41987">
        <ele>237.4</ele>
        <time>2022-06-05T06:55:02Z</time>
      </trkpt>
      <trkpt lat="44.55136" lon="4.41996">
        <ele>237.4</ele>
        <time>2022-06-05T06:55:06Z</time>
      </trkpt>
      <trkpt lat="44.5515" lon="4.42017">
        <ele>237.4</ele>
        <time>2022-06-05T06:55:15Z</time>
      </trkpt>
      <trkpt lat="44.55153" lon="4.42021">
        <ele>237.8</ele>
        <time>2022-06-05T06:55:17Z</time>
      </trkpt>
      <trkpt lat="44.55154" lon="4.42023">
        <ele>238.2</ele>
        <time>2022-06-05T06:55:18Z</time>
      </trkpt>
      <trkpt lat="44.55156" lon="4.42025">
        <ele>238.6</ele>
        <time>2022-06-05T06:55:19Z</time>
      </trkpt>
      <trkpt lat="44.55158" lon="4.42027">
        <ele>239</ele>
        <time>2022-06-05T06:55:20Z</time>
      </trkpt>
      <trkpt lat="44.5516" lon="4.42029">
        <ele>239.6</ele>
        <time>2022-06-05T06:55:21Z</time>
      </trkpt>
      <trkpt lat="44.55163" lon="4.42031">
        <ele>239.6</ele>
        <time>2022-06-05T06:55:22Z</time>
      </trkpt>
      <trkpt lat="44.55176" lon="4.42044">
        <ele>239.6</ele>
        <time>2022-06-05T06:55:29Z</time>
      </trkpt>
      <trkpt lat="44.55187" lon="4.42063">
        <ele>239.6</ele>
        <time>2022-06-05T06:55:36Z</time>
      </trkpt>
      <trkpt lat="44.55197" lon="4.42083">
        <ele>239.6</ele>
        <time>2022-06-05T06:55:43Z</time>
      </trkpt>
      <trkpt lat="44.55201" lon="4.42089">
        <ele>239.6</ele>
        <time>2022-06-05T06:55:46Z</time>
      </trkpt>
      <trkpt lat="44.55205" lon="4.42092">
        <ele>239.6</ele>
        <time>2022-06-05T06:56:28Z</time>
      </trkpt>
      <trkpt lat="44.55207" lon="4.42091">
        <ele>239.6</ele>
        <time>2022-06-05T06:56:29Z</time>
      </trkpt>
      <trkpt lat="44.55214" lon="4.42086">
        <ele>239.6</ele>
        <time>2022-06-05T06:56:32Z</time>
      </trkpt>
      <trkpt lat="44.5522" lon="4.42081">
        <ele>239.6</ele>
        <time>2022-06-05T06:56:36Z</time>
      </trkpt>
      <trkpt lat="44.55238" lon="4.42054">
        <ele>239.6</ele>
        <time>2022-06-05T06:56:44Z</time>
      </trkpt>
      <trkpt lat="44.55254" lon="4.42022">
        <ele>239.6</ele>
        <time>2022-06-05T06:56:51Z</time>
      </trkpt>
      <trkpt lat="44.55267" lon="4.42001">
        <ele>239.6</ele>
        <time>2022-06-05T06:56:57Z</time>
      </trkpt>
      <trkpt lat="44.55285" lon="4.41988">
        <ele>239.6</ele>
        <time>2022-06-05T06:57:03Z</time>
      </trkpt>
      <trkpt lat="44.55301" lon="4.41979">
        <ele>239.6</ele>
        <time>2022-06-05T06:57:09Z</time>
      </trkpt>
      <trkpt lat="44.5532" lon="4.41966">
        <ele>239.6</ele>
        <time>2022-06-05T06:57:17Z</time>
      </trkpt>
      <trkpt lat="44.55348" lon="4.41951">
        <ele>239.6</ele>
        <time>2022-06-05T06:57:26Z</time>
      </trkpt>
      <trkpt lat="44.55371" lon="4.41936">
        <ele>239.6</ele>
        <time>2022-06-05T06:57:35Z</time>
      </trkpt>
      <trkpt lat="44.5539" lon="4.41922">
        <ele>239.6</ele>
        <time>2022-06-05T06:57:43Z</time>
      </trkpt>
      <trkpt lat="44.55394" lon="4.41919">
        <ele>240</ele>
        <time>2022-06-05T06:57:45Z</time>
      </trkpt>
      <trkpt lat="44.55395" lon="4.41918">
        <ele>240.4</ele>
        <time>2022-06-05T06:57:46Z</time>
      </trkpt>
      <trkpt lat="44.55397" lon="4.41918">
        <ele>240.8</ele>
        <time>2022-06-05T06:57:47Z</time>
      </trkpt>
      <trkpt lat="44.55398" lon="4.41917">
        <ele>241.2</ele>
        <time>2022-06-05T06:57:48Z</time>
      </trkpt>
      <trkpt lat="44.55399" lon="4.41916">
        <ele>241.6</ele>
        <time>2022-06-05T06:57:49Z</time>
      </trkpt>
      <trkpt lat="44.554" lon="4.41914">
        <ele>241.6</ele>
        <time>2022-06-05T06:57:50Z</time>
      </trkpt>
      <trkpt lat="44.55406" lon="4.41897">
        <ele>241.6</ele>
        <time>2022-06-05T06:57:58Z</time>
      </trkpt>
      <trkpt lat="44.55415" lon="4.41875">
        <ele>241.6</ele>
        <time>2022-06-05T06:58:05Z</time>
      </trkpt>
      <trkpt lat="44.55417" lon="4.41872">
        <ele>241.6</ele>
        <time>2022-06-05T06:58:06Z</time>
      </trkpt>
      <trkpt lat="44.55418" lon="4.41869">
        <ele>241.6</ele>
        <time>2022-06-05T06:58:07Z</time>
      </trkpt>
      <trkpt lat="44.55424" lon="4.41859">
        <ele>242</ele>
        <time>2022-06-05T06:58:11Z</time>
      </trkpt>
      <trkpt lat="44.55425" lon="4.41857">
        <ele>242.4</ele>
        <time>2022-06-05T06:58:12Z</time>
      </trkpt>
      <trkpt lat="44.55426" lon="4.41855">
        <ele>242.8</ele>
        <time>2022-06-05T06:58:13Z</time>
      </trkpt>
      <trkpt lat="44.55427" lon="4.41853">
        <ele>243.2</ele>
        <time>2022-06-05T06:58:14Z</time>
      </trkpt>
      <trkpt lat="44.55427" lon="4.4185">
        <ele>243.6</ele>
        <time>2022-06-05T06:58:15Z</time>
      </trkpt>
      <trkpt lat="44.55428" lon="4.4184">
        <ele>243.6</ele>
        <time>2022-06-05T06:58:19Z</time>
      </trkpt>
      <trkpt lat="44.55435" lon="4.41819">
        <ele>243.6</ele>
        <time>2022-06-05T06:58:26Z</time>
      </trkpt>
      <trkpt lat="44.55438" lon="4.41812">
        <ele>243.6</ele>
        <time>2022-06-05T06:58:29Z</time>
      </trkpt>
      <trkpt lat="44.55455" lon="4.41781">
        <ele>244</ele>
        <time>2022-06-05T06:58:40Z</time>
      </trkpt>
      <trkpt lat="44.55457" lon="4.41779">
        <ele>244.8</ele>
        <time>2022-06-05T06:58:41Z</time>
      </trkpt>
      <trkpt lat="44.55459" lon="4.41776">
        <ele>245.2</ele>
        <time>2022-06-05T06:58:42Z</time>
      </trkpt>
      <trkpt lat="44.5546" lon="4.41775">
        <ele>245.6</ele>
        <time>2022-06-05T06:58:43Z</time>
      </trkpt>
      <trkpt lat="44.55473" lon="4.41759">
        <ele>245.6</ele>
        <time>2022-06-05T06:58:51Z</time>
      </trkpt>
      <trkpt lat="44.55477" lon="4.41753">
        <ele>245.6</ele>
        <time>2022-06-05T06:58:54Z</time>
      </trkpt>
      <trkpt lat="44.55488" lon="4.41734">
        <ele>245.6</ele>
        <time>2022-06-05T06:59:27Z</time>
      </trkpt>
      <trkpt lat="44.55494" lon="4.41725">
        <ele>245.6</ele>
        <time>2022-06-05T06:59:30Z</time>
      </trkpt>
      <trkpt lat="44.55506" lon="4.41706">
        <ele>245.6</ele>
        <time>2022-06-05T06:59:39Z</time>
      </trkpt>
      <trkpt lat="44.55507" lon="4.41704">
        <ele>245.6</ele>
        <time>2022-06-05T06:59:40Z</time>
      </trkpt>
      <trkpt lat="44.55511" lon="4.41683">
        <ele>245.6</ele>
        <time>2022-06-05T06:59:48Z</time>
      </trkpt>
      <trkpt lat="44.55517" lon="4.41671">
        <ele>246</ele>
        <time>2022-06-05T06:59:52Z</time>
      </trkpt>
      <trkpt lat="44.55521" lon="4.41665">
        <ele>246.8</ele>
        <time>2022-06-05T06:59:54Z</time>
      </trkpt>
      <trkpt lat="44.55523" lon="4.41662">
        <ele>247.8</ele>
        <time>2022-06-05T06:59:55Z</time>
      </trkpt>
      <trkpt lat="44.55526" lon="4.4165">
        <ele>247.8</ele>
        <time>2022-06-05T07:00:00Z</time>
      </trkpt>
      <trkpt lat="44.55528" lon="4.41644">
        <ele>247.8</ele>
        <time>2022-06-05T07:00:02Z</time>
      </trkpt>
      <trkpt lat="44.55533" lon="4.41635">
        <ele>248.2</ele>
        <time>2022-06-05T07:00:04Z</time>
      </trkpt>
      <trkpt lat="44.55536" lon="4.41632">
        <ele>248.6</ele>
        <time>2022-06-05T07:00:05Z</time>
      </trkpt>
      <trkpt lat="44.55538" lon="4.41629">
        <ele>249</ele>
        <time>2022-06-05T07:00:06Z</time>
      </trkpt>
      <trkpt lat="44.55542" lon="4.41627">
        <ele>249.4</ele>
        <time>2022-06-05T07:00:07Z</time>
      </trkpt>
      <trkpt lat="44.55545" lon="4.41626">
        <ele>249.8</ele>
        <time>2022-06-05T07:00:08Z</time>
      </trkpt>
      <trkpt lat="44.5555" lon="4.41625">
        <ele>249.8</ele>
        <time>2022-06-05T07:00:10Z</time>
      </trkpt>
      <trkpt lat="44.55556" lon="4.41624">
        <ele>249.8</ele>
        <time>2022-06-05T07:00:13Z</time>
      </trkpt>
      <trkpt lat="44.5556" lon="4.41622">
        <ele>250.4</ele>
        <time>2022-06-05T07:00:15Z</time>
      </trkpt>
      <trkpt lat="44.55563" lon="4.41621">
        <ele>250.8</ele>
        <time>2022-06-05T07:00:16Z</time>
      </trkpt>
      <trkpt lat="44.55565" lon="4.4162">
        <ele>251.2</ele>
        <time>2022-06-05T07:00:17Z</time>
      </trkpt>
      <trkpt lat="44.55567" lon="4.41619">
        <ele>251.8</ele>
        <time>2022-06-05T07:00:18Z</time>
      </trkpt>
      <trkpt lat="44.55569" lon="4.41618">
        <ele>252.2</ele>
        <time>2022-06-05T07:00:19Z</time>
      </trkpt>
      <trkpt lat="44.55572" lon="4.41615">
        <ele>252.2</ele>
        <time>2022-06-05T07:00:21Z</time>
      </trkpt>
      <trkpt lat="44.55586" lon="4.41611">
        <ele>252.2</ele>
        <time>2022-06-05T07:00:27Z</time>
      </trkpt>
      <trkpt lat="44.55607" lon="4.41614">
        <ele>252.2</ele>
        <time>2022-06-05T07:00:34Z</time>
      </trkpt>
      <trkpt lat="44.55622" lon="4.41608">
        <ele>252.2</ele>
        <time>2022-06-05T07:00:42Z</time>
      </trkpt>
      <trkpt lat="44.55625" lon="4.41607">
        <ele>252.2</ele>
        <time>2022-06-05T07:00:43Z</time>
      </trkpt>
      <trkpt lat="44.55634" lon="4.41609">
        <ele>252.2</ele>
        <time>2022-06-05T07:00:46Z</time>
      </trkpt>
      <trkpt lat="44.55637" lon="4.41611">
        <ele>252.2</ele>
        <time>2022-06-05T07:00:47Z</time>
      </trkpt>
      <trkpt lat="44.55647" lon="4.41623">
        <ele>252.2</ele>
        <time>2022-06-05T07:00:53Z</time>
      </trkpt>
      <trkpt lat="44.55649" lon="4.41625">
        <ele>252.6</ele>
        <time>2022-06-05T07:00:54Z</time>
      </trkpt>
      <trkpt lat="44.55651" lon="4.41626">
        <ele>253</ele>
        <time>2022-06-05T07:00:55Z</time>
      </trkpt>
      <trkpt lat="44.55653" lon="4.41628">
        <ele>253.4</ele>
        <time>2022-06-05T07:00:56Z</time>
      </trkpt>
      <trkpt lat="44.55655" lon="4.4163">
        <ele>253.8</ele>
        <time>2022-06-05T07:00:57Z</time>
      </trkpt>
      <trkpt lat="44.55656" lon="4.41632">
        <ele>254.2</ele>
        <time>2022-06-05T07:00:58Z</time>
      </trkpt>
      <trkpt lat="44.5566" lon="4.41635">
        <ele>254.2</ele>
        <time>2022-06-05T07:01:00Z</time>
      </trkpt>
      <trkpt lat="44.55674" lon="4.41649">
        <ele>254.2</ele>
        <time>2022-06-05T07:01:08Z</time>
      </trkpt>
      <trkpt lat="44.55685" lon="4.41673">
        <ele>254.2</ele>
        <time>2022-06-05T07:01:16Z</time>
      </trkpt>
      <trkpt lat="44.55692" lon="4.41686">
        <ele>254.6</ele>
        <time>2022-06-05T07:01:20Z</time>
      </trkpt>
      <trkpt lat="44.55693" lon="4.41689">
        <ele>255</ele>
        <time>2022-06-05T07:01:21Z</time>
      </trkpt>
      <trkpt lat="44.55695" lon="4.41692">
        <ele>255.4</ele>
        <time>2022-06-05T07:01:22Z</time>
      </trkpt>
      <trkpt lat="44.55697" lon="4.41695">
        <ele>255.8</ele>
        <time>2022-06-05T07:01:23Z</time>
      </trkpt>
      <trkpt lat="44.55698" lon="4.41698">
        <ele>256.2</ele>
        <time>2022-06-05T07:01:24Z</time>
      </trkpt>
      <trkpt lat="44.55706" lon="4.41713">
        <ele>256.2</ele>
        <time>2022-06-05T07:01:31Z</time>
      </trkpt>
      <trkpt lat="44.55714" lon="4.41735">
        <ele>256.2</ele>
        <time>2022-06-05T07:01:39Z</time>
      </trkpt>
      <trkpt lat="44.55723" lon="4.41752">
        <ele>256.2</ele>
        <time>2022-06-05T07:01:45Z</time>
      </trkpt>
      <trkpt lat="44.55734" lon="4.41776">
        <ele>256.2</ele>
        <time>2022-06-05T07:01:52Z</time>
      </trkpt>
      <trkpt lat="44.55741" lon="4.41796">
        <ele>256.2</ele>
        <time>2022-06-05T07:01:58Z</time>
      </trkpt>
      <trkpt lat="44.55743" lon="4.41799">
        <ele>256.2</ele>
        <time>2022-06-05T07:01:59Z</time>
      </trkpt>
      <trkpt lat="44.5575" lon="4.41805">
        <ele>256.2</ele>
        <time>2022-06-05T07:02:02Z</time>
      </trkpt>
      <trkpt lat="44.55757" lon="4.41807">
        <ele>256.2</ele>
        <time>2022-06-05T07:02:05Z</time>
      </trkpt>
      <trkpt lat="44.5576" lon="4.41806">
        <ele>256.6</ele>
        <time>2022-06-05T07:02:06Z</time>
      </trkpt>
      <trkpt lat="44.55762" lon="4.41806">
        <ele>257</ele>
        <time>2022-06-05T07:02:07Z</time>
      </trkpt>
      <trkpt lat="44.55765" lon="4.41805">
        <ele>257.4</ele>
        <time>2022-06-05T07:02:08Z</time>
      </trkpt>
      <trkpt lat="44.55767" lon="4.41804">
        <ele>257.8</ele>
        <time>2022-06-05T07:02:09Z</time>
      </trkpt>
      <trkpt lat="44.5577" lon="4.41803">
        <ele>258.2</ele>
        <time>2022-06-05T07:02:10Z</time>
      </trkpt>
      <trkpt lat="44.55773" lon="4.41802">
        <ele>258.2</ele>
        <time>2022-06-05T07:02:11Z</time>
      </trkpt>
      <trkpt lat="44.55793" lon="4.41796">
        <ele>258.2</ele>
        <time>2022-06-05T07:02:18Z</time>
      </trkpt>
      <trkpt lat="44.55798" lon="4.41795">
        <ele>258.6</ele>
        <time>2022-06-05T07:02:20Z</time>
      </trkpt>
      <trkpt lat="44.558" lon="4.41795">
        <ele>259</ele>
        <time>2022-06-05T07:02:21Z</time>
      </trkpt>
      <trkpt lat="44.55803" lon="4.41794">
        <ele>259.4</ele>
        <time>2022-06-05T07:02:22Z</time>
      </trkpt>
      <trkpt lat="44.55806" lon="4.41794">
        <ele>259.8</ele>
        <time>2022-06-05T07:02:23Z</time>
      </trkpt>
      <trkpt lat="44.55809" lon="4.41794">
        <ele>260.4</ele>
        <time>2022-06-05T07:02:24Z</time>
      </trkpt>
      <trkpt lat="44.55815" lon="4.41796">
        <ele>260.4</ele>
        <time>2022-06-05T07:02:26Z</time>
      </trkpt>
      <trkpt lat="44.55832" lon="4.41799">
        <ele>260.4</ele>
        <time>2022-06-05T07:02:32Z</time>
      </trkpt>
      <trkpt lat="44.55851" lon="4.41795">
        <ele>260.4</ele>
        <time>2022-06-05T07:02:40Z</time>
      </trkpt>
      <trkpt lat="44.55867" lon="4.41798">
        <ele>260.8</ele>
        <time>2022-06-05T07:02:46Z</time>
      </trkpt>
      <trkpt lat="44.5587" lon="4.41799">
        <ele>261.2</ele>
        <time>2022-06-05T07:02:47Z</time>
      </trkpt>
      <trkpt lat="44.55872" lon="4.418">
        <ele>262</ele>
        <time>2022-06-05T07:02:48Z</time>
      </trkpt>
      <trkpt lat="44.55874" lon="4.41801">
        <ele>262.4</ele>
        <time>2022-06-05T07:02:49Z</time>
      </trkpt>
      <trkpt lat="44.55885" lon="4.41807">
        <ele>262.4</ele>
        <time>2022-06-05T07:02:54Z</time>
      </trkpt>
      <trkpt lat="44.55895" lon="4.41817">
        <ele>262.4</ele>
        <time>2022-06-05T07:02:59Z</time>
      </trkpt>
      <trkpt lat="44.55897" lon="4.41819">
        <ele>263</ele>
        <time>2022-06-05T07:03:00Z</time>
      </trkpt>
      <trkpt lat="44.55899" lon="4.4182">
        <ele>263.4</ele>
        <time>2022-06-05T07:03:01Z</time>
      </trkpt>
      <trkpt lat="44.55901" lon="4.41821">
        <ele>263.8</ele>
        <time>2022-06-05T07:03:02Z</time>
      </trkpt>
      <trkpt lat="44.55903" lon="4.41823">
        <ele>264.2</ele>
        <time>2022-06-05T07:03:03Z</time>
      </trkpt>
      <trkpt lat="44.55904" lon="4.41825">
        <ele>264.6</ele>
        <time>2022-06-05T07:03:04Z</time>
      </trkpt>
      <trkpt lat="44.55909" lon="4.41828">
        <ele>264.6</ele>
        <time>2022-06-05T07:03:06Z</time>
      </trkpt>
      <trkpt lat="44.55926" lon="4.41846">
        <ele>264.6</ele>
        <time>2022-06-05T07:03:15Z</time>
      </trkpt>
      <trkpt lat="44.55932" lon="4.41852">
        <ele>265</ele>
        <time>2022-06-05T07:03:18Z</time>
      </trkpt>
      <trkpt lat="44.55935" lon="4.41854">
        <ele>265.4</ele>
        <time>2022-06-05T07:03:19Z</time>
      </trkpt>
      <trkpt lat="44.55937" lon="4.41856">
        <ele>265.8</ele>
        <time>2022-06-05T07:03:20Z</time>
      </trkpt>
      <trkpt lat="44.55939" lon="4.41858">
        <ele>266.2</ele>
        <time>2022-06-05T07:03:21Z</time>
      </trkpt>
      <trkpt lat="44.55941" lon="4.4186">
        <ele>266.8</ele>
        <time>2022-06-05T07:03:22Z</time>
      </trkpt>
      <trkpt lat="44.55954" lon="4.41873">
        <ele>266.8</ele>
        <time>2022-06-05T07:03:28Z</time>
      </trkpt>
      <trkpt lat="44.55956" lon="4.41875">
        <ele>267.2</ele>
        <time>2022-06-05T07:03:29Z</time>
      </trkpt>
      <trkpt lat="44.55959" lon="4.41876">
        <ele>267.6</ele>
        <time>2022-06-05T07:03:30Z</time>
      </trkpt>
      <trkpt lat="44.55961" lon="4.41878">
        <ele>268</ele>
        <time>2022-06-05T07:03:31Z</time>
      </trkpt>
      <trkpt lat="44.55964" lon="4.41879">
        <ele>268.4</ele>
        <time>2022-06-05T07:03:32Z</time>
      </trkpt>
      <trkpt lat="44.55966" lon="4.4188">
        <ele>268.8</ele>
        <time>2022-06-05T07:03:33Z</time>
      </trkpt>
      <trkpt lat="44.5597" lon="4.41883">
        <ele>268.8</ele>
        <time>2022-06-05T07:03:35Z</time>
      </trkpt>
      <trkpt lat="44.55985" lon="4.41893">
        <ele>268.8</ele>
        <time>2022-06-05T07:03:42Z</time>
      </trkpt>
      <trkpt lat="44.55987" lon="4.41896">
        <ele>269.2</ele>
        <time>2022-06-05T07:03:43Z</time>
      </trkpt>
      <trkpt lat="44.55989" lon="4.41898">
        <ele>269.6</ele>
        <time>2022-06-05T07:03:44Z</time>
      </trkpt>
      <trkpt lat="44.5599" lon="4.41901">
        <ele>270</ele>
        <time>2022-06-05T07:03:45Z</time>
      </trkpt>
      <trkpt lat="44.55992" lon="4.41904">
        <ele>270.4</ele>
        <time>2022-06-05T07:03:46Z</time>
      </trkpt>
      <trkpt lat="44.55993" lon="4.41906">
        <ele>270.8</ele>
        <time>2022-06-05T07:03:47Z</time>
      </trkpt>
      <trkpt lat="44.55995" lon="4.41908">
        <ele>270.8</ele>
        <time>2022-06-05T07:03:48Z</time>
      </trkpt>
      <trkpt lat="44.56004" lon="4.41923">
        <ele>271.4</ele>
        <time>2022-06-05T07:03:53Z</time>
      </trkpt>
      <trkpt lat="44.56006" lon="4.41926">
        <ele>271.8</ele>
        <time>2022-06-05T07:03:54Z</time>
      </trkpt>
      <trkpt lat="44.56008" lon="4.41928">
        <ele>272.2</ele>
        <time>2022-06-05T07:03:55Z</time>
      </trkpt>
      <trkpt lat="44.5601" lon="4.4193">
        <ele>272.8</ele>
        <time>2022-06-05T07:03:56Z</time>
      </trkpt>
      <trkpt lat="44.56012" lon="4.41933">
        <ele>273.2</ele>
        <time>2022-06-05T07:03:57Z</time>
      </trkpt>
      <trkpt lat="44.56015" lon="4.41938">
        <ele>273.2</ele>
        <time>2022-06-05T07:03:59Z</time>
      </trkpt>
      <trkpt lat="44.56024" lon="4.41957">
        <ele>273.6</ele>
        <time>2022-06-05T07:04:05Z</time>
      </trkpt>
      <trkpt lat="44.56026" lon="4.4196">
        <ele>274</ele>
        <time>2022-06-05T07:04:06Z</time>
      </trkpt>
      <trkpt lat="44.56027" lon="4.41962">
        <ele>274.4</ele>
        <time>2022-06-05T07:04:07Z</time>
      </trkpt>
      <trkpt lat="44.56029" lon="4.41965">
        <ele>274.8</ele>
        <time>2022-06-05T07:04:08Z</time>
      </trkpt>
      <trkpt lat="44.56031" lon="4.41969">
        <ele>275.2</ele>
        <time>2022-06-05T07:04:09Z</time>
      </trkpt>
      <trkpt lat="44.56038" lon="4.41979">
        <ele>275.6</ele>
        <time>2022-06-05T07:04:13Z</time>
      </trkpt>
      <trkpt lat="44.5604" lon="4.41982">
        <ele>276</ele>
        <time>2022-06-05T07:04:14Z</time>
      </trkpt>
      <trkpt lat="44.56042" lon="4.41984">
        <ele>276.4</ele>
        <time>2022-06-05T07:04:15Z</time>
      </trkpt>
      <trkpt lat="44.56044" lon="4.41988">
        <ele>277</ele>
        <time>2022-06-05T07:04:16Z</time>
      </trkpt>
      <trkpt lat="44.56045" lon="4.41991">
        <ele>277.4</ele>
        <time>2022-06-05T07:04:17Z</time>
      </trkpt>
      <trkpt lat="44.56049" lon="4.42005">
        <ele>277.4</ele>
        <time>2022-06-05T07:04:21Z</time>
      </trkpt>
      <trkpt lat="44.56054" lon="4.42027">
        <ele>277.4</ele>
        <time>2022-06-05T07:04:28Z</time>
      </trkpt>
      <trkpt lat="44.5606" lon="4.42044">
        <ele>277.4</ele>
        <time>2022-06-05T07:04:35Z</time>
      </trkpt>
      <trkpt lat="44.56062" lon="4.42051">
        <ele>277.4</ele>
        <time>2022-06-05T07:05:49Z</time>
      </trkpt>
      <trkpt lat="44.56066" lon="4.42071">
        <ele>277.4</ele>
        <time>2022-06-05T07:05:54Z</time>
      </trkpt>
      <trkpt lat="44.56071" lon="4.42103">
        <ele>277.4</ele>
        <time>2022-06-05T07:06:01Z</time>
      </trkpt>
      <trkpt lat="44.56079" lon="4.42122">
        <ele>277.4</ele>
        <time>2022-06-05T07:06:07Z</time>
      </trkpt>
      <trkpt lat="44.56081" lon="4.42133">
        <ele>277.8</ele>
        <time>2022-06-05T07:06:10Z</time>
      </trkpt>
      <trkpt lat="44.56082" lon="4.42137">
        <ele>278.2</ele>
        <time>2022-06-05T07:06:11Z</time>
      </trkpt>
      <trkpt lat="44.56083" lon="4.4214">
        <ele>278.6</ele>
        <time>2022-06-05T07:06:12Z</time>
      </trkpt>
      <trkpt lat="44.56085" lon="4.42143">
        <ele>279</ele>
        <time>2022-06-05T07:06:13Z</time>
      </trkpt>
      <trkpt lat="44.56086" lon="4.42146">
        <ele>279.4</ele>
        <time>2022-06-05T07:06:14Z</time>
      </trkpt>
      <trkpt lat="44.56101" lon="4.42168">
        <ele>279.4</ele>
        <time>2022-06-05T07:06:21Z</time>
      </trkpt>
      <trkpt lat="44.56114" lon="4.42189">
        <ele>279.8</ele>
        <time>2022-06-05T07:06:28Z</time>
      </trkpt>
      <trkpt lat="44.56116" lon="4.42192">
        <ele>280.4</ele>
        <time>2022-06-05T07:06:29Z</time>
      </trkpt>
      <trkpt lat="44.56117" lon="4.42196">
        <ele>280.8</ele>
        <time>2022-06-05T07:06:30Z</time>
      </trkpt>
      <trkpt lat="44.56118" lon="4.42199">
        <ele>281.6</ele>
        <time>2022-06-05T07:06:31Z</time>
      </trkpt>
      <trkpt lat="44.56133" lon="4.42227">
        <ele>281.6</ele>
        <time>2022-06-05T07:06:39Z</time>
      </trkpt>
      <trkpt lat="44.56146" lon="4.42256">
        <ele>281.6</ele>
        <time>2022-06-05T07:06:47Z</time>
      </trkpt>
      <trkpt lat="44.56144" lon="4.42279">
        <ele>281.6</ele>
        <time>2022-06-05T07:06:52Z</time>
      </trkpt>
      <trkpt lat="44.56143" lon="4.42284">
        <ele>282</ele>
        <time>2022-06-05T07:06:53Z</time>
      </trkpt>
      <trkpt lat="44.56142" lon="4.42287">
        <ele>282.4</ele>
        <time>2022-06-05T07:06:54Z</time>
      </trkpt>
      <trkpt lat="44.56141" lon="4.4229">
        <ele>282.8</ele>
        <time>2022-06-05T07:06:55Z</time>
      </trkpt>
      <trkpt lat="44.56139" lon="4.42292">
        <ele>283.6</ele>
        <time>2022-06-05T07:06:56Z</time>
      </trkpt>
      <trkpt lat="44.56138" lon="4.42295">
        <ele>283.6</ele>
        <time>2022-06-05T07:06:57Z</time>
      </trkpt>
      <trkpt lat="44.56134" lon="4.42301">
        <ele>283.6</ele>
        <time>2022-06-05T07:06:59Z</time>
      </trkpt>
      <trkpt lat="44.56128" lon="4.4231">
        <ele>284</ele>
        <time>2022-06-05T07:07:03Z</time>
      </trkpt>
      <trkpt lat="44.56126" lon="4.42313">
        <ele>284.4</ele>
        <time>2022-06-05T07:07:04Z</time>
      </trkpt>
      <trkpt lat="44.56125" lon="4.42316">
        <ele>284.8</ele>
        <time>2022-06-05T07:07:05Z</time>
      </trkpt>
      <trkpt lat="44.56123" lon="4.42319">
        <ele>285.2</ele>
        <time>2022-06-05T07:07:06Z</time>
      </trkpt>
      <trkpt lat="44.56122" lon="4.42322">
        <ele>285.6</ele>
        <time>2022-06-05T07:07:07Z</time>
      </trkpt>
      <trkpt lat="44.56112" lon="4.42332">
        <ele>285.6</ele>
        <time>2022-06-05T07:07:12Z</time>
      </trkpt>
      <trkpt lat="44.56102" lon="4.42326">
        <ele>285.6</ele>
        <time>2022-06-05T07:07:17Z</time>
      </trkpt>
      <trkpt lat="44.56083" lon="4.42325">
        <ele>285.6</ele>
        <time>2022-06-05T07:07:23Z</time>
      </trkpt>
      <trkpt lat="44.56067" lon="4.42328">
        <ele>285.6</ele>
        <time>2022-06-05T07:07:29Z</time>
      </trkpt>
      <trkpt lat="44.56059" lon="4.42331">
        <ele>285.2</ele>
        <time>2022-06-05T07:07:32Z</time>
      </trkpt>
      <trkpt lat="44.56057" lon="4.42332">
        <ele>284.6</ele>
        <time>2022-06-05T07:07:33Z</time>
      </trkpt>
      <trkpt lat="44.56054" lon="4.42333">
        <ele>284.2</ele>
        <time>2022-06-05T07:07:34Z</time>
      </trkpt>
      <trkpt lat="44.56051" lon="4.42334">
        <ele>283.8</ele>
        <time>2022-06-05T07:07:35Z</time>
      </trkpt>
      <trkpt lat="44.56049" lon="4.42335">
        <ele>283.2</ele>
        <time>2022-06-05T07:07:36Z</time>
      </trkpt>
      <trkpt lat="44.56046" lon="4.42337">
        <ele>282.8</ele>
        <time>2022-06-05T07:07:37Z</time>
      </trkpt>
      <trkpt lat="44.56043" lon="4.42339">
        <ele>282.4</ele>
        <time>2022-06-05T07:07:38Z</time>
      </trkpt>
      <trkpt lat="44.5604" lon="4.42341">
        <ele>282</ele>
        <time>2022-06-05T07:07:39Z</time>
      </trkpt>
      <trkpt lat="44.56037" lon="4.42344">
        <ele>281.6</ele>
        <time>2022-06-05T07:07:40Z</time>
      </trkpt>
      <trkpt lat="44.56034" lon="4.42347">
        <ele>281.2</ele>
        <time>2022-06-05T07:07:41Z</time>
      </trkpt>
      <trkpt lat="44.56032" lon="4.4235">
        <ele>280.8</ele>
        <time>2022-06-05T07:07:42Z</time>
      </trkpt>
      <trkpt lat="44.5603" lon="4.42353">
        <ele>280.4</ele>
        <time>2022-06-05T07:07:43Z</time>
      </trkpt>
      <trkpt lat="44.56029" lon="4.42356">
        <ele>280</ele>
        <time>2022-06-05T07:07:44Z</time>
      </trkpt>
      <trkpt lat="44.56027" lon="4.4236">
        <ele>279</ele>
        <time>2022-06-05T07:07:45Z</time>
      </trkpt>
      <trkpt lat="44.56026" lon="4.42364">
        <ele>278.6</ele>
        <time>2022-06-05T07:07:46Z</time>
      </trkpt>
      <trkpt lat="44.56024" lon="4.42369">
        <ele>278</ele>
        <time>2022-06-05T07:07:47Z</time>
      </trkpt>
      <trkpt lat="44.56023" lon="4.42373">
        <ele>277.6</ele>
        <time>2022-06-05T07:07:48Z</time>
      </trkpt>
      <trkpt lat="44.56021" lon="4.42377">
        <ele>277</ele>
        <time>2022-06-05T07:07:49Z</time>
      </trkpt>
      <trkpt lat="44.56019" lon="4.42386">
        <ele>276.6</ele>
        <time>2022-06-05T07:07:51Z</time>
      </trkpt>
      <trkpt lat="44.56018" lon="4.42391">
        <ele>276</ele>
        <time>2022-06-05T07:07:52Z</time>
      </trkpt>
      <trkpt lat="44.56017" lon="4.42396">
        <ele>275.6</ele>
        <time>2022-06-05T07:07:53Z</time>
      </trkpt>
      <trkpt lat="44.56016" lon="4.42401">
        <ele>275.2</ele>
        <time>2022-06-05T07:07:54Z</time>
      </trkpt>
      <trkpt lat="44.56015" lon="4.42406">
        <ele>274.6</ele>
        <time>2022-06-05T07:07:55Z</time>
      </trkpt>
      <trkpt lat="44.56008" lon="4.42419">
        <ele>274.6</ele>
        <time>2022-06-05T07:07:59Z</time>
      </trkpt>
      <trkpt lat="44.55993" lon="4.42436">
        <ele>274.6</ele>
        <time>2022-06-05T07:08:05Z</time>
      </trkpt>
      <trkpt lat="44.55976" lon="4.42448">
        <ele>274.6</ele>
        <time>2022-06-05T07:08:11Z</time>
      </trkpt>
      <trkpt lat="44.55952" lon="4.42458">
        <ele>274.2</ele>
        <time>2022-06-05T07:08:18Z</time>
      </trkpt>
      <trkpt lat="44.55949" lon="4.42459">
        <ele>273.8</ele>
        <time>2022-06-05T07:08:19Z</time>
      </trkpt>
      <trkpt lat="44.55945" lon="4.42462">
        <ele>273.2</ele>
        <time>2022-06-05T07:08:20Z</time>
      </trkpt>
      <trkpt lat="44.55941" lon="4.42465">
        <ele>272.8</ele>
        <time>2022-06-05T07:08:21Z</time>
      </trkpt>
      <trkpt lat="44.55937" lon="4.42468">
        <ele>272.4</ele>
        <time>2022-06-05T07:08:22Z</time>
      </trkpt>
      <trkpt lat="44.5593" lon="4.42475">
        <ele>272.4</ele>
        <time>2022-06-05T07:08:24Z</time>
      </trkpt>
      <trkpt lat="44.55924" lon="4.4248">
        <ele>272</ele>
        <time>2022-06-05T07:08:26Z</time>
      </trkpt>
      <trkpt lat="44.5592" lon="4.42484">
        <ele>271.6</ele>
        <time>2022-06-05T07:08:27Z</time>
      </trkpt>
      <trkpt lat="44.55918" lon="4.42489">
        <ele>271</ele>
        <time>2022-06-05T07:08:28Z</time>
      </trkpt>
      <trkpt lat="44.55916" lon="4.42494">
        <ele>270.6</ele>
        <time>2022-06-05T07:08:29Z</time>
      </trkpt>
      <trkpt lat="44.55914" lon="4.42499">
        <ele>270.2</ele>
        <time>2022-06-05T07:08:30Z</time>
      </trkpt>
      <trkpt lat="44.55911" lon="4.42523">
        <ele>269.8</ele>
        <time>2022-06-05T07:08:34Z</time>
      </trkpt>
      <trkpt lat="44.55911" lon="4.42528">
        <ele>269.4</ele>
        <time>2022-06-05T07:08:35Z</time>
      </trkpt>
      <trkpt lat="44.5591" lon="4.42534">
        <ele>269</ele>
        <time>2022-06-05T07:08:36Z</time>
      </trkpt>
      <trkpt lat="44.5591" lon="4.4254">
        <ele>268.6</ele>
        <time>2022-06-05T07:08:37Z</time>
      </trkpt>
      <trkpt lat="44.5591" lon="4.42546">
        <ele>268.2</ele>
        <time>2022-06-05T07:08:38Z</time>
      </trkpt>
      <trkpt lat="44.55909" lon="4.42563">
        <ele>268.2</ele>
        <time>2022-06-05T07:08:41Z</time>
      </trkpt>
      <trkpt lat="44.55901" lon="4.42603">
        <ele>267.8</ele>
        <time>2022-06-05T07:08:48Z</time>
      </trkpt>
      <trkpt lat="44.55899" lon="4.42608">
        <ele>267.4</ele>
        <time>2022-06-05T07:08:49Z</time>
      </trkpt>
      <trkpt lat="44.55898" lon="4.42613">
        <ele>267</ele>
        <time>2022-06-05T07:08:50Z</time>
      </trkpt>
      <trkpt lat="44.55896" lon="4.42617">
        <ele>266.6</ele>
        <time>2022-06-05T07:08:51Z</time>
      </trkpt>
      <trkpt lat="44.55894" lon="4.42622">
        <ele>266</ele>
        <time>2022-06-05T07:08:52Z</time>
      </trkpt>
      <trkpt lat="44.55888" lon="4.42634">
        <ele>265.6</ele>
        <time>2022-06-05T07:08:55Z</time>
      </trkpt>
      <trkpt lat="44.55887" lon="4.42639">
        <ele>265.2</ele>
        <time>2022-06-05T07:08:56Z</time>
      </trkpt>
      <trkpt lat="44.55884" lon="4.42644">
        <ele>264.8</ele>
        <time>2022-06-05T07:08:57Z</time>
      </trkpt>
      <trkpt lat="44.55883" lon="4.42648">
        <ele>264.4</ele>
        <time>2022-06-05T07:08:58Z</time>
      </trkpt>
      <trkpt lat="44.5588" lon="4.42653">
        <ele>264</ele>
        <time>2022-06-05T07:08:59Z</time>
      </trkpt>
      <trkpt lat="44.55871" lon="4.42672">
        <ele>263.6</ele>
        <time>2022-06-05T07:09:03Z</time>
      </trkpt>
      <trkpt lat="44.55868" lon="4.42676">
        <ele>263.2</ele>
        <time>2022-06-05T07:09:04Z</time>
      </trkpt>
      <trkpt lat="44.55866" lon="4.42679">
        <ele>262.8</ele>
        <time>2022-06-05T07:09:05Z</time>
      </trkpt>
      <trkpt lat="44.55863" lon="4.42683">
        <ele>262.2</ele>
        <time>2022-06-05T07:09:06Z</time>
      </trkpt>
      <trkpt lat="44.55861" lon="4.42686">
        <ele>261.8</ele>
        <time>2022-06-05T07:09:07Z</time>
      </trkpt>
      <trkpt lat="44.55854" lon="4.42694">
        <ele>261.4</ele>
        <time>2022-06-05T07:09:10Z</time>
      </trkpt>
      <trkpt lat="44.55851" lon="4.42697">
        <ele>261</ele>
        <time>2022-06-05T07:09:11Z</time>
      </trkpt>
      <trkpt lat="44.55849" lon="4.427">
        <ele>260.4</ele>
        <time>2022-06-05T07:09:12Z</time>
      </trkpt>
      <trkpt lat="44.55847" lon="4.42704">
        <ele>260</ele>
        <time>2022-06-05T07:09:13Z</time>
      </trkpt>
      <trkpt lat="44.55844" lon="4.42709">
        <ele>259.6</ele>
        <time>2022-06-05T07:09:14Z</time>
      </trkpt>
      <trkpt lat="44.55834" lon="4.42728">
        <ele>259.6</ele>
        <time>2022-06-05T07:09:18Z</time>
      </trkpt>
      <trkpt lat="44.55828" lon="4.42741">
        <ele>259.2</ele>
        <time>2022-06-05T07:09:20Z</time>
      </trkpt>
      <trkpt lat="44.55824" lon="4.42748">
        <ele>258.8</ele>
        <time>2022-06-05T07:09:21Z</time>
      </trkpt>
      <trkpt lat="44.55822" lon="4.42754">
        <ele>258.4</ele>
        <time>2022-06-05T07:09:22Z</time>
      </trkpt>
      <trkpt lat="44.55819" lon="4.4276">
        <ele>257.6</ele>
        <time>2022-06-05T07:09:23Z</time>
      </trkpt>
      <trkpt lat="44.55815" lon="4.42766">
        <ele>257.6</ele>
        <time>2022-06-05T07:09:24Z</time>
      </trkpt>
      <trkpt lat="44.55805" lon="4.42777">
        <ele>257.6</ele>
        <time>2022-06-05T07:09:27Z</time>
      </trkpt>
      <trkpt lat="44.55797" lon="4.42782">
        <ele>257.6</ele>
        <time>2022-06-05T07:09:29Z</time>
      </trkpt>
      <trkpt lat="44.55785" lon="4.42798">
        <ele>257.6</ele>
        <time>2022-06-05T07:09:34Z</time>
      </trkpt>
      <trkpt lat="44.5577" lon="4.42825">
        <ele>257.2</ele>
        <time>2022-06-05T07:09:40Z</time>
      </trkpt>
      <trkpt lat="44.55768" lon="4.4283">
        <ele>256.8</ele>
        <time>2022-06-05T07:09:41Z</time>
      </trkpt>
      <trkpt lat="44.55765" lon="4.42834">
        <ele>256.2</ele>
        <time>2022-06-05T07:09:42Z</time>
      </trkpt>
      <trkpt lat="44.55763" lon="4.42838">
        <ele>255.8</ele>
        <time>2022-06-05T07:09:43Z</time>
      </trkpt>
      <trkpt lat="44.55761" lon="4.42842">
        <ele>255.4</ele>
        <time>2022-06-05T07:09:44Z</time>
      </trkpt>
      <trkpt lat="44.5575" lon="4.42862">
        <ele>255.4</ele>
        <time>2022-06-05T07:09:49Z</time>
      </trkpt>
      <trkpt lat="44.55739" lon="4.42887">
        <ele>255.4</ele>
        <time>2022-06-05T07:09:56Z</time>
      </trkpt>
      <trkpt lat="44.55725" lon="4.42923">
        <ele>255.4</ele>
        <time>2022-06-05T07:10:05Z</time>
      </trkpt>
      <trkpt lat="44.55712" lon="4.42958">
        <ele>255.4</ele>
        <time>2022-06-05T07:10:13Z</time>
      </trkpt>
      <trkpt lat="44.55698" lon="4.42996">
        <ele>255.4</ele>
        <time>2022-06-05T07:10:20Z</time>
      </trkpt>
      <trkpt lat="44.55687" lon="4.43032">
        <ele>255.4</ele>
        <time>2022-06-05T07:10:26Z</time>
      </trkpt>
      <trkpt lat="44.55685" lon="4.4307">
        <ele>255</ele>
        <time>2022-06-05T07:10:32Z</time>
      </trkpt>
      <trkpt lat="44.55685" lon="4.43076">
        <ele>254.6</ele>
        <time>2022-06-05T07:10:33Z</time>
      </trkpt>
      <trkpt lat="44.55685" lon="4.4308">
        <ele>254.2</ele>
        <time>2022-06-05T07:10:34Z</time>
      </trkpt>
      <trkpt lat="44.55684" lon="4.43084">
        <ele>253.8</ele>
        <time>2022-06-05T07:10:35Z</time>
      </trkpt>
      <trkpt lat="44.55683" lon="4.43088">
        <ele>253.4</ele>
        <time>2022-06-05T07:10:36Z</time>
      </trkpt>
      <trkpt lat="44.55682" lon="4.43092">
        <ele>253.4</ele>
        <time>2022-06-05T07:10:37Z</time>
      </trkpt>
      <trkpt lat="44.55682" lon="4.43097">
        <ele>252.8</ele>
        <time>2022-06-05T07:10:38Z</time>
      </trkpt>
      <trkpt lat="44.55681" lon="4.43101">
        <ele>252.4</ele>
        <time>2022-06-05T07:10:39Z</time>
      </trkpt>
      <trkpt lat="44.55681" lon="4.43105">
        <ele>252</ele>
        <time>2022-06-05T07:10:40Z</time>
      </trkpt>
      <trkpt lat="44.5568" lon="4.43109">
        <ele>251.4</ele>
        <time>2022-06-05T07:10:41Z</time>
      </trkpt>
      <trkpt lat="44.55679" lon="4.43112">
        <ele>251</ele>
        <time>2022-06-05T07:10:42Z</time>
      </trkpt>
      <trkpt lat="44.55677" lon="4.4312">
        <ele>251</ele>
        <time>2022-06-05T07:10:44Z</time>
      </trkpt>
      <trkpt lat="44.5567" lon="4.43139">
        <ele>250.6</ele>
        <time>2022-06-05T07:10:48Z</time>
      </trkpt>
      <trkpt lat="44.55668" lon="4.43146">
        <ele>250.2</ele>
        <time>2022-06-05T07:10:49Z</time>
      </trkpt>
      <trkpt lat="44.55666" lon="4.43152">
        <ele>249.8</ele>
        <time>2022-06-05T07:10:50Z</time>
      </trkpt>
      <trkpt lat="44.55664" lon="4.43159">
        <ele>249.2</ele>
        <time>2022-06-05T07:10:51Z</time>
      </trkpt>
      <trkpt lat="44.55662" lon="4.43166">
        <ele>248.8</ele>
        <time>2022-06-05T07:10:52Z</time>
      </trkpt>
      <trkpt lat="44.55653" lon="4.43195">
        <ele>248.4</ele>
        <time>2022-06-05T07:10:56Z</time>
      </trkpt>
      <trkpt lat="44.5565" lon="4.43202">
        <ele>248</ele>
        <time>2022-06-05T07:10:57Z</time>
      </trkpt>
      <trkpt lat="44.55647" lon="4.43208">
        <ele>247.4</ele>
        <time>2022-06-05T07:10:58Z</time>
      </trkpt>
      <trkpt lat="44.55644" lon="4.43214">
        <ele>247</ele>
        <time>2022-06-05T07:10:59Z</time>
      </trkpt>
      <trkpt lat="44.55641" lon="4.4322">
        <ele>246.4</ele>
        <time>2022-06-05T07:11:00Z</time>
      </trkpt>
      <trkpt lat="44.55635" lon="4.43231">
        <ele>246</ele>
        <time>2022-06-05T07:11:02Z</time>
      </trkpt>
      <trkpt lat="44.55633" lon="4.43236">
        <ele>245</ele>
        <time>2022-06-05T07:11:03Z</time>
      </trkpt>
      <trkpt lat="44.5563" lon="4.43242">
        <ele>244.6</ele>
        <time>2022-06-05T07:11:04Z</time>
      </trkpt>
      <trkpt lat="44.55628" lon="4.43248">
        <ele>244</ele>
        <time>2022-06-05T07:11:05Z</time>
      </trkpt>
      <trkpt lat="44.55625" lon="4.43252">
        <ele>243.4</ele>
        <time>2022-06-05T07:11:06Z</time>
      </trkpt>
      <trkpt lat="44.55623" lon="4.43257">
        <ele>243</ele>
        <time>2022-06-05T07:11:07Z</time>
      </trkpt>
      <trkpt lat="44.5562" lon="4.43261">
        <ele>242.4</ele>
        <time>2022-06-05T07:11:08Z</time>
      </trkpt>
      <trkpt lat="44.55617" lon="4.43265">
        <ele>241.8</ele>
        <time>2022-06-05T07:11:09Z</time>
      </trkpt>
      <trkpt lat="44.55615" lon="4.43269">
        <ele>241.2</ele>
        <time>2022-06-05T07:11:10Z</time>
      </trkpt>
      <trkpt lat="44.55612" lon="4.43273">
        <ele>240.8</ele>
        <time>2022-06-05T07:11:11Z</time>
      </trkpt>
      <trkpt lat="44.55609" lon="4.43277">
        <ele>240.2</ele>
        <time>2022-06-05T07:11:12Z</time>
      </trkpt>
      <trkpt lat="44.55606" lon="4.43282">
        <ele>239.6</ele>
        <time>2022-06-05T07:11:13Z</time>
      </trkpt>
      <trkpt lat="44.55603" lon="4.43286">
        <ele>239</ele>
        <time>2022-06-05T07:11:14Z</time>
      </trkpt>
      <trkpt lat="44.55599" lon="4.4329">
        <ele>238.6</ele>
        <time>2022-06-05T07:11:15Z</time>
      </trkpt>
      <trkpt lat="44.55596" lon="4.43295">
        <ele>238</ele>
        <time>2022-06-05T07:11:16Z</time>
      </trkpt>
      <trkpt lat="44.55592" lon="4.43298">
        <ele>237.4</ele>
        <time>2022-06-05T07:11:17Z</time>
      </trkpt>
      <trkpt lat="44.5559" lon="4.43302">
        <ele>237</ele>
        <time>2022-06-05T07:11:18Z</time>
      </trkpt>
      <trkpt lat="44.55587" lon="4.43306">
        <ele>236.4</ele>
        <time>2022-06-05T07:11:19Z</time>
      </trkpt>
      <trkpt lat="44.55584" lon="4.4331">
        <ele>235.8</ele>
        <time>2022-06-05T07:11:20Z</time>
      </trkpt>
      <trkpt lat="44.55581" lon="4.43315">
        <ele>235.4</ele>
        <time>2022-06-05T07:11:21Z</time>
      </trkpt>
      <trkpt lat="44.55578" lon="4.43319">
        <ele>234.8</ele>
        <time>2022-06-05T07:11:22Z</time>
      </trkpt>
      <trkpt lat="44.55575" lon="4.43324">
        <ele>234.4</ele>
        <time>2022-06-05T07:11:23Z</time>
      </trkpt>
      <trkpt lat="44.55572" lon="4.43329">
        <ele>233.8</ele>
        <time>2022-06-05T07:11:24Z</time>
      </trkpt>
      <trkpt lat="44.55569" lon="4.43333">
        <ele>233.4</ele>
        <time>2022-06-05T07:11:25Z</time>
      </trkpt>
      <trkpt lat="44.55566" lon="4.43337">
        <ele>232.8</ele>
        <time>2022-06-05T07:11:26Z</time>
      </trkpt>
      <trkpt lat="44.55563" lon="4.43341">
        <ele>231.6</ele>
        <time>2022-06-05T07:11:27Z</time>
      </trkpt>
      <trkpt lat="44.5556" lon="4.43346">
        <ele>231.2</ele>
        <time>2022-06-05T07:11:28Z</time>
      </trkpt>
      <trkpt lat="44.55557" lon="4.4335">
        <ele>230.6</ele>
        <time>2022-06-05T07:11:29Z</time>
      </trkpt>
      <trkpt lat="44.55555" lon="4.43354">
        <ele>230</ele>
        <time>2022-06-05T07:11:30Z</time>
      </trkpt>
      <trkpt lat="44.55552" lon="4.43358">
        <ele>229.6</ele>
        <time>2022-06-05T07:11:31Z</time>
      </trkpt>
      <trkpt lat="44.55549" lon="4.43363">
        <ele>229</ele>
        <time>2022-06-05T07:11:32Z</time>
      </trkpt>
      <trkpt lat="44.55547" lon="4.43367">
        <ele>228.6</ele>
        <time>2022-06-05T07:11:33Z</time>
      </trkpt>
      <trkpt lat="44.55544" lon="4.43371">
        <ele>228</ele>
        <time>2022-06-05T07:11:34Z</time>
      </trkpt>
      <trkpt lat="44.55542" lon="4.43375">
        <ele>227.6</ele>
        <time>2022-06-05T07:11:35Z</time>
      </trkpt>
      <trkpt lat="44.5554" lon="4.4338">
        <ele>227.2</ele>
        <time>2022-06-05T07:11:36Z</time>
      </trkpt>
      <trkpt lat="44.55538" lon="4.43384">
        <ele>226.8</ele>
        <time>2022-06-05T07:11:37Z</time>
      </trkpt>
      <trkpt lat="44.55535" lon="4.43388">
        <ele>226.4</ele>
        <time>2022-06-05T07:11:38Z</time>
      </trkpt>
      <trkpt lat="44.55533" lon="4.43392">
        <ele>226</ele>
        <time>2022-06-05T07:11:39Z</time>
      </trkpt>
      <trkpt lat="44.5553" lon="4.43396">
        <ele>225.6</ele>
        <time>2022-06-05T07:11:40Z</time>
      </trkpt>
      <trkpt lat="44.55528" lon="4.434">
        <ele>225.2</ele>
        <time>2022-06-05T07:11:41Z</time>
      </trkpt>
      <trkpt lat="44.55525" lon="4.43404">
        <ele>224.8</ele>
        <time>2022-06-05T07:11:42Z</time>
      </trkpt>
      <trkpt lat="44.55521" lon="4.43407">
        <ele>224.4</ele>
        <time>2022-06-05T07:11:43Z</time>
      </trkpt>
      <trkpt lat="44.55512" lon="4.43414">
        <ele>224.4</ele>
        <time>2022-06-05T07:11:45Z</time>
      </trkpt>
      <trkpt lat="44.55506" lon="4.43419">
        <ele>224</ele>
        <time>2022-06-05T07:11:46Z</time>
      </trkpt>
      <trkpt lat="44.55501" lon="4.43424">
        <ele>223.6</ele>
        <time>2022-06-05T07:11:47Z</time>
      </trkpt>
      <trkpt lat="44.55497" lon="4.43428">
        <ele>223.2</ele>
        <time>2022-06-05T07:11:48Z</time>
      </trkpt>
      <trkpt lat="44.55493" lon="4.43432">
        <ele>222.8</ele>
        <time>2022-06-05T07:11:49Z</time>
      </trkpt>
      <trkpt lat="44.55489" lon="4.43435">
        <ele>222.2</ele>
        <time>2022-06-05T07:11:50Z</time>
      </trkpt>
      <trkpt lat="44.55483" lon="4.43439">
        <ele>221.4</ele>
        <time>2022-06-05T07:11:52Z</time>
      </trkpt>
      <trkpt lat="44.5548" lon="4.43441">
        <ele>221</ele>
        <time>2022-06-05T07:11:53Z</time>
      </trkpt>
      <trkpt lat="44.55478" lon="4.43443">
        <ele>220.4</ele>
        <time>2022-06-05T07:11:54Z</time>
      </trkpt>
      <trkpt lat="44.55476" lon="4.43444">
        <ele>220</ele>
        <time>2022-06-05T07:11:55Z</time>
      </trkpt>
      <trkpt lat="44.55456" lon="4.43455">
        <ele>220</ele>
        <time>2022-06-05T07:12:03Z</time>
      </trkpt>
      <trkpt lat="44.55444" lon="4.43469">
        <ele>219.6</ele>
        <time>2022-06-05T07:12:10Z</time>
      </trkpt>
      <trkpt lat="44.55442" lon="4.43472">
        <ele>219.2</ele>
        <time>2022-06-05T07:12:11Z</time>
      </trkpt>
      <trkpt lat="44.5544" lon="4.43474">
        <ele>218.8</ele>
        <time>2022-06-05T07:12:12Z</time>
      </trkpt>
      <trkpt lat="44.55439" lon="4.43475">
        <ele>218.4</ele>
        <time>2022-06-05T07:12:13Z</time>
      </trkpt>
      <trkpt lat="44.55437" lon="4.43476">
        <ele>218</ele>
        <time>2022-06-05T07:12:14Z</time>
      </trkpt>
      <trkpt lat="44.55434" lon="4.43479">
        <ele>218</ele>
        <time>2022-06-05T07:12:17Z</time>
      </trkpt>
      <trkpt lat="44.55432" lon="4.43484">
        <ele>218</ele>
        <time>2022-06-05T07:12:39Z</time>
      </trkpt>
      <trkpt lat="44.55423" lon="4.43499">
        <ele>218</ele>
        <time>2022-06-05T07:12:44Z</time>
      </trkpt>
      <trkpt lat="44.55406" lon="4.43522">
        <ele>218</ele>
        <time>2022-06-05T07:12:51Z</time>
      </trkpt>
      <trkpt lat="44.5539" lon="4.43538">
        <ele>218</ele>
        <time>2022-06-05T07:12:58Z</time>
      </trkpt>
      <trkpt lat="44.55378" lon="4.43548">
        <ele>218</ele>
        <time>2022-06-05T07:13:05Z</time>
      </trkpt>
      <trkpt lat="44.55371" lon="4.4356">
        <ele>218</ele>
        <time>2022-06-05T07:13:10Z</time>
      </trkpt>
      <trkpt lat="44.55364" lon="4.43577">
        <ele>218</ele>
        <time>2022-06-05T07:13:16Z</time>
      </trkpt>
      <trkpt lat="44.55355" lon="4.43601">
        <ele>218</ele>
        <time>2022-06-05T07:13:24Z</time>
      </trkpt>
      <trkpt lat="44.55339" lon="4.4362">
        <ele>218</ele>
        <time>2022-06-05T07:13:31Z</time>
      </trkpt>
      <trkpt lat="44.5532" lon="4.43626">
        <ele>218</ele>
        <time>2022-06-05T07:13:36Z</time>
      </trkpt>
      <trkpt lat="44.55309" lon="4.43626">
        <ele>217.6</ele>
        <time>2022-06-05T07:13:41Z</time>
      </trkpt>
      <trkpt lat="44.55308" lon="4.43626">
        <ele>217.2</ele>
        <time>2022-06-05T07:13:42Z</time>
      </trkpt>
      <trkpt lat="44.55306" lon="4.43628">
        <ele>216.8</ele>
        <time>2022-06-05T07:13:43Z</time>
      </trkpt>
      <trkpt lat="44.55304" lon="4.43629">
        <ele>216.2</ele>
        <time>2022-06-05T07:13:44Z</time>
      </trkpt>
      <trkpt lat="44.55303" lon="4.4363">
        <ele>215.8</ele>
        <time>2022-06-05T07:13:45Z</time>
      </trkpt>
      <trkpt lat="44.55299" lon="4.43643">
        <ele>215.8</ele>
        <time>2022-06-05T07:13:48Z</time>
      </trkpt>
      <trkpt lat="44.55285" lon="4.43674">
        <ele>215.8</ele>
        <time>2022-06-05T07:13:54Z</time>
      </trkpt>
      <trkpt lat="44.5528" lon="4.43684">
        <ele>215</ele>
        <time>2022-06-05T07:13:56Z</time>
      </trkpt>
      <trkpt lat="44.55278" lon="4.43689">
        <ele>214.6</ele>
        <time>2022-06-05T07:13:57Z</time>
      </trkpt>
      <trkpt lat="44.55276" lon="4.43694">
        <ele>214.2</ele>
        <time>2022-06-05T07:13:58Z</time>
      </trkpt>
      <trkpt lat="44.55273" lon="4.437">
        <ele>213.8</ele>
        <time>2022-06-05T07:13:59Z</time>
      </trkpt>
      <trkpt lat="44.55267" lon="4.43718">
        <ele>213.8</ele>
        <time>2022-06-05T07:14:02Z</time>
      </trkpt>
      <trkpt lat="44.55245" lon="4.43774">
        <ele>213.2</ele>
        <time>2022-06-05T07:14:10Z</time>
      </trkpt>
      <trkpt lat="44.55242" lon="4.43781">
        <ele>212.8</ele>
        <time>2022-06-05T07:14:11Z</time>
      </trkpt>
      <trkpt lat="44.55239" lon="4.43788">
        <ele>212.4</ele>
        <time>2022-06-05T07:14:12Z</time>
      </trkpt>
      <trkpt lat="44.55236" lon="4.43795">
        <ele>211.8</ele>
        <time>2022-06-05T07:14:13Z</time>
      </trkpt>
      <trkpt lat="44.55233" lon="4.43802">
        <ele>211.4</ele>
        <time>2022-06-05T07:14:14Z</time>
      </trkpt>
      <trkpt lat="44.55211" lon="4.43847">
        <ele>210.4</ele>
        <time>2022-06-05T07:14:21Z</time>
      </trkpt>
      <trkpt lat="44.55207" lon="4.43853">
        <ele>210</ele>
        <time>2022-06-05T07:14:22Z</time>
      </trkpt>
      <trkpt lat="44.55205" lon="4.43859">
        <ele>209.6</ele>
        <time>2022-06-05T07:14:23Z</time>
      </trkpt>
      <trkpt lat="44.55202" lon="4.43864">
        <ele>209.2</ele>
        <time>2022-06-05T07:14:24Z</time>
      </trkpt>
      <trkpt lat="44.5519" lon="4.43883">
        <ele>209.2</ele>
        <time>2022-06-05T07:14:28Z</time>
      </trkpt>
      <trkpt lat="44.55176" lon="4.439">
        <ele>209.2</ele>
        <time>2022-06-05T07:14:33Z</time>
      </trkpt>
      <trkpt lat="44.55174" lon="4.43902">
        <ele>209.2</ele>
        <time>2022-06-05T07:14:36Z</time>
      </trkpt>
      <trkpt lat="44.5517" lon="4.43901">
        <ele>207</ele>
        <time>2022-06-05T07:14:44Z</time>
      </trkpt>
      <trkpt lat="44.55162" lon="4.4389">
        <ele>207</ele>
        <time>2022-06-05T07:14:49Z</time>
      </trkpt>
      <trkpt lat="44.55147" lon="4.43863">
        <ele>207</ele>
        <time>2022-06-05T07:14:57Z</time>
      </trkpt>
      <trkpt lat="44.55128" lon="4.43828">
        <ele>207</ele>
        <time>2022-06-05T07:15:05Z</time>
      </trkpt>
      <trkpt lat="44.55114" lon="4.43798">
        <ele>207</ele>
        <time>2022-06-05T07:15:12Z</time>
      </trkpt>
      <trkpt lat="44.55093" lon="4.43765">
        <ele>207</ele>
        <time>2022-06-05T07:15:20Z</time>
      </trkpt>
      <trkpt lat="44.55086" lon="4.43751">
        <ele>206.6</ele>
        <time>2022-06-05T07:15:23Z</time>
      </trkpt>
      <trkpt lat="44.55083" lon="4.43747">
        <ele>206.2</ele>
        <time>2022-06-05T07:15:24Z</time>
      </trkpt>
      <trkpt lat="44.55081" lon="4.43743">
        <ele>205.8</ele>
        <time>2022-06-05T07:15:25Z</time>
      </trkpt>
      <trkpt lat="44.55079" lon="4.43739">
        <ele>205.4</ele>
        <time>2022-06-05T07:15:26Z</time>
      </trkpt>
      <trkpt lat="44.55076" lon="4.43735">
        <ele>205</ele>
        <time>2022-06-05T07:15:27Z</time>
      </trkpt>
      <trkpt lat="44.5507" lon="4.43723">
        <ele>205</ele>
        <time>2022-06-05T07:15:30Z</time>
      </trkpt>
      <trkpt lat="44.55052" lon="4.43689">
        <ele>205</ele>
        <time>2022-06-05T07:15:38Z</time>
      </trkpt>
      <trkpt lat="44.5503" lon="4.43649">
        <ele>205</ele>
        <time>2022-06-05T07:15:48Z</time>
      </trkpt>
      <trkpt lat="44.55008" lon="4.43605">
        <ele>205</ele>
        <time>2022-06-05T07:15:59Z</time>
      </trkpt>
      <trkpt lat="44.5499" lon="4.43572">
        <ele>205</ele>
        <time>2022-06-05T07:16:07Z</time>
      </trkpt>
      <trkpt lat="44.54979" lon="4.43551">
        <ele>204.4</ele>
        <time>2022-06-05T07:16:12Z</time>
      </trkpt>
      <trkpt lat="44.54976" lon="4.43547">
        <ele>204</ele>
        <time>2022-06-05T07:16:13Z</time>
      </trkpt>
      <trkpt lat="44.54974" lon="4.43542">
        <ele>203.6</ele>
        <time>2022-06-05T07:16:14Z</time>
      </trkpt>
      <trkpt lat="44.54972" lon="4.43538">
        <ele>203.2</ele>
        <time>2022-06-05T07:16:15Z</time>
      </trkpt>
      <trkpt lat="44.54969" lon="4.43533">
        <ele>202.8</ele>
        <time>2022-06-05T07:16:16Z</time>
      </trkpt>
      <trkpt lat="44.54966" lon="4.43529">
        <ele>202.8</ele>
        <time>2022-06-05T07:16:17Z</time>
      </trkpt>
      <trkpt lat="44.54948" lon="4.43507">
        <ele>202.8</ele>
        <time>2022-06-05T07:16:24Z</time>
      </trkpt>
      <trkpt lat="44.54935" lon="4.43513">
        <ele>202.8</ele>
        <time>2022-06-05T07:16:29Z</time>
      </trkpt>
      <trkpt lat="44.54934" lon="4.4352">
        <ele>202.8</ele>
        <time>2022-06-05T07:16:30Z</time>
      </trkpt>
      <trkpt lat="44.54932" lon="4.4353">
        <ele>202.8</ele>
        <time>2022-06-05T07:16:32Z</time>
      </trkpt>
      <trkpt lat="44.54931" lon="4.43559">
        <ele>202.8</ele>
        <time>2022-06-05T07:16:38Z</time>
      </trkpt>
      <trkpt lat="44.54929" lon="4.4362">
        <ele>202</ele>
        <time>2022-06-05T07:16:49Z</time>
      </trkpt>
      <trkpt lat="44.54929" lon="4.43626">
        <ele>201.6</ele>
        <time>2022-06-05T07:16:50Z</time>
      </trkpt>
      <trkpt lat="44.54928" lon="4.43633">
        <ele>201.2</ele>
        <time>2022-06-05T07:16:51Z</time>
      </trkpt>
      <trkpt lat="44.54928" lon="4.43639">
        <ele>200.8</ele>
        <time>2022-06-05T07:16:52Z</time>
      </trkpt>
      <trkpt lat="44.54924" lon="4.43681">
        <ele>200.8</ele>
        <time>2022-06-05T07:16:59Z</time>
      </trkpt>
      <trkpt lat="44.54912" lon="4.43749">
        <ele>200.8</ele>
        <time>2022-06-05T07:17:10Z</time>
      </trkpt>
      <trkpt lat="44.54898" lon="4.43799">
        <ele>200.8</ele>
        <time>2022-06-05T07:17:18Z</time>
      </trkpt>
      <trkpt lat="44.54878" lon="4.43864">
        <ele>200.8</ele>
        <time>2022-06-05T07:17:28Z</time>
      </trkpt>
      <trkpt lat="44.54869" lon="4.43889">
        <ele>200.4</ele>
        <time>2022-06-05T07:17:32Z</time>
      </trkpt>
      <trkpt lat="44.54867" lon="4.43895">
        <ele>200</ele>
        <time>2022-06-05T07:17:33Z</time>
      </trkpt>
      <trkpt lat="44.54865" lon="4.43901">
        <ele>199.6</ele>
        <time>2022-06-05T07:17:34Z</time>
      </trkpt>
      <trkpt lat="44.54864" lon="4.43907">
        <ele>199.2</ele>
        <time>2022-06-05T07:17:35Z</time>
      </trkpt>
      <trkpt lat="44.54863" lon="4.43913">
        <ele>198.8</ele>
        <time>2022-06-05T07:17:36Z</time>
      </trkpt>
      <trkpt lat="44.54862" lon="4.43919">
        <ele>198.8</ele>
        <time>2022-06-05T07:17:37Z</time>
      </trkpt>
      <trkpt lat="44.54859" lon="4.43968">
        <ele>198.8</ele>
        <time>2022-06-05T07:17:44Z</time>
      </trkpt>
      <trkpt lat="44.54865" lon="4.44019">
        <ele>198.8</ele>
        <time>2022-06-05T07:17:51Z</time>
      </trkpt>
      <trkpt lat="44.54868" lon="4.4404">
        <ele>198.4</ele>
        <time>2022-06-05T07:17:54Z</time>
      </trkpt>
      <trkpt lat="44.5487" lon="4.44047">
        <ele>198</ele>
        <time>2022-06-05T07:17:55Z</time>
      </trkpt>
      <trkpt lat="44.54871" lon="4.44053">
        <ele>197.6</ele>
        <time>2022-06-05T07:17:56Z</time>
      </trkpt>
      <trkpt lat="44.54873" lon="4.44059">
        <ele>197.2</ele>
        <time>2022-06-05T07:17:57Z</time>
      </trkpt>
      <trkpt lat="44.54874" lon="4.44065">
        <ele>196.8</ele>
        <time>2022-06-05T07:17:58Z</time>
      </trkpt>
      <trkpt lat="44.54876" lon="4.44071">
        <ele>196.8</ele>
        <time>2022-06-05T07:17:59Z</time>
      </trkpt>
      <trkpt lat="44.54888" lon="4.44129">
        <ele>196.8</ele>
        <time>2022-06-05T07:18:09Z</time>
      </trkpt>
      <trkpt lat="44.54898" lon="4.44187">
        <ele>196.8</ele>
        <time>2022-06-05T07:18:19Z</time>
      </trkpt>
      <trkpt lat="44.54911" lon="4.44239">
        <ele>196.8</ele>
        <time>2022-06-05T07:18:28Z</time>
      </trkpt>
      <trkpt lat="44.54914" lon="4.44262">
        <ele>196.8</ele>
        <time>2022-06-05T07:18:33Z</time>
      </trkpt>
      <trkpt lat="44.54899" lon="4.44278">
        <ele>196.8</ele>
        <time>2022-06-05T07:18:38Z</time>
      </trkpt>
      <trkpt lat="44.54882" lon="4.44299">
        <ele>197.2</ele>
        <time>2022-06-05T07:18:44Z</time>
      </trkpt>
      <trkpt lat="44.54879" lon="4.44303">
        <ele>197.6</ele>
        <time>2022-06-05T07:18:45Z</time>
      </trkpt>
      <trkpt lat="44.54876" lon="4.44307">
        <ele>198</ele>
        <time>2022-06-05T07:18:46Z</time>
      </trkpt>
      <trkpt lat="44.54874" lon="4.44311">
        <ele>198.4</ele>
        <time>2022-06-05T07:18:47Z</time>
      </trkpt>
      <trkpt lat="44.54871" lon="4.44316">
        <ele>198.8</ele>
        <time>2022-06-05T07:18:48Z</time>
      </trkpt>
      <trkpt lat="44.54859" lon="4.44333">
        <ele>198.8</ele>
        <time>2022-06-05T07:18:52Z</time>
      </trkpt>
      <trkpt lat="44.54852" lon="4.4434">
        <ele>198.8</ele>
        <time>2022-06-05T07:18:54Z</time>
      </trkpt>
      <trkpt lat="44.54833" lon="4.44348">
        <ele>198.8</ele>
        <time>2022-06-05T07:18:57Z</time>
      </trkpt>
      <trkpt lat="44.54826" lon="4.4435">
        <ele>198.2</ele>
        <time>2022-06-05T07:18:58Z</time>
      </trkpt>
      <trkpt lat="44.54819" lon="4.44352">
        <ele>197.8</ele>
        <time>2022-06-05T07:18:59Z</time>
      </trkpt>
      <trkpt lat="44.54812" lon="4.44355">
        <ele>197.4</ele>
        <time>2022-06-05T07:19:00Z</time>
      </trkpt>
      <trkpt lat="44.54804" lon="4.44359">
        <ele>197</ele>
        <time>2022-06-05T07:19:01Z</time>
      </trkpt>
      <trkpt lat="44.54796" lon="4.44364">
        <ele>196.6</ele>
        <time>2022-06-05T07:19:02Z</time>
      </trkpt>
      <trkpt lat="44.54788" lon="4.44369">
        <ele>196.2</ele>
        <time>2022-06-05T07:19:03Z</time>
      </trkpt>
      <trkpt lat="44.54781" lon="4.44373">
        <ele>195.6</ele>
        <time>2022-06-05T07:19:04Z</time>
      </trkpt>
      <trkpt lat="44.54774" lon="4.44377">
        <ele>195.2</ele>
        <time>2022-06-05T07:19:05Z</time>
      </trkpt>
      <trkpt lat="44.54767" lon="4.44382">
        <ele>194.8</ele>
        <time>2022-06-05T07:19:06Z</time>
      </trkpt>
      <trkpt lat="44.5476" lon="4.44386">
        <ele>194.2</ele>
        <time>2022-06-05T07:19:07Z</time>
      </trkpt>
      <trkpt lat="44.54747" lon="4.44395">
        <ele>194.2</ele>
        <time>2022-06-05T07:19:09Z</time>
      </trkpt>
      <trkpt lat="44.54698" lon="4.4442">
        <ele>194.2</ele>
        <time>2022-06-05T07:19:17Z</time>
      </trkpt>
      <trkpt lat="44.54637" lon="4.44458">
        <ele>194.2</ele>
        <time>2022-06-05T07:19:26Z</time>
      </trkpt>
      <trkpt lat="44.54627" lon="4.44466">
        <ele>193.8</ele>
        <time>2022-06-05T07:19:31Z</time>
      </trkpt>
      <trkpt lat="44.54623" lon="4.4447">
        <ele>193.4</ele>
        <time>2022-06-05T07:19:32Z</time>
      </trkpt>
      <trkpt lat="44.54619" lon="4.44475">
        <ele>193</ele>
        <time>2022-06-05T07:19:33Z</time>
      </trkpt>
      <trkpt lat="44.54615" lon="4.44481">
        <ele>192.6</ele>
        <time>2022-06-05T07:19:34Z</time>
      </trkpt>
      <trkpt lat="44.54612" lon="4.44487">
        <ele>192.2</ele>
        <time>2022-06-05T07:19:35Z</time>
      </trkpt>
      <trkpt lat="44.54593" lon="4.44539">
        <ele>192.2</ele>
        <time>2022-06-05T07:19:42Z</time>
      </trkpt>
      <trkpt lat="44.54588" lon="4.44574">
        <ele>192.2</ele>
        <time>2022-06-05T07:19:47Z</time>
      </trkpt>
      <trkpt lat="44.54597" lon="4.44627">
        <ele>192.2</ele>
        <time>2022-06-05T07:19:55Z</time>
      </trkpt>
      <trkpt lat="44.54604" lon="4.44697">
        <ele>192.2</ele>
        <time>2022-06-05T07:20:06Z</time>
      </trkpt>
      <trkpt lat="44.54605" lon="4.44729">
        <ele>192.2</ele>
        <time>2022-06-05T07:20:11Z</time>
      </trkpt>
      <trkpt lat="44.54602" lon="4.44737">
        <ele>192.2</ele>
        <time>2022-06-05T07:20:13Z</time>
      </trkpt>
      <trkpt lat="44.54588" lon="4.44742">
        <ele>192.2</ele>
        <time>2022-06-05T07:20:17Z</time>
      </trkpt>
      <trkpt lat="44.54584" lon="4.44742">
        <ele>192.2</ele>
        <time>2022-06-05T07:20:18Z</time>
      </trkpt>
      <trkpt lat="44.5455" lon="4.44745">
        <ele>192.2</ele>
        <time>2022-06-05T07:20:25Z</time>
      </trkpt>
      <trkpt lat="44.54528" lon="4.44752">
        <ele>192.2</ele>
        <time>2022-06-05T07:20:31Z</time>
      </trkpt>
      <trkpt lat="44.54517" lon="4.44759">
        <ele>192.8</ele>
        <time>2022-06-05T07:20:35Z</time>
      </trkpt>
      <trkpt lat="44.54514" lon="4.44761">
        <ele>193.2</ele>
        <time>2022-06-05T07:20:36Z</time>
      </trkpt>
      <trkpt lat="44.54512" lon="4.44762">
        <ele>193.6</ele>
        <time>2022-06-05T07:20:37Z</time>
      </trkpt>
      <trkpt lat="44.54509" lon="4.44762">
        <ele>194.2</ele>
        <time>2022-06-05T07:20:38Z</time>
      </trkpt>
      <trkpt lat="44.54506" lon="4.44763">
        <ele>194.6</ele>
        <time>2022-06-05T07:20:39Z</time>
      </trkpt>
      <trkpt lat="44.54496" lon="4.4476">
        <ele>194.6</ele>
        <time>2022-06-05T07:20:43Z</time>
      </trkpt>
      <trkpt lat="44.54492" lon="4.44756">
        <ele>195</ele>
        <time>2022-06-05T07:20:45Z</time>
      </trkpt>
      <trkpt lat="44.5449" lon="4.44754">
        <ele>195.4</ele>
        <time>2022-06-05T07:20:46Z</time>
      </trkpt>
      <trkpt lat="44.54488" lon="4.44752">
        <ele>195.8</ele>
        <time>2022-06-05T07:20:47Z</time>
      </trkpt>
      <trkpt lat="44.54486" lon="4.44749">
        <ele>196.4</ele>
        <time>2022-06-05T07:20:48Z</time>
      </trkpt>
      <trkpt lat="44.54485" lon="4.44747">
        <ele>196.8</ele>
        <time>2022-06-05T07:20:49Z</time>
      </trkpt>
      <trkpt lat="44.54484" lon="4.44745">
        <ele>196.8</ele>
        <time>2022-06-05T07:20:50Z</time>
      </trkpt>
      <trkpt lat="44.54481" lon="4.44742">
        <ele>196.8</ele>
        <time>2022-06-05T07:20:52Z</time>
      </trkpt>
      <trkpt lat="44.54477" lon="4.44744">
        <ele>196.8</ele>
        <time>2022-06-05T07:20:54Z</time>
      </trkpt>
      <trkpt lat="44.54476" lon="4.44746">
        <ele>196.8</ele>
        <time>2022-06-05T07:20:58Z</time>
      </trkpt>
      <trkpt lat="44.54476" lon="4.44748">
        <ele>197.2</ele>
        <time>2022-06-05T07:20:59Z</time>
      </trkpt>
      <trkpt lat="44.54477" lon="4.4475">
        <ele>197.6</ele>
        <time>2022-06-05T07:21:00Z</time>
      </trkpt>
      <trkpt lat="44.54477" lon="4.44752">
        <ele>198.2</ele>
        <time>2022-06-05T07:21:01Z</time>
      </trkpt>
      <trkpt lat="44.54477" lon="4.44755">
        <ele>198.6</ele>
        <time>2022-06-05T07:21:02Z</time>
      </trkpt>
      <trkpt lat="44.54477" lon="4.44758">
        <ele>199</ele>
        <time>2022-06-05T07:21:03Z</time>
      </trkpt>
      <trkpt lat="44.54477" lon="4.44764">
        <ele>199</ele>
        <time>2022-06-05T07:21:05Z</time>
      </trkpt>
      <trkpt lat="44.54484" lon="4.44782">
        <ele>199</ele>
        <time>2022-06-05T07:21:12Z</time>
      </trkpt>
      <trkpt lat="44.54492" lon="4.44803">
        <ele>199</ele>
        <time>2022-06-05T07:21:19Z</time>
      </trkpt>
      <trkpt lat="44.54501" lon="4.44836">
        <ele>199.4</ele>
        <time>2022-06-05T07:21:28Z</time>
      </trkpt>
      <trkpt lat="44.54502" lon="4.44842">
        <ele>199.8</ele>
        <time>2022-06-05T07:21:29Z</time>
      </trkpt>
      <trkpt lat="44.54501" lon="4.44848">
        <ele>200.2</ele>
        <time>2022-06-05T07:21:30Z</time>
      </trkpt>
      <trkpt lat="44.545" lon="4.44852">
        <ele>200.6</ele>
        <time>2022-06-05T07:21:31Z</time>
      </trkpt>
      <trkpt lat="44.54498" lon="4.44855">
        <ele>201</ele>
        <time>2022-06-05T07:21:32Z</time>
      </trkpt>
      <trkpt lat="44.5448" lon="4.44869">
        <ele>201.4</ele>
        <time>2022-06-05T07:21:40Z</time>
      </trkpt>
      <trkpt lat="44.54478" lon="4.4487">
        <ele>201.8</ele>
        <time>2022-06-05T07:21:41Z</time>
      </trkpt>
      <trkpt lat="44.54475" lon="4.44871">
        <ele>202.2</ele>
        <time>2022-06-05T07:21:42Z</time>
      </trkpt>
      <trkpt lat="44.54473" lon="4.44873">
        <ele>202.8</ele>
        <time>2022-06-05T07:21:43Z</time>
      </trkpt>
      <trkpt lat="44.5447" lon="4.44874">
        <ele>203.2</ele>
        <time>2022-06-05T07:21:44Z</time>
      </trkpt>
      <trkpt lat="44.5446" lon="4.44878">
        <ele>203.2</ele>
        <time>2022-06-05T07:21:49Z</time>
      </trkpt>
      <trkpt lat="44.54449" lon="4.44883">
        <ele>203.6</ele>
        <time>2022-06-05T07:21:54Z</time>
      </trkpt>
      <trkpt lat="44.54447" lon="4.44884">
        <ele>204</ele>
        <time>2022-06-05T07:21:55Z</time>
      </trkpt>
      <trkpt lat="44.54445" lon="4.44885">
        <ele>204.4</ele>
        <time>2022-06-05T07:21:56Z</time>
      </trkpt>
      <trkpt lat="44.54443" lon="4.44886">
        <ele>204.8</ele>
        <time>2022-06-05T07:21:57Z</time>
      </trkpt>
      <trkpt lat="44.54441" lon="4.44887">
        <ele>205.2</ele>
        <time>2022-06-05T07:21:58Z</time>
      </trkpt>
      <trkpt lat="44.54431" lon="4.44888">
        <ele>205.2</ele>
        <time>2022-06-05T07:22:03Z</time>
      </trkpt>
      <trkpt lat="44.54429" lon="4.44887">
        <ele>205.6</ele>
        <time>2022-06-05T07:22:04Z</time>
      </trkpt>
      <trkpt lat="44.54426" lon="4.44886">
        <ele>206</ele>
        <time>2022-06-05T07:22:05Z</time>
      </trkpt>
      <trkpt lat="44.54424" lon="4.44886">
        <ele>206.6</ele>
        <time>2022-06-05T07:22:06Z</time>
      </trkpt>
      <trkpt lat="44.54422" lon="4.44885">
        <ele>207</ele>
        <time>2022-06-05T07:22:07Z</time>
      </trkpt>
      <trkpt lat="44.5442" lon="4.44884">
        <ele>207.4</ele>
        <time>2022-06-05T07:22:08Z</time>
      </trkpt>
      <trkpt lat="44.54411" lon="4.44881">
        <ele>207.4</ele>
        <time>2022-06-05T07:22:12Z</time>
      </trkpt>
      <trkpt lat="44.54399" lon="4.44877">
        <ele>207.8</ele>
        <time>2022-06-05T07:22:17Z</time>
      </trkpt>
      <trkpt lat="44.54397" lon="4.44876">
        <ele>208.2</ele>
        <time>2022-06-05T07:22:18Z</time>
      </trkpt>
      <trkpt lat="44.54396" lon="4.44874">
        <ele>208.6</ele>
        <time>2022-06-05T07:22:19Z</time>
      </trkpt>
      <trkpt lat="44.54394" lon="4.44873">
        <ele>209.2</ele>
        <time>2022-06-05T07:22:20Z</time>
      </trkpt>
      <trkpt lat="44.54391" lon="4.44872">
        <ele>209.6</ele>
        <time>2022-06-05T07:22:21Z</time>
      </trkpt>
      <trkpt lat="44.5437" lon="4.44859">
        <ele>210</ele>
        <time>2022-06-05T07:22:30Z</time>
      </trkpt>
      <trkpt lat="44.54368" lon="4.44857">
        <ele>210.4</ele>
        <time>2022-06-05T07:22:31Z</time>
      </trkpt>
      <trkpt lat="44.54366" lon="4.44856">
        <ele>210.8</ele>
        <time>2022-06-05T07:22:32Z</time>
      </trkpt>
      <trkpt lat="44.54364" lon="4.44854">
        <ele>211.2</ele>
        <time>2022-06-05T07:22:33Z</time>
      </trkpt>
      <trkpt lat="44.54362" lon="4.44852">
        <ele>211.6</ele>
        <time>2022-06-05T07:22:34Z</time>
      </trkpt>
      <trkpt lat="44.54354" lon="4.44843">
        <ele>211.6</ele>
        <time>2022-06-05T07:22:38Z</time>
      </trkpt>
      <trkpt lat="44.54353" lon="4.44842">
        <ele>211.6</ele>
        <time>2022-06-05T07:22:39Z</time>
      </trkpt>
      <trkpt lat="44.54347" lon="4.44841">
        <ele>211.6</ele>
        <time>2022-06-05T07:23:27Z</time>
      </trkpt>
      <trkpt lat="44.54333" lon="4.44855">
        <ele>211.6</ele>
        <time>2022-06-05T07:23:37Z</time>
      </trkpt>
      <trkpt lat="44.54326" lon="4.44862">
        <ele>212</ele>
        <time>2022-06-05T07:23:40Z</time>
      </trkpt>
      <trkpt lat="44.54324" lon="4.44865">
        <ele>212.4</ele>
        <time>2022-06-05T07:23:41Z</time>
      </trkpt>
      <trkpt lat="44.54322" lon="4.44867">
        <ele>212.8</ele>
        <time>2022-06-05T07:23:42Z</time>
      </trkpt>
      <trkpt lat="44.5432" lon="4.4487">
        <ele>213.2</ele>
        <time>2022-06-05T07:23:43Z</time>
      </trkpt>
      <trkpt lat="44.54318" lon="4.44872">
        <ele>213.6</ele>
        <time>2022-06-05T07:23:44Z</time>
      </trkpt>
      <trkpt lat="44.54314" lon="4.44876">
        <ele>213.6</ele>
        <time>2022-06-05T07:23:46Z</time>
      </trkpt>
      <trkpt lat="44.54301" lon="4.44886">
        <ele>213.6</ele>
        <time>2022-06-05T07:23:52Z</time>
      </trkpt>
      <trkpt lat="44.54283" lon="4.44894">
        <ele>214</ele>
        <time>2022-06-05T07:23:59Z</time>
      </trkpt>
      <trkpt lat="44.5428" lon="4.44895">
        <ele>214.4</ele>
        <time>2022-06-05T07:24:00Z</time>
      </trkpt>
      <trkpt lat="44.54278" lon="4.44897">
        <ele>214.8</ele>
        <time>2022-06-05T07:24:01Z</time>
      </trkpt>
      <trkpt lat="44.54275" lon="4.44898">
        <ele>215.2</ele>
        <time>2022-06-05T07:24:02Z</time>
      </trkpt>
      <trkpt lat="44.54272" lon="4.44898">
        <ele>215.6</ele>
        <time>2022-06-05T07:24:03Z</time>
      </trkpt>
      <trkpt lat="44.5426" lon="4.44901">
        <ele>215.6</ele>
        <time>2022-06-05T07:24:07Z</time>
      </trkpt>
      <trkpt lat="44.54253" lon="4.44903">
        <ele>215.6</ele>
        <time>2022-06-05T07:24:11Z</time>
      </trkpt>
      <trkpt lat="44.54249" lon="4.44902">
        <ele>217.8</ele>
        <time>2022-06-05T07:24:19Z</time>
      </trkpt>
      <trkpt lat="44.54238" lon="4.44903">
        <ele>217.8</ele>
        <time>2022-06-05T07:24:23Z</time>
      </trkpt>
      <trkpt lat="44.54235" lon="4.44903">
        <ele>217.8</ele>
        <time>2022-06-05T07:24:24Z</time>
      </trkpt>
      <trkpt lat="44.54232" lon="4.44903">
        <ele>217.8</ele>
        <time>2022-06-05T07:24:25Z</time>
      </trkpt>
      <trkpt lat="44.54227" lon="4.44904">
        <ele>218.2</ele>
        <time>2022-06-05T07:24:27Z</time>
      </trkpt>
      <trkpt lat="44.54224" lon="4.44904">
        <ele>218.6</ele>
        <time>2022-06-05T07:24:28Z</time>
      </trkpt>
      <trkpt lat="44.54222" lon="4.44904">
        <ele>219</ele>
        <time>2022-06-05T07:24:29Z</time>
      </trkpt>
      <trkpt lat="44.54219" lon="4.44904">
        <ele>219.4</ele>
        <time>2022-06-05T07:24:30Z</time>
      </trkpt>
      <trkpt lat="44.54216" lon="4.44905">
        <ele>220</ele>
        <time>2022-06-05T07:24:31Z</time>
      </trkpt>
      <trkpt lat="44.54214" lon="4.44906">
        <ele>220</ele>
        <time>2022-06-05T07:24:32Z</time>
      </trkpt>
      <trkpt lat="44.54199" lon="4.44911">
        <ele>220.4</ele>
        <time>2022-06-05T07:24:38Z</time>
      </trkpt>
      <trkpt lat="44.54197" lon="4.44911">
        <ele>221.2</ele>
        <time>2022-06-05T07:24:39Z</time>
      </trkpt>
      <trkpt lat="44.54195" lon="4.44912">
        <ele>221.6</ele>
        <time>2022-06-05T07:24:40Z</time>
      </trkpt>
      <trkpt lat="44.54192" lon="4.44913">
        <ele>222</ele>
        <time>2022-06-05T07:24:41Z</time>
      </trkpt>
      <trkpt lat="44.54182" lon="4.44915">
        <ele>222.4</ele>
        <time>2022-06-05T07:24:45Z</time>
      </trkpt>
      <trkpt lat="44.5418" lon="4.44915">
        <ele>223</ele>
        <time>2022-06-05T07:24:46Z</time>
      </trkpt>
      <trkpt lat="44.54179" lon="4.44915">
        <ele>223.4</ele>
        <time>2022-06-05T07:24:47Z</time>
      </trkpt>
      <trkpt lat="44.54177" lon="4.44915">
        <ele>223.8</ele>
        <time>2022-06-05T07:24:48Z</time>
      </trkpt>
      <trkpt lat="44.54175" lon="4.44915">
        <ele>224.2</ele>
        <time>2022-06-05T07:24:49Z</time>
      </trkpt>
      <trkpt lat="44.54166" lon="4.44917">
        <ele>224.2</ele>
        <time>2022-06-05T07:24:53Z</time>
      </trkpt>
      <trkpt lat="44.54146" lon="4.44924">
        <ele>224.2</ele>
        <time>2022-06-05T07:25:03Z</time>
      </trkpt>
      <trkpt lat="44.54129" lon="4.44929">
        <ele>224.6</ele>
        <time>2022-06-05T07:25:11Z</time>
      </trkpt>
      <trkpt lat="44.54127" lon="4.4493">
        <ele>225</ele>
        <time>2022-06-05T07:25:12Z</time>
      </trkpt>
      <trkpt lat="44.54125" lon="4.44931">
        <ele>225.4</ele>
        <time>2022-06-05T07:25:13Z</time>
      </trkpt>
      <trkpt lat="44.54123" lon="4.44932">
        <ele>225.8</ele>
        <time>2022-06-05T07:25:14Z</time>
      </trkpt>
      <trkpt lat="44.54121" lon="4.44933">
        <ele>226.4</ele>
        <time>2022-06-05T07:25:15Z</time>
      </trkpt>
      <trkpt lat="44.54112" lon="4.4494">
        <ele>226.4</ele>
        <time>2022-06-05T07:25:21Z</time>
      </trkpt>
      <trkpt lat="44.54109" lon="4.44943">
        <ele>226.8</ele>
        <time>2022-06-05T07:25:23Z</time>
      </trkpt>
      <trkpt lat="44.54107" lon="4.44945">
        <ele>227.2</ele>
        <time>2022-06-05T07:25:24Z</time>
      </trkpt>
      <trkpt lat="44.54106" lon="4.44947">
        <ele>227.6</ele>
        <time>2022-06-05T07:25:25Z</time>
      </trkpt>
      <trkpt lat="44.54105" lon="4.44949">
        <ele>228</ele>
        <time>2022-06-05T07:25:26Z</time>
      </trkpt>
      <trkpt lat="44.54103" lon="4.4495">
        <ele>228.4</ele>
        <time>2022-06-05T07:25:27Z</time>
      </trkpt>
      <trkpt lat="44.541" lon="4.44956">
        <ele>228.4</ele>
        <time>2022-06-05T07:25:30Z</time>
      </trkpt>
      <trkpt lat="44.54083" lon="4.44981">
        <ele>228.4</ele>
        <time>2022-06-05T07:25:41Z</time>
      </trkpt>
      <trkpt lat="44.54064" lon="4.45002">
        <ele>228.4</ele>
        <time>2022-06-05T07:25:50Z</time>
      </trkpt>
      <trkpt lat="44.54062" lon="4.45004">
        <ele>228.4</ele>
        <time>2022-06-05T07:25:52Z</time>
      </trkpt>
      <trkpt lat="44.5406" lon="4.45009">
        <ele>228.4</ele>
        <time>2022-06-05T07:26:41Z</time>
      </trkpt>
      <trkpt lat="44.54057" lon="4.45014">
        <ele>228.4</ele>
        <time>2022-06-05T07:26:43Z</time>
      </trkpt>
      <trkpt lat="44.54042" lon="4.45041">
        <ele>228.4</ele>
        <time>2022-06-05T07:26:51Z</time>
      </trkpt>
      <trkpt lat="44.54022" lon="4.45076">
        <ele>228.4</ele>
        <time>2022-06-05T07:27:00Z</time>
      </trkpt>
      <trkpt lat="44.54004" lon="4.45109">
        <ele>228.4</ele>
        <time>2022-06-05T07:27:09Z</time>
      </trkpt>
      <trkpt lat="44.5399" lon="4.45142">
        <ele>228.4</ele>
        <time>2022-06-05T07:27:17Z</time>
      </trkpt>
      <trkpt lat="44.53969" lon="4.45186">
        <ele>228.4</ele>
        <time>2022-06-05T07:27:24Z</time>
      </trkpt>
      <trkpt lat="44.53958" lon="4.45215">
        <ele>227.8</ele>
        <time>2022-06-05T07:27:28Z</time>
      </trkpt>
      <trkpt lat="44.53955" lon="4.45221">
        <ele>227.4</ele>
        <time>2022-06-05T07:27:29Z</time>
      </trkpt>
      <trkpt lat="44.53952" lon="4.45227">
        <ele>227</ele>
        <time>2022-06-05T07:27:30Z</time>
      </trkpt>
      <trkpt lat="44.5395" lon="4.45233">
        <ele>226.4</ele>
        <time>2022-06-05T07:27:31Z</time>
      </trkpt>
      <trkpt lat="44.53948" lon="4.4524">
        <ele>226</ele>
        <time>2022-06-05T07:27:32Z</time>
      </trkpt>
      <trkpt lat="44.53947" lon="4.45248">
        <ele>225.6</ele>
        <time>2022-06-05T07:27:33Z</time>
      </trkpt>
      <trkpt lat="44.53947" lon="4.45256">
        <ele>225</ele>
        <time>2022-06-05T07:27:34Z</time>
      </trkpt>
      <trkpt lat="44.53946" lon="4.45262">
        <ele>224.6</ele>
        <time>2022-06-05T07:27:35Z</time>
      </trkpt>
      <trkpt lat="44.53944" lon="4.45268">
        <ele>223.6</ele>
        <time>2022-06-05T07:27:36Z</time>
      </trkpt>
      <trkpt lat="44.53941" lon="4.45278">
        <ele>223.6</ele>
        <time>2022-06-05T07:27:38Z</time>
      </trkpt>
      <trkpt lat="44.53936" lon="4.45284">
        <ele>223.6</ele>
        <time>2022-06-05T07:27:40Z</time>
      </trkpt>
      <trkpt lat="44.53932" lon="4.45287">
        <ele>223.6</ele>
        <time>2022-06-05T07:27:41Z</time>
      </trkpt>
      <trkpt lat="44.53924" lon="4.45291">
        <ele>224</ele>
        <time>2022-06-05T07:27:44Z</time>
      </trkpt>
      <trkpt lat="44.53922" lon="4.45292">
        <ele>224.6</ele>
        <time>2022-06-05T07:27:45Z</time>
      </trkpt>
      <trkpt lat="44.5392" lon="4.45293">
        <ele>225</ele>
        <time>2022-06-05T07:27:46Z</time>
      </trkpt>
      <trkpt lat="44.53918" lon="4.45294">
        <ele>225.4</ele>
        <time>2022-06-05T07:27:47Z</time>
      </trkpt>
      <trkpt lat="44.53915" lon="4.45295">
        <ele>225.8</ele>
        <time>2022-06-05T07:27:48Z</time>
      </trkpt>
      <trkpt lat="44.53904" lon="4.453">
        <ele>226.2</ele>
        <time>2022-06-05T07:27:53Z</time>
      </trkpt>
      <trkpt lat="44.53901" lon="4.45301">
        <ele>226.6</ele>
        <time>2022-06-05T07:27:54Z</time>
      </trkpt>
      <trkpt lat="44.53899" lon="4.453">
        <ele>227</ele>
        <time>2022-06-05T07:27:55Z</time>
      </trkpt>
      <trkpt lat="44.53897" lon="4.45299">
        <ele>227.4</ele>
        <time>2022-06-05T07:27:56Z</time>
      </trkpt>
      <trkpt lat="44.53895" lon="4.45297">
        <ele>227.8</ele>
        <time>2022-06-05T07:27:57Z</time>
      </trkpt>
      <trkpt lat="44.53891" lon="4.45293">
        <ele>227.8</ele>
        <time>2022-06-05T07:28:01Z</time>
      </trkpt>
      <trkpt lat="44.53888" lon="4.45289">
        <ele>229</ele>
        <time>2022-06-05T07:28:04Z</time>
      </trkpt>
      <trkpt lat="44.53887" lon="4.45286">
        <ele>229.4</ele>
        <time>2022-06-05T07:28:05Z</time>
      </trkpt>
      <trkpt lat="44.53887" lon="4.45284">
        <ele>229.8</ele>
        <time>2022-06-05T07:28:06Z</time>
      </trkpt>
      <trkpt lat="44.53883" lon="4.45274">
        <ele>229.8</ele>
        <time>2022-06-05T07:28:11Z</time>
      </trkpt>
      <trkpt lat="44.5388" lon="4.45259">
        <ele>232.2</ele>
        <time>2022-06-05T07:28:19Z</time>
      </trkpt>
      <trkpt lat="44.5388" lon="4.45256">
        <ele>232.6</ele>
        <time>2022-06-05T07:28:20Z</time>
      </trkpt>
      <trkpt lat="44.5388" lon="4.45253">
        <ele>233</ele>
        <time>2022-06-05T07:28:21Z</time>
      </trkpt>
      <trkpt lat="44.53879" lon="4.4525">
        <ele>233.4</ele>
        <time>2022-06-05T07:28:22Z</time>
      </trkpt>
      <trkpt lat="44.53879" lon="4.45247">
        <ele>234</ele>
        <time>2022-06-05T07:28:23Z</time>
      </trkpt>
      <trkpt lat="44.53879" lon="4.45243">
        <ele>234.4</ele>
        <time>2022-06-05T07:28:24Z</time>
      </trkpt>
      <trkpt lat="44.53879" lon="4.45239">
        <ele>234.4</ele>
        <time>2022-06-05T07:28:25Z</time>
      </trkpt>
      <trkpt lat="44.5388" lon="4.45234">
        <ele>234.8</ele>
        <time>2022-06-05T07:28:26Z</time>
      </trkpt>
      <trkpt lat="44.53881" lon="4.4523">
        <ele>235.2</ele>
        <time>2022-06-05T07:28:27Z</time>
      </trkpt>
      <trkpt lat="44.53881" lon="4.45225">
        <ele>235.6</ele>
        <time>2022-06-05T07:28:28Z</time>
      </trkpt>
      <trkpt lat="44.53882" lon="4.45221">
        <ele>236</ele>
        <time>2022-06-05T07:28:29Z</time>
      </trkpt>
      <trkpt lat="44.53883" lon="4.45217">
        <ele>236.4</ele>
        <time>2022-06-05T07:28:30Z</time>
      </trkpt>
      <trkpt lat="44.53886" lon="4.452">
        <ele>236.8</ele>
        <time>2022-06-05T07:28:35Z</time>
      </trkpt>
      <trkpt lat="44.5389" lon="4.45193">
        <ele>237.2</ele>
        <time>2022-06-05T07:28:36Z</time>
      </trkpt>
      <trkpt lat="44.53893" lon="4.45186">
        <ele>237.6</ele>
        <time>2022-06-05T07:28:37Z</time>
      </trkpt>
      <trkpt lat="44.53896" lon="4.4518">
        <ele>238</ele>
        <time>2022-06-05T07:28:38Z</time>
      </trkpt>
      <trkpt lat="44.53898" lon="4.45175">
        <ele>238.4</ele>
        <time>2022-06-05T07:28:39Z</time>
      </trkpt>
      <trkpt lat="44.53907" lon="4.45136">
        <ele>238.4</ele>
        <time>2022-06-05T07:28:48Z</time>
      </trkpt>
      <trkpt lat="44.53913" lon="4.45098">
        <ele>238.4</ele>
        <time>2022-06-05T07:28:57Z</time>
      </trkpt>
      <trkpt lat="44.53915" lon="4.45058">
        <ele>238.4</ele>
        <time>2022-06-05T07:29:07Z</time>
      </trkpt>
      <trkpt lat="44.53919" lon="4.45017">
        <ele>238.4</ele>
        <time>2022-06-05T07:29:16Z</time>
      </trkpt>
      <trkpt lat="44.53919" lon="4.45011">
        <ele>238.4</ele>
        <time>2022-06-05T07:29:17Z</time>
      </trkpt>
      <trkpt lat="44.53922" lon="4.45005">
        <ele>238.4</ele>
        <time>2022-06-05T07:29:30Z</time>
      </trkpt>
      <trkpt lat="44.53924" lon="4.44996">
        <ele>238.4</ele>
        <time>2022-06-05T07:29:33Z</time>
      </trkpt>
      <trkpt lat="44.53922" lon="4.44977">
        <ele>238.4</ele>
        <time>2022-06-05T07:29:38Z</time>
      </trkpt>
      <trkpt lat="44.53921" lon="4.44975">
        <ele>237.6</ele>
        <time>2022-06-05T07:29:39Z</time>
      </trkpt>
      <trkpt lat="44.5392" lon="4.44972">
        <ele>237</ele>
        <time>2022-06-05T07:29:40Z</time>
      </trkpt>
      <trkpt lat="44.53918" lon="4.4497">
        <ele>236.6</ele>
        <time>2022-06-05T07:29:41Z</time>
      </trkpt>
      <trkpt lat="44.53917" lon="4.44968">
        <ele>236.2</ele>
        <time>2022-06-05T07:29:42Z</time>
      </trkpt>
      <trkpt lat="44.53914" lon="4.44958">
        <ele>236.2</ele>
        <time>2022-06-05T07:29:46Z</time>
      </trkpt>
      <trkpt lat="44.53913" lon="4.44955">
        <ele>235.8</ele>
        <time>2022-06-05T07:29:47Z</time>
      </trkpt>
      <trkpt lat="44.53913" lon="4.44953">
        <ele>235.4</ele>
        <time>2022-06-05T07:29:48Z</time>
      </trkpt>
      <trkpt lat="44.53912" lon="4.4495">
        <ele>235</ele>
        <time>2022-06-05T07:29:49Z</time>
      </trkpt>
      <trkpt lat="44.53912" lon="4.44947">
        <ele>234.6</ele>
        <time>2022-06-05T07:29:50Z</time>
      </trkpt>
      <trkpt lat="44.53912" lon="4.44943">
        <ele>234.2</ele>
        <time>2022-06-05T07:29:51Z</time>
      </trkpt>
      <trkpt lat="44.5391" lon="4.44935">
        <ele>234.2</ele>
        <time>2022-06-05T07:29:53Z</time>
      </trkpt>
      <trkpt lat="44.53903" lon="4.44913">
        <ele>233.8</ele>
        <time>2022-06-05T07:29:58Z</time>
      </trkpt>
      <trkpt lat="44.539" lon="4.44911">
        <ele>233.4</ele>
        <time>2022-06-05T07:29:59Z</time>
      </trkpt>
      <trkpt lat="44.53898" lon="4.44907">
        <ele>233</ele>
        <time>2022-06-05T07:30:00Z</time>
      </trkpt>
      <trkpt lat="44.53896" lon="4.44904">
        <ele>232.6</ele>
        <time>2022-06-05T07:30:01Z</time>
      </trkpt>
      <trkpt lat="44.53891" lon="4.44902">
        <ele>232.2</ele>
        <time>2022-06-05T07:30:02Z</time>
      </trkpt>
      <trkpt lat="44.53882" lon="4.44902">
        <ele>232.2</ele>
        <time>2022-06-05T07:30:04Z</time>
      </trkpt>
      <trkpt lat="44.53871" lon="4.44903">
        <ele>231.8</ele>
        <time>2022-06-05T07:30:06Z</time>
      </trkpt>
      <trkpt lat="44.53866" lon="4.44905">
        <ele>231.2</ele>
        <time>2022-06-05T07:30:07Z</time>
      </trkpt>
      <trkpt lat="44.53861" lon="4.44906">
        <ele>230.8</ele>
        <time>2022-06-05T07:30:08Z</time>
      </trkpt>
      <trkpt lat="44.53856" lon="4.44906">
        <ele>230.4</ele>
        <time>2022-06-05T07:30:09Z</time>
      </trkpt>
      <trkpt lat="44.53851" lon="4.44906">
        <ele>230</ele>
        <time>2022-06-05T07:30:10Z</time>
      </trkpt>
      <trkpt lat="44.53847" lon="4.44905">
        <ele>230</ele>
        <time>2022-06-05T07:30:11Z</time>
      </trkpt>
      <trkpt lat="44.53841" lon="4.44898">
        <ele>230</ele>
        <time>2022-06-05T07:30:13Z</time>
      </trkpt>
      <trkpt lat="44.53834" lon="4.44875">
        <ele>230</ele>
        <time>2022-06-05T07:30:18Z</time>
      </trkpt>
      <trkpt lat="44.53828" lon="4.4483">
        <ele>230</ele>
        <time>2022-06-05T07:30:27Z</time>
      </trkpt>
      <trkpt lat="44.53826" lon="4.44816">
        <ele>230.4</ele>
        <time>2022-06-05T07:30:30Z</time>
      </trkpt>
      <trkpt lat="44.53825" lon="4.44811">
        <ele>230.8</ele>
        <time>2022-06-05T07:30:31Z</time>
      </trkpt>
      <trkpt lat="44.53824" lon="4.44807">
        <ele>231.2</ele>
        <time>2022-06-05T07:30:32Z</time>
      </trkpt>
      <trkpt lat="44.53823" lon="4.44803">
        <ele>231.6</ele>
        <time>2022-06-05T07:30:33Z</time>
      </trkpt>
      <trkpt lat="44.53822" lon="4.44799">
        <ele>232</ele>
        <time>2022-06-05T07:30:34Z</time>
      </trkpt>
      <trkpt lat="44.53819" lon="4.44792">
        <ele>232</ele>
        <time>2022-06-05T07:30:36Z</time>
      </trkpt>
      <trkpt lat="44.53806" lon="4.44758">
        <ele>232</ele>
        <time>2022-06-05T07:30:45Z</time>
      </trkpt>
      <trkpt lat="44.53805" lon="4.44754">
        <ele>232.4</ele>
        <time>2022-06-05T07:30:46Z</time>
      </trkpt>
      <trkpt lat="44.53804" lon="4.4475">
        <ele>232.8</ele>
        <time>2022-06-05T07:30:47Z</time>
      </trkpt>
      <trkpt lat="44.53803" lon="4.44746">
        <ele>233.2</ele>
        <time>2022-06-05T07:30:48Z</time>
      </trkpt>
      <trkpt lat="44.53801" lon="4.44742">
        <ele>233.6</ele>
        <time>2022-06-05T07:30:49Z</time>
      </trkpt>
      <trkpt lat="44.538" lon="4.44738">
        <ele>234</ele>
        <time>2022-06-05T07:30:50Z</time>
      </trkpt>
      <trkpt lat="44.53796" lon="4.44721">
        <ele>234</ele>
        <time>2022-06-05T07:30:54Z</time>
      </trkpt>
      <trkpt lat="44.53792" lon="4.44697">
        <ele>234.4</ele>
        <time>2022-06-05T07:30:59Z</time>
      </trkpt>
      <trkpt lat="44.53791" lon="4.44694">
        <ele>234.8</ele>
        <time>2022-06-05T07:31:00Z</time>
      </trkpt>
      <trkpt lat="44.5379" lon="4.44691">
        <ele>235.4</ele>
        <time>2022-06-05T07:31:01Z</time>
      </trkpt>
      <trkpt lat="44.5379" lon="4.44688">
        <ele>235.8</ele>
        <time>2022-06-05T07:31:02Z</time>
      </trkpt>
      <trkpt lat="44.53789" lon="4.44685">
        <ele>236.2</ele>
        <time>2022-06-05T07:31:03Z</time>
      </trkpt>
      <trkpt lat="44.53788" lon="4.44682">
        <ele>236.6</ele>
        <time>2022-06-05T07:31:04Z</time>
      </trkpt>
      <trkpt lat="44.53787" lon="4.44679">
        <ele>237</ele>
        <time>2022-06-05T07:31:05Z</time>
      </trkpt>
      <trkpt lat="44.53786" lon="4.44676">
        <ele>237.4</ele>
        <time>2022-06-05T07:31:06Z</time>
      </trkpt>
      <trkpt lat="44.53786" lon="4.44674">
        <ele>238</ele>
        <time>2022-06-05T07:31:07Z</time>
      </trkpt>
      <trkpt lat="44.53785" lon="4.44671">
        <ele>238.4</ele>
        <time>2022-06-05T07:31:08Z</time>
      </trkpt>
      <trkpt lat="44.53784" lon="4.44665">
        <ele>238.4</ele>
        <time>2022-06-05T07:31:10Z</time>
      </trkpt>
      <trkpt lat="44.53778" lon="4.44642">
        <ele>238.8</ele>
        <time>2022-06-05T07:31:16Z</time>
      </trkpt>
      <trkpt lat="44.53777" lon="4.44639">
        <ele>239.2</ele>
        <time>2022-06-05T07:31:17Z</time>
      </trkpt>
      <trkpt lat="44.53775" lon="4.44635">
        <ele>240.2</ele>
        <time>2022-06-05T07:31:18Z</time>
      </trkpt>
      <trkpt lat="44.53774" lon="4.44631">
        <ele>240.6</ele>
        <time>2022-06-05T07:31:19Z</time>
      </trkpt>
      <trkpt lat="44.53773" lon="4.44627">
        <ele>240.6</ele>
        <time>2022-06-05T07:31:20Z</time>
      </trkpt>
      <trkpt lat="44.53766" lon="4.446">
        <ele>241</ele>
        <time>2022-06-05T07:31:28Z</time>
      </trkpt>
      <trkpt lat="44.53765" lon="4.44596">
        <ele>241.4</ele>
        <time>2022-06-05T07:31:29Z</time>
      </trkpt>
      <trkpt lat="44.53765" lon="4.44593">
        <ele>242</ele>
        <time>2022-06-05T07:31:30Z</time>
      </trkpt>
      <trkpt lat="44.53764" lon="4.44589">
        <ele>242.4</ele>
        <time>2022-06-05T07:31:31Z</time>
      </trkpt>
      <trkpt lat="44.53763" lon="4.44586">
        <ele>242.8</ele>
        <time>2022-06-05T07:31:32Z</time>
      </trkpt>
      <trkpt lat="44.53759" lon="4.44564">
        <ele>243.2</ele>
        <time>2022-06-05T07:31:39Z</time>
      </trkpt>
      <trkpt lat="44.53759" lon="4.44561">
        <ele>243.8</ele>
        <time>2022-06-05T07:31:40Z</time>
      </trkpt>
      <trkpt lat="44.53758" lon="4.44558">
        <ele>244.2</ele>
        <time>2022-06-05T07:31:41Z</time>
      </trkpt>
      <trkpt lat="44.53758" lon="4.44556">
        <ele>244.6</ele>
        <time>2022-06-05T07:31:42Z</time>
      </trkpt>
      <trkpt lat="44.53757" lon="4.44553">
        <ele>245.2</ele>
        <time>2022-06-05T07:31:43Z</time>
      </trkpt>
      <trkpt lat="44.53748" lon="4.44528">
        <ele>245.2</ele>
        <time>2022-06-05T07:31:51Z</time>
      </trkpt>
      <trkpt lat="44.53739" lon="4.44503">
        <ele>245.2</ele>
        <time>2022-06-05T07:31:57Z</time>
      </trkpt>
      <trkpt lat="44.53734" lon="4.44488">
        <ele>244.8</ele>
        <time>2022-06-05T07:32:00Z</time>
      </trkpt>
      <trkpt lat="44.53731" lon="4.44484">
        <ele>244.2</ele>
        <time>2022-06-05T07:32:01Z</time>
      </trkpt>
      <trkpt lat="44.53728" lon="4.4448">
        <ele>243.8</ele>
        <time>2022-06-05T07:32:02Z</time>
      </trkpt>
      <trkpt lat="44.53725" lon="4.44476">
        <ele>243.4</ele>
        <time>2022-06-05T07:32:03Z</time>
      </trkpt>
      <trkpt lat="44.5372" lon="4.44472">
        <ele>243</ele>
        <time>2022-06-05T07:32:04Z</time>
      </trkpt>
      <trkpt lat="44.53695" lon="4.44452">
        <ele>242.6</ele>
        <time>2022-06-05T07:32:10Z</time>
      </trkpt>
      <trkpt lat="44.5369" lon="4.4445">
        <ele>242</ele>
        <time>2022-06-05T07:32:11Z</time>
      </trkpt>
      <trkpt lat="44.53686" lon="4.44447">
        <ele>241.6</ele>
        <time>2022-06-05T07:32:12Z</time>
      </trkpt>
      <trkpt lat="44.53681" lon="4.44444">
        <ele>241.2</ele>
        <time>2022-06-05T07:32:13Z</time>
      </trkpt>
      <trkpt lat="44.53677" lon="4.4444">
        <ele>240.6</ele>
        <time>2022-06-05T07:32:14Z</time>
      </trkpt>
      <trkpt lat="44.5367" lon="4.44431">
        <ele>240.6</ele>
        <time>2022-06-05T07:32:16Z</time>
      </trkpt>
      <trkpt lat="44.53659" lon="4.4442">
        <ele>240.6</ele>
        <time>2022-06-05T07:32:19Z</time>
      </trkpt>
      <trkpt lat="44.53645" lon="4.4441">
        <ele>240.6</ele>
        <time>2022-06-05T07:32:22Z</time>
      </trkpt>
      <trkpt lat="44.53636" lon="4.44389">
        <ele>240.6</ele>
        <time>2022-06-05T07:32:26Z</time>
      </trkpt>
      <trkpt lat="44.5363" lon="4.4437">
        <ele>240.6</ele>
        <time>2022-06-05T07:32:29Z</time>
      </trkpt>
      <trkpt lat="44.53628" lon="4.44363">
        <ele>240.2</ele>
        <time>2022-06-05T07:32:30Z</time>
      </trkpt>
      <trkpt lat="44.53627" lon="4.44355">
        <ele>239.6</ele>
        <time>2022-06-05T07:32:31Z</time>
      </trkpt>
      <trkpt lat="44.53626" lon="4.44348">
        <ele>239.2</ele>
        <time>2022-06-05T07:32:32Z</time>
      </trkpt>
      <trkpt lat="44.53624" lon="4.4434">
        <ele>238.8</ele>
        <time>2022-06-05T07:32:33Z</time>
      </trkpt>
      <trkpt lat="44.53623" lon="4.44333">
        <ele>237.6</ele>
        <time>2022-06-05T07:32:34Z</time>
      </trkpt>
      <trkpt lat="44.53621" lon="4.44326">
        <ele>237.2</ele>
        <time>2022-06-05T07:32:35Z</time>
      </trkpt>
      <trkpt lat="44.53619" lon="4.44319">
        <ele>236.6</ele>
        <time>2022-06-05T07:32:36Z</time>
      </trkpt>
      <trkpt lat="44.53615" lon="4.44311">
        <ele>236.2</ele>
        <time>2022-06-05T07:32:37Z</time>
      </trkpt>
      <trkpt lat="44.53612" lon="4.44304">
        <ele>235.6</ele>
        <time>2022-06-05T07:32:38Z</time>
      </trkpt>
      <trkpt lat="44.53603" lon="4.44292">
        <ele>235.2</ele>
        <time>2022-06-05T07:32:40Z</time>
      </trkpt>
      <trkpt lat="44.53598" lon="4.44288">
        <ele>234.8</ele>
        <time>2022-06-05T07:32:41Z</time>
      </trkpt>
      <trkpt lat="44.53593" lon="4.44284">
        <ele>234.4</ele>
        <time>2022-06-05T07:32:42Z</time>
      </trkpt>
      <trkpt lat="44.5359" lon="4.44278">
        <ele>234</ele>
        <time>2022-06-05T07:32:43Z</time>
      </trkpt>
      <trkpt lat="44.53588" lon="4.44272">
        <ele>233.6</ele>
        <time>2022-06-05T07:32:44Z</time>
      </trkpt>
      <trkpt lat="44.53586" lon="4.44264">
        <ele>233.6</ele>
        <time>2022-06-05T07:32:45Z</time>
      </trkpt>
      <trkpt lat="44.53583" lon="4.44255">
        <ele>233.6</ele>
        <time>2022-06-05T07:32:46Z</time>
      </trkpt>
      <trkpt lat="44.53581" lon="4.44245">
        <ele>233.6</ele>
        <time>2022-06-05T07:32:47Z</time>
      </trkpt>
      <trkpt lat="44.53579" lon="4.44236">
        <ele>233.2</ele>
        <time>2022-06-05T07:32:48Z</time>
      </trkpt>
      <trkpt lat="44.53578" lon="4.44227">
        <ele>232.8</ele>
        <time>2022-06-05T07:32:49Z</time>
      </trkpt>
      <trkpt lat="44.53576" lon="4.44218">
        <ele>232.4</ele>
        <time>2022-06-05T07:32:50Z</time>
      </trkpt>
      <trkpt lat="44.53574" lon="4.44209">
        <ele>231.8</ele>
        <time>2022-06-05T07:32:51Z</time>
      </trkpt>
      <trkpt lat="44.53573" lon="4.44201">
        <ele>231.4</ele>
        <time>2022-06-05T07:32:52Z</time>
      </trkpt>
      <trkpt lat="44.53567" lon="4.44169">
        <ele>231</ele>
        <time>2022-06-05T07:32:56Z</time>
      </trkpt>
      <trkpt lat="44.53566" lon="4.44162">
        <ele>230.6</ele>
        <time>2022-06-05T07:32:57Z</time>
      </trkpt>
      <trkpt lat="44.53565" lon="4.44155">
        <ele>230.2</ele>
        <time>2022-06-05T07:32:58Z</time>
      </trkpt>
      <trkpt lat="44.53564" lon="4.4415">
        <ele>229.4</ele>
        <time>2022-06-05T07:32:59Z</time>
      </trkpt>
      <trkpt lat="44.53562" lon="4.44123">
        <ele>229.4</ele>
        <time>2022-06-05T07:33:05Z</time>
      </trkpt>
      <trkpt lat="44.53559" lon="4.44105">
        <ele>229</ele>
        <time>2022-06-05T07:33:08Z</time>
      </trkpt>
      <trkpt lat="44.53557" lon="4.44099">
        <ele>228.6</ele>
        <time>2022-06-05T07:33:09Z</time>
      </trkpt>
      <trkpt lat="44.53554" lon="4.44094">
        <ele>228.2</ele>
        <time>2022-06-05T07:33:10Z</time>
      </trkpt>
      <trkpt lat="44.5355" lon="4.44088">
        <ele>227.6</ele>
        <time>2022-06-05T07:33:11Z</time>
      </trkpt>
      <trkpt lat="44.53547" lon="4.44082">
        <ele>227.2</ele>
        <time>2022-06-05T07:33:12Z</time>
      </trkpt>
      <trkpt lat="44.53538" lon="4.4406">
        <ele>227.2</ele>
        <time>2022-06-05T07:33:15Z</time>
      </trkpt>
      <trkpt lat="44.53534" lon="4.44052">
        <ele>226.8</ele>
        <time>2022-06-05T07:33:16Z</time>
      </trkpt>
      <trkpt lat="44.53531" lon="4.44044">
        <ele>226.2</ele>
        <time>2022-06-05T07:33:17Z</time>
      </trkpt>
      <trkpt lat="44.53528" lon="4.44035">
        <ele>225.8</ele>
        <time>2022-06-05T07:33:18Z</time>
      </trkpt>
      <trkpt lat="44.53525" lon="4.44026">
        <ele>225.4</ele>
        <time>2022-06-05T07:33:19Z</time>
      </trkpt>
      <trkpt lat="44.53523" lon="4.44018">
        <ele>224.8</ele>
        <time>2022-06-05T07:33:20Z</time>
      </trkpt>
      <trkpt lat="44.53521" lon="4.4401">
        <ele>224.8</ele>
        <time>2022-06-05T07:33:21Z</time>
      </trkpt>
      <trkpt lat="44.53519" lon="4.43995">
        <ele>224.8</ele>
        <time>2022-06-05T07:33:23Z</time>
      </trkpt>
      <trkpt lat="44.53518" lon="4.43987">
        <ele>224</ele>
        <time>2022-06-05T07:33:24Z</time>
      </trkpt>
      <trkpt lat="44.53518" lon="4.43979">
        <ele>223.6</ele>
        <time>2022-06-05T07:33:25Z</time>
      </trkpt>
      <trkpt lat="44.53519" lon="4.43972">
        <ele>223.2</ele>
        <time>2022-06-05T07:33:26Z</time>
      </trkpt>
      <trkpt lat="44.5352" lon="4.43964">
        <ele>222.8</ele>
        <time>2022-06-05T07:33:27Z</time>
      </trkpt>
      <trkpt lat="44.5352" lon="4.43956">
        <ele>222.8</ele>
        <time>2022-06-05T07:33:28Z</time>
      </trkpt>
      <trkpt lat="44.53526" lon="4.43931">
        <ele>222.8</ele>
        <time>2022-06-05T07:33:31Z</time>
      </trkpt>
      <trkpt lat="44.53535" lon="4.43895">
        <ele>222.4</ele>
        <time>2022-06-05T07:33:36Z</time>
      </trkpt>
      <trkpt lat="44.53537" lon="4.43888">
        <ele>222</ele>
        <time>2022-06-05T07:33:37Z</time>
      </trkpt>
      <trkpt lat="44.53539" lon="4.43881">
        <ele>221.6</ele>
        <time>2022-06-05T07:33:38Z</time>
      </trkpt>
      <trkpt lat="44.53541" lon="4.43874">
        <ele>221.2</ele>
        <time>2022-06-05T07:33:39Z</time>
      </trkpt>
      <trkpt lat="44.53543" lon="4.43867">
        <ele>220.8</ele>
        <time>2022-06-05T07:33:40Z</time>
      </trkpt>
      <trkpt lat="44.53551" lon="4.43846">
        <ele>220.8</ele>
        <time>2022-06-05T07:33:43Z</time>
      </trkpt>
      <trkpt lat="44.53554" lon="4.43832">
        <ele>220.8</ele>
        <time>2022-06-05T07:33:45Z</time>
      </trkpt>
      <trkpt lat="44.53555" lon="4.43817">
        <ele>220.2</ele>
        <time>2022-06-05T07:33:47Z</time>
      </trkpt>
      <trkpt lat="44.53555" lon="4.43809">
        <ele>219.8</ele>
        <time>2022-06-05T07:33:48Z</time>
      </trkpt>
      <trkpt lat="44.53556" lon="4.43799">
        <ele>219.2</ele>
        <time>2022-06-05T07:33:49Z</time>
      </trkpt>
      <trkpt lat="44.53557" lon="4.4379">
        <ele>218.8</ele>
        <time>2022-06-05T07:33:50Z</time>
      </trkpt>
      <trkpt lat="44.53559" lon="4.43781">
        <ele>218.2</ele>
        <time>2022-06-05T07:33:51Z</time>
      </trkpt>
      <trkpt lat="44.5356" lon="4.43772">
        <ele>217.8</ele>
        <time>2022-06-05T07:33:52Z</time>
      </trkpt>
      <trkpt lat="44.53561" lon="4.43762">
        <ele>217.4</ele>
        <time>2022-06-05T07:33:53Z</time>
      </trkpt>
      <trkpt lat="44.53563" lon="4.43752">
        <ele>216.8</ele>
        <time>2022-06-05T07:33:54Z</time>
      </trkpt>
      <trkpt lat="44.53564" lon="4.43743">
        <ele>216.4</ele>
        <time>2022-06-05T07:33:55Z</time>
      </trkpt>
      <trkpt lat="44.53565" lon="4.43733">
        <ele>216</ele>
        <time>2022-06-05T07:33:56Z</time>
      </trkpt>
      <trkpt lat="44.53566" lon="4.43724">
        <ele>215.6</ele>
        <time>2022-06-05T07:33:57Z</time>
      </trkpt>
      <trkpt lat="44.53566" lon="4.43715">
        <ele>215</ele>
        <time>2022-06-05T07:33:58Z</time>
      </trkpt>
      <trkpt lat="44.53566" lon="4.43706">
        <ele>214.6</ele>
        <time>2022-06-05T07:33:59Z</time>
      </trkpt>
      <trkpt lat="44.53566" lon="4.43697">
        <ele>214.2</ele>
        <time>2022-06-05T07:34:00Z</time>
      </trkpt>
      <trkpt lat="44.53566" lon="4.43688">
        <ele>213.8</ele>
        <time>2022-06-05T07:34:01Z</time>
      </trkpt>
      <trkpt lat="44.53564" lon="4.43653">
        <ele>213.2</ele>
        <time>2022-06-05T07:34:05Z</time>
      </trkpt>
      <trkpt lat="44.53561" lon="4.43646">
        <ele>212.8</ele>
        <time>2022-06-05T07:34:06Z</time>
      </trkpt>
      <trkpt lat="44.53558" lon="4.43641">
        <ele>212.4</ele>
        <time>2022-06-05T07:34:07Z</time>
      </trkpt>
      <trkpt lat="44.53554" lon="4.43637">
        <ele>211.8</ele>
        <time>2022-06-05T07:34:08Z</time>
      </trkpt>
      <trkpt lat="44.5355" lon="4.43633">
        <ele>211.4</ele>
        <time>2022-06-05T07:34:09Z</time>
      </trkpt>
      <trkpt lat="44.53529" lon="4.43614">
        <ele>211.4</ele>
        <time>2022-06-05T07:34:14Z</time>
      </trkpt>
      <trkpt lat="44.53525" lon="4.4361">
        <ele>211.4</ele>
        <time>2022-06-05T07:34:15Z</time>
      </trkpt>
      <trkpt lat="44.53523" lon="4.43605">
        <ele>211</ele>
        <time>2022-06-05T07:34:16Z</time>
      </trkpt>
      <trkpt lat="44.53521" lon="4.436">
        <ele>210.6</ele>
        <time>2022-06-05T07:34:17Z</time>
      </trkpt>
      <trkpt lat="44.5352" lon="4.43594">
        <ele>210.2</ele>
        <time>2022-06-05T07:34:18Z</time>
      </trkpt>
      <trkpt lat="44.53518" lon="4.43589">
        <ele>209.8</ele>
        <time>2022-06-05T07:34:19Z</time>
      </trkpt>
      <trkpt lat="44.53519" lon="4.43584">
        <ele>209.4</ele>
        <time>2022-06-05T07:34:20Z</time>
      </trkpt>
      <trkpt lat="44.5352" lon="4.43574">
        <ele>209.4</ele>
        <time>2022-06-05T07:34:22Z</time>
      </trkpt>
      <trkpt lat="44.53515" lon="4.43559">
        <ele>209.4</ele>
        <time>2022-06-05T07:34:26Z</time>
      </trkpt>
      <trkpt lat="44.53508" lon="4.43549">
        <ele>209.8</ele>
        <time>2022-06-05T07:34:29Z</time>
      </trkpt>
      <trkpt lat="44.53506" lon="4.43546">
        <ele>210.2</ele>
        <time>2022-06-05T07:34:30Z</time>
      </trkpt>
      <trkpt lat="44.53504" lon="4.43542">
        <ele>210.6</ele>
        <time>2022-06-05T07:34:31Z</time>
      </trkpt>
      <trkpt lat="44.53502" lon="4.43539">
        <ele>211</ele>
        <time>2022-06-05T07:34:32Z</time>
      </trkpt>
      <trkpt lat="44.535" lon="4.43535">
        <ele>211.4</ele>
        <time>2022-06-05T07:34:33Z</time>
      </trkpt>
      <trkpt lat="44.53496" lon="4.43528">
        <ele>211.4</ele>
        <time>2022-06-05T07:34:35Z</time>
      </trkpt>
      <trkpt lat="44.5349" lon="4.43518">
        <ele>211.8</ele>
        <time>2022-06-05T07:34:38Z</time>
      </trkpt>
      <trkpt lat="44.53489" lon="4.43514">
        <ele>212.4</ele>
        <time>2022-06-05T07:34:39Z</time>
      </trkpt>
      <trkpt lat="44.53487" lon="4.4351">
        <ele>212.8</ele>
        <time>2022-06-05T07:34:40Z</time>
      </trkpt>
      <trkpt lat="44.53486" lon="4.43507">
        <ele>213.2</ele>
        <time>2022-06-05T07:34:41Z</time>
      </trkpt>
      <trkpt lat="44.53484" lon="4.43503">
        <ele>213.6</ele>
        <time>2022-06-05T07:34:42Z</time>
      </trkpt>
      <trkpt lat="44.53481" lon="4.43494">
        <ele>213.6</ele>
        <time>2022-06-05T07:34:44Z</time>
      </trkpt>
      <trkpt lat="44.53469" lon="4.43473">
        <ele>214</ele>
        <time>2022-06-05T07:34:50Z</time>
      </trkpt>
      <trkpt lat="44.53467" lon="4.43469">
        <ele>214.6</ele>
        <time>2022-06-05T07:34:51Z</time>
      </trkpt>
      <trkpt lat="44.53465" lon="4.43465">
        <ele>215</ele>
        <time>2022-06-05T07:34:52Z</time>
      </trkpt>
      <trkpt lat="44.53462" lon="4.43462">
        <ele>215.4</ele>
        <time>2022-06-05T07:34:53Z</time>
      </trkpt>
      <trkpt lat="44.5346" lon="4.43458">
        <ele>215.8</ele>
        <time>2022-06-05T07:34:54Z</time>
      </trkpt>
      <trkpt lat="44.53443" lon="4.43429">
        <ele>215.8</ele>
        <time>2022-06-05T07:35:02Z</time>
      </trkpt>
      <trkpt lat="44.53433" lon="4.43401">
        <ele>215.8</ele>
        <time>2022-06-05T07:35:08Z</time>
      </trkpt>
      <trkpt lat="44.53428" lon="4.43376">
        <ele>216.2</ele>
        <time>2022-06-05T07:35:13Z</time>
      </trkpt>
      <trkpt lat="44.53427" lon="4.4337">
        <ele>216.6</ele>
        <time>2022-06-05T07:35:14Z</time>
      </trkpt>
      <trkpt lat="44.53426" lon="4.43364">
        <ele>217</ele>
        <time>2022-06-05T07:35:15Z</time>
      </trkpt>
      <trkpt lat="44.53425" lon="4.43357">
        <ele>217.4</ele>
        <time>2022-06-05T07:35:16Z</time>
      </trkpt>
      <trkpt lat="44.53423" lon="4.43352">
        <ele>217.8</ele>
        <time>2022-06-05T07:35:17Z</time>
      </trkpt>
      <trkpt lat="44.53422" lon="4.43346">
        <ele>217.8</ele>
        <time>2022-06-05T07:35:18Z</time>
      </trkpt>
      <trkpt lat="44.53415" lon="4.43291">
        <ele>217.8</ele>
        <time>2022-06-05T07:35:27Z</time>
      </trkpt>
      <trkpt lat="44.53415" lon="4.43286">
        <ele>217.8</ele>
        <time>2022-06-05T07:35:28Z</time>
      </trkpt>
      <trkpt lat="44.53422" lon="4.43249">
        <ele>217.8</ele>
        <time>2022-06-05T07:35:34Z</time>
      </trkpt>
      <trkpt lat="44.53424" lon="4.43236">
        <ele>217.8</ele>
        <time>2022-06-05T07:35:36Z</time>
      </trkpt>
      <trkpt lat="44.53422" lon="4.43227">
        <ele>217.4</ele>
        <time>2022-06-05T07:35:38Z</time>
      </trkpt>
      <trkpt lat="44.53421" lon="4.43222">
        <ele>217</ele>
        <time>2022-06-05T07:35:39Z</time>
      </trkpt>
      <trkpt lat="44.53419" lon="4.43218">
        <ele>216.6</ele>
        <time>2022-06-05T07:35:40Z</time>
      </trkpt>
      <trkpt lat="44.53418" lon="4.43214">
        <ele>216</ele>
        <time>2022-06-05T07:35:41Z</time>
      </trkpt>
      <trkpt lat="44.53417" lon="4.4321">
        <ele>215.6</ele>
        <time>2022-06-05T07:35:42Z</time>
      </trkpt>
      <trkpt lat="44.53412" lon="4.43198">
        <ele>215.6</ele>
        <time>2022-06-05T07:35:45Z</time>
      </trkpt>
      <trkpt lat="44.53395" lon="4.43166">
        <ele>215.6</ele>
        <time>2022-06-05T07:35:53Z</time>
      </trkpt>
      <trkpt lat="44.53374" lon="4.43132">
        <ele>215.6</ele>
        <time>2022-06-05T07:36:01Z</time>
      </trkpt>
      <trkpt lat="44.53349" lon="4.43101">
        <ele>215.6</ele>
        <time>2022-06-05T07:36:10Z</time>
      </trkpt>
      <trkpt lat="44.53335" lon="4.43079">
        <ele>215.6</ele>
        <time>2022-06-05T07:36:16Z</time>
      </trkpt>
      <trkpt lat="44.5332" lon="4.43081">
        <ele>215.6</ele>
        <time>2022-06-05T07:36:21Z</time>
      </trkpt>
      <trkpt lat="44.5331" lon="4.4309">
        <ele>215.6</ele>
        <time>2022-06-05T07:36:25Z</time>
      </trkpt>
      <trkpt lat="44.53305" lon="4.43095">
        <ele>215.6</ele>
        <time>2022-06-05T07:36:27Z</time>
      </trkpt>
      <trkpt lat="44.53278" lon="4.43117">
        <ele>215.6</ele>
        <time>2022-06-05T07:36:38Z</time>
      </trkpt>
      <trkpt lat="44.53275" lon="4.43119">
        <ele>216.4</ele>
        <time>2022-06-05T07:36:39Z</time>
      </trkpt>
      <trkpt lat="44.53273" lon="4.43121">
        <ele>216.8</ele>
        <time>2022-06-05T07:36:40Z</time>
      </trkpt>
      <trkpt lat="44.5327" lon="4.43123">
        <ele>217.2</ele>
        <time>2022-06-05T07:36:41Z</time>
      </trkpt>
      <trkpt lat="44.53268" lon="4.43125">
        <ele>217.8</ele>
        <time>2022-06-05T07:36:42Z</time>
      </trkpt>
      <trkpt lat="44.5326" lon="4.43134">
        <ele>218.2</ele>
        <time>2022-06-05T07:36:46Z</time>
      </trkpt>
      <trkpt lat="44.53259" lon="4.43136">
        <ele>218.6</ele>
        <time>2022-06-05T07:36:47Z</time>
      </trkpt>
      <trkpt lat="44.53257" lon="4.43138">
        <ele>219</ele>
        <time>2022-06-05T07:36:48Z</time>
      </trkpt>
      <trkpt lat="44.53255" lon="4.4314">
        <ele>219.6</ele>
        <time>2022-06-05T07:36:49Z</time>
      </trkpt>
      <trkpt lat="44.53253" lon="4.43142">
        <ele>220</ele>
        <time>2022-06-05T07:36:50Z</time>
      </trkpt>
      <trkpt lat="44.53245" lon="4.43148">
        <ele>220.4</ele>
        <time>2022-06-05T07:36:54Z</time>
      </trkpt>
      <trkpt lat="44.53243" lon="4.43149">
        <ele>220.8</ele>
        <time>2022-06-05T07:36:55Z</time>
      </trkpt>
      <trkpt lat="44.5324" lon="4.4315">
        <ele>221.2</ele>
        <time>2022-06-05T07:36:56Z</time>
      </trkpt>
      <trkpt lat="44.53238" lon="4.4315">
        <ele>221.6</ele>
        <time>2022-06-05T07:36:57Z</time>
      </trkpt>
      <trkpt lat="44.53236" lon="4.4315">
        <ele>222</ele>
        <time>2022-06-05T07:36:58Z</time>
      </trkpt>
      <trkpt lat="44.53232" lon="4.43147">
        <ele>222</ele>
        <time>2022-06-05T07:37:00Z</time>
      </trkpt>
      <trkpt lat="44.53224" lon="4.43139">
        <ele>222.4</ele>
        <time>2022-06-05T07:37:04Z</time>
      </trkpt>
      <trkpt lat="44.53222" lon="4.43137">
        <ele>222.8</ele>
        <time>2022-06-05T07:37:05Z</time>
      </trkpt>
      <trkpt lat="44.5322" lon="4.43135">
        <ele>223.2</ele>
        <time>2022-06-05T07:37:06Z</time>
      </trkpt>
      <trkpt lat="44.53219" lon="4.43133">
        <ele>223.6</ele>
        <time>2022-06-05T07:37:07Z</time>
      </trkpt>
      <trkpt lat="44.53217" lon="4.43131">
        <ele>224</ele>
        <time>2022-06-05T07:37:08Z</time>
      </trkpt>
      <trkpt lat="44.53199" lon="4.43121">
        <ele>224</ele>
        <time>2022-06-05T07:37:15Z</time>
      </trkpt>
      <trkpt lat="44.53178" lon="4.43111">
        <ele>224</ele>
        <time>2022-06-05T07:37:23Z</time>
      </trkpt>
      <trkpt lat="44.53157" lon="4.43099">
        <ele>224.4</ele>
        <time>2022-06-05T07:37:32Z</time>
      </trkpt>
      <trkpt lat="44.53155" lon="4.43098">
        <ele>224.8</ele>
        <time>2022-06-05T07:37:33Z</time>
      </trkpt>
      <trkpt lat="44.53152" lon="4.43098">
        <ele>225.4</ele>
        <time>2022-06-05T07:37:34Z</time>
      </trkpt>
      <trkpt lat="44.53149" lon="4.43098">
        <ele>225.8</ele>
        <time>2022-06-05T07:37:35Z</time>
      </trkpt>
      <trkpt lat="44.53146" lon="4.43099">
        <ele>226.2</ele>
        <time>2022-06-05T07:37:36Z</time>
      </trkpt>
      <trkpt lat="44.53138" lon="4.431">
        <ele>226.2</ele>
        <time>2022-06-05T07:37:39Z</time>
      </trkpt>
      <trkpt lat="44.53133" lon="4.43101">
        <ele>226.6</ele>
        <time>2022-06-05T07:37:41Z</time>
      </trkpt>
      <trkpt lat="44.5313" lon="4.43101">
        <ele>227</ele>
        <time>2022-06-05T07:37:42Z</time>
      </trkpt>
      <trkpt lat="44.53127" lon="4.43101">
        <ele>227.4</ele>
        <time>2022-06-05T07:37:43Z</time>
      </trkpt>
      <trkpt lat="44.53124" lon="4.431">
        <ele>227.8</ele>
        <time>2022-06-05T07:37:44Z</time>
      </trkpt>
      <trkpt lat="44.53122" lon="4.43099">
        <ele>228.2</ele>
        <time>2022-06-05T07:37:45Z</time>
      </trkpt>
      <trkpt lat="44.53101" lon="4.4309">
        <ele>228.2</ele>
        <time>2022-06-05T07:37:53Z</time>
      </trkpt>
      <trkpt lat="44.53088" lon="4.43088">
        <ele>228.6</ele>
        <time>2022-06-05T07:37:59Z</time>
      </trkpt>
      <trkpt lat="44.53086" lon="4.43088">
        <ele>229</ele>
        <time>2022-06-05T07:38:00Z</time>
      </trkpt>
      <trkpt lat="44.53084" lon="4.43088">
        <ele>229.4</ele>
        <time>2022-06-05T07:38:01Z</time>
      </trkpt>
      <trkpt lat="44.53082" lon="4.43089">
        <ele>229.8</ele>
        <time>2022-06-05T07:38:02Z</time>
      </trkpt>
      <trkpt lat="44.5308" lon="4.43089">
        <ele>230.2</ele>
        <time>2022-06-05T07:38:03Z</time>
      </trkpt>
      <trkpt lat="44.53069" lon="4.4309">
        <ele>230.2</ele>
        <time>2022-06-05T07:38:09Z</time>
      </trkpt>
      <trkpt lat="44.53061" lon="4.4309">
        <ele>230.8</ele>
        <time>2022-06-05T07:38:13Z</time>
      </trkpt>
      <trkpt lat="44.53059" lon="4.4309">
        <ele>231.2</ele>
        <time>2022-06-05T07:38:14Z</time>
      </trkpt>
      <trkpt lat="44.53057" lon="4.4309">
        <ele>231.6</ele>
        <time>2022-06-05T07:38:15Z</time>
      </trkpt>
      <trkpt lat="44.53054" lon="4.43091">
        <ele>232</ele>
        <time>2022-06-05T07:38:16Z</time>
      </trkpt>
      <trkpt lat="44.53052" lon="4.4309">
        <ele>232.4</ele>
        <time>2022-06-05T07:38:17Z</time>
      </trkpt>
      <trkpt lat="44.5305" lon="4.4309">
        <ele>232.4</ele>
        <time>2022-06-05T07:38:18Z</time>
      </trkpt>
      <trkpt lat="44.53046" lon="4.43089">
        <ele>232.8</ele>
        <time>2022-06-05T07:38:20Z</time>
      </trkpt>
      <trkpt lat="44.53044" lon="4.43089">
        <ele>233.2</ele>
        <time>2022-06-05T07:38:21Z</time>
      </trkpt>
      <trkpt lat="44.53043" lon="4.43089">
        <ele>233.6</ele>
        <time>2022-06-05T07:38:22Z</time>
      </trkpt>
      <trkpt lat="44.53041" lon="4.43088">
        <ele>234.2</ele>
        <time>2022-06-05T07:38:23Z</time>
      </trkpt>
      <trkpt lat="44.5304" lon="4.43088">
        <ele>234.6</ele>
        <time>2022-06-05T07:38:24Z</time>
      </trkpt>
      <trkpt lat="44.53037" lon="4.4309">
        <ele>234.6</ele>
        <time>2022-06-05T07:38:26Z</time>
      </trkpt>
      <trkpt lat="44.53035" lon="4.43091">
        <ele>235</ele>
        <time>2022-06-05T07:38:28Z</time>
      </trkpt>
      <trkpt lat="44.53034" lon="4.43093">
        <ele>235.4</ele>
        <time>2022-06-05T07:38:29Z</time>
      </trkpt>
      <trkpt lat="44.53033" lon="4.43094">
        <ele>235.8</ele>
        <time>2022-06-05T07:38:30Z</time>
      </trkpt>
      <trkpt lat="44.53032" lon="4.43096">
        <ele>236.2</ele>
        <time>2022-06-05T07:38:31Z</time>
      </trkpt>
      <trkpt lat="44.53032" lon="4.43098">
        <ele>236.6</ele>
        <time>2022-06-05T07:38:32Z</time>
      </trkpt>
      <trkpt lat="44.53031" lon="4.43099">
        <ele>236.6</ele>
        <time>2022-06-05T07:38:33Z</time>
      </trkpt>
      <trkpt lat="44.53025" lon="4.43112">
        <ele>237</ele>
        <time>2022-06-05T07:38:40Z</time>
      </trkpt>
      <trkpt lat="44.53024" lon="4.43115">
        <ele>237.4</ele>
        <time>2022-06-05T07:38:41Z</time>
      </trkpt>
      <trkpt lat="44.53024" lon="4.43117">
        <ele>237.8</ele>
        <time>2022-06-05T07:38:42Z</time>
      </trkpt>
      <trkpt lat="44.53023" lon="4.43119">
        <ele>238.8</ele>
        <time>2022-06-05T07:38:43Z</time>
      </trkpt>
      <trkpt lat="44.53023" lon="4.43121">
        <ele>238.8</ele>
        <time>2022-06-05T07:38:44Z</time>
      </trkpt>
      <trkpt lat="44.5302" lon="4.43131">
        <ele>239.2</ele>
        <time>2022-06-05T07:38:49Z</time>
      </trkpt>
      <trkpt lat="44.5302" lon="4.43133">
        <ele>239.6</ele>
        <time>2022-06-05T07:38:50Z</time>
      </trkpt>
      <trkpt lat="44.53019" lon="4.43135">
        <ele>240</ele>
        <time>2022-06-05T07:38:51Z</time>
      </trkpt>
      <trkpt lat="44.53018" lon="4.43137">
        <ele>240.4</ele>
        <time>2022-06-05T07:38:52Z</time>
      </trkpt>
      <trkpt lat="44.53018" lon="4.43138">
        <ele>240.8</ele>
        <time>2022-06-05T07:38:53Z</time>
      </trkpt>
      <trkpt lat="44.5301" lon="4.43152">
        <ele>241.2</ele>
        <time>2022-06-05T07:39:00Z</time>
      </trkpt>
      <trkpt lat="44.53008" lon="4.43154">
        <ele>241.6</ele>
        <time>2022-06-05T07:39:01Z</time>
      </trkpt>
      <trkpt lat="44.53007" lon="4.43156">
        <ele>242</ele>
        <time>2022-06-05T07:39:02Z</time>
      </trkpt>
      <trkpt lat="44.53005" lon="4.43157">
        <ele>242.4</ele>
        <time>2022-06-05T07:39:03Z</time>
      </trkpt>
      <trkpt lat="44.53004" lon="4.43159">
        <ele>242.8</ele>
        <time>2022-06-05T07:39:04Z</time>
      </trkpt>
      <trkpt lat="44.52999" lon="4.43162">
        <ele>243.8</ele>
        <time>2022-06-05T07:39:08Z</time>
      </trkpt>
      <trkpt lat="44.52998" lon="4.43164">
        <ele>244.2</ele>
        <time>2022-06-05T07:39:09Z</time>
      </trkpt>
      <trkpt lat="44.52997" lon="4.43166">
        <ele>244.6</ele>
        <time>2022-06-05T07:39:10Z</time>
      </trkpt>
      <trkpt lat="44.52996" lon="4.43168">
        <ele>245.2</ele>
        <time>2022-06-05T07:39:11Z</time>
      </trkpt>
      <trkpt lat="44.52989" lon="4.43178">
        <ele>245.6</ele>
        <time>2022-06-05T07:39:16Z</time>
      </trkpt>
      <trkpt lat="44.52988" lon="4.4318">
        <ele>246</ele>
        <time>2022-06-05T07:39:17Z</time>
      </trkpt>
      <trkpt lat="44.52987" lon="4.43181">
        <ele>246.4</ele>
        <time>2022-06-05T07:39:18Z</time>
      </trkpt>
      <trkpt lat="44.52986" lon="4.43183">
        <ele>246.8</ele>
        <time>2022-06-05T07:39:19Z</time>
      </trkpt>
      <trkpt lat="44.52985" lon="4.43184">
        <ele>247.2</ele>
        <time>2022-06-05T07:39:20Z</time>
      </trkpt>
      <trkpt lat="44.52984" lon="4.43186">
        <ele>247.2</ele>
        <time>2022-06-05T07:39:21Z</time>
      </trkpt>
      <trkpt lat="44.52978" lon="4.43199">
        <ele>247.6</ele>
        <time>2022-06-05T07:39:29Z</time>
      </trkpt>
      <trkpt lat="44.52978" lon="4.43201">
        <ele>248</ele>
        <time>2022-06-05T07:39:30Z</time>
      </trkpt>
      <trkpt lat="44.52978" lon="4.43204">
        <ele>248.4</ele>
        <time>2022-06-05T07:39:31Z</time>
      </trkpt>
      <trkpt lat="44.52977" lon="4.43206">
        <ele>248.8</ele>
        <time>2022-06-05T07:39:32Z</time>
      </trkpt>
      <trkpt lat="44.52976" lon="4.43208">
        <ele>249.2</ele>
        <time>2022-06-05T07:39:33Z</time>
      </trkpt>
      <trkpt lat="44.52975" lon="4.4322">
        <ele>249.8</ele>
        <time>2022-06-05T07:39:38Z</time>
      </trkpt>
      <trkpt lat="44.52974" lon="4.43222">
        <ele>250.2</ele>
        <time>2022-06-05T07:39:39Z</time>
      </trkpt>
      <trkpt lat="44.52974" lon="4.43225">
        <ele>250.6</ele>
        <time>2022-06-05T07:39:40Z</time>
      </trkpt>
      <trkpt lat="44.52974" lon="4.43227">
        <ele>251.2</ele>
        <time>2022-06-05T07:39:41Z</time>
      </trkpt>
      <trkpt lat="44.52974" lon="4.43229">
        <ele>251.6</ele>
        <time>2022-06-05T07:39:42Z</time>
      </trkpt>
      <trkpt lat="44.52973" lon="4.43232">
        <ele>252</ele>
        <time>2022-06-05T07:39:43Z</time>
      </trkpt>
      <trkpt lat="44.52973" lon="4.43234">
        <ele>252.4</ele>
        <time>2022-06-05T07:39:44Z</time>
      </trkpt>
      <trkpt lat="44.52972" lon="4.43237">
        <ele>252.8</ele>
        <time>2022-06-05T07:39:45Z</time>
      </trkpt>
      <trkpt lat="44.52972" lon="4.43239">
        <ele>253.2</ele>
        <time>2022-06-05T07:39:46Z</time>
      </trkpt>
      <trkpt lat="44.52971" lon="4.43241">
        <ele>253.6</ele>
        <time>2022-06-05T07:39:47Z</time>
      </trkpt>
      <trkpt lat="44.5297" lon="4.43247">
        <ele>254</ele>
        <time>2022-06-05T07:39:50Z</time>
      </trkpt>
      <trkpt lat="44.52969" lon="4.43249">
        <ele>254.4</ele>
        <time>2022-06-05T07:39:51Z</time>
      </trkpt>
      <trkpt lat="44.52969" lon="4.43251">
        <ele>254.8</ele>
        <time>2022-06-05T07:39:52Z</time>
      </trkpt>
      <trkpt lat="44.52968" lon="4.43253">
        <ele>255.2</ele>
        <time>2022-06-05T07:39:53Z</time>
      </trkpt>
      <trkpt lat="44.52967" lon="4.43256">
        <ele>255.6</ele>
        <time>2022-06-05T07:39:54Z</time>
      </trkpt>
      <trkpt lat="44.52966" lon="4.43258">
        <ele>255.6</ele>
        <time>2022-06-05T07:39:55Z</time>
      </trkpt>
      <trkpt lat="44.52965" lon="4.4326">
        <ele>255.6</ele>
        <time>2022-06-05T07:39:56Z</time>
      </trkpt>
      <trkpt lat="44.52964" lon="4.43265">
        <ele>256.4</ele>
        <time>2022-06-05T07:39:59Z</time>
      </trkpt>
      <trkpt lat="44.52964" lon="4.43267">
        <ele>256.8</ele>
        <time>2022-06-05T07:40:00Z</time>
      </trkpt>
      <trkpt lat="44.52963" lon="4.43269">
        <ele>257.4</ele>
        <time>2022-06-05T07:40:01Z</time>
      </trkpt>
      <trkpt lat="44.52963" lon="4.43271">
        <ele>257.8</ele>
        <time>2022-06-05T07:40:02Z</time>
      </trkpt>
      <trkpt lat="44.52962" lon="4.43275">
        <ele>258.2</ele>
        <time>2022-06-05T07:40:04Z</time>
      </trkpt>
      <trkpt lat="44.52962" lon="4.43277">
        <ele>258.6</ele>
        <time>2022-06-05T07:40:05Z</time>
      </trkpt>
      <trkpt lat="44.52961" lon="4.43279">
        <ele>259</ele>
        <time>2022-06-05T07:40:06Z</time>
      </trkpt>
      <trkpt lat="44.52961" lon="4.43281">
        <ele>259.6</ele>
        <time>2022-06-05T07:40:07Z</time>
      </trkpt>
      <trkpt lat="44.52961" lon="4.43283">
        <ele>260</ele>
        <time>2022-06-05T07:40:08Z</time>
      </trkpt>
      <trkpt lat="44.5296" lon="4.43286">
        <ele>260.4</ele>
        <time>2022-06-05T07:40:10Z</time>
      </trkpt>
      <trkpt lat="44.5296" lon="4.43288">
        <ele>260.8</ele>
        <time>2022-06-05T07:40:11Z</time>
      </trkpt>
      <trkpt lat="44.52959" lon="4.43289">
        <ele>261.4</ele>
        <time>2022-06-05T07:40:12Z</time>
      </trkpt>
      <trkpt lat="44.52959" lon="4.43291">
        <ele>261.8</ele>
        <time>2022-06-05T07:40:13Z</time>
      </trkpt>
      <trkpt lat="44.52959" lon="4.43293">
        <ele>262.2</ele>
        <time>2022-06-05T07:40:14Z</time>
      </trkpt>
      <trkpt lat="44.52958" lon="4.43295">
        <ele>262.2</ele>
        <time>2022-06-05T07:40:15Z</time>
      </trkpt>
      <trkpt lat="44.52943" lon="4.43315">
        <ele>267</ele>
        <time>2022-06-05T07:40:34Z</time>
      </trkpt>
      <trkpt lat="44.52941" lon="4.43315">
        <ele>267.4</ele>
        <time>2022-06-05T07:40:35Z</time>
      </trkpt>
      <trkpt lat="44.52939" lon="4.43315">
        <ele>268</ele>
        <time>2022-06-05T07:40:36Z</time>
      </trkpt>
      <trkpt lat="44.52937" lon="4.43315">
        <ele>268.4</ele>
        <time>2022-06-05T07:40:37Z</time>
      </trkpt>
      <trkpt lat="44.52936" lon="4.43316">
        <ele>268.8</ele>
        <time>2022-06-05T07:40:38Z</time>
      </trkpt>
      <trkpt lat="44.52934" lon="4.43316">
        <ele>268.8</ele>
        <time>2022-06-05T07:40:39Z</time>
      </trkpt>
      <trkpt lat="44.52915" lon="4.43327">
        <ele>270.8</ele>
        <time>2022-06-05T07:40:51Z</time>
      </trkpt>
      <trkpt lat="44.52912" lon="4.43329">
        <ele>271.2</ele>
        <time>2022-06-05T07:40:52Z</time>
      </trkpt>
      <trkpt lat="44.52909" lon="4.4333">
        <ele>271.8</ele>
        <time>2022-06-05T07:40:53Z</time>
      </trkpt>
      <trkpt lat="44.52906" lon="4.43331">
        <ele>272.2</ele>
        <time>2022-06-05T07:40:54Z</time>
      </trkpt>
      <trkpt lat="44.52905" lon="4.43331">
        <ele>272.6</ele>
        <time>2022-06-05T07:40:55Z</time>
      </trkpt>
      <trkpt lat="44.52898" lon="4.43334">
        <ele>273</ele>
        <time>2022-06-05T07:40:59Z</time>
      </trkpt>
      <trkpt lat="44.5289" lon="4.43338">
        <ele>273</ele>
        <time>2022-06-05T07:41:04Z</time>
      </trkpt>
      <trkpt lat="44.52887" lon="4.43339">
        <ele>273</ele>
        <time>2022-06-05T07:41:06Z</time>
      </trkpt>
      <trkpt lat="44.52832" lon="4.4337">
        <ele>279.2</ele>
        <time>2022-06-05T07:45:01Z</time>
      </trkpt>
      <trkpt lat="44.52831" lon="4.43373">
        <ele>279.6</ele>
        <time>2022-06-05T07:45:05Z</time>
      </trkpt>
      <trkpt lat="44.52831" lon="4.43375">
        <ele>280</ele>
        <time>2022-06-05T07:45:06Z</time>
      </trkpt>
      <trkpt lat="44.5283" lon="4.43376">
        <ele>280.4</ele>
        <time>2022-06-05T07:45:07Z</time>
      </trkpt>
      <trkpt lat="44.52829" lon="4.43378">
        <ele>281</ele>
        <time>2022-06-05T07:45:08Z</time>
      </trkpt>
      <trkpt lat="44.52828" lon="4.43379">
        <ele>281.4</ele>
        <time>2022-06-05T07:45:09Z</time>
      </trkpt>
      <trkpt lat="44.52821" lon="4.43387">
        <ele>281.4</ele>
        <time>2022-06-05T07:45:15Z</time>
      </trkpt>
      <trkpt lat="44.52807" lon="4.43404">
        <ele>281.8</ele>
        <time>2022-06-05T07:45:24Z</time>
      </trkpt>
      <trkpt lat="44.52805" lon="4.43406">
        <ele>282.2</ele>
        <time>2022-06-05T07:45:25Z</time>
      </trkpt>
      <trkpt lat="44.52804" lon="4.43408">
        <ele>282.6</ele>
        <time>2022-06-05T07:45:26Z</time>
      </trkpt>
      <trkpt lat="44.52802" lon="4.43409">
        <ele>283</ele>
        <time>2022-06-05T07:45:27Z</time>
      </trkpt>
      <trkpt lat="44.52801" lon="4.43411">
        <ele>283.4</ele>
        <time>2022-06-05T07:45:28Z</time>
      </trkpt>
      <trkpt lat="44.52787" lon="4.4343">
        <ele>283.4</ele>
        <time>2022-06-05T07:45:39Z</time>
      </trkpt>
      <trkpt lat="44.5278" lon="4.43441">
        <ele>284.2</ele>
        <time>2022-06-05T07:45:45Z</time>
      </trkpt>
      <trkpt lat="44.52779" lon="4.43444">
        <ele>284.6</ele>
        <time>2022-06-05T07:45:46Z</time>
      </trkpt>
      <trkpt lat="44.52779" lon="4.43445">
        <ele>285</ele>
        <time>2022-06-05T07:45:47Z</time>
      </trkpt>
      <trkpt lat="44.52778" lon="4.43448">
        <ele>285.4</ele>
        <time>2022-06-05T07:45:48Z</time>
      </trkpt>
      <trkpt lat="44.52775" lon="4.43451">
        <ele>285.4</ele>
        <time>2022-06-05T07:45:50Z</time>
      </trkpt>
      <trkpt lat="44.52766" lon="4.4347">
        <ele>285.4</ele>
        <time>2022-06-05T07:45:58Z</time>
      </trkpt>
      <trkpt lat="44.52762" lon="4.4348">
        <ele>285.8</ele>
        <time>2022-06-05T07:46:02Z</time>
      </trkpt>
      <trkpt lat="44.52761" lon="4.43483">
        <ele>286.2</ele>
        <time>2022-06-05T07:46:03Z</time>
      </trkpt>
      <trkpt lat="44.52761" lon="4.43485">
        <ele>286.8</ele>
        <time>2022-06-05T07:46:04Z</time>
      </trkpt>
      <trkpt lat="44.5276" lon="4.43487">
        <ele>287.2</ele>
        <time>2022-06-05T07:46:05Z</time>
      </trkpt>
      <trkpt lat="44.52759" lon="4.43489">
        <ele>287.6</ele>
        <time>2022-06-05T07:46:06Z</time>
      </trkpt>
      <trkpt lat="44.52758" lon="4.43491">
        <ele>287.6</ele>
        <time>2022-06-05T07:46:07Z</time>
      </trkpt>
      <trkpt lat="44.52752" lon="4.43512">
        <ele>287.6</ele>
        <time>2022-06-05T07:46:16Z</time>
      </trkpt>
      <trkpt lat="44.52751" lon="4.43536">
        <ele>287.6</ele>
        <time>2022-06-05T07:46:25Z</time>
      </trkpt>
      <trkpt lat="44.52745" lon="4.43559">
        <ele>287.6</ele>
        <time>2022-06-05T07:46:32Z</time>
      </trkpt>
      <trkpt lat="44.52737" lon="4.43582">
        <ele>287.6</ele>
        <time>2022-06-05T07:46:37Z</time>
      </trkpt>
      <trkpt lat="44.52735" lon="4.43604">
        <ele>287.6</ele>
        <time>2022-06-05T07:46:42Z</time>
      </trkpt>
      <trkpt lat="44.52739" lon="4.4363">
        <ele>287</ele>
        <time>2022-06-05T07:46:47Z</time>
      </trkpt>
      <trkpt lat="44.5274" lon="4.43636">
        <ele>286.4</ele>
        <time>2022-06-05T07:46:48Z</time>
      </trkpt>
      <trkpt lat="44.52741" lon="4.43642">
        <ele>286</ele>
        <time>2022-06-05T07:46:49Z</time>
      </trkpt>
      <trkpt lat="44.52742" lon="4.43648">
        <ele>285.4</ele>
        <time>2022-06-05T07:46:50Z</time>
      </trkpt>
      <trkpt lat="44.52742" lon="4.43654">
        <ele>284.8</ele>
        <time>2022-06-05T07:46:51Z</time>
      </trkpt>
      <trkpt lat="44.52743" lon="4.43661">
        <ele>284.4</ele>
        <time>2022-06-05T07:46:52Z</time>
      </trkpt>
      <trkpt lat="44.52744" lon="4.43668">
        <ele>284</ele>
        <time>2022-06-05T07:46:53Z</time>
      </trkpt>
      <trkpt lat="44.52744" lon="4.43675">
        <ele>283.6</ele>
        <time>2022-06-05T07:46:54Z</time>
      </trkpt>
      <trkpt lat="44.52744" lon="4.43682">
        <ele>283.2</ele>
        <time>2022-06-05T07:46:55Z</time>
      </trkpt>
      <trkpt lat="44.52744" lon="4.43689">
        <ele>282.6</ele>
        <time>2022-06-05T07:46:56Z</time>
      </trkpt>
      <trkpt lat="44.52743" lon="4.43694">
        <ele>282.6</ele>
        <time>2022-06-05T07:46:57Z</time>
      </trkpt>
      <trkpt lat="44.52739" lon="4.43701">
        <ele>282.6</ele>
        <time>2022-06-05T07:46:59Z</time>
      </trkpt>
      <trkpt lat="44.52733" lon="4.43707">
        <ele>282.6</ele>
        <time>2022-06-05T07:47:02Z</time>
      </trkpt>
      <trkpt lat="44.52726" lon="4.43712">
        <ele>282.6</ele>
        <time>2022-06-05T07:47:05Z</time>
      </trkpt>
      <trkpt lat="44.52713" lon="4.43723">
        <ele>282.6</ele>
        <time>2022-06-05T07:47:12Z</time>
      </trkpt>
      <trkpt lat="44.52701" lon="4.43734">
        <ele>283</ele>
        <time>2022-06-05T07:47:20Z</time>
      </trkpt>
      <trkpt lat="44.52699" lon="4.43736">
        <ele>283.4</ele>
        <time>2022-06-05T07:47:21Z</time>
      </trkpt>
      <trkpt lat="44.52697" lon="4.43737">
        <ele>284</ele>
        <time>2022-06-05T07:47:22Z</time>
      </trkpt>
      <trkpt lat="44.52695" lon="4.43739">
        <ele>284.4</ele>
        <time>2022-06-05T07:47:23Z</time>
      </trkpt>
      <trkpt lat="44.52694" lon="4.4374">
        <ele>284.8</ele>
        <time>2022-06-05T07:47:24Z</time>
      </trkpt>
      <trkpt lat="44.5268" lon="4.43756">
        <ele>284.8</ele>
        <time>2022-06-05T07:47:32Z</time>
      </trkpt>
      <trkpt lat="44.52668" lon="4.43774">
        <ele>284.8</ele>
        <time>2022-06-05T07:47:42Z</time>
      </trkpt>
      <trkpt lat="44.52654" lon="4.43788">
        <ele>285.2</ele>
        <time>2022-06-05T07:47:48Z</time>
      </trkpt>
      <trkpt lat="44.52652" lon="4.4379">
        <ele>286</ele>
        <time>2022-06-05T07:47:49Z</time>
      </trkpt>
      <trkpt lat="44.5265" lon="4.43792">
        <ele>286.4</ele>
        <time>2022-06-05T07:47:50Z</time>
      </trkpt>
      <trkpt lat="44.52648" lon="4.43794">
        <ele>286.8</ele>
        <time>2022-06-05T07:47:51Z</time>
      </trkpt>
      <trkpt lat="44.52635" lon="4.43809">
        <ele>286.8</ele>
        <time>2022-06-05T07:47:59Z</time>
      </trkpt>
      <trkpt lat="44.52633" lon="4.43818">
        <ele>286.8</ele>
        <time>2022-06-05T07:48:05Z</time>
      </trkpt>
      <trkpt lat="44.52634" lon="4.43828">
        <ele>286.8</ele>
        <time>2022-06-05T07:48:11Z</time>
      </trkpt>
      <trkpt lat="44.52625" lon="4.43825">
        <ele>286.8</ele>
        <time>2022-06-05T07:48:31Z</time>
      </trkpt>
      <trkpt lat="44.52626" lon="4.43817">
        <ele>286.8</ele>
        <time>2022-06-05T07:48:36Z</time>
      </trkpt>
      <trkpt lat="44.52634" lon="4.43821">
        <ele>286.8</ele>
        <time>2022-06-05T07:48:40Z</time>
      </trkpt>
      <trkpt lat="44.52635" lon="4.43823">
        <ele>286.8</ele>
        <time>2022-06-05T07:48:41Z</time>
      </trkpt>
      <trkpt lat="44.5264" lon="4.43829">
        <ele>286.8</ele>
        <time>2022-06-05T07:48:45Z</time>
      </trkpt>
      <trkpt lat="44.52639" lon="4.43836">
        <ele>286.8</ele>
        <time>2022-06-05T07:49:03Z</time>
      </trkpt>
      <trkpt lat="44.52627" lon="4.43826">
        <ele>286.8</ele>
        <time>2022-06-05T07:49:12Z</time>
      </trkpt>
      <trkpt lat="44.52623" lon="4.43823">
        <ele>286.8</ele>
        <time>2022-06-05T07:49:16Z</time>
      </trkpt>
      <trkpt lat="44.52622" lon="4.43826">
        <ele>286.8</ele>
        <time>2022-06-05T07:49:17Z</time>
      </trkpt>
      <trkpt lat="44.52625" lon="4.43831">
        <ele>286.8</ele>
        <time>2022-06-05T07:49:21Z</time>
      </trkpt>
      <trkpt lat="44.52634" lon="4.43846">
        <ele>286.8</ele>
        <time>2022-06-05T07:49:29Z</time>
      </trkpt>
      <trkpt lat="44.52643" lon="4.43866">
        <ele>286.8</ele>
        <time>2022-06-05T07:49:38Z</time>
      </trkpt>
      <trkpt lat="44.52646" lon="4.43886">
        <ele>286.8</ele>
        <time>2022-06-05T07:49:45Z</time>
      </trkpt>
      <trkpt lat="44.52646" lon="4.43889">
        <ele>287.2</ele>
        <time>2022-06-05T07:49:46Z</time>
      </trkpt>
      <trkpt lat="44.52647" lon="4.43892">
        <ele>287.6</ele>
        <time>2022-06-05T07:49:47Z</time>
      </trkpt>
      <trkpt lat="44.52647" lon="4.43895">
        <ele>288</ele>
        <time>2022-06-05T07:49:48Z</time>
      </trkpt>
      <trkpt lat="44.52647" lon="4.43898">
        <ele>288.4</ele>
        <time>2022-06-05T07:49:49Z</time>
      </trkpt>
      <trkpt lat="44.52647" lon="4.43901">
        <ele>288.8</ele>
        <time>2022-06-05T07:49:50Z</time>
      </trkpt>
      <trkpt lat="44.52646" lon="4.43913">
        <ele>288.8</ele>
        <time>2022-06-05T07:49:55Z</time>
      </trkpt>
      <trkpt lat="44.52646" lon="4.43915">
        <ele>289.4</ele>
        <time>2022-06-05T07:49:56Z</time>
      </trkpt>
      <trkpt lat="44.52645" lon="4.43918">
        <ele>289.8</ele>
        <time>2022-06-05T07:49:57Z</time>
      </trkpt>
      <trkpt lat="44.52645" lon="4.43921">
        <ele>290.2</ele>
        <time>2022-06-05T07:49:58Z</time>
      </trkpt>
      <trkpt lat="44.52645" lon="4.43923">
        <ele>290.6</ele>
        <time>2022-06-05T07:49:59Z</time>
      </trkpt>
      <trkpt lat="44.52645" lon="4.43926">
        <ele>291</ele>
        <time>2022-06-05T07:50:00Z</time>
      </trkpt>
      <trkpt lat="44.52643" lon="4.43936">
        <ele>291</ele>
        <time>2022-06-05T07:50:04Z</time>
      </trkpt>
      <trkpt lat="44.52642" lon="4.43941">
        <ele>291.4</ele>
        <time>2022-06-05T07:50:06Z</time>
      </trkpt>
      <trkpt lat="44.52641" lon="4.43944">
        <ele>291.8</ele>
        <time>2022-06-05T07:50:07Z</time>
      </trkpt>
      <trkpt lat="44.52641" lon="4.43946">
        <ele>292.2</ele>
        <time>2022-06-05T07:50:08Z</time>
      </trkpt>
      <trkpt lat="44.52641" lon="4.43949">
        <ele>292.6</ele>
        <time>2022-06-05T07:50:09Z</time>
      </trkpt>
      <trkpt lat="44.52641" lon="4.43952">
        <ele>293</ele>
        <time>2022-06-05T07:50:10Z</time>
      </trkpt>
      <trkpt lat="44.5264" lon="4.4396">
        <ele>293.4</ele>
        <time>2022-06-05T07:50:13Z</time>
      </trkpt>
      <trkpt lat="44.52639" lon="4.43962">
        <ele>293.8</ele>
        <time>2022-06-05T07:50:14Z</time>
      </trkpt>
      <trkpt lat="44.52639" lon="4.43964">
        <ele>294.4</ele>
        <time>2022-06-05T07:50:15Z</time>
      </trkpt>
      <trkpt lat="44.52639" lon="4.43967">
        <ele>294.8</ele>
        <time>2022-06-05T07:50:16Z</time>
      </trkpt>
      <trkpt lat="44.52638" lon="4.4397">
        <ele>295.2</ele>
        <time>2022-06-05T07:50:17Z</time>
      </trkpt>
      <trkpt lat="44.52637" lon="4.43985">
        <ele>295.6</ele>
        <time>2022-06-05T07:50:22Z</time>
      </trkpt>
      <trkpt lat="44.52636" lon="4.43988">
        <ele>296.2</ele>
        <time>2022-06-05T07:50:23Z</time>
      </trkpt>
      <trkpt lat="44.52636" lon="4.4399">
        <ele>296.6</ele>
        <time>2022-06-05T07:50:24Z</time>
      </trkpt>
      <trkpt lat="44.52635" lon="4.43993">
        <ele>297</ele>
        <time>2022-06-05T07:50:25Z</time>
      </trkpt>
      <trkpt lat="44.52635" lon="4.43995">
        <ele>297.6</ele>
        <time>2022-06-05T07:50:26Z</time>
      </trkpt>
      <trkpt lat="44.52633" lon="4.44005">
        <ele>298</ele>
        <time>2022-06-05T07:50:30Z</time>
      </trkpt>
      <trkpt lat="44.52633" lon="4.44008">
        <ele>298.4</ele>
        <time>2022-06-05T07:50:31Z</time>
      </trkpt>
      <trkpt lat="44.52632" lon="4.4401">
        <ele>298.8</ele>
        <time>2022-06-05T07:50:32Z</time>
      </trkpt>
      <trkpt lat="44.52631" lon="4.44013">
        <ele>299.2</ele>
        <time>2022-06-05T07:50:33Z</time>
      </trkpt>
      <trkpt lat="44.5263" lon="4.44015">
        <ele>299.6</ele>
        <time>2022-06-05T07:50:34Z</time>
      </trkpt>
      <trkpt lat="44.52628" lon="4.44032">
        <ele>300</ele>
        <time>2022-06-05T07:50:40Z</time>
      </trkpt>
      <trkpt lat="44.52628" lon="4.44035">
        <ele>300.4</ele>
        <time>2022-06-05T07:50:41Z</time>
      </trkpt>
      <trkpt lat="44.52627" lon="4.44037">
        <ele>300.8</ele>
        <time>2022-06-05T07:50:42Z</time>
      </trkpt>
      <trkpt lat="44.52627" lon="4.44039">
        <ele>301.8</ele>
        <time>2022-06-05T07:50:43Z</time>
      </trkpt>
      <trkpt lat="44.52626" lon="4.4405">
        <ele>301.8</ele>
        <time>2022-06-05T07:50:48Z</time>
      </trkpt>
      <trkpt lat="44.52627" lon="4.44056">
        <ele>302.2</ele>
        <time>2022-06-05T07:50:51Z</time>
      </trkpt>
      <trkpt lat="44.52627" lon="4.44059">
        <ele>302.6</ele>
        <time>2022-06-05T07:50:52Z</time>
      </trkpt>
      <trkpt lat="44.52627" lon="4.44061">
        <ele>303.2</ele>
        <time>2022-06-05T07:50:53Z</time>
      </trkpt>
      <trkpt lat="44.52627" lon="4.44064">
        <ele>303.6</ele>
        <time>2022-06-05T07:50:54Z</time>
      </trkpt>
      <trkpt lat="44.52628" lon="4.44066">
        <ele>304</ele>
        <time>2022-06-05T07:50:55Z</time>
      </trkpt>
      <trkpt lat="44.5263" lon="4.4407">
        <ele>304</ele>
        <time>2022-06-05T07:50:57Z</time>
      </trkpt>
      <trkpt lat="44.52635" lon="4.44079">
        <ele>304.4</ele>
        <time>2022-06-05T07:51:03Z</time>
      </trkpt>
      <trkpt lat="44.52636" lon="4.44081">
        <ele>305</ele>
        <time>2022-06-05T07:51:04Z</time>
      </trkpt>
      <trkpt lat="44.52637" lon="4.44082">
        <ele>305.4</ele>
        <time>2022-06-05T07:51:05Z</time>
      </trkpt>
      <trkpt lat="44.52638" lon="4.44083">
        <ele>305.8</ele>
        <time>2022-06-05T07:51:06Z</time>
      </trkpt>
      <trkpt lat="44.52639" lon="4.44085">
        <ele>306.2</ele>
        <time>2022-06-05T07:51:07Z</time>
      </trkpt>
      <trkpt lat="44.52639" lon="4.44086">
        <ele>306.2</ele>
        <time>2022-06-05T07:51:08Z</time>
      </trkpt>
      <trkpt lat="44.52641" lon="4.44088">
        <ele>306.6</ele>
        <time>2022-06-05T07:51:10Z</time>
      </trkpt>
      <trkpt lat="44.52643" lon="4.44089">
        <ele>307</ele>
        <time>2022-06-05T07:51:11Z</time>
      </trkpt>
      <trkpt lat="44.52644" lon="4.44091">
        <ele>307.4</ele>
        <time>2022-06-05T07:51:12Z</time>
      </trkpt>
      <trkpt lat="44.52645" lon="4.44092">
        <ele>307.8</ele>
        <time>2022-06-05T07:51:13Z</time>
      </trkpt>
      <trkpt lat="44.52646" lon="4.44093">
        <ele>308.2</ele>
        <time>2022-06-05T07:51:14Z</time>
      </trkpt>
      <trkpt lat="44.5265" lon="4.44097">
        <ele>308.2</ele>
        <time>2022-06-05T07:51:17Z</time>
      </trkpt>
      <trkpt lat="44.52653" lon="4.44099">
        <ele>308.2</ele>
        <time>2022-06-05T07:51:20Z</time>
      </trkpt>
      <trkpt lat="44.52657" lon="4.44103">
        <ele>308.6</ele>
        <time>2022-06-05T07:51:23Z</time>
      </trkpt>
      <trkpt lat="44.52658" lon="4.44104">
        <ele>309</ele>
        <time>2022-06-05T07:51:24Z</time>
      </trkpt>
      <trkpt lat="44.5266" lon="4.44105">
        <ele>309.4</ele>
        <time>2022-06-05T07:51:25Z</time>
      </trkpt>
      <trkpt lat="44.52661" lon="4.44107">
        <ele>309.8</ele>
        <time>2022-06-05T07:51:26Z</time>
      </trkpt>
      <trkpt lat="44.52663" lon="4.44109">
        <ele>310.4</ele>
        <time>2022-06-05T07:51:27Z</time>
      </trkpt>
      <trkpt lat="44.5267" lon="4.44116">
        <ele>310.8</ele>
        <time>2022-06-05T07:51:33Z</time>
      </trkpt>
      <trkpt lat="44.52671" lon="4.44117">
        <ele>311.2</ele>
        <time>2022-06-05T07:51:34Z</time>
      </trkpt>
      <trkpt lat="44.52672" lon="4.44119">
        <ele>311.6</ele>
        <time>2022-06-05T07:51:35Z</time>
      </trkpt>
      <trkpt lat="44.52673" lon="4.44121">
        <ele>312</ele>
        <time>2022-06-05T07:51:36Z</time>
      </trkpt>
      <trkpt lat="44.52673" lon="4.44123">
        <ele>312.4</ele>
        <time>2022-06-05T07:51:37Z</time>
      </trkpt>
      <trkpt lat="44.52674" lon="4.44125">
        <ele>312.4</ele>
        <time>2022-06-05T07:51:38Z</time>
      </trkpt>
      <trkpt lat="44.52674" lon="4.4413">
        <ele>312.8</ele>
        <time>2022-06-05T07:51:40Z</time>
      </trkpt>
      <trkpt lat="44.52674" lon="4.44133">
        <ele>313.2</ele>
        <time>2022-06-05T07:51:41Z</time>
      </trkpt>
      <trkpt lat="44.52674" lon="4.44135">
        <ele>313.6</ele>
        <time>2022-06-05T07:51:42Z</time>
      </trkpt>
      <trkpt lat="44.52674" lon="4.44137">
        <ele>314</ele>
        <time>2022-06-05T07:51:43Z</time>
      </trkpt>
      <trkpt lat="44.52673" lon="4.4414">
        <ele>314.4</ele>
        <time>2022-06-05T07:51:44Z</time>
      </trkpt>
      <trkpt lat="44.52672" lon="4.44145">
        <ele>315</ele>
        <time>2022-06-05T07:51:46Z</time>
      </trkpt>
      <trkpt lat="44.52672" lon="4.44148">
        <ele>315.4</ele>
        <time>2022-06-05T07:51:47Z</time>
      </trkpt>
      <trkpt lat="44.52672" lon="4.44151">
        <ele>315.8</ele>
        <time>2022-06-05T07:51:48Z</time>
      </trkpt>
      <trkpt lat="44.52671" lon="4.44156">
        <ele>316.4</ele>
        <time>2022-06-05T07:51:49Z</time>
      </trkpt>
      <trkpt lat="44.52671" lon="4.44159">
        <ele>316.8</ele>
        <time>2022-06-05T07:51:50Z</time>
      </trkpt>
      <trkpt lat="44.52671" lon="4.44167">
        <ele>316.8</ele>
        <time>2022-06-05T07:51:52Z</time>
      </trkpt>
      <trkpt lat="44.52671" lon="4.4417">
        <ele>317.2</ele>
        <time>2022-06-05T07:51:53Z</time>
      </trkpt>
      <trkpt lat="44.5267" lon="4.44174">
        <ele>317.6</ele>
        <time>2022-06-05T07:51:54Z</time>
      </trkpt>
      <trkpt lat="44.5267" lon="4.44177">
        <ele>318.2</ele>
        <time>2022-06-05T07:51:55Z</time>
      </trkpt>
      <trkpt lat="44.5267" lon="4.4418">
        <ele>318.6</ele>
        <time>2022-06-05T07:51:56Z</time>
      </trkpt>
      <trkpt lat="44.5267" lon="4.44183">
        <ele>319</ele>
        <time>2022-06-05T07:51:57Z</time>
      </trkpt>
      <trkpt lat="44.5267" lon="4.44185">
        <ele>319.6</ele>
        <time>2022-06-05T07:51:58Z</time>
      </trkpt>
      <trkpt lat="44.5267" lon="4.44188">
        <ele>320</ele>
        <time>2022-06-05T07:51:59Z</time>
      </trkpt>
      <trkpt lat="44.52671" lon="4.4419">
        <ele>320.4</ele>
        <time>2022-06-05T07:52:00Z</time>
      </trkpt>
      <trkpt lat="44.52672" lon="4.44192">
        <ele>321</ele>
        <time>2022-06-05T07:52:01Z</time>
      </trkpt>
      <trkpt lat="44.52673" lon="4.44195">
        <ele>321.4</ele>
        <time>2022-06-05T07:52:02Z</time>
      </trkpt>
      <trkpt lat="44.52674" lon="4.442">
        <ele>321.8</ele>
        <time>2022-06-05T07:52:04Z</time>
      </trkpt>
      <trkpt lat="44.52675" lon="4.44202">
        <ele>322.2</ele>
        <time>2022-06-05T07:52:05Z</time>
      </trkpt>
      <trkpt lat="44.52677" lon="4.44205">
        <ele>322.6</ele>
        <time>2022-06-05T07:52:06Z</time>
      </trkpt>
      <trkpt lat="44.52678" lon="4.44207">
        <ele>323</ele>
        <time>2022-06-05T07:52:07Z</time>
      </trkpt>
      <trkpt lat="44.52679" lon="4.44209">
        <ele>323.4</ele>
        <time>2022-06-05T07:52:08Z</time>
      </trkpt>
      <trkpt lat="44.52683" lon="4.44214">
        <ele>323.8</ele>
        <time>2022-06-05T07:52:10Z</time>
      </trkpt>
      <trkpt lat="44.52684" lon="4.44217">
        <ele>324.2</ele>
        <time>2022-06-05T07:52:11Z</time>
      </trkpt>
      <trkpt lat="44.52685" lon="4.4422">
        <ele>324.8</ele>
        <time>2022-06-05T07:52:12Z</time>
      </trkpt>
      <trkpt lat="44.52687" lon="4.44222">
        <ele>325.2</ele>
        <time>2022-06-05T07:52:13Z</time>
      </trkpt>
      <trkpt lat="44.52688" lon="4.44225">
        <ele>325.6</ele>
        <time>2022-06-05T07:52:14Z</time>
      </trkpt>
      <trkpt lat="44.5269" lon="4.44231">
        <ele>325.6</ele>
        <time>2022-06-05T07:52:17Z</time>
      </trkpt>
      <trkpt lat="44.527" lon="4.4425">
        <ele>326.4</ele>
        <time>2022-06-05T07:52:27Z</time>
      </trkpt>
      <trkpt lat="44.527" lon="4.44253">
        <ele>326.8</ele>
        <time>2022-06-05T07:52:28Z</time>
      </trkpt>
      <trkpt lat="44.527" lon="4.44256">
        <ele>327.2</ele>
        <time>2022-06-05T07:52:29Z</time>
      </trkpt>
      <trkpt lat="44.527" lon="4.44259">
        <ele>327.6</ele>
        <time>2022-06-05T07:52:30Z</time>
      </trkpt>
      <trkpt lat="44.52701" lon="4.44269">
        <ele>328</ele>
        <time>2022-06-05T07:52:33Z</time>
      </trkpt>
      <trkpt lat="44.52701" lon="4.44272">
        <ele>328.4</ele>
        <time>2022-06-05T07:52:34Z</time>
      </trkpt>
      <trkpt lat="44.52691" lon="4.44305">
        <ele>331.8</ele>
        <time>2022-06-05T07:53:07Z</time>
      </trkpt>
      <trkpt lat="44.52688" lon="4.44306">
        <ele>332.2</ele>
        <time>2022-06-05T07:53:08Z</time>
      </trkpt>
      <trkpt lat="44.52686" lon="4.44307">
        <ele>332.6</ele>
        <time>2022-06-05T07:53:09Z</time>
      </trkpt>
      <trkpt lat="44.52684" lon="4.44308">
        <ele>333</ele>
        <time>2022-06-05T07:53:10Z</time>
      </trkpt>
      <trkpt lat="44.52682" lon="4.44308">
        <ele>333.4</ele>
        <time>2022-06-05T07:53:11Z</time>
      </trkpt>
      <trkpt lat="44.5268" lon="4.44309">
        <ele>333.8</ele>
        <time>2022-06-05T07:53:12Z</time>
      </trkpt>
      <trkpt lat="44.52672" lon="4.44313">
        <ele>334.2</ele>
        <time>2022-06-05T07:53:16Z</time>
      </trkpt>
      <trkpt lat="44.5267" lon="4.44314">
        <ele>334.6</ele>
        <time>2022-06-05T07:53:17Z</time>
      </trkpt>
      <trkpt lat="44.52668" lon="4.44315">
        <ele>335</ele>
        <time>2022-06-05T07:53:18Z</time>
      </trkpt>
      <trkpt lat="44.52666" lon="4.44316">
        <ele>335.4</ele>
        <time>2022-06-05T07:53:19Z</time>
      </trkpt>
      <trkpt lat="44.52664" lon="4.44317">
        <ele>335.8</ele>
        <time>2022-06-05T07:53:20Z</time>
      </trkpt>
      <trkpt lat="44.52652" lon="4.44318">
        <ele>335.8</ele>
        <time>2022-06-05T07:53:26Z</time>
      </trkpt>
      <trkpt lat="44.5265" lon="4.44318">
        <ele>336.2</ele>
        <time>2022-06-05T07:53:27Z</time>
      </trkpt>
      <trkpt lat="44.52648" lon="4.44318">
        <ele>336.6</ele>
        <time>2022-06-05T07:53:28Z</time>
      </trkpt>
      <trkpt lat="44.52646" lon="4.44318">
        <ele>337.2</ele>
        <time>2022-06-05T07:53:29Z</time>
      </trkpt>
      <trkpt lat="44.52644" lon="4.44317">
        <ele>337.6</ele>
        <time>2022-06-05T07:53:30Z</time>
      </trkpt>
      <trkpt lat="44.52642" lon="4.44316">
        <ele>338</ele>
        <time>2022-06-05T07:53:31Z</time>
      </trkpt>
      <trkpt lat="44.52635" lon="4.44313">
        <ele>338.4</ele>
        <time>2022-06-05T07:53:35Z</time>
      </trkpt>
      <trkpt lat="44.52633" lon="4.44311">
        <ele>339.2</ele>
        <time>2022-06-05T07:53:36Z</time>
      </trkpt>
      <trkpt lat="44.52631" lon="4.4431">
        <ele>339.6</ele>
        <time>2022-06-05T07:53:37Z</time>
      </trkpt>
      <trkpt lat="44.52629" lon="4.4431">
        <ele>340</ele>
        <time>2022-06-05T07:53:38Z</time>
      </trkpt>
      <trkpt lat="44.52621" lon="4.44309">
        <ele>340.4</ele>
        <time>2022-06-05T07:53:42Z</time>
      </trkpt>
      <trkpt lat="44.52619" lon="4.44309">
        <ele>341</ele>
        <time>2022-06-05T07:53:43Z</time>
      </trkpt>
      <trkpt lat="44.52617" lon="4.4431">
        <ele>341.4</ele>
        <time>2022-06-05T07:53:44Z</time>
      </trkpt>
      <trkpt lat="44.52616" lon="4.4431">
        <ele>341.8</ele>
        <time>2022-06-05T07:53:45Z</time>
      </trkpt>
      <trkpt lat="44.52614" lon="4.4431">
        <ele>342.2</ele>
        <time>2022-06-05T07:53:46Z</time>
      </trkpt>
      <trkpt lat="44.52604" lon="4.44313">
        <ele>342.2</ele>
        <time>2022-06-05T07:53:53Z</time>
      </trkpt>
      <trkpt lat="44.52599" lon="4.44315">
        <ele>342.6</ele>
        <time>2022-06-05T07:53:56Z</time>
      </trkpt>
      <trkpt lat="44.52596" lon="4.44316">
        <ele>343.2</ele>
        <time>2022-06-05T07:53:57Z</time>
      </trkpt>
      <trkpt lat="44.52593" lon="4.44318">
        <ele>343.6</ele>
        <time>2022-06-05T07:53:58Z</time>
      </trkpt>
      <trkpt lat="44.5259" lon="4.44319">
        <ele>344</ele>
        <time>2022-06-05T07:53:59Z</time>
      </trkpt>
      <trkpt lat="44.52587" lon="4.44319">
        <ele>344.4</ele>
        <time>2022-06-05T07:54:00Z</time>
      </trkpt>
      <trkpt lat="44.52584" lon="4.44318">
        <ele>344.4</ele>
        <time>2022-06-05T07:54:02Z</time>
      </trkpt>
      <trkpt lat="44.52573" lon="4.44314">
        <ele>346.4</ele>
        <time>2022-06-05T07:56:31Z</time>
      </trkpt>
      <trkpt lat="44.52564" lon="4.44313">
        <ele>346.4</ele>
        <time>2022-06-05T07:56:35Z</time>
      </trkpt>
      <trkpt lat="44.52547" lon="4.44307">
        <ele>346.8</ele>
        <time>2022-06-05T07:56:43Z</time>
      </trkpt>
      <trkpt lat="44.52545" lon="4.44307">
        <ele>347.2</ele>
        <time>2022-06-05T07:56:44Z</time>
      </trkpt>
      <trkpt lat="44.52543" lon="4.44306">
        <ele>347.6</ele>
        <time>2022-06-05T07:56:45Z</time>
      </trkpt>
      <trkpt lat="44.52542" lon="4.44307">
        <ele>348</ele>
        <time>2022-06-05T07:56:46Z</time>
      </trkpt>
      <trkpt lat="44.5254" lon="4.44307">
        <ele>348.4</ele>
        <time>2022-06-05T07:56:47Z</time>
      </trkpt>
      <trkpt lat="44.52537" lon="4.44311">
        <ele>348.4</ele>
        <time>2022-06-05T07:56:50Z</time>
      </trkpt>
      <trkpt lat="44.52531" lon="4.44328">
        <ele>348.4</ele>
        <time>2022-06-05T07:56:59Z</time>
      </trkpt>
      <trkpt lat="44.52531" lon="4.4433">
        <ele>348.8</ele>
        <time>2022-06-05T07:57:00Z</time>
      </trkpt>
      <trkpt lat="44.5253" lon="4.44332">
        <ele>349.2</ele>
        <time>2022-06-05T07:57:01Z</time>
      </trkpt>
      <trkpt lat="44.52529" lon="4.44334">
        <ele>349.8</ele>
        <time>2022-06-05T07:57:02Z</time>
      </trkpt>
      <trkpt lat="44.52528" lon="4.44337">
        <ele>350.2</ele>
        <time>2022-06-05T07:57:03Z</time>
      </trkpt>
      <trkpt lat="44.52527" lon="4.44339">
        <ele>350.6</ele>
        <time>2022-06-05T07:57:04Z</time>
      </trkpt>
      <trkpt lat="44.52522" lon="4.44346">
        <ele>350.6</ele>
        <time>2022-06-05T07:57:08Z</time>
      </trkpt>
      <trkpt lat="44.5252" lon="4.4435">
        <ele>351</ele>
        <time>2022-06-05T07:57:10Z</time>
      </trkpt>
      <trkpt lat="44.52519" lon="4.44353">
        <ele>351.4</ele>
        <time>2022-06-05T07:57:11Z</time>
      </trkpt>
      <trkpt lat="44.52519" lon="4.44356">
        <ele>352</ele>
        <time>2022-06-05T07:57:12Z</time>
      </trkpt>
      <trkpt lat="44.52519" lon="4.44359">
        <ele>352.4</ele>
        <time>2022-06-05T07:57:13Z</time>
      </trkpt>
      <trkpt lat="44.52518" lon="4.44362">
        <ele>353</ele>
        <time>2022-06-05T07:57:14Z</time>
      </trkpt>
      <trkpt lat="44.52519" lon="4.4437">
        <ele>353</ele>
        <time>2022-06-05T07:57:17Z</time>
      </trkpt>
      <trkpt lat="44.52519" lon="4.44375">
        <ele>353.8</ele>
        <time>2022-06-05T07:57:19Z</time>
      </trkpt>
      <trkpt lat="44.5252" lon="4.44378">
        <ele>354.2</ele>
        <time>2022-06-05T07:57:20Z</time>
      </trkpt>
      <trkpt lat="44.52521" lon="4.44381">
        <ele>354.6</ele>
        <time>2022-06-05T07:57:21Z</time>
      </trkpt>
      <trkpt lat="44.52521" lon="4.44383">
        <ele>355</ele>
        <time>2022-06-05T07:57:22Z</time>
      </trkpt>
      <trkpt lat="44.52522" lon="4.44395">
        <ele>355</ele>
        <time>2022-06-05T07:57:26Z</time>
      </trkpt>
      <trkpt lat="44.52522" lon="4.44398">
        <ele>355.6</ele>
        <time>2022-06-05T07:57:27Z</time>
      </trkpt>
      <trkpt lat="44.52522" lon="4.44401">
        <ele>356</ele>
        <time>2022-06-05T07:57:28Z</time>
      </trkpt>
      <trkpt lat="44.52522" lon="4.44404">
        <ele>356.4</ele>
        <time>2022-06-05T07:57:29Z</time>
      </trkpt>
      <trkpt lat="44.52522" lon="4.44407">
        <ele>356.8</ele>
        <time>2022-06-05T07:57:30Z</time>
      </trkpt>
      <trkpt lat="44.52522" lon="4.44409">
        <ele>357.2</ele>
        <time>2022-06-05T07:57:31Z</time>
      </trkpt>
      <trkpt lat="44.52521" lon="4.44416">
        <ele>357.6</ele>
        <time>2022-06-05T07:57:33Z</time>
      </trkpt>
      <trkpt lat="44.52521" lon="4.44418">
        <ele>358</ele>
        <time>2022-06-05T07:57:34Z</time>
      </trkpt>
      <trkpt lat="44.52522" lon="4.44421">
        <ele>358.4</ele>
        <time>2022-06-05T07:57:35Z</time>
      </trkpt>
      <trkpt lat="44.52522" lon="4.44424">
        <ele>358.8</ele>
        <time>2022-06-05T07:57:36Z</time>
      </trkpt>
      <trkpt lat="44.52522" lon="4.44426">
        <ele>359.2</ele>
        <time>2022-06-05T07:57:37Z</time>
      </trkpt>
      <trkpt lat="44.52523" lon="4.44435">
        <ele>359.8</ele>
        <time>2022-06-05T07:57:40Z</time>
      </trkpt>
      <trkpt lat="44.52523" lon="4.44438">
        <ele>360.2</ele>
        <time>2022-06-05T07:57:41Z</time>
      </trkpt>
      <trkpt lat="44.52523" lon="4.44441">
        <ele>360.6</ele>
        <time>2022-06-05T07:57:42Z</time>
      </trkpt>
      <trkpt lat="44.52523" lon="4.44443">
        <ele>361.2</ele>
        <time>2022-06-05T07:57:43Z</time>
      </trkpt>
      <trkpt lat="44.52523" lon="4.44446">
        <ele>361.6</ele>
        <time>2022-06-05T07:57:44Z</time>
      </trkpt>
      <trkpt lat="44.52524" lon="4.44449">
        <ele>362.2</ele>
        <time>2022-06-05T07:57:45Z</time>
      </trkpt>
      <trkpt lat="44.52524" lon="4.44451">
        <ele>362.6</ele>
        <time>2022-06-05T07:57:46Z</time>
      </trkpt>
      <trkpt lat="44.52525" lon="4.44453">
        <ele>363</ele>
        <time>2022-06-05T07:57:47Z</time>
      </trkpt>
      <trkpt lat="44.52526" lon="4.44455">
        <ele>363.6</ele>
        <time>2022-06-05T07:57:48Z</time>
      </trkpt>
      <trkpt lat="44.52526" lon="4.44458">
        <ele>364</ele>
        <time>2022-06-05T07:57:49Z</time>
      </trkpt>
      <trkpt lat="44.52528" lon="4.44463">
        <ele>364</ele>
        <time>2022-06-05T07:57:51Z</time>
      </trkpt>
      <trkpt lat="44.52528" lon="4.44468">
        <ele>364.4</ele>
        <time>2022-06-05T07:57:53Z</time>
      </trkpt>
      <trkpt lat="44.52529" lon="4.44471">
        <ele>364.8</ele>
        <time>2022-06-05T07:57:54Z</time>
      </trkpt>
      <trkpt lat="44.5253" lon="4.44473">
        <ele>365.2</ele>
        <time>2022-06-05T07:57:55Z</time>
      </trkpt>
      <trkpt lat="44.52531" lon="4.44476">
        <ele>365.8</ele>
        <time>2022-06-05T07:57:56Z</time>
      </trkpt>
      <trkpt lat="44.52532" lon="4.44479">
        <ele>366.2</ele>
        <time>2022-06-05T07:57:57Z</time>
      </trkpt>
      <trkpt lat="44.52534" lon="4.44484">
        <ele>366.2</ele>
        <time>2022-06-05T07:57:59Z</time>
      </trkpt>
      <trkpt lat="44.52535" lon="4.44487">
        <ele>366.6</ele>
        <time>2022-06-05T07:58:00Z</time>
      </trkpt>
      <trkpt lat="44.52536" lon="4.4449">
        <ele>367</ele>
        <time>2022-06-05T07:58:01Z</time>
      </trkpt>
      <trkpt lat="44.52537" lon="4.44492">
        <ele>367.4</ele>
        <time>2022-06-05T07:58:02Z</time>
      </trkpt>
      <trkpt lat="44.52538" lon="4.44494">
        <ele>367.8</ele>
        <time>2022-06-05T07:58:03Z</time>
      </trkpt>
      <trkpt lat="44.52539" lon="4.44497">
        <ele>368.4</ele>
        <time>2022-06-05T07:58:04Z</time>
      </trkpt>
      <trkpt lat="44.52541" lon="4.44503">
        <ele>368.8</ele>
        <time>2022-06-05T07:58:06Z</time>
      </trkpt>
      <trkpt lat="44.52542" lon="4.44505">
        <ele>369.2</ele>
        <time>2022-06-05T07:58:07Z</time>
      </trkpt>
      <trkpt lat="44.52543" lon="4.44508">
        <ele>370</ele>
        <time>2022-06-05T07:58:08Z</time>
      </trkpt>
      <trkpt lat="44.52545" lon="4.4451">
        <ele>370.4</ele>
        <time>2022-06-05T07:58:09Z</time>
      </trkpt>
      <trkpt lat="44.52547" lon="4.44519">
        <ele>371</ele>
        <time>2022-06-05T07:58:12Z</time>
      </trkpt>
      <trkpt lat="44.52548" lon="4.44521">
        <ele>371.4</ele>
        <time>2022-06-05T07:58:13Z</time>
      </trkpt>
      <trkpt lat="44.52549" lon="4.44524">
        <ele>371.8</ele>
        <time>2022-06-05T07:58:14Z</time>
      </trkpt>
      <trkpt lat="44.52549" lon="4.44526">
        <ele>372.2</ele>
        <time>2022-06-05T07:58:15Z</time>
      </trkpt>
      <trkpt lat="44.5255" lon="4.44529">
        <ele>372.6</ele>
        <time>2022-06-05T07:58:16Z</time>
      </trkpt>
      <trkpt lat="44.52552" lon="4.44538">
        <ele>373</ele>
        <time>2022-06-05T07:58:19Z</time>
      </trkpt>
      <trkpt lat="44.52553" lon="4.44541">
        <ele>373.4</ele>
        <time>2022-06-05T07:58:20Z</time>
      </trkpt>
      <trkpt lat="44.52553" lon="4.44544">
        <ele>373.8</ele>
        <time>2022-06-05T07:58:21Z</time>
      </trkpt>
      <trkpt lat="44.52554" lon="4.44546">
        <ele>374.2</ele>
        <time>2022-06-05T07:58:22Z</time>
      </trkpt>
      <trkpt lat="44.52554" lon="4.44549">
        <ele>374.6</ele>
        <time>2022-06-05T07:58:23Z</time>
      </trkpt>
      <trkpt lat="44.52553" lon="4.44561">
        <ele>375</ele>
        <time>2022-06-05T07:58:28Z</time>
      </trkpt>
      <trkpt lat="44.52553" lon="4.44563">
        <ele>375.4</ele>
        <time>2022-06-05T07:58:29Z</time>
      </trkpt>
      <trkpt lat="44.52553" lon="4.44562">
        <ele>375.8</ele>
        <time>2022-06-05T07:58:30Z</time>
      </trkpt>
      <trkpt lat="44.52555" lon="4.44568">
        <ele>376.6</ele>
        <time>2022-06-05T08:00:15Z</time>
      </trkpt>
      <trkpt lat="44.52555" lon="4.44573">
        <ele>376.6</ele>
        <time>2022-06-05T08:00:17Z</time>
      </trkpt>
      <trkpt lat="44.52554" lon="4.44577">
        <ele>376.6</ele>
        <time>2022-06-05T08:00:19Z</time>
      </trkpt>
      <trkpt lat="44.52553" lon="4.44581">
        <ele>376.6</ele>
        <time>2022-06-05T08:00:21Z</time>
      </trkpt>
      <trkpt lat="44.52551" lon="4.44586">
        <ele>376.6</ele>
        <time>2022-06-05T08:00:24Z</time>
      </trkpt>
      <trkpt lat="44.5255" lon="4.44588">
        <ele>376.6</ele>
        <time>2022-06-05T08:00:25Z</time>
      </trkpt>
      <trkpt lat="44.5254" lon="4.44598">
        <ele>376.6</ele>
        <time>2022-06-05T08:00:30Z</time>
      </trkpt>
      <trkpt lat="44.52521" lon="4.44609">
        <ele>376.6</ele>
        <time>2022-06-05T08:00:36Z</time>
      </trkpt>
      <trkpt lat="44.525" lon="4.44609">
        <ele>376.6</ele>
        <time>2022-06-05T08:00:43Z</time>
      </trkpt>
      <trkpt lat="44.52477" lon="4.44598">
        <ele>376.6</ele>
        <time>2022-06-05T08:00:51Z</time>
      </trkpt>
      <trkpt lat="44.52449" lon="4.44587">
        <ele>376.6</ele>
        <time>2022-06-05T08:01:01Z</time>
      </trkpt>
      <trkpt lat="44.52422" lon="4.44582">
        <ele>376.6</ele>
        <time>2022-06-05T08:01:10Z</time>
      </trkpt>
      <trkpt lat="44.52393" lon="4.44572">
        <ele>376.6</ele>
        <time>2022-06-05T08:01:19Z</time>
      </trkpt>
      <trkpt lat="44.52364" lon="4.44564">
        <ele>376.6</ele>
        <time>2022-06-05T08:01:27Z</time>
      </trkpt>
      <trkpt lat="44.52334" lon="4.44557">
        <ele>376.6</ele>
        <time>2022-06-05T08:01:35Z</time>
      </trkpt>
      <trkpt lat="44.52314" lon="4.44557">
        <ele>376.6</ele>
        <time>2022-06-05T08:01:41Z</time>
      </trkpt>
      <trkpt lat="44.52284" lon="4.44562">
        <ele>376.6</ele>
        <time>2022-06-05T08:01:50Z</time>
      </trkpt>
      <trkpt lat="44.52256" lon="4.44566">
        <ele>376.6</ele>
        <time>2022-06-05T08:01:57Z</time>
      </trkpt>
      <trkpt lat="44.52232" lon="4.44579">
        <ele>376.2</ele>
        <time>2022-06-05T08:02:04Z</time>
      </trkpt>
      <trkpt lat="44.52229" lon="4.4458">
        <ele>375.8</ele>
        <time>2022-06-05T08:02:05Z</time>
      </trkpt>
      <trkpt lat="44.52225" lon="4.44582">
        <ele>375.4</ele>
        <time>2022-06-05T08:02:06Z</time>
      </trkpt>
      <trkpt lat="44.52222" lon="4.44583">
        <ele>375</ele>
        <time>2022-06-05T08:02:07Z</time>
      </trkpt>
      <trkpt lat="44.52218" lon="4.44584">
        <ele>374.6</ele>
        <time>2022-06-05T08:02:08Z</time>
      </trkpt>
      <trkpt lat="44.52202" lon="4.4459">
        <ele>374.6</ele>
        <time>2022-06-05T08:02:12Z</time>
      </trkpt>
      <trkpt lat="44.52175" lon="4.44605">
        <ele>374.6</ele>
        <time>2022-06-05T08:02:19Z</time>
      </trkpt>
      <trkpt lat="44.52142" lon="4.44613">
        <ele>374.6</ele>
        <time>2022-06-05T08:02:27Z</time>
      </trkpt>
      <trkpt lat="44.52116" lon="4.44622">
        <ele>374.6</ele>
        <time>2022-06-05T08:02:35Z</time>
      </trkpt>
      <trkpt lat="44.52113" lon="4.44623">
        <ele>374.6</ele>
        <time>2022-06-05T08:02:37Z</time>
      </trkpt>
      <trkpt lat="44.52106" lon="4.44626">
        <ele>372.2</ele>
        <time>2022-06-05T08:02:46Z</time>
      </trkpt>
      <trkpt lat="44.52106" lon="4.44628">
        <ele>372.2</ele>
        <time>2022-06-05T08:02:47Z</time>
      </trkpt>
      <trkpt lat="44.52104" lon="4.44646">
        <ele>372.2</ele>
        <time>2022-06-05T08:02:52Z</time>
      </trkpt>
      <trkpt lat="44.52104" lon="4.44651">
        <ele>371.8</ele>
        <time>2022-06-05T08:02:53Z</time>
      </trkpt>
      <trkpt lat="44.52104" lon="4.44657">
        <ele>371.4</ele>
        <time>2022-06-05T08:02:54Z</time>
      </trkpt>
      <trkpt lat="44.52104" lon="4.44664">
        <ele>370.8</ele>
        <time>2022-06-05T08:02:55Z</time>
      </trkpt>
      <trkpt lat="44.52105" lon="4.4467">
        <ele>370.4</ele>
        <time>2022-06-05T08:02:56Z</time>
      </trkpt>
      <trkpt lat="44.52106" lon="4.44677">
        <ele>369.8</ele>
        <time>2022-06-05T08:02:57Z</time>
      </trkpt>
      <trkpt lat="44.52107" lon="4.44684">
        <ele>369.4</ele>
        <time>2022-06-05T08:02:58Z</time>
      </trkpt>
      <trkpt lat="44.52108" lon="4.4469">
        <ele>368.8</ele>
        <time>2022-06-05T08:02:59Z</time>
      </trkpt>
      <trkpt lat="44.52109" lon="4.44696">
        <ele>368.2</ele>
        <time>2022-06-05T08:03:00Z</time>
      </trkpt>
      <trkpt lat="44.5211" lon="4.44702">
        <ele>367.4</ele>
        <time>2022-06-05T08:03:01Z</time>
      </trkpt>
      <trkpt lat="44.52111" lon="4.44709">
        <ele>366.8</ele>
        <time>2022-06-05T08:03:02Z</time>
      </trkpt>
      <trkpt lat="44.52112" lon="4.44716">
        <ele>366.2</ele>
        <time>2022-06-05T08:03:03Z</time>
      </trkpt>
      <trkpt lat="44.52112" lon="4.44723">
        <ele>365.4</ele>
        <time>2022-06-05T08:03:04Z</time>
      </trkpt>
      <trkpt lat="44.52112" lon="4.44731">
        <ele>364.2</ele>
        <time>2022-06-05T08:03:05Z</time>
      </trkpt>
      <trkpt lat="44.52112" lon="4.44738">
        <ele>363.6</ele>
        <time>2022-06-05T08:03:06Z</time>
      </trkpt>
      <trkpt lat="44.52112" lon="4.44745">
        <ele>363</ele>
        <time>2022-06-05T08:03:07Z</time>
      </trkpt>
      <trkpt lat="44.52112" lon="4.44759">
        <ele>363</ele>
        <time>2022-06-05T08:03:09Z</time>
      </trkpt>
      <trkpt lat="44.52111" lon="4.44777">
        <ele>363</ele>
        <time>2022-06-05T08:03:13Z</time>
      </trkpt>
      <trkpt lat="44.52111" lon="4.44781">
        <ele>362.4</ele>
        <time>2022-06-05T08:03:15Z</time>
      </trkpt>
      <trkpt lat="44.52114" lon="4.44786">
        <ele>360.6</ele>
        <time>2022-06-05T08:03:19Z</time>
      </trkpt>
      <trkpt lat="44.52115" lon="4.44788">
        <ele>360.2</ele>
        <time>2022-06-05T08:03:21Z</time>
      </trkpt>
      <trkpt lat="44.52116" lon="4.44789">
        <ele>359.6</ele>
        <time>2022-06-05T08:03:22Z</time>
      </trkpt>
      <trkpt lat="44.52117" lon="4.44791">
        <ele>359.2</ele>
        <time>2022-06-05T08:03:23Z</time>
      </trkpt>
      <trkpt lat="44.52117" lon="4.44793">
        <ele>358.6</ele>
        <time>2022-06-05T08:03:24Z</time>
      </trkpt>
      <trkpt lat="44.52118" lon="4.44794">
        <ele>358</ele>
        <time>2022-06-05T08:03:25Z</time>
      </trkpt>
      <trkpt lat="44.52119" lon="4.44796">
        <ele>357.4</ele>
        <time>2022-06-05T08:03:26Z</time>
      </trkpt>
      <trkpt lat="44.5212" lon="4.44797">
        <ele>356.8</ele>
        <time>2022-06-05T08:03:27Z</time>
      </trkpt>
      <trkpt lat="44.52121" lon="4.44798">
        <ele>356.2</ele>
        <time>2022-06-05T08:03:28Z</time>
      </trkpt>
      <trkpt lat="44.52138" lon="4.44825">
        <ele>346.4</ele>
        <time>2022-06-05T08:04:28Z</time>
      </trkpt>
      <trkpt lat="44.5214" lon="4.44826">
        <ele>346</ele>
        <time>2022-06-05T08:04:29Z</time>
      </trkpt>
      <trkpt lat="44.52141" lon="4.44827">
        <ele>345.6</ele>
        <time>2022-06-05T08:04:30Z</time>
      </trkpt>
      <trkpt lat="44.52142" lon="4.44829">
        <ele>345</ele>
        <time>2022-06-05T08:04:31Z</time>
      </trkpt>
      <trkpt lat="44.52144" lon="4.44831">
        <ele>344.4</ele>
        <time>2022-06-05T08:04:32Z</time>
      </trkpt>
      <trkpt lat="44.52145" lon="4.44833">
        <ele>343.8</ele>
        <time>2022-06-05T08:04:33Z</time>
      </trkpt>
      <trkpt lat="44.52147" lon="4.44835">
        <ele>343.2</ele>
        <time>2022-06-05T08:04:34Z</time>
      </trkpt>
      <trkpt lat="44.52148" lon="4.44838">
        <ele>342.4</ele>
        <time>2022-06-05T08:04:35Z</time>
      </trkpt>
      <trkpt lat="44.5215" lon="4.44841">
        <ele>341.8</ele>
        <time>2022-06-05T08:04:36Z</time>
      </trkpt>
      <trkpt lat="44.52151" lon="4.44844">
        <ele>341.2</ele>
        <time>2022-06-05T08:04:37Z</time>
      </trkpt>
      <trkpt lat="44.52152" lon="4.44847">
        <ele>340.4</ele>
        <time>2022-06-05T08:04:38Z</time>
      </trkpt>
      <trkpt lat="44.52153" lon="4.4485">
        <ele>339.8</ele>
        <time>2022-06-05T08:04:39Z</time>
      </trkpt>
      <trkpt lat="44.52155" lon="4.44853">
        <ele>339</ele>
        <time>2022-06-05T08:04:40Z</time>
      </trkpt>
      <trkpt lat="44.52156" lon="4.44855">
        <ele>338.4</ele>
        <time>2022-06-05T08:04:41Z</time>
      </trkpt>
      <trkpt lat="44.52157" lon="4.44856">
        <ele>337.8</ele>
        <time>2022-06-05T08:04:42Z</time>
      </trkpt>
      <trkpt lat="44.52159" lon="4.44858">
        <ele>337</ele>
        <time>2022-06-05T08:04:43Z</time>
      </trkpt>
      <trkpt lat="44.5216" lon="4.4486">
        <ele>336.4</ele>
        <time>2022-06-05T08:04:44Z</time>
      </trkpt>
      <trkpt lat="44.52161" lon="4.44862">
        <ele>335.8</ele>
        <time>2022-06-05T08:04:45Z</time>
      </trkpt>
      <trkpt lat="44.52163" lon="4.44865">
        <ele>335</ele>
        <time>2022-06-05T08:04:46Z</time>
      </trkpt>
      <trkpt lat="44.52164" lon="4.44868">
        <ele>334.4</ele>
        <time>2022-06-05T08:04:47Z</time>
      </trkpt>
      <trkpt lat="44.52165" lon="4.4487">
        <ele>333.8</ele>
        <time>2022-06-05T08:04:48Z</time>
      </trkpt>
      <trkpt lat="44.52166" lon="4.44873">
        <ele>333</ele>
        <time>2022-06-05T08:04:49Z</time>
      </trkpt>
      <trkpt lat="44.52167" lon="4.44875">
        <ele>332.4</ele>
        <time>2022-06-05T08:04:50Z</time>
      </trkpt>
      <trkpt lat="44.52167" lon="4.44877">
        <ele>332</ele>
        <time>2022-06-05T08:04:51Z</time>
      </trkpt>
      <trkpt lat="44.52169" lon="4.4488">
        <ele>331.4</ele>
        <time>2022-06-05T08:04:52Z</time>
      </trkpt>
      <trkpt lat="44.5217" lon="4.44882">
        <ele>331</ele>
        <time>2022-06-05T08:04:53Z</time>
      </trkpt>
      <trkpt lat="44.5217" lon="4.44885">
        <ele>330.4</ele>
        <time>2022-06-05T08:04:54Z</time>
      </trkpt>
      <trkpt lat="44.52171" lon="4.44887">
        <ele>330</ele>
        <time>2022-06-05T08:04:55Z</time>
      </trkpt>
      <trkpt lat="44.52172" lon="4.4489">
        <ele>329.4</ele>
        <time>2022-06-05T08:04:56Z</time>
      </trkpt>
      <trkpt lat="44.52173" lon="4.44893">
        <ele>329</ele>
        <time>2022-06-05T08:04:57Z</time>
      </trkpt>
      <trkpt lat="44.52174" lon="4.44896">
        <ele>328.4</ele>
        <time>2022-06-05T08:04:58Z</time>
      </trkpt>
      <trkpt lat="44.52175" lon="4.44898">
        <ele>327.8</ele>
        <time>2022-06-05T08:04:59Z</time>
      </trkpt>
      <trkpt lat="44.52176" lon="4.449">
        <ele>327.4</ele>
        <time>2022-06-05T08:05:00Z</time>
      </trkpt>
      <trkpt lat="44.52178" lon="4.44902">
        <ele>326.8</ele>
        <time>2022-06-05T08:05:01Z</time>
      </trkpt>
      <trkpt lat="44.52179" lon="4.44904">
        <ele>326</ele>
        <time>2022-06-05T08:05:02Z</time>
      </trkpt>
      <trkpt lat="44.5218" lon="4.44907">
        <ele>325.4</ele>
        <time>2022-06-05T08:05:03Z</time>
      </trkpt>
      <trkpt lat="44.52181" lon="4.44909">
        <ele>324.6</ele>
        <time>2022-06-05T08:05:04Z</time>
      </trkpt>
      <trkpt lat="44.52183" lon="4.44912">
        <ele>323.8</ele>
        <time>2022-06-05T08:05:05Z</time>
      </trkpt>
      <trkpt lat="44.52183" lon="4.44915">
        <ele>323.2</ele>
        <time>2022-06-05T08:05:06Z</time>
      </trkpt>
      <trkpt lat="44.52183" lon="4.44918">
        <ele>322.6</ele>
        <time>2022-06-05T08:05:07Z</time>
      </trkpt>
      <trkpt lat="44.52184" lon="4.44922">
        <ele>322</ele>
        <time>2022-06-05T08:05:08Z</time>
      </trkpt>
      <trkpt lat="44.52183" lon="4.44925">
        <ele>321.4</ele>
        <time>2022-06-05T08:05:09Z</time>
      </trkpt>
      <trkpt lat="44.52185" lon="4.44929">
        <ele>320.8</ele>
        <time>2022-06-05T08:05:10Z</time>
      </trkpt>
      <trkpt lat="44.52186" lon="4.44932">
        <ele>320.2</ele>
        <time>2022-06-05T08:05:11Z</time>
      </trkpt>
      <trkpt lat="44.52187" lon="4.44934">
        <ele>319.6</ele>
        <time>2022-06-05T08:05:12Z</time>
      </trkpt>
      <trkpt lat="44.52187" lon="4.44937">
        <ele>319</ele>
        <time>2022-06-05T08:05:13Z</time>
      </trkpt>
      <trkpt lat="44.52186" lon="4.44941">
        <ele>318.4</ele>
        <time>2022-06-05T08:05:14Z</time>
      </trkpt>
      <trkpt lat="44.52185" lon="4.44944">
        <ele>317.8</ele>
        <time>2022-06-05T08:05:15Z</time>
      </trkpt>
      <trkpt lat="44.52183" lon="4.44947">
        <ele>316.4</ele>
        <time>2022-06-05T08:05:16Z</time>
      </trkpt>
      <trkpt lat="44.52182" lon="4.44949">
        <ele>316</ele>
        <time>2022-06-05T08:05:17Z</time>
      </trkpt>
      <trkpt lat="44.52169" lon="4.44956">
        <ele>314.2</ele>
        <time>2022-06-05T08:05:27Z</time>
      </trkpt>
      <trkpt lat="44.52163" lon="4.44957">
        <ele>313.6</ele>
        <time>2022-06-05T08:05:29Z</time>
      </trkpt>
      <trkpt lat="44.5216" lon="4.44958">
        <ele>313.2</ele>
        <time>2022-06-05T08:05:30Z</time>
      </trkpt>
      <trkpt lat="44.52157" lon="4.44958">
        <ele>312.8</ele>
        <time>2022-06-05T08:05:31Z</time>
      </trkpt>
      <trkpt lat="44.52153" lon="4.44958">
        <ele>312.4</ele>
        <time>2022-06-05T08:05:32Z</time>
      </trkpt>
      <trkpt lat="44.52148" lon="4.44958">
        <ele>311.8</ele>
        <time>2022-06-05T08:05:33Z</time>
      </trkpt>
      <trkpt lat="44.52137" lon="4.44957">
        <ele>311.8</ele>
        <time>2022-06-05T08:05:36Z</time>
      </trkpt>
      <trkpt lat="44.52135" lon="4.44956">
        <ele>311.8</ele>
        <time>2022-06-05T08:05:38Z</time>
      </trkpt>
      <trkpt lat="44.52121" lon="4.4495">
        <ele>309.8</ele>
        <time>2022-06-05T08:06:09Z</time>
      </trkpt>
      <trkpt lat="44.5212" lon="4.44949">
        <ele>309.8</ele>
        <time>2022-06-05T08:06:10Z</time>
      </trkpt>
      <trkpt lat="44.52114" lon="4.44949">
        <ele>309.4</ele>
        <time>2022-06-05T08:06:13Z</time>
      </trkpt>
      <trkpt lat="44.52111" lon="4.4495">
        <ele>309</ele>
        <time>2022-06-05T08:06:14Z</time>
      </trkpt>
      <trkpt lat="44.5211" lon="4.4495">
        <ele>308.6</ele>
        <time>2022-06-05T08:06:15Z</time>
      </trkpt>
      <trkpt lat="44.52108" lon="4.44951">
        <ele>308.2</ele>
        <time>2022-06-05T08:06:16Z</time>
      </trkpt>
      <trkpt lat="44.52105" lon="4.44951">
        <ele>307.8</ele>
        <time>2022-06-05T08:06:17Z</time>
      </trkpt>
      <trkpt lat="44.52102" lon="4.44951">
        <ele>307.8</ele>
        <time>2022-06-05T08:06:18Z</time>
      </trkpt>
      <trkpt lat="44.52092" lon="4.44957">
        <ele>307.8</ele>
        <time>2022-06-05T08:06:24Z</time>
      </trkpt>
      <trkpt lat="44.52089" lon="4.44969">
        <ele>307.8</ele>
        <time>2022-06-05T08:06:29Z</time>
      </trkpt>
      <trkpt lat="44.52093" lon="4.44973">
        <ele>307.8</ele>
        <time>2022-06-05T08:06:39Z</time>
      </trkpt>
      <trkpt lat="44.52102" lon="4.44984">
        <ele>307.8</ele>
        <time>2022-06-05T08:06:45Z</time>
      </trkpt>
      <trkpt lat="44.52102" lon="4.44986">
        <ele>307.8</ele>
        <time>2022-06-05T08:06:46Z</time>
      </trkpt>
      <trkpt lat="44.52099" lon="4.44991">
        <ele>308.2</ele>
        <time>2022-06-05T08:06:48Z</time>
      </trkpt>
      <trkpt lat="44.52097" lon="4.44992">
        <ele>308.6</ele>
        <time>2022-06-05T08:06:49Z</time>
      </trkpt>
      <trkpt lat="44.52094" lon="4.44992">
        <ele>309</ele>
        <time>2022-06-05T08:06:50Z</time>
      </trkpt>
      <trkpt lat="44.52092" lon="4.44992">
        <ele>309.6</ele>
        <time>2022-06-05T08:06:51Z</time>
      </trkpt>
      <trkpt lat="44.5209" lon="4.44992">
        <ele>310</ele>
        <time>2022-06-05T08:06:52Z</time>
      </trkpt>
      <trkpt lat="44.52086" lon="4.44993">
        <ele>310</ele>
        <time>2022-06-05T08:06:54Z</time>
      </trkpt>
      <trkpt lat="44.52081" lon="4.44994">
        <ele>310</ele>
        <time>2022-06-05T08:06:58Z</time>
      </trkpt>
      <trkpt lat="44.52079" lon="4.44995">
        <ele>310</ele>
        <time>2022-06-05T08:06:59Z</time>
      </trkpt>
      <trkpt lat="44.52063" lon="4.44998">
        <ele>310</ele>
        <time>2022-06-05T08:07:04Z</time>
      </trkpt>
      <trkpt lat="44.52031" lon="4.45006">
        <ele>310</ele>
        <time>2022-06-05T08:07:13Z</time>
      </trkpt>
      <trkpt lat="44.51997" lon="4.45021">
        <ele>310</ele>
        <time>2022-06-05T08:07:26Z</time>
      </trkpt>
      <trkpt lat="44.5198" lon="4.4502">
        <ele>310</ele>
        <time>2022-06-05T08:07:32Z</time>
      </trkpt>
      <trkpt lat="44.51958" lon="4.45013">
        <ele>309.6</ele>
        <time>2022-06-05T08:07:36Z</time>
      </trkpt>
      <trkpt lat="44.51953" lon="4.4501">
        <ele>309</ele>
        <time>2022-06-05T08:07:37Z</time>
      </trkpt>
      <trkpt lat="44.51949" lon="4.45007">
        <ele>308.6</ele>
        <time>2022-06-05T08:07:38Z</time>
      </trkpt>
      <trkpt lat="44.51946" lon="4.45002">
        <ele>308.2</ele>
        <time>2022-06-05T08:07:39Z</time>
      </trkpt>
      <trkpt lat="44.51942" lon="4.44998">
        <ele>307.6</ele>
        <time>2022-06-05T08:07:40Z</time>
      </trkpt>
      <trkpt lat="44.51939" lon="4.44994">
        <ele>307</ele>
        <time>2022-06-05T08:07:41Z</time>
      </trkpt>
      <trkpt lat="44.51936" lon="4.4499">
        <ele>305.8</ele>
        <time>2022-06-05T08:07:42Z</time>
      </trkpt>
      <trkpt lat="44.51933" lon="4.44987">
        <ele>305.4</ele>
        <time>2022-06-05T08:07:43Z</time>
      </trkpt>
      <trkpt lat="44.5193" lon="4.44984">
        <ele>305.4</ele>
        <time>2022-06-05T08:07:44Z</time>
      </trkpt>
      <trkpt lat="44.51922" lon="4.44978">
        <ele>305</ele>
        <time>2022-06-05T08:07:46Z</time>
      </trkpt>
      <trkpt lat="44.51918" lon="4.44976">
        <ele>304.4</ele>
        <time>2022-06-05T08:07:47Z</time>
      </trkpt>
      <trkpt lat="44.51913" lon="4.44973">
        <ele>304</ele>
        <time>2022-06-05T08:07:48Z</time>
      </trkpt>
      <trkpt lat="44.51909" lon="4.44971">
        <ele>303.6</ele>
        <time>2022-06-05T08:07:49Z</time>
      </trkpt>
      <trkpt lat="44.51905" lon="4.44969">
        <ele>303.2</ele>
        <time>2022-06-05T08:07:50Z</time>
      </trkpt>
      <trkpt lat="44.51895" lon="4.44964">
        <ele>302.8</ele>
        <time>2022-06-05T08:07:53Z</time>
      </trkpt>
      <trkpt lat="44.51892" lon="4.44965">
        <ele>302.4</ele>
        <time>2022-06-05T08:07:54Z</time>
      </trkpt>
      <trkpt lat="44.51889" lon="4.44966">
        <ele>302</ele>
        <time>2022-06-05T08:07:55Z</time>
      </trkpt>
      <trkpt lat="44.51886" lon="4.44968">
        <ele>301.6</ele>
        <time>2022-06-05T08:07:56Z</time>
      </trkpt>
      <trkpt lat="44.51884" lon="4.44969">
        <ele>301.2</ele>
        <time>2022-06-05T08:07:57Z</time>
      </trkpt>
      <trkpt lat="44.51876" lon="4.44973">
        <ele>301.2</ele>
        <time>2022-06-05T08:08:00Z</time>
      </trkpt>
      <trkpt lat="44.51854" lon="4.44978">
        <ele>301.2</ele>
        <time>2022-06-05T08:08:07Z</time>
      </trkpt>
      <trkpt lat="44.51837" lon="4.44977">
        <ele>301.2</ele>
        <time>2022-06-05T08:08:13Z</time>
      </trkpt>
      <trkpt lat="44.51815" lon="4.44976">
        <ele>300.8</ele>
        <time>2022-06-05T08:08:21Z</time>
      </trkpt>
      <trkpt lat="44.5181" lon="4.44976">
        <ele>300.4</ele>
        <time>2022-06-05T08:08:22Z</time>
      </trkpt>
      <trkpt lat="44.51807" lon="4.44975">
        <ele>299.8</ele>
        <time>2022-06-05T08:08:23Z</time>
      </trkpt>
      <trkpt lat="44.51801" lon="4.44972">
        <ele>299.4</ele>
        <time>2022-06-05T08:08:24Z</time>
      </trkpt>
      <trkpt lat="44.51795" lon="4.4497">
        <ele>299</ele>
        <time>2022-06-05T08:08:25Z</time>
      </trkpt>
      <trkpt lat="44.51776" lon="4.44959">
        <ele>299</ele>
        <time>2022-06-05T08:08:31Z</time>
      </trkpt>
      <trkpt lat="44.51753" lon="4.44955">
        <ele>299</ele>
        <time>2022-06-05T08:08:38Z</time>
      </trkpt>
      <trkpt lat="44.51722" lon="4.44961">
        <ele>299</ele>
        <time>2022-06-05T08:08:48Z</time>
      </trkpt>
      <trkpt lat="44.51708" lon="4.44964">
        <ele>299</ele>
        <time>2022-06-05T08:08:54Z</time>
      </trkpt>
      <trkpt lat="44.51704" lon="4.44963">
        <ele>299</ele>
        <time>2022-06-05T08:08:56Z</time>
      </trkpt>
      <trkpt lat="44.51703" lon="4.44962">
        <ele>298.6</ele>
        <time>2022-06-05T08:08:57Z</time>
      </trkpt>
      <trkpt lat="44.51701" lon="4.44961">
        <ele>298.2</ele>
        <time>2022-06-05T08:08:58Z</time>
      </trkpt>
      <trkpt lat="44.51699" lon="4.4496">
        <ele>297.8</ele>
        <time>2022-06-05T08:08:59Z</time>
      </trkpt>
      <trkpt lat="44.51696" lon="4.44959">
        <ele>297.4</ele>
        <time>2022-06-05T08:09:00Z</time>
      </trkpt>
      <trkpt lat="44.51695" lon="4.44958">
        <ele>297</ele>
        <time>2022-06-05T08:09:01Z</time>
      </trkpt>
      <trkpt lat="44.51691" lon="4.44953">
        <ele>297</ele>
        <time>2022-06-05T08:09:05Z</time>
      </trkpt>
      <trkpt lat="44.51687" lon="4.44944">
        <ele>297</ele>
        <time>2022-06-05T08:09:46Z</time>
      </trkpt>
      <trkpt lat="44.51683" lon="4.44933">
        <ele>297</ele>
        <time>2022-06-05T08:09:50Z</time>
      </trkpt>
      <trkpt lat="44.51674" lon="4.44904">
        <ele>297</ele>
        <time>2022-06-05T08:09:57Z</time>
      </trkpt>
      <trkpt lat="44.51657" lon="4.44876">
        <ele>297</ele>
        <time>2022-06-05T08:10:04Z</time>
      </trkpt>
      <trkpt lat="44.51654" lon="4.44872">
        <ele>296.6</ele>
        <time>2022-06-05T08:10:05Z</time>
      </trkpt>
      <trkpt lat="44.51651" lon="4.44868">
        <ele>296.2</ele>
        <time>2022-06-05T08:10:06Z</time>
      </trkpt>
      <trkpt lat="44.51648" lon="4.44864">
        <ele>295.6</ele>
        <time>2022-06-05T08:10:07Z</time>
      </trkpt>
      <trkpt lat="44.51644" lon="4.44861">
        <ele>295.2</ele>
        <time>2022-06-05T08:10:08Z</time>
      </trkpt>
      <trkpt lat="44.5164" lon="4.44857">
        <ele>294.8</ele>
        <time>2022-06-05T08:10:09Z</time>
      </trkpt>
      <trkpt lat="44.51636" lon="4.44854">
        <ele>294.8</ele>
        <time>2022-06-05T08:10:10Z</time>
      </trkpt>
      <trkpt lat="44.51619" lon="4.44834">
        <ele>294.8</ele>
        <time>2022-06-05T08:10:16Z</time>
      </trkpt>
      <trkpt lat="44.51601" lon="4.44811">
        <ele>294.2</ele>
        <time>2022-06-05T08:10:23Z</time>
      </trkpt>
      <trkpt lat="44.51598" lon="4.44807">
        <ele>293.8</ele>
        <time>2022-06-05T08:10:24Z</time>
      </trkpt>
      <trkpt lat="44.51596" lon="4.44803">
        <ele>293.4</ele>
        <time>2022-06-05T08:10:25Z</time>
      </trkpt>
      <trkpt lat="44.51594" lon="4.44799">
        <ele>293</ele>
        <time>2022-06-05T08:10:26Z</time>
      </trkpt>
      <trkpt lat="44.51591" lon="4.44795">
        <ele>292.6</ele>
        <time>2022-06-05T08:10:27Z</time>
      </trkpt>
      <trkpt lat="44.51574" lon="4.44771">
        <ele>292.6</ele>
        <time>2022-06-05T08:10:33Z</time>
      </trkpt>
      <trkpt lat="44.51557" lon="4.44749">
        <ele>292.2</ele>
        <time>2022-06-05T08:10:38Z</time>
      </trkpt>
      <trkpt lat="44.51554" lon="4.44746">
        <ele>291.8</ele>
        <time>2022-06-05T08:10:39Z</time>
      </trkpt>
      <trkpt lat="44.51551" lon="4.44742">
        <ele>291.4</ele>
        <time>2022-06-05T08:10:40Z</time>
      </trkpt>
      <trkpt lat="44.51548" lon="4.44738">
        <ele>291</ele>
        <time>2022-06-05T08:10:41Z</time>
      </trkpt>
      <trkpt lat="44.51546" lon="4.44734">
        <ele>290.4</ele>
        <time>2022-06-05T08:10:42Z</time>
      </trkpt>
      <trkpt lat="44.51531" lon="4.44713">
        <ele>290.4</ele>
        <time>2022-06-05T08:10:48Z</time>
      </trkpt>
      <trkpt lat="44.51515" lon="4.44679">
        <ele>290.4</ele>
        <time>2022-06-05T08:10:56Z</time>
      </trkpt>
      <trkpt lat="44.51513" lon="4.44674">
        <ele>290.4</ele>
        <time>2022-06-05T08:10:57Z</time>
      </trkpt>
      <trkpt lat="44.515" lon="4.44656">
        <ele>290.4</ele>
        <time>2022-06-05T08:11:01Z</time>
      </trkpt>
      <trkpt lat="44.51476" lon="4.44628">
        <ele>290.4</ele>
        <time>2022-06-05T08:11:09Z</time>
      </trkpt>
      <trkpt lat="44.51474" lon="4.44625">
        <ele>290</ele>
        <time>2022-06-05T08:11:10Z</time>
      </trkpt>
      <trkpt lat="44.51471" lon="4.44622">
        <ele>289.6</ele>
        <time>2022-06-05T08:11:11Z</time>
      </trkpt>
      <trkpt lat="44.51468" lon="4.44619">
        <ele>289.2</ele>
        <time>2022-06-05T08:11:12Z</time>
      </trkpt>
      <trkpt lat="44.51466" lon="4.44617">
        <ele>288.8</ele>
        <time>2022-06-05T08:11:13Z</time>
      </trkpt>
      <trkpt lat="44.51463" lon="4.44614">
        <ele>288.4</ele>
        <time>2022-06-05T08:11:14Z</time>
      </trkpt>
      <trkpt lat="44.51456" lon="4.44607">
        <ele>288.4</ele>
        <time>2022-06-05T08:11:17Z</time>
      </trkpt>
      <trkpt lat="44.51439" lon="4.44593">
        <ele>288.4</ele>
        <time>2022-06-05T08:11:24Z</time>
      </trkpt>
      <trkpt lat="44.51433" lon="4.44581">
        <ele>288.4</ele>
        <time>2022-06-05T08:11:30Z</time>
      </trkpt>
      <trkpt lat="44.51427" lon="4.44566">
        <ele>288.8</ele>
        <time>2022-06-05T08:11:35Z</time>
      </trkpt>
      <trkpt lat="44.51426" lon="4.44563">
        <ele>289.2</ele>
        <time>2022-06-05T08:11:36Z</time>
      </trkpt>
      <trkpt lat="44.51426" lon="4.4456">
        <ele>289.6</ele>
        <time>2022-06-05T08:11:37Z</time>
      </trkpt>
      <trkpt lat="44.51425" lon="4.44556">
        <ele>290</ele>
        <time>2022-06-05T08:11:38Z</time>
      </trkpt>
      <trkpt lat="44.51424" lon="4.44552">
        <ele>290.4</ele>
        <time>2022-06-05T08:11:39Z</time>
      </trkpt>
      <trkpt lat="44.51423" lon="4.44544">
        <ele>290.8</ele>
        <time>2022-06-05T08:11:41Z</time>
      </trkpt>
      <trkpt lat="44.51423" lon="4.4454">
        <ele>291.2</ele>
        <time>2022-06-05T08:11:42Z</time>
      </trkpt>
      <trkpt lat="44.51422" lon="4.44536">
        <ele>291.6</ele>
        <time>2022-06-05T08:11:43Z</time>
      </trkpt>
      <trkpt lat="44.51422" lon="4.44532">
        <ele>292</ele>
        <time>2022-06-05T08:11:44Z</time>
      </trkpt>
      <trkpt lat="44.51421" lon="4.44529">
        <ele>292.4</ele>
        <time>2022-06-05T08:11:45Z</time>
      </trkpt>
      <trkpt lat="44.5142" lon="4.44524">
        <ele>292.8</ele>
        <time>2022-06-05T08:11:47Z</time>
      </trkpt>
      <trkpt lat="44.5142" lon="4.44521">
        <ele>293.4</ele>
        <time>2022-06-05T08:11:48Z</time>
      </trkpt>
      <trkpt lat="44.51419" lon="4.44518">
        <ele>294.2</ele>
        <time>2022-06-05T08:11:49Z</time>
      </trkpt>
      <trkpt lat="44.51419" lon="4.44515">
        <ele>294.8</ele>
        <time>2022-06-05T08:11:50Z</time>
      </trkpt>
      <trkpt lat="44.51417" lon="4.44506">
        <ele>295.2</ele>
        <time>2022-06-05T08:11:53Z</time>
      </trkpt>
      <trkpt lat="44.51417" lon="4.44503">
        <ele>295.6</ele>
        <time>2022-06-05T08:11:54Z</time>
      </trkpt>
      <trkpt lat="44.51416" lon="4.44501">
        <ele>296</ele>
        <time>2022-06-05T08:11:55Z</time>
      </trkpt>
      <trkpt lat="44.51416" lon="4.44498">
        <ele>296.4</ele>
        <time>2022-06-05T08:11:56Z</time>
      </trkpt>
      <trkpt lat="44.51415" lon="4.44496">
        <ele>296.8</ele>
        <time>2022-06-05T08:11:57Z</time>
      </trkpt>
      <trkpt lat="44.51413" lon="4.44473">
        <ele>296.8</ele>
        <time>2022-06-05T08:12:05Z</time>
      </trkpt>
      <trkpt lat="44.51412" lon="4.44454">
        <ele>299.2</ele>
        <time>2022-06-05T08:15:25Z</time>
      </trkpt>
      <trkpt lat="44.51416" lon="4.44431">
        <ele>299.2</ele>
        <time>2022-06-05T08:15:32Z</time>
      </trkpt>
      <trkpt lat="44.51421" lon="4.44393">
        <ele>298.8</ele>
        <time>2022-06-05T08:15:40Z</time>
      </trkpt>
      <trkpt lat="44.51422" lon="4.44387">
        <ele>298.2</ele>
        <time>2022-06-05T08:15:41Z</time>
      </trkpt>
      <trkpt lat="44.51422" lon="4.4438">
        <ele>297.8</ele>
        <time>2022-06-05T08:15:42Z</time>
      </trkpt>
      <trkpt lat="44.51423" lon="4.44374">
        <ele>297.4</ele>
        <time>2022-06-05T08:15:43Z</time>
      </trkpt>
      <trkpt lat="44.51424" lon="4.44367">
        <ele>297</ele>
        <time>2022-06-05T08:15:44Z</time>
      </trkpt>
      <trkpt lat="44.51425" lon="4.44353">
        <ele>297</ele>
        <time>2022-06-05T08:15:47Z</time>
      </trkpt>
      <trkpt lat="44.51423" lon="4.44324">
        <ele>297</ele>
        <time>2022-06-05T08:15:55Z</time>
      </trkpt>
      <trkpt lat="44.51427" lon="4.44302">
        <ele>297</ele>
        <time>2022-06-05T08:16:02Z</time>
      </trkpt>
      <trkpt lat="44.51433" lon="4.44288">
        <ele>297.4</ele>
        <time>2022-06-05T08:16:08Z</time>
      </trkpt>
      <trkpt lat="44.51434" lon="4.44285">
        <ele>297.8</ele>
        <time>2022-06-05T08:16:09Z</time>
      </trkpt>
      <trkpt lat="44.51435" lon="4.44283">
        <ele>298.2</ele>
        <time>2022-06-05T08:16:10Z</time>
      </trkpt>
      <trkpt lat="44.51436" lon="4.4428">
        <ele>298.6</ele>
        <time>2022-06-05T08:16:11Z</time>
      </trkpt>
      <trkpt lat="44.51438" lon="4.44278">
        <ele>299</ele>
        <time>2022-06-05T08:16:12Z</time>
      </trkpt>
      <trkpt lat="44.51465" lon="4.44259">
        <ele>299</ele>
        <time>2022-06-05T08:16:21Z</time>
      </trkpt>
      <trkpt lat="44.51473" lon="4.44246">
        <ele>299.4</ele>
        <time>2022-06-05T08:16:26Z</time>
      </trkpt>
      <trkpt lat="44.51474" lon="4.44243">
        <ele>300</ele>
        <time>2022-06-05T08:16:27Z</time>
      </trkpt>
      <trkpt lat="44.51475" lon="4.4424">
        <ele>300.4</ele>
        <time>2022-06-05T08:16:28Z</time>
      </trkpt>
      <trkpt lat="44.51476" lon="4.44238">
        <ele>300.8</ele>
        <time>2022-06-05T08:16:29Z</time>
      </trkpt>
      <trkpt lat="44.51476" lon="4.44235">
        <ele>301.2</ele>
        <time>2022-06-05T08:16:30Z</time>
      </trkpt>
      <trkpt lat="44.51476" lon="4.44227">
        <ele>301.6</ele>
        <time>2022-06-05T08:16:35Z</time>
      </trkpt>
      <trkpt lat="44.51493" lon="4.44206">
        <ele>305.6</ele>
        <time>2022-06-05T08:17:12Z</time>
      </trkpt>
      <trkpt lat="44.51497" lon="4.44188">
        <ele>305.6</ele>
        <time>2022-06-05T08:17:19Z</time>
      </trkpt>
      <trkpt lat="44.51498" lon="4.44183">
        <ele>305.6</ele>
        <time>2022-06-05T08:17:42Z</time>
      </trkpt>
      <trkpt lat="44.51494" lon="4.44175">
        <ele>305.6</ele>
        <time>2022-06-05T08:17:46Z</time>
      </trkpt>
      <trkpt lat="44.51493" lon="4.44154">
        <ele>305.6</ele>
        <time>2022-06-05T08:17:55Z</time>
      </trkpt>
      <trkpt lat="44.51504" lon="4.44135">
        <ele>305.6</ele>
        <time>2022-06-05T08:18:02Z</time>
      </trkpt>
      <trkpt lat="44.51517" lon="4.4411">
        <ele>305.6</ele>
        <time>2022-06-05T08:18:10Z</time>
      </trkpt>
      <trkpt lat="44.5153" lon="4.44089">
        <ele>305.6</ele>
        <time>2022-06-05T08:18:19Z</time>
      </trkpt>
      <trkpt lat="44.51544" lon="4.44069">
        <ele>306</ele>
        <time>2022-06-05T08:18:28Z</time>
      </trkpt>
      <trkpt lat="44.51545" lon="4.44067">
        <ele>306.4</ele>
        <time>2022-06-05T08:18:29Z</time>
      </trkpt>
      <trkpt lat="44.51546" lon="4.44065">
        <ele>307</ele>
        <time>2022-06-05T08:18:30Z</time>
      </trkpt>
      <trkpt lat="44.51547" lon="4.44063">
        <ele>307.4</ele>
        <time>2022-06-05T08:18:31Z</time>
      </trkpt>
      <trkpt lat="44.51548" lon="4.44061">
        <ele>307.8</ele>
        <time>2022-06-05T08:18:32Z</time>
      </trkpt>
      <trkpt lat="44.51553" lon="4.4405">
        <ele>308.2</ele>
        <time>2022-06-05T08:18:36Z</time>
      </trkpt>
      <trkpt lat="44.51553" lon="4.44048">
        <ele>308.8</ele>
        <time>2022-06-05T08:18:37Z</time>
      </trkpt>
      <trkpt lat="44.51554" lon="4.44046">
        <ele>309.2</ele>
        <time>2022-06-05T08:18:38Z</time>
      </trkpt>
      <trkpt lat="44.51555" lon="4.44044">
        <ele>309.6</ele>
        <time>2022-06-05T08:18:39Z</time>
      </trkpt>
      <trkpt lat="44.51556" lon="4.44042">
        <ele>310</ele>
        <time>2022-06-05T08:18:40Z</time>
      </trkpt>
      <trkpt lat="44.51562" lon="4.4403">
        <ele>310.4</ele>
        <time>2022-06-05T08:18:46Z</time>
      </trkpt>
      <trkpt lat="44.51563" lon="4.44028">
        <ele>311</ele>
        <time>2022-06-05T08:18:47Z</time>
      </trkpt>
      <trkpt lat="44.51563" lon="4.44025">
        <ele>311.4</ele>
        <time>2022-06-05T08:18:48Z</time>
      </trkpt>
      <trkpt lat="44.51564" lon="4.44023">
        <ele>312.2</ele>
        <time>2022-06-05T08:18:49Z</time>
      </trkpt>
      <trkpt lat="44.51566" lon="4.4401">
        <ele>312.2</ele>
        <time>2022-06-05T08:18:55Z</time>
      </trkpt>
      <trkpt lat="44.51568" lon="4.44002">
        <ele>312.6</ele>
        <time>2022-06-05T08:18:59Z</time>
      </trkpt>
      <trkpt lat="44.51568" lon="4.44">
        <ele>313</ele>
        <time>2022-06-05T08:19:00Z</time>
      </trkpt>
      <trkpt lat="44.51569" lon="4.43997">
        <ele>313.4</ele>
        <time>2022-06-05T08:19:01Z</time>
      </trkpt>
      <trkpt lat="44.51569" lon="4.43994">
        <ele>313.8</ele>
        <time>2022-06-05T08:19:02Z</time>
      </trkpt>
      <trkpt lat="44.5157" lon="4.43991">
        <ele>314.2</ele>
        <time>2022-06-05T08:19:03Z</time>
      </trkpt>
      <trkpt lat="44.5157" lon="4.43985">
        <ele>314.2</ele>
        <time>2022-06-05T08:19:05Z</time>
      </trkpt>
      <trkpt lat="44.51571" lon="4.43969">
        <ele>314.6</ele>
        <time>2022-06-05T08:19:11Z</time>
      </trkpt>
      <trkpt lat="44.51571" lon="4.43968">
        <ele>315</ele>
        <time>2022-06-05T08:19:12Z</time>
      </trkpt>
      <trkpt lat="44.51573" lon="4.43952">
        <ele>316.4</ele>
        <time>2022-06-05T08:25:59Z</time>
      </trkpt>
      <trkpt lat="44.51573" lon="4.4395">
        <ele>316.4</ele>
        <time>2022-06-05T08:26:00Z</time>
      </trkpt>
      <trkpt lat="44.51572" lon="4.43929">
        <ele>316</ele>
        <time>2022-06-05T08:26:07Z</time>
      </trkpt>
      <trkpt lat="44.51572" lon="4.43927">
        <ele>315.4</ele>
        <time>2022-06-05T08:26:08Z</time>
      </trkpt>
      <trkpt lat="44.51572" lon="4.43925">
        <ele>315</ele>
        <time>2022-06-05T08:26:09Z</time>
      </trkpt>
      <trkpt lat="44.51572" lon="4.43922">
        <ele>314.6</ele>
        <time>2022-06-05T08:26:10Z</time>
      </trkpt>
      <trkpt lat="44.51572" lon="4.43919">
        <ele>314.2</ele>
        <time>2022-06-05T08:26:11Z</time>
      </trkpt>
      <trkpt lat="44.51573" lon="4.43906">
        <ele>314.2</ele>
        <time>2022-06-05T08:26:15Z</time>
      </trkpt>
      <trkpt lat="44.51579" lon="4.43878">
        <ele>313.8</ele>
        <time>2022-06-05T08:26:21Z</time>
      </trkpt>
      <trkpt lat="44.5158" lon="4.43874">
        <ele>313.4</ele>
        <time>2022-06-05T08:26:22Z</time>
      </trkpt>
      <trkpt lat="44.51581" lon="4.4387">
        <ele>313</ele>
        <time>2022-06-05T08:26:23Z</time>
      </trkpt>
      <trkpt lat="44.51582" lon="4.43867">
        <ele>312.6</ele>
        <time>2022-06-05T08:26:24Z</time>
      </trkpt>
      <trkpt lat="44.51582" lon="4.43865">
        <ele>312.2</ele>
        <time>2022-06-05T08:26:25Z</time>
      </trkpt>
      <trkpt lat="44.51582" lon="4.43863">
        <ele>312.2</ele>
        <time>2022-06-05T08:26:26Z</time>
      </trkpt>
      <trkpt lat="44.51578" lon="4.43851">
        <ele>311.8</ele>
        <time>2022-06-05T08:26:32Z</time>
      </trkpt>
      <trkpt lat="44.51578" lon="4.43849">
        <ele>311.4</ele>
        <time>2022-06-05T08:26:33Z</time>
      </trkpt>
      <trkpt lat="44.51578" lon="4.43847">
        <ele>311</ele>
        <time>2022-06-05T08:26:34Z</time>
      </trkpt>
      <trkpt lat="44.51577" lon="4.43844">
        <ele>310.4</ele>
        <time>2022-06-05T08:26:35Z</time>
      </trkpt>
      <trkpt lat="44.51578" lon="4.43841">
        <ele>310</ele>
        <time>2022-06-05T08:26:36Z</time>
      </trkpt>
      <trkpt lat="44.51579" lon="4.43834">
        <ele>309.6</ele>
        <time>2022-06-05T08:26:38Z</time>
      </trkpt>
      <trkpt lat="44.5158" lon="4.43831">
        <ele>308.4</ele>
        <time>2022-06-05T08:26:39Z</time>
      </trkpt>
      <trkpt lat="44.51582" lon="4.43827">
        <ele>308</ele>
        <time>2022-06-05T08:26:40Z</time>
      </trkpt>
      <trkpt lat="44.51583" lon="4.43823">
        <ele>307.4</ele>
        <time>2022-06-05T08:26:41Z</time>
      </trkpt>
      <trkpt lat="44.51585" lon="4.4382">
        <ele>306.8</ele>
        <time>2022-06-05T08:26:42Z</time>
      </trkpt>
      <trkpt lat="44.51586" lon="4.43818">
        <ele>306.4</ele>
        <time>2022-06-05T08:26:43Z</time>
      </trkpt>
      <trkpt lat="44.51587" lon="4.43816">
        <ele>305.8</ele>
        <time>2022-06-05T08:26:44Z</time>
      </trkpt>
      <trkpt lat="44.51588" lon="4.43815">
        <ele>305.4</ele>
        <time>2022-06-05T08:26:45Z</time>
      </trkpt>
      <trkpt lat="44.51589" lon="4.43814">
        <ele>304.8</ele>
        <time>2022-06-05T08:26:46Z</time>
      </trkpt>
      <trkpt lat="44.51593" lon="4.43806">
        <ele>304.4</ele>
        <time>2022-06-05T08:26:49Z</time>
      </trkpt>
      <trkpt lat="44.51594" lon="4.43803">
        <ele>304</ele>
        <time>2022-06-05T08:26:50Z</time>
      </trkpt>
      <trkpt lat="44.51595" lon="4.438">
        <ele>303.4</ele>
        <time>2022-06-05T08:26:51Z</time>
      </trkpt>
      <trkpt lat="44.51596" lon="4.43797">
        <ele>303</ele>
        <time>2022-06-05T08:26:52Z</time>
      </trkpt>
      <trkpt lat="44.51597" lon="4.43794">
        <ele>302.6</ele>
        <time>2022-06-05T08:26:53Z</time>
      </trkpt>
      <trkpt lat="44.51598" lon="4.43791">
        <ele>302.2</ele>
        <time>2022-06-05T08:26:54Z</time>
      </trkpt>
      <trkpt lat="44.51599" lon="4.43787">
        <ele>301.6</ele>
        <time>2022-06-05T08:26:55Z</time>
      </trkpt>
      <trkpt lat="44.51601" lon="4.43784">
        <ele>301.2</ele>
        <time>2022-06-05T08:26:56Z</time>
      </trkpt>
      <trkpt lat="44.51602" lon="4.4378">
        <ele>300.6</ele>
        <time>2022-06-05T08:26:57Z</time>
      </trkpt>
      <trkpt lat="44.51604" lon="4.43777">
        <ele>300</ele>
        <time>2022-06-05T08:26:58Z</time>
      </trkpt>
      <trkpt lat="44.51605" lon="4.43775">
        <ele>299.4</ele>
        <time>2022-06-05T08:26:59Z</time>
      </trkpt>
      <trkpt lat="44.51608" lon="4.43777">
        <ele>298</ele>
        <time>2022-06-05T08:27:01Z</time>
      </trkpt>
      <trkpt lat="44.51611" lon="4.43778">
        <ele>297.4</ele>
        <time>2022-06-05T08:27:02Z</time>
      </trkpt>
      <trkpt lat="44.51613" lon="4.43779">
        <ele>296.8</ele>
        <time>2022-06-05T08:27:03Z</time>
      </trkpt>
      <trkpt lat="44.51614" lon="4.4378">
        <ele>295.6</ele>
        <time>2022-06-05T08:27:04Z</time>
      </trkpt>
      <trkpt lat="44.51615" lon="4.4378">
        <ele>295</ele>
        <time>2022-06-05T08:27:05Z</time>
      </trkpt>
      <trkpt lat="44.51617" lon="4.4378">
        <ele>294.4</ele>
        <time>2022-06-05T08:27:06Z</time>
      </trkpt>
      <trkpt lat="44.51618" lon="4.43781">
        <ele>293.6</ele>
        <time>2022-06-05T08:27:07Z</time>
      </trkpt>
      <trkpt lat="44.5162" lon="4.43781">
        <ele>293</ele>
        <time>2022-06-05T08:27:08Z</time>
      </trkpt>
      <trkpt lat="44.51621" lon="4.43781">
        <ele>292.2</ele>
        <time>2022-06-05T08:27:09Z</time>
      </trkpt>
      <trkpt lat="44.51622" lon="4.43782">
        <ele>292.2</ele>
        <time>2022-06-05T08:27:10Z</time>
      </trkpt>
      <trkpt lat="44.51624" lon="4.43777">
        <ele>293.8</ele>
        <time>2022-06-05T08:27:40Z</time>
      </trkpt>
      <trkpt lat="44.51628" lon="4.43774">
        <ele>293.8</ele>
        <time>2022-06-05T08:27:42Z</time>
      </trkpt>
      <trkpt lat="44.51636" lon="4.43764">
        <ele>293.2</ele>
        <time>2022-06-05T08:27:45Z</time>
      </trkpt>
      <trkpt lat="44.51639" lon="4.4376">
        <ele>292.8</ele>
        <time>2022-06-05T08:27:46Z</time>
      </trkpt>
      <trkpt lat="44.51642" lon="4.43756">
        <ele>292.4</ele>
        <time>2022-06-05T08:27:47Z</time>
      </trkpt>
      <trkpt lat="44.51645" lon="4.43753">
        <ele>292</ele>
        <time>2022-06-05T08:27:48Z</time>
      </trkpt>
      <trkpt lat="44.51648" lon="4.43751">
        <ele>291.4</ele>
        <time>2022-06-05T08:27:49Z</time>
      </trkpt>
      <trkpt lat="44.51651" lon="4.43748">
        <ele>291</ele>
        <time>2022-06-05T08:27:50Z</time>
      </trkpt>
      <trkpt lat="44.51653" lon="4.43746">
        <ele>290.4</ele>
        <time>2022-06-05T08:27:51Z</time>
      </trkpt>
      <trkpt lat="44.51655" lon="4.43744">
        <ele>289.8</ele>
        <time>2022-06-05T08:27:52Z</time>
      </trkpt>
      <trkpt lat="44.51657" lon="4.43744">
        <ele>289</ele>
        <time>2022-06-05T08:27:53Z</time>
      </trkpt>
      <trkpt lat="44.51659" lon="4.43743">
        <ele>288.6</ele>
        <time>2022-06-05T08:27:54Z</time>
      </trkpt>
      <trkpt lat="44.5166" lon="4.43743">
        <ele>288.2</ele>
        <time>2022-06-05T08:27:55Z</time>
      </trkpt>
      <trkpt lat="44.51661" lon="4.43743">
        <ele>287.8</ele>
        <time>2022-06-05T08:27:56Z</time>
      </trkpt>
      <trkpt lat="44.51666" lon="4.43741">
        <ele>287.4</ele>
        <time>2022-06-05T08:28:14Z</time>
      </trkpt>
      <trkpt lat="44.51669" lon="4.43724">
        <ele>287.4</ele>
        <time>2022-06-05T08:28:21Z</time>
      </trkpt>
      <trkpt lat="44.51673" lon="4.43721">
        <ele>286.8</ele>
        <time>2022-06-05T08:28:23Z</time>
      </trkpt>
      <trkpt lat="44.51675" lon="4.43721">
        <ele>286.4</ele>
        <time>2022-06-05T08:28:24Z</time>
      </trkpt>
      <trkpt lat="44.51678" lon="4.43721">
        <ele>285.8</ele>
        <time>2022-06-05T08:28:25Z</time>
      </trkpt>
      <trkpt lat="44.51681" lon="4.43722">
        <ele>285.4</ele>
        <time>2022-06-05T08:28:26Z</time>
      </trkpt>
      <trkpt lat="44.51684" lon="4.43724">
        <ele>284.8</ele>
        <time>2022-06-05T08:28:27Z</time>
      </trkpt>
      <trkpt lat="44.517" lon="4.43728">
        <ele>284.4</ele>
        <time>2022-06-05T08:28:31Z</time>
      </trkpt>
      <trkpt lat="44.51703" lon="4.43729">
        <ele>284</ele>
        <time>2022-06-05T08:28:32Z</time>
      </trkpt>
      <trkpt lat="44.51707" lon="4.43731">
        <ele>283.6</ele>
        <time>2022-06-05T08:28:33Z</time>
      </trkpt>
      <trkpt lat="44.51711" lon="4.43733">
        <ele>283.2</ele>
        <time>2022-06-05T08:28:34Z</time>
      </trkpt>
      <trkpt lat="44.51715" lon="4.43736">
        <ele>282.8</ele>
        <time>2022-06-05T08:28:35Z</time>
      </trkpt>
      <trkpt lat="44.51725" lon="4.43743">
        <ele>282.4</ele>
        <time>2022-06-05T08:28:38Z</time>
      </trkpt>
      <trkpt lat="44.51728" lon="4.43746">
        <ele>281.8</ele>
        <time>2022-06-05T08:28:39Z</time>
      </trkpt>
      <trkpt lat="44.5173" lon="4.43748">
        <ele>281.4</ele>
        <time>2022-06-05T08:28:40Z</time>
      </trkpt>
      <trkpt lat="44.51733" lon="4.43749">
        <ele>281</ele>
        <time>2022-06-05T08:28:41Z</time>
      </trkpt>
      <trkpt lat="44.51735" lon="4.4375">
        <ele>280.4</ele>
        <time>2022-06-05T08:28:42Z</time>
      </trkpt>
      <trkpt lat="44.51743" lon="4.43754">
        <ele>280.4</ele>
        <time>2022-06-05T08:28:45Z</time>
      </trkpt>
      <trkpt lat="44.51753" lon="4.43761">
        <ele>280</ele>
        <time>2022-06-05T08:28:49Z</time>
      </trkpt>
      <trkpt lat="44.51756" lon="4.43763">
        <ele>279.6</ele>
        <time>2022-06-05T08:28:50Z</time>
      </trkpt>
      <trkpt lat="44.51758" lon="4.43766">
        <ele>279.2</ele>
        <time>2022-06-05T08:28:51Z</time>
      </trkpt>
      <trkpt lat="44.5176" lon="4.43769">
        <ele>278.8</ele>
        <time>2022-06-05T08:28:52Z</time>
      </trkpt>
      <trkpt lat="44.51763" lon="4.43771">
        <ele>278.4</ele>
        <time>2022-06-05T08:28:53Z</time>
      </trkpt>
      <trkpt lat="44.51778" lon="4.43779">
        <ele>278.4</ele>
        <time>2022-06-05T08:28:58Z</time>
      </trkpt>
      <trkpt lat="44.51786" lon="4.4378">
        <ele>278</ele>
        <time>2022-06-05T08:29:01Z</time>
      </trkpt>
      <trkpt lat="44.51788" lon="4.43781">
        <ele>277.4</ele>
        <time>2022-06-05T08:29:02Z</time>
      </trkpt>
      <trkpt lat="44.5179" lon="4.43782">
        <ele>277</ele>
        <time>2022-06-05T08:29:03Z</time>
      </trkpt>
      <trkpt lat="44.51792" lon="4.43782">
        <ele>276.6</ele>
        <time>2022-06-05T08:29:04Z</time>
      </trkpt>
      <trkpt lat="44.51793" lon="4.43782">
        <ele>276.2</ele>
        <time>2022-06-05T08:29:05Z</time>
      </trkpt>
      <trkpt lat="44.51798" lon="4.4378">
        <ele>275.6</ele>
        <time>2022-06-05T08:29:08Z</time>
      </trkpt>
      <trkpt lat="44.51798" lon="4.43778">
        <ele>274.8</ele>
        <time>2022-06-05T08:29:10Z</time>
      </trkpt>
      <trkpt lat="44.51797" lon="4.43775">
        <ele>274.2</ele>
        <time>2022-06-05T08:29:11Z</time>
      </trkpt>
      <trkpt lat="44.51796" lon="4.43773">
        <ele>273.6</ele>
        <time>2022-06-05T08:29:12Z</time>
      </trkpt>
      <trkpt lat="44.51795" lon="4.4377">
        <ele>273.2</ele>
        <time>2022-06-05T08:29:13Z</time>
      </trkpt>
      <trkpt lat="44.51793" lon="4.43768">
        <ele>272.6</ele>
        <time>2022-06-05T08:29:14Z</time>
      </trkpt>
      <trkpt lat="44.51792" lon="4.43766">
        <ele>272</ele>
        <time>2022-06-05T08:29:15Z</time>
      </trkpt>
      <trkpt lat="44.5179" lon="4.43762">
        <ele>271.4</ele>
        <time>2022-06-05T08:29:16Z</time>
      </trkpt>
      <trkpt lat="44.51786" lon="4.43756">
        <ele>271</ele>
        <time>2022-06-05T08:29:18Z</time>
      </trkpt>
      <trkpt lat="44.51784" lon="4.43753">
        <ele>270.4</ele>
        <time>2022-06-05T08:29:19Z</time>
      </trkpt>
      <trkpt lat="44.51783" lon="4.43749">
        <ele>270</ele>
        <time>2022-06-05T08:29:20Z</time>
      </trkpt>
      <trkpt lat="44.51781" lon="4.43746">
        <ele>269.4</ele>
        <time>2022-06-05T08:29:21Z</time>
      </trkpt>
      <trkpt lat="44.51779" lon="4.43742">
        <ele>268.8</ele>
        <time>2022-06-05T08:29:22Z</time>
      </trkpt>
      <trkpt lat="44.51777" lon="4.43737">
        <ele>268.4</ele>
        <time>2022-06-05T08:29:23Z</time>
      </trkpt>
      <trkpt lat="44.51775" lon="4.43733">
        <ele>267.8</ele>
        <time>2022-06-05T08:29:24Z</time>
      </trkpt>
      <trkpt lat="44.51774" lon="4.43728">
        <ele>267.4</ele>
        <time>2022-06-05T08:29:25Z</time>
      </trkpt>
      <trkpt lat="44.51772" lon="4.43724">
        <ele>266.8</ele>
        <time>2022-06-05T08:29:26Z</time>
      </trkpt>
      <trkpt lat="44.51771" lon="4.4372">
        <ele>266.4</ele>
        <time>2022-06-05T08:29:27Z</time>
      </trkpt>
      <trkpt lat="44.51769" lon="4.43715">
        <ele>265.8</ele>
        <time>2022-06-05T08:29:28Z</time>
      </trkpt>
      <trkpt lat="44.51768" lon="4.43711">
        <ele>265.4</ele>
        <time>2022-06-05T08:29:29Z</time>
      </trkpt>
      <trkpt lat="44.51766" lon="4.43707">
        <ele>264.8</ele>
        <time>2022-06-05T08:29:30Z</time>
      </trkpt>
      <trkpt lat="44.51765" lon="4.43702">
        <ele>264.2</ele>
        <time>2022-06-05T08:29:31Z</time>
      </trkpt>
      <trkpt lat="44.51764" lon="4.43697">
        <ele>263.6</ele>
        <time>2022-06-05T08:29:32Z</time>
      </trkpt>
      <trkpt lat="44.51762" lon="4.43693">
        <ele>262.2</ele>
        <time>2022-06-05T08:29:33Z</time>
      </trkpt>
      <trkpt lat="44.51761" lon="4.43688">
        <ele>261.6</ele>
        <time>2022-06-05T08:29:34Z</time>
      </trkpt>
      <trkpt lat="44.5176" lon="4.43683">
        <ele>261</ele>
        <time>2022-06-05T08:29:35Z</time>
      </trkpt>
      <trkpt lat="44.51758" lon="4.43678">
        <ele>260.6</ele>
        <time>2022-06-05T08:29:36Z</time>
      </trkpt>
      <trkpt lat="44.51757" lon="4.43674">
        <ele>260</ele>
        <time>2022-06-05T08:29:37Z</time>
      </trkpt>
      <trkpt lat="44.51756" lon="4.4367">
        <ele>259.4</ele>
        <time>2022-06-05T08:29:38Z</time>
      </trkpt>
      <trkpt lat="44.51754" lon="4.43667">
        <ele>258.8</ele>
        <time>2022-06-05T08:29:39Z</time>
      </trkpt>
      <trkpt lat="44.51753" lon="4.43664">
        <ele>258.2</ele>
        <time>2022-06-05T08:29:40Z</time>
      </trkpt>
      <trkpt lat="44.51752" lon="4.43661">
        <ele>257.6</ele>
        <time>2022-06-05T08:29:41Z</time>
      </trkpt>
      <trkpt lat="44.51751" lon="4.43658">
        <ele>257</ele>
        <time>2022-06-05T08:29:42Z</time>
      </trkpt>
      <trkpt lat="44.51751" lon="4.43654">
        <ele>256.4</ele>
        <time>2022-06-05T08:29:43Z</time>
      </trkpt>
      <trkpt lat="44.51749" lon="4.43651">
        <ele>255.8</ele>
        <time>2022-06-05T08:29:44Z</time>
      </trkpt>
      <trkpt lat="44.51748" lon="4.43647">
        <ele>255.2</ele>
        <time>2022-06-05T08:29:45Z</time>
      </trkpt>
      <trkpt lat="44.51747" lon="4.43643">
        <ele>254.8</ele>
        <time>2022-06-05T08:29:46Z</time>
      </trkpt>
      <trkpt lat="44.51746" lon="4.4364">
        <ele>254.2</ele>
        <time>2022-06-05T08:29:47Z</time>
      </trkpt>
      <trkpt lat="44.51744" lon="4.43638">
        <ele>253.8</ele>
        <time>2022-06-05T08:29:48Z</time>
      </trkpt>
      <trkpt lat="44.51744" lon="4.43635">
        <ele>253.2</ele>
        <time>2022-06-05T08:29:49Z</time>
      </trkpt>
      <trkpt lat="44.51743" lon="4.43632">
        <ele>252.6</ele>
        <time>2022-06-05T08:29:50Z</time>
      </trkpt>
      <trkpt lat="44.51742" lon="4.4363">
        <ele>252.2</ele>
        <time>2022-06-05T08:29:51Z</time>
      </trkpt>
      <trkpt lat="44.51741" lon="4.43628">
        <ele>251.6</ele>
        <time>2022-06-05T08:29:52Z</time>
      </trkpt>
      <trkpt lat="44.5174" lon="4.43625">
        <ele>251.6</ele>
        <time>2022-06-05T08:29:54Z</time>
      </trkpt>
      <trkpt lat="44.51738" lon="4.43623">
        <ele>251.6</ele>
        <time>2022-06-05T08:29:57Z</time>
      </trkpt>
      <trkpt lat="44.51739" lon="4.4362">
        <ele>251.6</ele>
        <time>2022-06-05T08:30:07Z</time>
      </trkpt>
      <trkpt lat="44.51739" lon="4.43617">
        <ele>251.6</ele>
        <time>2022-06-05T08:30:08Z</time>
      </trkpt>
      <trkpt lat="44.51738" lon="4.43609">
        <ele>251.2</ele>
        <time>2022-06-05T08:30:10Z</time>
      </trkpt>
      <trkpt lat="44.51738" lon="4.43604">
        <ele>250.8</ele>
        <time>2022-06-05T08:30:11Z</time>
      </trkpt>
      <trkpt lat="44.51737" lon="4.43599">
        <ele>250.4</ele>
        <time>2022-06-05T08:30:12Z</time>
      </trkpt>
      <trkpt lat="44.51736" lon="4.43591">
        <ele>249.8</ele>
        <time>2022-06-05T08:30:13Z</time>
      </trkpt>
      <trkpt lat="44.51736" lon="4.43584">
        <ele>249.2</ele>
        <time>2022-06-05T08:30:14Z</time>
      </trkpt>
      <trkpt lat="44.51735" lon="4.43579">
        <ele>248.4</ele>
        <time>2022-06-05T08:30:15Z</time>
      </trkpt>
      <trkpt lat="44.51734" lon="4.43574">
        <ele>247.8</ele>
        <time>2022-06-05T08:30:16Z</time>
      </trkpt>
      <trkpt lat="44.51734" lon="4.4357">
        <ele>247</ele>
        <time>2022-06-05T08:30:17Z</time>
      </trkpt>
      <trkpt lat="44.51733" lon="4.43566">
        <ele>246.4</ele>
        <time>2022-06-05T08:30:18Z</time>
      </trkpt>
      <trkpt lat="44.51733" lon="4.43564">
        <ele>245.6</ele>
        <time>2022-06-05T08:30:19Z</time>
      </trkpt>
      <trkpt lat="44.51734" lon="4.43562">
        <ele>244.8</ele>
        <time>2022-06-05T08:30:20Z</time>
      </trkpt>
      <trkpt lat="44.51736" lon="4.4356">
        <ele>243.4</ele>
        <time>2022-06-05T08:30:21Z</time>
      </trkpt>
      <trkpt lat="44.51739" lon="4.43558">
        <ele>242.8</ele>
        <time>2022-06-05T08:30:22Z</time>
      </trkpt>
      <trkpt lat="44.51742" lon="4.43557">
        <ele>242.2</ele>
        <time>2022-06-05T08:30:23Z</time>
      </trkpt>
      <trkpt lat="44.51744" lon="4.43557">
        <ele>241.6</ele>
        <time>2022-06-05T08:30:24Z</time>
      </trkpt>
      <trkpt lat="44.51748" lon="4.43556">
        <ele>241.2</ele>
        <time>2022-06-05T08:30:25Z</time>
      </trkpt>
      <trkpt lat="44.51751" lon="4.43555">
        <ele>240.6</ele>
        <time>2022-06-05T08:30:26Z</time>
      </trkpt>
      <trkpt lat="44.51762" lon="4.43555">
        <ele>240.6</ele>
        <time>2022-06-05T08:30:30Z</time>
      </trkpt>
      <trkpt lat="44.51764" lon="4.43555">
        <ele>240.2</ele>
        <time>2022-06-05T08:30:31Z</time>
      </trkpt>
      <trkpt lat="44.51767" lon="4.43554">
        <ele>239.6</ele>
        <time>2022-06-05T08:30:32Z</time>
      </trkpt>
      <trkpt lat="44.51769" lon="4.43553">
        <ele>239.2</ele>
        <time>2022-06-05T08:30:33Z</time>
      </trkpt>
      <trkpt lat="44.51772" lon="4.43553">
        <ele>238.8</ele>
        <time>2022-06-05T08:30:34Z</time>
      </trkpt>
      <trkpt lat="44.51774" lon="4.43552">
        <ele>238.4</ele>
        <time>2022-06-05T08:30:35Z</time>
      </trkpt>
      <trkpt lat="44.51778" lon="4.43551">
        <ele>237.8</ele>
        <time>2022-06-05T08:30:37Z</time>
      </trkpt>
      <trkpt lat="44.5178" lon="4.43552">
        <ele>237.4</ele>
        <time>2022-06-05T08:30:38Z</time>
      </trkpt>
      <trkpt lat="44.51782" lon="4.43552">
        <ele>237</ele>
        <time>2022-06-05T08:30:39Z</time>
      </trkpt>
      <trkpt lat="44.51784" lon="4.43552">
        <ele>236.4</ele>
        <time>2022-06-05T08:30:40Z</time>
      </trkpt>
      <trkpt lat="44.51786" lon="4.43555">
        <ele>236</ele>
        <time>2022-06-05T08:30:41Z</time>
      </trkpt>
      <trkpt lat="44.51801" lon="4.43585">
        <ele>236</ele>
        <time>2022-06-05T08:30:44Z</time>
      </trkpt>
      <trkpt lat="44.51804" lon="4.43592">
        <ele>235.6</ele>
        <time>2022-06-05T08:30:45Z</time>
      </trkpt>
      <trkpt lat="44.51807" lon="4.43599">
        <ele>234.8</ele>
        <time>2022-06-05T08:30:46Z</time>
      </trkpt>
      <trkpt lat="44.51809" lon="4.43605">
        <ele>234.2</ele>
        <time>2022-06-05T08:30:47Z</time>
      </trkpt>
      <trkpt lat="44.51812" lon="4.43611">
        <ele>233.8</ele>
        <time>2022-06-05T08:30:48Z</time>
      </trkpt>
      <trkpt lat="44.51822" lon="4.43636">
        <ele>233.8</ele>
        <time>2022-06-05T08:30:52Z</time>
      </trkpt>
      <trkpt lat="44.5184" lon="4.43674">
        <ele>233.8</ele>
        <time>2022-06-05T08:31:00Z</time>
      </trkpt>
      <trkpt lat="44.51842" lon="4.43685">
        <ele>233.8</ele>
        <time>2022-06-05T08:31:05Z</time>
      </trkpt>
      <trkpt lat="44.51844" lon="4.43685">
        <ele>231.8</ele>
        <time>2022-06-05T08:36:37Z</time>
      </trkpt>
      <trkpt lat="44.51834" lon="4.43667">
        <ele>231.8</ele>
        <time>2022-06-05T08:36:43Z</time>
      </trkpt>
      <trkpt lat="44.51829" lon="4.43656">
        <ele>231.4</ele>
        <time>2022-06-05T08:36:45Z</time>
      </trkpt>
      <trkpt lat="44.51827" lon="4.43649">
        <ele>231</ele>
        <time>2022-06-05T08:36:46Z</time>
      </trkpt>
      <trkpt lat="44.51824" lon="4.43643">
        <ele>230.6</ele>
        <time>2022-06-05T08:36:47Z</time>
      </trkpt>
      <trkpt lat="44.51822" lon="4.43636">
        <ele>230.2</ele>
        <time>2022-06-05T08:36:48Z</time>
      </trkpt>
      <trkpt lat="44.5182" lon="4.43629">
        <ele>229.6</ele>
        <time>2022-06-05T08:36:49Z</time>
      </trkpt>
      <trkpt lat="44.51819" lon="4.43621">
        <ele>229</ele>
        <time>2022-06-05T08:36:50Z</time>
      </trkpt>
      <trkpt lat="44.51818" lon="4.43612">
        <ele>228.6</ele>
        <time>2022-06-05T08:36:51Z</time>
      </trkpt>
      <trkpt lat="44.51817" lon="4.43604">
        <ele>227.8</ele>
        <time>2022-06-05T08:36:52Z</time>
      </trkpt>
      <trkpt lat="44.51816" lon="4.43597">
        <ele>227.2</ele>
        <time>2022-06-05T08:36:53Z</time>
      </trkpt>
      <trkpt lat="44.51816" lon="4.4359">
        <ele>226.6</ele>
        <time>2022-06-05T08:36:54Z</time>
      </trkpt>
      <trkpt lat="44.51816" lon="4.43583">
        <ele>225.8</ele>
        <time>2022-06-05T08:36:55Z</time>
      </trkpt>
      <trkpt lat="44.51815" lon="4.43575">
        <ele>225.2</ele>
        <time>2022-06-05T08:36:56Z</time>
      </trkpt>
      <trkpt lat="44.51815" lon="4.43568">
        <ele>224.6</ele>
        <time>2022-06-05T08:36:57Z</time>
      </trkpt>
      <trkpt lat="44.51814" lon="4.43562">
        <ele>223.8</ele>
        <time>2022-06-05T08:36:58Z</time>
      </trkpt>
      <trkpt lat="44.51813" lon="4.43557">
        <ele>223.2</ele>
        <time>2022-06-05T08:36:59Z</time>
      </trkpt>
      <trkpt lat="44.51813" lon="4.43552">
        <ele>222.2</ele>
        <time>2022-06-05T08:37:00Z</time>
      </trkpt>
      <trkpt lat="44.51812" lon="4.43547">
        <ele>221.6</ele>
        <time>2022-06-05T08:37:01Z</time>
      </trkpt>
      <trkpt lat="44.51812" lon="4.43543">
        <ele>221</ele>
        <time>2022-06-05T08:37:02Z</time>
      </trkpt>
      <trkpt lat="44.51809" lon="4.43529">
        <ele>220.6</ele>
        <time>2022-06-05T08:37:05Z</time>
      </trkpt>
      <trkpt lat="44.51808" lon="4.43523">
        <ele>220.2</ele>
        <time>2022-06-05T08:37:06Z</time>
      </trkpt>
      <trkpt lat="44.51806" lon="4.43518">
        <ele>219.8</ele>
        <time>2022-06-05T08:37:07Z</time>
      </trkpt>
      <trkpt lat="44.51804" lon="4.43512">
        <ele>219.4</ele>
        <time>2022-06-05T08:37:08Z</time>
      </trkpt>
      <trkpt lat="44.51802" lon="4.43507">
        <ele>219</ele>
        <time>2022-06-05T08:37:09Z</time>
      </trkpt>
      <trkpt lat="44.51795" lon="4.43491">
        <ele>219</ele>
        <time>2022-06-05T08:37:12Z</time>
      </trkpt>
      <trkpt lat="44.51779" lon="4.43445">
        <ele>219</ele>
        <time>2022-06-05T08:37:20Z</time>
      </trkpt>
      <trkpt lat="44.51774" lon="4.43427">
        <ele>218.6</ele>
        <time>2022-06-05T08:37:23Z</time>
      </trkpt>
      <trkpt lat="44.51773" lon="4.43421">
        <ele>218</ele>
        <time>2022-06-05T08:37:24Z</time>
      </trkpt>
      <trkpt lat="44.51772" lon="4.43415">
        <ele>217.2</ele>
        <time>2022-06-05T08:37:25Z</time>
      </trkpt>
      <trkpt lat="44.51772" lon="4.43409">
        <ele>216.8</ele>
        <time>2022-06-05T08:37:26Z</time>
      </trkpt>
      <trkpt lat="44.51768" lon="4.43387">
        <ele>216.8</ele>
        <time>2022-06-05T08:37:30Z</time>
      </trkpt>
      <trkpt lat="44.5176" lon="4.43344">
        <ele>216.2</ele>
        <time>2022-06-05T08:37:37Z</time>
      </trkpt>
      <trkpt lat="44.51759" lon="4.43338">
        <ele>215.8</ele>
        <time>2022-06-05T08:37:38Z</time>
      </trkpt>
      <trkpt lat="44.51757" lon="4.43332">
        <ele>215.4</ele>
        <time>2022-06-05T08:37:39Z</time>
      </trkpt>
      <trkpt lat="44.51754" lon="4.43325">
        <ele>214.8</ele>
        <time>2022-06-05T08:37:40Z</time>
      </trkpt>
      <trkpt lat="44.51751" lon="4.43319">
        <ele>214.4</ele>
        <time>2022-06-05T08:37:41Z</time>
      </trkpt>
      <trkpt lat="44.51744" lon="4.43308">
        <ele>214</ele>
        <time>2022-06-05T08:37:43Z</time>
      </trkpt>
      <trkpt lat="44.51741" lon="4.43303">
        <ele>213.6</ele>
        <time>2022-06-05T08:37:44Z</time>
      </trkpt>
      <trkpt lat="44.51737" lon="4.43299">
        <ele>213.2</ele>
        <time>2022-06-05T08:37:45Z</time>
      </trkpt>
      <trkpt lat="44.51733" lon="4.43295">
        <ele>212.8</ele>
        <time>2022-06-05T08:37:46Z</time>
      </trkpt>
      <trkpt lat="44.5173" lon="4.43293">
        <ele>212.2</ele>
        <time>2022-06-05T08:37:47Z</time>
      </trkpt>
      <trkpt lat="44.51727" lon="4.43291">
        <ele>212.2</ele>
        <time>2022-06-05T08:37:48Z</time>
      </trkpt>
      <trkpt lat="44.51724" lon="4.43291">
        <ele>211.8</ele>
        <time>2022-06-05T08:37:49Z</time>
      </trkpt>
      <trkpt lat="44.51721" lon="4.43291">
        <ele>211</ele>
        <time>2022-06-05T08:37:50Z</time>
      </trkpt>
      <trkpt lat="44.51718" lon="4.43291">
        <ele>210.6</ele>
        <time>2022-06-05T08:37:51Z</time>
      </trkpt>
      <trkpt lat="44.51715" lon="4.4329">
        <ele>210.2</ele>
        <time>2022-06-05T08:37:52Z</time>
      </trkpt>
      <trkpt lat="44.51712" lon="4.43289">
        <ele>210.2</ele>
        <time>2022-06-05T08:37:53Z</time>
      </trkpt>
      <trkpt lat="44.51698" lon="4.43291">
        <ele>210.2</ele>
        <time>2022-06-05T08:37:59Z</time>
      </trkpt>
      <trkpt lat="44.51695" lon="4.4329">
        <ele>210.2</ele>
        <time>2022-06-05T08:38:01Z</time>
      </trkpt>
      <trkpt lat="44.5169" lon="4.43281">
        <ele>210.2</ele>
        <time>2022-06-05T08:38:08Z</time>
      </trkpt>
      <trkpt lat="44.51688" lon="4.43277">
        <ele>210.2</ele>
        <time>2022-06-05T08:38:10Z</time>
      </trkpt>
      <trkpt lat="44.51686" lon="4.43268">
        <ele>210.2</ele>
        <time>2022-06-05T08:38:13Z</time>
      </trkpt>
      <trkpt lat="44.51682" lon="4.43259">
        <ele>210.2</ele>
        <time>2022-06-05T08:38:15Z</time>
      </trkpt>
      <trkpt lat="44.51671" lon="4.43235">
        <ele>210.2</ele>
        <time>2022-06-05T08:38:19Z</time>
      </trkpt>
      <trkpt lat="44.51669" lon="4.43228">
        <ele>210.2</ele>
        <time>2022-06-05T08:38:20Z</time>
      </trkpt>
      <trkpt lat="44.51672" lon="4.43202">
        <ele>210.2</ele>
        <time>2022-06-05T08:38:24Z</time>
      </trkpt>
      <trkpt lat="44.51675" lon="4.43191">
        <ele>210.2</ele>
        <time>2022-06-05T08:38:26Z</time>
      </trkpt>
      <trkpt lat="44.5168" lon="4.43175">
        <ele>210.2</ele>
        <time>2022-06-05T08:38:30Z</time>
      </trkpt>
      <trkpt lat="44.51682" lon="4.43152">
        <ele>210.6</ele>
        <time>2022-06-05T08:38:36Z</time>
      </trkpt>
      <trkpt lat="44.51684" lon="4.43148">
        <ele>211</ele>
        <time>2022-06-05T08:38:37Z</time>
      </trkpt>
      <trkpt lat="44.51686" lon="4.43145">
        <ele>211.6</ele>
        <time>2022-06-05T08:38:38Z</time>
      </trkpt>
      <trkpt lat="44.51686" lon="4.43141">
        <ele>212.4</ele>
        <time>2022-06-05T08:38:39Z</time>
      </trkpt>
      <trkpt lat="44.51685" lon="4.43118">
        <ele>212.4</ele>
        <time>2022-06-05T08:38:45Z</time>
      </trkpt>
      <trkpt lat="44.51684" lon="4.43102">
        <ele>212.8</ele>
        <time>2022-06-05T08:38:49Z</time>
      </trkpt>
      <trkpt lat="44.51683" lon="4.43098">
        <ele>213.2</ele>
        <time>2022-06-05T08:38:50Z</time>
      </trkpt>
      <trkpt lat="44.51683" lon="4.43093">
        <ele>213.6</ele>
        <time>2022-06-05T08:38:51Z</time>
      </trkpt>
      <trkpt lat="44.51683" lon="4.43088">
        <ele>214</ele>
        <time>2022-06-05T08:38:52Z</time>
      </trkpt>
      <trkpt lat="44.51682" lon="4.43083">
        <ele>214.4</ele>
        <time>2022-06-05T08:38:53Z</time>
      </trkpt>
      <trkpt lat="44.51681" lon="4.43043">
        <ele>214.4</ele>
        <time>2022-06-05T08:39:01Z</time>
      </trkpt>
      <trkpt lat="44.51681" lon="4.43003">
        <ele>214.4</ele>
        <time>2022-06-05T08:39:09Z</time>
      </trkpt>
      <trkpt lat="44.51679" lon="4.4298">
        <ele>214.4</ele>
        <time>2022-06-05T08:39:15Z</time>
      </trkpt>
      <trkpt lat="44.51678" lon="4.42971">
        <ele>214</ele>
        <time>2022-06-05T08:39:17Z</time>
      </trkpt>
      <trkpt lat="44.51677" lon="4.42966">
        <ele>213.6</ele>
        <time>2022-06-05T08:39:18Z</time>
      </trkpt>
      <trkpt lat="44.51675" lon="4.42961">
        <ele>213.2</ele>
        <time>2022-06-05T08:39:19Z</time>
      </trkpt>
      <trkpt lat="44.51674" lon="4.42956">
        <ele>212.8</ele>
        <time>2022-06-05T08:39:20Z</time>
      </trkpt>
      <trkpt lat="44.51672" lon="4.42949">
        <ele>212.4</ele>
        <time>2022-06-05T08:39:21Z</time>
      </trkpt>
      <trkpt lat="44.51666" lon="4.42931">
        <ele>211.8</ele>
        <time>2022-06-05T08:39:24Z</time>
      </trkpt>
      <trkpt lat="44.51664" lon="4.42925">
        <ele>211.4</ele>
        <time>2022-06-05T08:39:25Z</time>
      </trkpt>
      <trkpt lat="44.51662" lon="4.42919">
        <ele>211</ele>
        <time>2022-06-05T08:39:26Z</time>
      </trkpt>
      <trkpt lat="44.51661" lon="4.42914">
        <ele>210.6</ele>
        <time>2022-06-05T08:39:27Z</time>
      </trkpt>
      <trkpt lat="44.5166" lon="4.42909">
        <ele>210.2</ele>
        <time>2022-06-05T08:39:28Z</time>
      </trkpt>
      <trkpt lat="44.51665" lon="4.42882">
        <ele>210.2</ele>
        <time>2022-06-05T08:39:34Z</time>
      </trkpt>
      <trkpt lat="44.51675" lon="4.42859">
        <ele>210.6</ele>
        <time>2022-06-05T08:39:41Z</time>
      </trkpt>
      <trkpt lat="44.51676" lon="4.42856">
        <ele>211</ele>
        <time>2022-06-05T08:39:42Z</time>
      </trkpt>
      <trkpt lat="44.51677" lon="4.42854">
        <ele>211.4</ele>
        <time>2022-06-05T08:39:43Z</time>
      </trkpt>
      <trkpt lat="44.51678" lon="4.42851">
        <ele>211.8</ele>
        <time>2022-06-05T08:39:44Z</time>
      </trkpt>
      <trkpt lat="44.51678" lon="4.42847">
        <ele>212.4</ele>
        <time>2022-06-05T08:39:45Z</time>
      </trkpt>
      <trkpt lat="44.51678" lon="4.42837">
        <ele>212.4</ele>
        <time>2022-06-05T08:39:48Z</time>
      </trkpt>
      <trkpt lat="44.51675" lon="4.42812">
        <ele>212.8</ele>
        <time>2022-06-05T08:39:55Z</time>
      </trkpt>
      <trkpt lat="44.51675" lon="4.42809">
        <ele>213.2</ele>
        <time>2022-06-05T08:39:56Z</time>
      </trkpt>
      <trkpt lat="44.51674" lon="4.42806">
        <ele>213.6</ele>
        <time>2022-06-05T08:39:57Z</time>
      </trkpt>
      <trkpt lat="44.51674" lon="4.42802">
        <ele>214</ele>
        <time>2022-06-05T08:39:58Z</time>
      </trkpt>
      <trkpt lat="44.51673" lon="4.42799">
        <ele>214.4</ele>
        <time>2022-06-05T08:39:59Z</time>
      </trkpt>
      <trkpt lat="44.5167" lon="4.4278">
        <ele>214.4</ele>
        <time>2022-06-05T08:40:05Z</time>
      </trkpt>
      <trkpt lat="44.51669" lon="4.4277">
        <ele>215</ele>
        <time>2022-06-05T08:40:08Z</time>
      </trkpt>
      <trkpt lat="44.51668" lon="4.42767">
        <ele>215.4</ele>
        <time>2022-06-05T08:40:09Z</time>
      </trkpt>
      <trkpt lat="44.51668" lon="4.42763">
        <ele>215.8</ele>
        <time>2022-06-05T08:40:10Z</time>
      </trkpt>
      <trkpt lat="44.51668" lon="4.42759">
        <ele>216.2</ele>
        <time>2022-06-05T08:40:11Z</time>
      </trkpt>
      <trkpt lat="44.51668" lon="4.42757">
        <ele>216.6</ele>
        <time>2022-06-05T08:40:12Z</time>
      </trkpt>
      <trkpt lat="44.51668" lon="4.42754">
        <ele>216.6</ele>
        <time>2022-06-05T08:40:13Z</time>
      </trkpt>
      <trkpt lat="44.5167" lon="4.42725">
        <ele>216.6</ele>
        <time>2022-06-05T08:40:22Z</time>
      </trkpt>
      <trkpt lat="44.51669" lon="4.42711">
        <ele>217</ele>
        <time>2022-06-05T08:40:26Z</time>
      </trkpt>
      <trkpt lat="44.51669" lon="4.42707">
        <ele>217.4</ele>
        <time>2022-06-05T08:40:27Z</time>
      </trkpt>
      <trkpt lat="44.51668" lon="4.42703">
        <ele>217.8</ele>
        <time>2022-06-05T08:40:28Z</time>
      </trkpt>
      <trkpt lat="44.51668" lon="4.427">
        <ele>218.2</ele>
        <time>2022-06-05T08:40:29Z</time>
      </trkpt>
      <trkpt lat="44.51668" lon="4.42696">
        <ele>218.6</ele>
        <time>2022-06-05T08:40:30Z</time>
      </trkpt>
      <trkpt lat="44.51667" lon="4.42692">
        <ele>218.6</ele>
        <time>2022-06-05T08:40:31Z</time>
      </trkpt>
      <trkpt lat="44.51664" lon="4.42662">
        <ele>218.6</ele>
        <time>2022-06-05T08:40:39Z</time>
      </trkpt>
      <trkpt lat="44.51659" lon="4.4264">
        <ele>218.6</ele>
        <time>2022-06-05T08:40:46Z</time>
      </trkpt>
      <trkpt lat="44.51649" lon="4.42615">
        <ele>218.6</ele>
        <time>2022-06-05T08:40:54Z</time>
      </trkpt>
      <trkpt lat="44.51651" lon="4.42595">
        <ele>218.6</ele>
        <time>2022-06-05T08:41:00Z</time>
      </trkpt>
      <trkpt lat="44.51662" lon="4.42574">
        <ele>218.6</ele>
        <time>2022-06-05T08:41:07Z</time>
      </trkpt>
      <trkpt lat="44.5167" lon="4.4255">
        <ele>218.6</ele>
        <time>2022-06-05T08:41:15Z</time>
      </trkpt>
      <trkpt lat="44.51668" lon="4.42515">
        <ele>218.6</ele>
        <time>2022-06-05T08:41:24Z</time>
      </trkpt>
      <trkpt lat="44.51662" lon="4.42488">
        <ele>219.4</ele>
        <time>2022-06-05T08:41:31Z</time>
      </trkpt>
      <trkpt lat="44.51661" lon="4.42484">
        <ele>219.8</ele>
        <time>2022-06-05T08:41:32Z</time>
      </trkpt>
      <trkpt lat="44.5166" lon="4.42481">
        <ele>220.2</ele>
        <time>2022-06-05T08:41:33Z</time>
      </trkpt>
      <trkpt lat="44.51658" lon="4.42477">
        <ele>220.6</ele>
        <time>2022-06-05T08:41:34Z</time>
      </trkpt>
      <trkpt lat="44.51647" lon="4.42447">
        <ele>220.6</ele>
        <time>2022-06-05T08:41:44Z</time>
      </trkpt>
      <trkpt lat="44.51635" lon="4.42414">
        <ele>220.6</ele>
        <time>2022-06-05T08:41:53Z</time>
      </trkpt>
      <trkpt lat="44.51624" lon="4.42374">
        <ele>220.6</ele>
        <time>2022-06-05T08:42:01Z</time>
      </trkpt>
      <trkpt lat="44.51624" lon="4.42347">
        <ele>220.6</ele>
        <time>2022-06-05T08:42:06Z</time>
      </trkpt>
      <trkpt lat="44.51633" lon="4.4232">
        <ele>220.6</ele>
        <time>2022-06-05T08:42:13Z</time>
      </trkpt>
      <trkpt lat="44.51645" lon="4.42291">
        <ele>220.6</ele>
        <time>2022-06-05T08:42:21Z</time>
      </trkpt>
      <trkpt lat="44.51648" lon="4.42262">
        <ele>220.6</ele>
        <time>2022-06-05T08:42:26Z</time>
      </trkpt>
      <trkpt lat="44.5164" lon="4.42239">
        <ele>220.6</ele>
        <time>2022-06-05T08:42:31Z</time>
      </trkpt>
      <trkpt lat="44.51638" lon="4.42236">
        <ele>220.6</ele>
        <time>2022-06-05T08:42:32Z</time>
      </trkpt>
      <trkpt lat="44.51624" lon="4.42219">
        <ele>220.6</ele>
        <time>2022-06-05T08:42:38Z</time>
      </trkpt>
      <trkpt lat="44.5161" lon="4.422">
        <ele>220.6</ele>
        <time>2022-06-05T08:42:46Z</time>
      </trkpt>
      <trkpt lat="44.51603" lon="4.42172">
        <ele>220.6</ele>
        <time>2022-06-05T08:42:54Z</time>
      </trkpt>
      <trkpt lat="44.516" lon="4.42161">
        <ele>220.6</ele>
        <time>2022-06-05T08:42:56Z</time>
      </trkpt>
      <trkpt lat="44.51594" lon="4.42141">
        <ele>220.6</ele>
        <time>2022-06-05T08:42:59Z</time>
      </trkpt>
      <trkpt lat="44.5159" lon="4.42127">
        <ele>220.6</ele>
        <time>2022-06-05T08:43:01Z</time>
      </trkpt>
      <trkpt lat="44.51587" lon="4.42115">
        <ele>220.2</ele>
        <time>2022-06-05T08:43:03Z</time>
      </trkpt>
      <trkpt lat="44.51586" lon="4.42111">
        <ele>219.8</ele>
        <time>2022-06-05T08:43:04Z</time>
      </trkpt>
      <trkpt lat="44.51585" lon="4.42108">
        <ele>219.4</ele>
        <time>2022-06-05T08:43:05Z</time>
      </trkpt>
      <trkpt lat="44.51584" lon="4.42105">
        <ele>219</ele>
        <time>2022-06-05T08:43:06Z</time>
      </trkpt>
      <trkpt lat="44.51584" lon="4.42102">
        <ele>218.4</ele>
        <time>2022-06-05T08:43:07Z</time>
      </trkpt>
      <trkpt lat="44.51583" lon="4.42099">
        <ele>218</ele>
        <time>2022-06-05T08:43:09Z</time>
      </trkpt>
      <trkpt lat="44.51583" lon="4.42098">
        <ele>217.2</ele>
        <time>2022-06-05T08:43:10Z</time>
      </trkpt>
      <trkpt lat="44.51585" lon="4.42094">
        <ele>216.4</ele>
        <time>2022-06-05T08:43:13Z</time>
      </trkpt>
      <trkpt lat="44.5159" lon="4.42087">
        <ele>216.4</ele>
        <time>2022-06-05T08:43:16Z</time>
      </trkpt>
      <trkpt lat="44.51602" lon="4.42068">
        <ele>216.4</ele>
        <time>2022-06-05T08:43:22Z</time>
      </trkpt>
      <trkpt lat="44.51622" lon="4.42035">
        <ele>216.4</ele>
        <time>2022-06-05T08:43:30Z</time>
      </trkpt>
      <trkpt lat="44.51643" lon="4.42003">
        <ele>216</ele>
        <time>2022-06-05T08:43:38Z</time>
      </trkpt>
      <trkpt lat="44.51646" lon="4.41999">
        <ele>215.6</ele>
        <time>2022-06-05T08:43:39Z</time>
      </trkpt>
      <trkpt lat="44.51649" lon="4.41995">
        <ele>215.2</ele>
        <time>2022-06-05T08:43:40Z</time>
      </trkpt>
      <trkpt lat="44.51653" lon="4.41991">
        <ele>214.6</ele>
        <time>2022-06-05T08:43:41Z</time>
      </trkpt>
      <trkpt lat="44.51656" lon="4.41987">
        <ele>214.2</ele>
        <time>2022-06-05T08:43:42Z</time>
      </trkpt>
      <trkpt lat="44.51666" lon="4.41978">
        <ele>213.8</ele>
        <time>2022-06-05T08:43:45Z</time>
      </trkpt>
      <trkpt lat="44.5167" lon="4.41976">
        <ele>213.2</ele>
        <time>2022-06-05T08:43:46Z</time>
      </trkpt>
      <trkpt lat="44.51674" lon="4.41974">
        <ele>212.8</ele>
        <time>2022-06-05T08:43:47Z</time>
      </trkpt>
      <trkpt lat="44.51678" lon="4.41971">
        <ele>212</ele>
        <time>2022-06-05T08:43:48Z</time>
      </trkpt>
      <trkpt lat="44.51682" lon="4.41969">
        <ele>211.4</ele>
        <time>2022-06-05T08:43:49Z</time>
      </trkpt>
      <trkpt lat="44.51685" lon="4.41967">
        <ele>210.6</ele>
        <time>2022-06-05T08:43:50Z</time>
      </trkpt>
      <trkpt lat="44.51688" lon="4.41964">
        <ele>210</ele>
        <time>2022-06-05T08:43:51Z</time>
      </trkpt>
      <trkpt lat="44.5169" lon="4.41961">
        <ele>209.2</ele>
        <time>2022-06-05T08:43:52Z</time>
      </trkpt>
      <trkpt lat="44.51693" lon="4.41958">
        <ele>208.6</ele>
        <time>2022-06-05T08:43:53Z</time>
      </trkpt>
      <trkpt lat="44.51695" lon="4.41954">
        <ele>207.8</ele>
        <time>2022-06-05T08:43:54Z</time>
      </trkpt>
      <trkpt lat="44.51697" lon="4.41951">
        <ele>207.2</ele>
        <time>2022-06-05T08:43:55Z</time>
      </trkpt>
      <trkpt lat="44.51698" lon="4.41947">
        <ele>206.6</ele>
        <time>2022-06-05T08:43:56Z</time>
      </trkpt>
      <trkpt lat="44.517" lon="4.41943">
        <ele>206</ele>
        <time>2022-06-05T08:43:57Z</time>
      </trkpt>
      <trkpt lat="44.517" lon="4.41938">
        <ele>205.4</ele>
        <time>2022-06-05T08:43:58Z</time>
      </trkpt>
      <trkpt lat="44.51701" lon="4.41932">
        <ele>204.8</ele>
        <time>2022-06-05T08:43:59Z</time>
      </trkpt>
      <trkpt lat="44.51701" lon="4.41927">
        <ele>203.4</ele>
        <time>2022-06-05T08:44:00Z</time>
      </trkpt>
      <trkpt lat="44.51701" lon="4.41921">
        <ele>202.8</ele>
        <time>2022-06-05T08:44:01Z</time>
      </trkpt>
      <trkpt lat="44.51702" lon="4.41916">
        <ele>202.2</ele>
        <time>2022-06-05T08:44:02Z</time>
      </trkpt>
      <trkpt lat="44.51702" lon="4.4191">
        <ele>201.4</ele>
        <time>2022-06-05T08:44:03Z</time>
      </trkpt>
      <trkpt lat="44.51703" lon="4.41905">
        <ele>200.8</ele>
        <time>2022-06-05T08:44:04Z</time>
      </trkpt>
      <trkpt lat="44.51705" lon="4.419">
        <ele>200.2</ele>
        <time>2022-06-05T08:44:05Z</time>
      </trkpt>
      <trkpt lat="44.51708" lon="4.41895">
        <ele>199.6</ele>
        <time>2022-06-05T08:44:06Z</time>
      </trkpt>
      <trkpt lat="44.5171" lon="4.4189">
        <ele>199.2</ele>
        <time>2022-06-05T08:44:07Z</time>
      </trkpt>
      <trkpt lat="44.51713" lon="4.41887">
        <ele>198.8</ele>
        <time>2022-06-05T08:44:08Z</time>
      </trkpt>
      <trkpt lat="44.51716" lon="4.41884">
        <ele>198.4</ele>
        <time>2022-06-05T08:44:09Z</time>
      </trkpt>
      <trkpt lat="44.5172" lon="4.41883">
        <ele>198</ele>
        <time>2022-06-05T08:44:10Z</time>
      </trkpt>
      <trkpt lat="44.51723" lon="4.41881">
        <ele>197.4</ele>
        <time>2022-06-05T08:44:11Z</time>
      </trkpt>
      <trkpt lat="44.51726" lon="4.4188">
        <ele>197</ele>
        <time>2022-06-05T08:44:12Z</time>
      </trkpt>
      <trkpt lat="44.51729" lon="4.4188">
        <ele>196.6</ele>
        <time>2022-06-05T08:44:13Z</time>
      </trkpt>
      <trkpt lat="44.51733" lon="4.4188">
        <ele>196.2</ele>
        <time>2022-06-05T08:44:14Z</time>
      </trkpt>
      <trkpt lat="44.51736" lon="4.41881">
        <ele>195.6</ele>
        <time>2022-06-05T08:44:15Z</time>
      </trkpt>
      <trkpt lat="44.5174" lon="4.41883">
        <ele>195.6</ele>
        <time>2022-06-05T08:44:16Z</time>
      </trkpt>
      <trkpt lat="44.51754" lon="4.41884">
        <ele>195.6</ele>
        <time>2022-06-05T08:44:19Z</time>
      </trkpt>
      <trkpt lat="44.5176" lon="4.41877">
        <ele>195.6</ele>
        <time>2022-06-05T08:44:21Z</time>
      </trkpt>
      <trkpt lat="44.51764" lon="4.41863">
        <ele>194.8</ele>
        <time>2022-06-05T08:44:24Z</time>
      </trkpt>
      <trkpt lat="44.51764" lon="4.41857">
        <ele>194.4</ele>
        <time>2022-06-05T08:44:25Z</time>
      </trkpt>
      <trkpt lat="44.51762" lon="4.41851">
        <ele>194</ele>
        <time>2022-06-05T08:44:26Z</time>
      </trkpt>
      <trkpt lat="44.5176" lon="4.41846">
        <ele>193.6</ele>
        <time>2022-06-05T08:44:27Z</time>
      </trkpt>
      <trkpt lat="44.51756" lon="4.41841">
        <ele>193.6</ele>
        <time>2022-06-05T08:44:28Z</time>
      </trkpt>
      <trkpt lat="44.51747" lon="4.41833">
        <ele>193.6</ele>
        <time>2022-06-05T08:44:30Z</time>
      </trkpt>
      <trkpt lat="44.51742" lon="4.4183">
        <ele>193.2</ele>
        <time>2022-06-05T08:44:31Z</time>
      </trkpt>
      <trkpt lat="44.51737" lon="4.41827">
        <ele>192.8</ele>
        <time>2022-06-05T08:44:32Z</time>
      </trkpt>
      <trkpt lat="44.51733" lon="4.41825">
        <ele>192.4</ele>
        <time>2022-06-05T08:44:33Z</time>
      </trkpt>
      <trkpt lat="44.5173" lon="4.41824">
        <ele>192</ele>
        <time>2022-06-05T08:44:34Z</time>
      </trkpt>
      <trkpt lat="44.51726" lon="4.41823">
        <ele>191.6</ele>
        <time>2022-06-05T08:44:35Z</time>
      </trkpt>
      <trkpt lat="44.5172" lon="4.41821">
        <ele>191.6</ele>
        <time>2022-06-05T08:44:37Z</time>
      </trkpt>
      <trkpt lat="44.51715" lon="4.41815">
        <ele>192</ele>
        <time>2022-06-05T08:44:40Z</time>
      </trkpt>
      <trkpt lat="44.51715" lon="4.41814">
        <ele>192.4</ele>
        <time>2022-06-05T08:44:41Z</time>
      </trkpt>
      <trkpt lat="44.51715" lon="4.41812">
        <ele>192.8</ele>
        <time>2022-06-05T08:44:42Z</time>
      </trkpt>
      <trkpt lat="44.51714" lon="4.41812">
        <ele>193.2</ele>
        <time>2022-06-05T08:44:43Z</time>
      </trkpt>
      <trkpt lat="44.51715" lon="4.41807">
        <ele>193.6</ele>
        <time>2022-06-05T08:45:07Z</time>
      </trkpt>
      <trkpt lat="44.51715" lon="4.41797">
        <ele>193.6</ele>
        <time>2022-06-05T08:45:10Z</time>
      </trkpt>
      <trkpt lat="44.51712" lon="4.41779">
        <ele>194</ele>
        <time>2022-06-05T08:45:15Z</time>
      </trkpt>
      <trkpt lat="44.51712" lon="4.41775">
        <ele>194.4</ele>
        <time>2022-06-05T08:45:16Z</time>
      </trkpt>
      <trkpt lat="44.51711" lon="4.41771">
        <ele>194.8</ele>
        <time>2022-06-05T08:45:17Z</time>
      </trkpt>
      <trkpt lat="44.51711" lon="4.41766">
        <ele>195.2</ele>
        <time>2022-06-05T08:45:18Z</time>
      </trkpt>
      <trkpt lat="44.5171" lon="4.41762">
        <ele>195.8</ele>
        <time>2022-06-05T08:45:19Z</time>
      </trkpt>
      <trkpt lat="44.51702" lon="4.41721">
        <ele>195.8</ele>
        <time>2022-06-05T08:45:28Z</time>
      </trkpt>
      <trkpt lat="44.51699" lon="4.41708">
        <ele>196.2</ele>
        <time>2022-06-05T08:45:31Z</time>
      </trkpt>
      <trkpt lat="44.51697" lon="4.41703">
        <ele>196.6</ele>
        <time>2022-06-05T08:45:32Z</time>
      </trkpt>
      <trkpt lat="44.51696" lon="4.41699">
        <ele>197</ele>
        <time>2022-06-05T08:45:33Z</time>
      </trkpt>
      <trkpt lat="44.51694" lon="4.41695">
        <ele>197.4</ele>
        <time>2022-06-05T08:45:34Z</time>
      </trkpt>
      <trkpt lat="44.51692" lon="4.41691">
        <ele>197.8</ele>
        <time>2022-06-05T08:45:35Z</time>
      </trkpt>
      <trkpt lat="44.51687" lon="4.4168">
        <ele>197.8</ele>
        <time>2022-06-05T08:45:38Z</time>
      </trkpt>
      <trkpt lat="44.51676" lon="4.41652">
        <ele>198.2</ele>
        <time>2022-06-05T08:45:45Z</time>
      </trkpt>
      <trkpt lat="44.51674" lon="4.41647">
        <ele>198.6</ele>
        <time>2022-06-05T08:45:46Z</time>
      </trkpt>
      <trkpt lat="44.51673" lon="4.41643">
        <ele>199</ele>
        <time>2022-06-05T08:45:47Z</time>
      </trkpt>
      <trkpt lat="44.51671" lon="4.41639">
        <ele>199.6</ele>
        <time>2022-06-05T08:45:48Z</time>
      </trkpt>
      <trkpt lat="44.51669" lon="4.41634">
        <ele>200</ele>
        <time>2022-06-05T08:45:49Z</time>
      </trkpt>
      <trkpt lat="44.51666" lon="4.41627">
        <ele>200</ele>
        <time>2022-06-05T08:45:51Z</time>
      </trkpt>
      <trkpt lat="44.51647" lon="4.41595">
        <ele>200.4</ele>
        <time>2022-06-05T08:46:00Z</time>
      </trkpt>
      <trkpt lat="44.51645" lon="4.41592">
        <ele>200.8</ele>
        <time>2022-06-05T08:46:01Z</time>
      </trkpt>
      <trkpt lat="44.51642" lon="4.41589">
        <ele>201.2</ele>
        <time>2022-06-05T08:46:02Z</time>
      </trkpt>
      <trkpt lat="44.5164" lon="4.41586">
        <ele>202</ele>
        <time>2022-06-05T08:46:03Z</time>
      </trkpt>
      <trkpt lat="44.51619" lon="4.41556">
        <ele>202</ele>
        <time>2022-06-05T08:46:12Z</time>
      </trkpt>
      <trkpt lat="44.51612" lon="4.41545">
        <ele>202.4</ele>
        <time>2022-06-05T08:46:15Z</time>
      </trkpt>
      <trkpt lat="44.51609" lon="4.41541">
        <ele>202.8</ele>
        <time>2022-06-05T08:46:16Z</time>
      </trkpt>
      <trkpt lat="44.51607" lon="4.41538">
        <ele>203.4</ele>
        <time>2022-06-05T08:46:17Z</time>
      </trkpt>
      <trkpt lat="44.51605" lon="4.41534">
        <ele>203.8</ele>
        <time>2022-06-05T08:46:18Z</time>
      </trkpt>
      <trkpt lat="44.51602" lon="4.4153">
        <ele>204.2</ele>
        <time>2022-06-05T08:46:19Z</time>
      </trkpt>
      <trkpt lat="44.51599" lon="4.41522">
        <ele>204.2</ele>
        <time>2022-06-05T08:46:21Z</time>
      </trkpt>
      <trkpt lat="44.51584" lon="4.41484">
        <ele>204.6</ele>
        <time>2022-06-05T08:46:30Z</time>
      </trkpt>
      <trkpt lat="44.51582" lon="4.4148">
        <ele>205</ele>
        <time>2022-06-05T08:46:31Z</time>
      </trkpt>
      <trkpt lat="44.5158" lon="4.41476">
        <ele>205.4</ele>
        <time>2022-06-05T08:46:32Z</time>
      </trkpt>
      <trkpt lat="44.51578" lon="4.41473">
        <ele>205.8</ele>
        <time>2022-06-05T08:46:33Z</time>
      </trkpt>
      <trkpt lat="44.51576" lon="4.4147">
        <ele>206.2</ele>
        <time>2022-06-05T08:46:34Z</time>
      </trkpt>
      <trkpt lat="44.51562" lon="4.41453">
        <ele>206.2</ele>
        <time>2022-06-05T08:46:40Z</time>
      </trkpt>
      <trkpt lat="44.51534" lon="4.4143">
        <ele>206.2</ele>
        <time>2022-06-05T08:46:50Z</time>
      </trkpt>
      <trkpt lat="44.51528" lon="4.41427">
        <ele>206.6</ele>
        <time>2022-06-05T08:46:52Z</time>
      </trkpt>
      <trkpt lat="44.51526" lon="4.41426">
        <ele>207.2</ele>
        <time>2022-06-05T08:46:53Z</time>
      </trkpt>
      <trkpt lat="44.51522" lon="4.41424">
        <ele>207.6</ele>
        <time>2022-06-05T08:46:54Z</time>
      </trkpt>
      <trkpt lat="44.51519" lon="4.41423">
        <ele>208</ele>
        <time>2022-06-05T08:46:55Z</time>
      </trkpt>
      <trkpt lat="44.51517" lon="4.41421">
        <ele>208.4</ele>
        <time>2022-06-05T08:46:56Z</time>
      </trkpt>
      <trkpt lat="44.51514" lon="4.4142">
        <ele>208.4</ele>
        <time>2022-06-05T08:46:57Z</time>
      </trkpt>
      <trkpt lat="44.51507" lon="4.41415">
        <ele>208.4</ele>
        <time>2022-06-05T08:47:00Z</time>
      </trkpt>
      <trkpt lat="44.51499" lon="4.41411">
        <ele>208.4</ele>
        <time>2022-06-05T08:47:05Z</time>
      </trkpt>
      <trkpt lat="44.51497" lon="4.41409">
        <ele>208.4</ele>
        <time>2022-06-05T08:47:07Z</time>
      </trkpt>
      <trkpt lat="44.51485" lon="4.41401">
        <ele>208.4</ele>
        <time>2022-06-05T08:47:11Z</time>
      </trkpt>
      <trkpt lat="44.51473" lon="4.41394">
        <ele>208</ele>
        <time>2022-06-05T08:47:14Z</time>
      </trkpt>
      <trkpt lat="44.51469" lon="4.41391">
        <ele>207.6</ele>
        <time>2022-06-05T08:47:15Z</time>
      </trkpt>
      <trkpt lat="44.51465" lon="4.41389">
        <ele>206.8</ele>
        <time>2022-06-05T08:47:16Z</time>
      </trkpt>
      <trkpt lat="44.51462" lon="4.41386">
        <ele>206.2</ele>
        <time>2022-06-05T08:47:17Z</time>
      </trkpt>
      <trkpt lat="44.51458" lon="4.41383">
        <ele>205.8</ele>
        <time>2022-06-05T08:47:18Z</time>
      </trkpt>
      <trkpt lat="44.51455" lon="4.4138">
        <ele>205.2</ele>
        <time>2022-06-05T08:47:19Z</time>
      </trkpt>
      <trkpt lat="44.51452" lon="4.41376">
        <ele>204.6</ele>
        <time>2022-06-05T08:47:20Z</time>
      </trkpt>
      <trkpt lat="44.51449" lon="4.41372">
        <ele>204.2</ele>
        <time>2022-06-05T08:47:21Z</time>
      </trkpt>
      <trkpt lat="44.51446" lon="4.41367">
        <ele>203.6</ele>
        <time>2022-06-05T08:47:22Z</time>
      </trkpt>
      <trkpt lat="44.51445" lon="4.41361">
        <ele>203</ele>
        <time>2022-06-05T08:47:23Z</time>
      </trkpt>
      <trkpt lat="44.51444" lon="4.41354">
        <ele>202.4</ele>
        <time>2022-06-05T08:47:24Z</time>
      </trkpt>
      <trkpt lat="44.51445" lon="4.41347">
        <ele>202</ele>
        <time>2022-06-05T08:47:25Z</time>
      </trkpt>
      <trkpt lat="44.51445" lon="4.41339">
        <ele>201.4</ele>
        <time>2022-06-05T08:47:26Z</time>
      </trkpt>
      <trkpt lat="44.51446" lon="4.41331">
        <ele>201</ele>
        <time>2022-06-05T08:47:27Z</time>
      </trkpt>
      <trkpt lat="44.51447" lon="4.41324">
        <ele>200.2</ele>
        <time>2022-06-05T08:47:28Z</time>
      </trkpt>
      <trkpt lat="44.51448" lon="4.41318">
        <ele>199.6</ele>
        <time>2022-06-05T08:47:29Z</time>
      </trkpt>
      <trkpt lat="44.51449" lon="4.41312">
        <ele>198.8</ele>
        <time>2022-06-05T08:47:30Z</time>
      </trkpt>
      <trkpt lat="44.5145" lon="4.41307">
        <ele>198.2</ele>
        <time>2022-06-05T08:47:31Z</time>
      </trkpt>
      <trkpt lat="44.51452" lon="4.41302">
        <ele>197.4</ele>
        <time>2022-06-05T08:47:32Z</time>
      </trkpt>
      <trkpt lat="44.51454" lon="4.41297">
        <ele>196.8</ele>
        <time>2022-06-05T08:47:33Z</time>
      </trkpt>
      <trkpt lat="44.51457" lon="4.41293">
        <ele>196.2</ele>
        <time>2022-06-05T08:47:34Z</time>
      </trkpt>
      <trkpt lat="44.5146" lon="4.4129">
        <ele>195.6</ele>
        <time>2022-06-05T08:47:35Z</time>
      </trkpt>
      <trkpt lat="44.51464" lon="4.41287">
        <ele>194.8</ele>
        <time>2022-06-05T08:47:36Z</time>
      </trkpt>
      <trkpt lat="44.51468" lon="4.41284">
        <ele>194.2</ele>
        <time>2022-06-05T08:47:37Z</time>
      </trkpt>
      <trkpt lat="44.51473" lon="4.41283">
        <ele>193.4</ele>
        <time>2022-06-05T08:47:38Z</time>
      </trkpt>
      <trkpt lat="44.51478" lon="4.41281">
        <ele>192.8</ele>
        <time>2022-06-05T08:47:39Z</time>
      </trkpt>
      <trkpt lat="44.51483" lon="4.4128">
        <ele>191.4</ele>
        <time>2022-06-05T08:47:40Z</time>
      </trkpt>
      <trkpt lat="44.51488" lon="4.41279">
        <ele>190.8</ele>
        <time>2022-06-05T08:47:41Z</time>
      </trkpt>
      <trkpt lat="44.51494" lon="4.41276">
        <ele>190</ele>
        <time>2022-06-05T08:47:42Z</time>
      </trkpt>
      <trkpt lat="44.51499" lon="4.41274">
        <ele>189.6</ele>
        <time>2022-06-05T08:47:43Z</time>
      </trkpt>
      <trkpt lat="44.51504" lon="4.41273">
        <ele>189</ele>
        <time>2022-06-05T08:47:44Z</time>
      </trkpt>
      <trkpt lat="44.51508" lon="4.41272">
        <ele>188.6</ele>
        <time>2022-06-05T08:47:45Z</time>
      </trkpt>
      <trkpt lat="44.51512" lon="4.41271">
        <ele>188.2</ele>
        <time>2022-06-05T08:47:46Z</time>
      </trkpt>
      <trkpt lat="44.51516" lon="4.4127">
        <ele>187.6</ele>
        <time>2022-06-05T08:47:47Z</time>
      </trkpt>
      <trkpt lat="44.5152" lon="4.41269">
        <ele>187.6</ele>
        <time>2022-06-05T08:47:48Z</time>
      </trkpt>
      <trkpt lat="44.51525" lon="4.41268">
        <ele>187.2</ele>
        <time>2022-06-05T08:47:49Z</time>
      </trkpt>
      <trkpt lat="44.5153" lon="4.41267">
        <ele>186.8</ele>
        <time>2022-06-05T08:47:50Z</time>
      </trkpt>
      <trkpt lat="44.51534" lon="4.41267">
        <ele>186.4</ele>
        <time>2022-06-05T08:47:51Z</time>
      </trkpt>
      <trkpt lat="44.51538" lon="4.41268">
        <ele>185.8</ele>
        <time>2022-06-05T08:47:52Z</time>
      </trkpt>
      <trkpt lat="44.51541" lon="4.41268">
        <ele>185.4</ele>
        <time>2022-06-05T08:47:53Z</time>
      </trkpt>
      <trkpt lat="44.51558" lon="4.41265">
        <ele>185</ele>
        <time>2022-06-05T08:47:57Z</time>
      </trkpt>
      <trkpt lat="44.51562" lon="4.41264">
        <ele>184.6</ele>
        <time>2022-06-05T08:47:58Z</time>
      </trkpt>
      <trkpt lat="44.51565" lon="4.41264">
        <ele>184.2</ele>
        <time>2022-06-05T08:47:59Z</time>
      </trkpt>
      <trkpt lat="44.51567" lon="4.41263">
        <ele>183.8</ele>
        <time>2022-06-05T08:48:00Z</time>
      </trkpt>
      <trkpt lat="44.5157" lon="4.41263">
        <ele>183.4</ele>
        <time>2022-06-05T08:48:01Z</time>
      </trkpt>
      <trkpt lat="44.51574" lon="4.4126">
        <ele>183.4</ele>
        <time>2022-06-05T08:48:03Z</time>
      </trkpt>
      <trkpt lat="44.51593" lon="4.41247">
        <ele>183.4</ele>
        <time>2022-06-05T08:48:11Z</time>
      </trkpt>
      <trkpt lat="44.51595" lon="4.41246">
        <ele>183</ele>
        <time>2022-06-05T08:48:12Z</time>
      </trkpt>
      <trkpt lat="44.51596" lon="4.41244">
        <ele>182.6</ele>
        <time>2022-06-05T08:48:13Z</time>
      </trkpt>
      <trkpt lat="44.51598" lon="4.41242">
        <ele>182.2</ele>
        <time>2022-06-05T08:48:14Z</time>
      </trkpt>
      <trkpt lat="44.51599" lon="4.4124">
        <ele>181.8</ele>
        <time>2022-06-05T08:48:15Z</time>
      </trkpt>
      <trkpt lat="44.516" lon="4.41239">
        <ele>181.2</ele>
        <time>2022-06-05T08:48:16Z</time>
      </trkpt>
      <trkpt lat="44.51601" lon="4.41237">
        <ele>181.2</ele>
        <time>2022-06-05T08:48:17Z</time>
      </trkpt>
      <trkpt lat="44.51601" lon="4.41233">
        <ele>181.2</ele>
        <time>2022-06-05T08:48:20Z</time>
      </trkpt>
      <trkpt lat="44.51603" lon="4.41227">
        <ele>181.2</ele>
        <time>2022-06-05T08:48:39Z</time>
      </trkpt>
      <trkpt lat="44.51604" lon="4.41223">
        <ele>181.2</ele>
        <time>2022-06-05T08:48:41Z</time>
      </trkpt>
      <trkpt lat="44.51604" lon="4.41221">
        <ele>180.8</ele>
        <time>2022-06-05T08:48:42Z</time>
      </trkpt>
      <trkpt lat="44.51604" lon="4.41218">
        <ele>180.4</ele>
        <time>2022-06-05T08:48:43Z</time>
      </trkpt>
      <trkpt lat="44.51605" lon="4.41216">
        <ele>180</ele>
        <time>2022-06-05T08:48:44Z</time>
      </trkpt>
      <trkpt lat="44.51604" lon="4.41214">
        <ele>179.6</ele>
        <time>2022-06-05T08:48:45Z</time>
      </trkpt>
      <trkpt lat="44.51604" lon="4.41212">
        <ele>179.2</ele>
        <time>2022-06-05T08:48:46Z</time>
      </trkpt>
      <trkpt lat="44.51604" lon="4.41209">
        <ele>179.2</ele>
        <time>2022-06-05T08:48:47Z</time>
      </trkpt>
      <trkpt lat="44.51607" lon="4.41187">
        <ele>179.2</ele>
        <time>2022-06-05T08:48:55Z</time>
      </trkpt>
      <trkpt lat="44.51617" lon="4.41166">
        <ele>179.6</ele>
        <time>2022-06-05T08:49:03Z</time>
      </trkpt>
      <trkpt lat="44.51618" lon="4.41164">
        <ele>180.2</ele>
        <time>2022-06-05T08:49:04Z</time>
      </trkpt>
      <trkpt lat="44.51619" lon="4.41162">
        <ele>180.6</ele>
        <time>2022-06-05T08:49:05Z</time>
      </trkpt>
      <trkpt lat="44.51621" lon="4.41159">
        <ele>181.2</ele>
        <time>2022-06-05T08:49:06Z</time>
      </trkpt>
      <trkpt lat="44.51622" lon="4.41157">
        <ele>181.6</ele>
        <time>2022-06-05T08:49:07Z</time>
      </trkpt>
      <trkpt lat="44.51622" lon="4.41153">
        <ele>181.6</ele>
        <time>2022-06-05T08:49:08Z</time>
      </trkpt>
      <trkpt lat="44.51621" lon="4.41146">
        <ele>181.6</ele>
        <time>2022-06-05T08:49:10Z</time>
      </trkpt>
      <trkpt lat="44.51617" lon="4.41132">
        <ele>181.6</ele>
        <time>2022-06-05T08:49:14Z</time>
      </trkpt>
      <trkpt lat="44.51615" lon="4.41123">
        <ele>181.6</ele>
        <time>2022-06-05T08:49:16Z</time>
      </trkpt>
      <trkpt lat="44.51602" lon="4.41091">
        <ele>181.6</ele>
        <time>2022-06-05T08:49:24Z</time>
      </trkpt>
      <trkpt lat="44.51598" lon="4.41059">
        <ele>181.6</ele>
        <time>2022-06-05T08:49:31Z</time>
      </trkpt>
      <trkpt lat="44.516" lon="4.4104">
        <ele>182</ele>
        <time>2022-06-05T08:49:35Z</time>
      </trkpt>
      <trkpt lat="44.516" lon="4.41035">
        <ele>182.4</ele>
        <time>2022-06-05T08:49:36Z</time>
      </trkpt>
      <trkpt lat="44.51601" lon="4.4103">
        <ele>182.8</ele>
        <time>2022-06-05T08:49:37Z</time>
      </trkpt>
      <trkpt lat="44.51603" lon="4.41025">
        <ele>183.2</ele>
        <time>2022-06-05T08:49:38Z</time>
      </trkpt>
      <trkpt lat="44.51604" lon="4.4102">
        <ele>183.6</ele>
        <time>2022-06-05T08:49:39Z</time>
      </trkpt>
      <trkpt lat="44.51612" lon="4.40973">
        <ele>183.6</ele>
        <time>2022-06-05T08:49:49Z</time>
      </trkpt>
      <trkpt lat="44.51615" lon="4.40923">
        <ele>183.6</ele>
        <time>2022-06-05T08:49:59Z</time>
      </trkpt>
      <trkpt lat="44.51612" lon="4.4089">
        <ele>184</ele>
        <time>2022-06-05T08:50:06Z</time>
      </trkpt>
      <trkpt lat="44.51611" lon="4.40885">
        <ele>184.4</ele>
        <time>2022-06-05T08:50:07Z</time>
      </trkpt>
      <trkpt lat="44.5161" lon="4.4088">
        <ele>185.4</ele>
        <time>2022-06-05T08:50:08Z</time>
      </trkpt>
      <trkpt lat="44.51609" lon="4.40876">
        <ele>185.8</ele>
        <time>2022-06-05T08:50:09Z</time>
      </trkpt>
      <trkpt lat="44.51609" lon="4.40871">
        <ele>185.8</ele>
        <time>2022-06-05T08:50:10Z</time>
      </trkpt>
      <trkpt lat="44.51601" lon="4.40818">
        <ele>185.8</ele>
        <time>2022-06-05T08:50:21Z</time>
      </trkpt>
      <trkpt lat="44.51599" lon="4.40788">
        <ele>185.8</ele>
        <time>2022-06-05T08:50:27Z</time>
      </trkpt>
      <trkpt lat="44.51597" lon="4.40787">
        <ele>185.8</ele>
        <time>2022-06-05T08:50:28Z</time>
      </trkpt>
      <trkpt lat="44.5159" lon="4.40792">
        <ele>185.8</ele>
        <time>2022-06-05T08:50:31Z</time>
      </trkpt>
      <trkpt lat="44.51587" lon="4.40798">
        <ele>185.2</ele>
        <time>2022-06-05T08:50:32Z</time>
      </trkpt>
      <trkpt lat="44.51583" lon="4.40803">
        <ele>184.8</ele>
        <time>2022-06-05T08:50:33Z</time>
      </trkpt>
      <trkpt lat="44.5158" lon="4.40806">
        <ele>183.8</ele>
        <time>2022-06-05T08:50:34Z</time>
      </trkpt>
      <trkpt lat="44.51574" lon="4.40811">
        <ele>183.4</ele>
        <time>2022-06-05T08:50:35Z</time>
      </trkpt>
      <trkpt lat="44.51567" lon="4.40815">
        <ele>183</ele>
        <time>2022-06-05T08:50:36Z</time>
      </trkpt>
      <trkpt lat="44.51561" lon="4.4082">
        <ele>182.6</ele>
        <time>2022-06-05T08:50:37Z</time>
      </trkpt>
      <trkpt lat="44.51554" lon="4.40825">
        <ele>182</ele>
        <time>2022-06-05T08:50:38Z</time>
      </trkpt>
      <trkpt lat="44.51547" lon="4.40829">
        <ele>181.6</ele>
        <time>2022-06-05T08:50:39Z</time>
      </trkpt>
      <trkpt lat="44.5154" lon="4.40834">
        <ele>181.2</ele>
        <time>2022-06-05T08:50:40Z</time>
      </trkpt>
      <trkpt lat="44.51522" lon="4.40844">
        <ele>180.8</ele>
        <time>2022-06-05T08:50:43Z</time>
      </trkpt>
      <trkpt lat="44.51516" lon="4.40847">
        <ele>180.4</ele>
        <time>2022-06-05T08:50:44Z</time>
      </trkpt>
      <trkpt lat="44.51511" lon="4.40849">
        <ele>180</ele>
        <time>2022-06-05T08:50:45Z</time>
      </trkpt>
      <trkpt lat="44.51506" lon="4.4085">
        <ele>179.6</ele>
        <time>2022-06-05T08:50:46Z</time>
      </trkpt>
      <trkpt lat="44.51501" lon="4.40851">
        <ele>179.2</ele>
        <time>2022-06-05T08:50:47Z</time>
      </trkpt>
      <trkpt lat="44.51497" lon="4.40851">
        <ele>179.2</ele>
        <time>2022-06-05T08:50:48Z</time>
      </trkpt>
      <trkpt lat="44.51478" lon="4.40862">
        <ele>179.2</ele>
        <time>2022-06-05T08:50:54Z</time>
      </trkpt>
      <trkpt lat="44.51459" lon="4.40878">
        <ele>179.2</ele>
        <time>2022-06-05T08:51:01Z</time>
      </trkpt>
      <trkpt lat="44.51443" lon="4.40883">
        <ele>179.2</ele>
        <time>2022-06-05T08:51:06Z</time>
      </trkpt>
      <trkpt lat="44.51409" lon="4.40877">
        <ele>179.2</ele>
        <time>2022-06-05T08:51:17Z</time>
      </trkpt>
      <trkpt lat="44.51406" lon="4.40876">
        <ele>179.6</ele>
        <time>2022-06-05T08:51:18Z</time>
      </trkpt>
      <trkpt lat="44.51403" lon="4.40875">
        <ele>180</ele>
        <time>2022-06-05T08:51:19Z</time>
      </trkpt>
      <trkpt lat="44.51399" lon="4.40874">
        <ele>180.4</ele>
        <time>2022-06-05T08:51:20Z</time>
      </trkpt>
      <trkpt lat="44.51396" lon="4.40873">
        <ele>180.8</ele>
        <time>2022-06-05T08:51:21Z</time>
      </trkpt>
      <trkpt lat="44.51392" lon="4.40872">
        <ele>181.2</ele>
        <time>2022-06-05T08:51:22Z</time>
      </trkpt>
      <trkpt lat="44.51386" lon="4.40869">
        <ele>182.2</ele>
        <time>2022-06-05T08:51:24Z</time>
      </trkpt>
      <trkpt lat="44.51383" lon="4.40868">
        <ele>182.6</ele>
        <time>2022-06-05T08:51:25Z</time>
      </trkpt>
      <trkpt lat="44.5138" lon="4.40867">
        <ele>183</ele>
        <time>2022-06-05T08:51:26Z</time>
      </trkpt>
      <trkpt lat="44.51377" lon="4.40865">
        <ele>183.4</ele>
        <time>2022-06-05T08:51:27Z</time>
      </trkpt>
      <trkpt lat="44.51368" lon="4.40863">
        <ele>183.8</ele>
        <time>2022-06-05T08:51:30Z</time>
      </trkpt>
      <trkpt lat="44.51365" lon="4.40862">
        <ele>184.4</ele>
        <time>2022-06-05T08:51:31Z</time>
      </trkpt>
      <trkpt lat="44.51362" lon="4.40862">
        <ele>184.8</ele>
        <time>2022-06-05T08:51:32Z</time>
      </trkpt>
      <trkpt lat="44.5136" lon="4.40862">
        <ele>185.2</ele>
        <time>2022-06-05T08:51:33Z</time>
      </trkpt>
      <trkpt lat="44.51357" lon="4.40862">
        <ele>185.8</ele>
        <time>2022-06-05T08:51:34Z</time>
      </trkpt>
      <trkpt lat="44.5135" lon="4.40861">
        <ele>186.2</ele>
        <time>2022-06-05T08:51:37Z</time>
      </trkpt>
      <trkpt lat="44.51348" lon="4.40861">
        <ele>186.6</ele>
        <time>2022-06-05T08:51:38Z</time>
      </trkpt>
      <trkpt lat="44.51345" lon="4.4086">
        <ele>187</ele>
        <time>2022-06-05T08:51:39Z</time>
      </trkpt>
      <trkpt lat="44.51343" lon="4.4086">
        <ele>187.4</ele>
        <time>2022-06-05T08:51:40Z</time>
      </trkpt>
      <trkpt lat="44.5134" lon="4.40859">
        <ele>187.8</ele>
        <time>2022-06-05T08:51:41Z</time>
      </trkpt>
      <trkpt lat="44.51334" lon="4.40858">
        <ele>187.8</ele>
        <time>2022-06-05T08:51:43Z</time>
      </trkpt>
      <trkpt lat="44.51329" lon="4.40856">
        <ele>188.2</ele>
        <time>2022-06-05T08:51:45Z</time>
      </trkpt>
      <trkpt lat="44.51326" lon="4.40856">
        <ele>188.6</ele>
        <time>2022-06-05T08:51:46Z</time>
      </trkpt>
      <trkpt lat="44.51323" lon="4.40856">
        <ele>189</ele>
        <time>2022-06-05T08:51:47Z</time>
      </trkpt>
      <trkpt lat="44.5132" lon="4.40856">
        <ele>189.8</ele>
        <time>2022-06-05T08:51:48Z</time>
      </trkpt>
      <trkpt lat="44.5131" lon="4.40854">
        <ele>189.8</ele>
        <time>2022-06-05T08:51:52Z</time>
      </trkpt>
      <trkpt lat="44.51305" lon="4.40852">
        <ele>190.4</ele>
        <time>2022-06-05T08:51:54Z</time>
      </trkpt>
      <trkpt lat="44.51302" lon="4.40851">
        <ele>190.8</ele>
        <time>2022-06-05T08:51:55Z</time>
      </trkpt>
      <trkpt lat="44.513" lon="4.4085">
        <ele>191.2</ele>
        <time>2022-06-05T08:51:56Z</time>
      </trkpt>
      <trkpt lat="44.51297" lon="4.40849">
        <ele>191.6</ele>
        <time>2022-06-05T08:51:57Z</time>
      </trkpt>
      <trkpt lat="44.51294" lon="4.40849">
        <ele>192.2</ele>
        <time>2022-06-05T08:51:58Z</time>
      </trkpt>
      <trkpt lat="44.51282" lon="4.40842">
        <ele>192.2</ele>
        <time>2022-06-05T08:52:03Z</time>
      </trkpt>
      <trkpt lat="44.51269" lon="4.40835">
        <ele>192.6</ele>
        <time>2022-06-05T08:52:08Z</time>
      </trkpt>
      <trkpt lat="44.51267" lon="4.40833">
        <ele>193</ele>
        <time>2022-06-05T08:52:09Z</time>
      </trkpt>
      <trkpt lat="44.51265" lon="4.40832">
        <ele>193.4</ele>
        <time>2022-06-05T08:52:10Z</time>
      </trkpt>
      <trkpt lat="44.51263" lon="4.40831">
        <ele>194</ele>
        <time>2022-06-05T08:52:11Z</time>
      </trkpt>
      <trkpt lat="44.51261" lon="4.40829">
        <ele>194.4</ele>
        <time>2022-06-05T08:52:12Z</time>
      </trkpt>
      <trkpt lat="44.51254" lon="4.40824">
        <ele>194.8</ele>
        <time>2022-06-05T08:52:15Z</time>
      </trkpt>
      <trkpt lat="44.51252" lon="4.40822">
        <ele>195.4</ele>
        <time>2022-06-05T08:52:16Z</time>
      </trkpt>
      <trkpt lat="44.51249" lon="4.40821">
        <ele>195.8</ele>
        <time>2022-06-05T08:52:17Z</time>
      </trkpt>
      <trkpt lat="44.51247" lon="4.40819">
        <ele>196.2</ele>
        <time>2022-06-05T08:52:18Z</time>
      </trkpt>
      <trkpt lat="44.51246" lon="4.40817">
        <ele>196.8</ele>
        <time>2022-06-05T08:52:19Z</time>
      </trkpt>
      <trkpt lat="44.51244" lon="4.40815">
        <ele>196.8</ele>
        <time>2022-06-05T08:52:20Z</time>
      </trkpt>
      <trkpt lat="44.51224" lon="4.40796">
        <ele>196.8</ele>
        <time>2022-06-05T08:52:30Z</time>
      </trkpt>
      <trkpt lat="44.51223" lon="4.40796">
        <ele>196.8</ele>
        <time>2022-06-05T08:52:31Z</time>
      </trkpt>
      <trkpt lat="44.51222" lon="4.40794">
        <ele>197.6</ele>
        <time>2022-06-05T08:53:00Z</time>
      </trkpt>
      <trkpt lat="44.51221" lon="4.40792">
        <ele>198</ele>
        <time>2022-06-05T08:53:01Z</time>
      </trkpt>
      <trkpt lat="44.5122" lon="4.4079">
        <ele>198.8</ele>
        <time>2022-06-05T08:53:02Z</time>
      </trkpt>
      <trkpt lat="44.51209" lon="4.40766">
        <ele>198.8</ele>
        <time>2022-06-05T08:53:10Z</time>
      </trkpt>
      <trkpt lat="44.51198" lon="4.40747">
        <ele>199.2</ele>
        <time>2022-06-05T08:53:17Z</time>
      </trkpt>
      <trkpt lat="44.51197" lon="4.40744">
        <ele>199.6</ele>
        <time>2022-06-05T08:53:18Z</time>
      </trkpt>
      <trkpt lat="44.51196" lon="4.40741">
        <ele>200</ele>
        <time>2022-06-05T08:53:19Z</time>
      </trkpt>
      <trkpt lat="44.51194" lon="4.40737">
        <ele>200.4</ele>
        <time>2022-06-05T08:53:20Z</time>
      </trkpt>
      <trkpt lat="44.51193" lon="4.40734">
        <ele>200.8</ele>
        <time>2022-06-05T08:53:21Z</time>
      </trkpt>
      <trkpt lat="44.51183" lon="4.40714">
        <ele>201.2</ele>
        <time>2022-06-05T08:53:28Z</time>
      </trkpt>
      <trkpt lat="44.51181" lon="4.40711">
        <ele>201.6</ele>
        <time>2022-06-05T08:53:29Z</time>
      </trkpt>
      <trkpt lat="44.5118" lon="4.40709">
        <ele>202</ele>
        <time>2022-06-05T08:53:30Z</time>
      </trkpt>
      <trkpt lat="44.51178" lon="4.40706">
        <ele>202.4</ele>
        <time>2022-06-05T08:53:31Z</time>
      </trkpt>
      <trkpt lat="44.51176" lon="4.40703">
        <ele>203</ele>
        <time>2022-06-05T08:53:32Z</time>
      </trkpt>
      <trkpt lat="44.51166" lon="4.40686">
        <ele>203</ele>
        <time>2022-06-05T08:53:38Z</time>
      </trkpt>
      <trkpt lat="44.51164" lon="4.40684">
        <ele>203.4</ele>
        <time>2022-06-05T08:53:39Z</time>
      </trkpt>
      <trkpt lat="44.51163" lon="4.40681">
        <ele>203.8</ele>
        <time>2022-06-05T08:53:40Z</time>
      </trkpt>
      <trkpt lat="44.51161" lon="4.40678">
        <ele>204.2</ele>
        <time>2022-06-05T08:53:41Z</time>
      </trkpt>
      <trkpt lat="44.51159" lon="4.40675">
        <ele>204.8</ele>
        <time>2022-06-05T08:53:42Z</time>
      </trkpt>
      <trkpt lat="44.51158" lon="4.40673">
        <ele>205.2</ele>
        <time>2022-06-05T08:53:43Z</time>
      </trkpt>
      <trkpt lat="44.51149" lon="4.4066">
        <ele>205.2</ele>
        <time>2022-06-05T08:53:48Z</time>
      </trkpt>
      <trkpt lat="44.51148" lon="4.40657">
        <ele>205.6</ele>
        <time>2022-06-05T08:53:49Z</time>
      </trkpt>
      <trkpt lat="44.51146" lon="4.40655">
        <ele>206</ele>
        <time>2022-06-05T08:53:50Z</time>
      </trkpt>
      <trkpt lat="44.51145" lon="4.40652">
        <ele>206.4</ele>
        <time>2022-06-05T08:53:51Z</time>
      </trkpt>
      <trkpt lat="44.51143" lon="4.40649">
        <ele>207.2</ele>
        <time>2022-06-05T08:53:52Z</time>
      </trkpt>
      <trkpt lat="44.51135" lon="4.40636">
        <ele>207.6</ele>
        <time>2022-06-05T08:53:57Z</time>
      </trkpt>
      <trkpt lat="44.51133" lon="4.40633">
        <ele>208</ele>
        <time>2022-06-05T08:53:58Z</time>
      </trkpt>
      <trkpt lat="44.51132" lon="4.40631">
        <ele>208.6</ele>
        <time>2022-06-05T08:53:59Z</time>
      </trkpt>
      <trkpt lat="44.5113" lon="4.40628">
        <ele>209</ele>
        <time>2022-06-05T08:54:00Z</time>
      </trkpt>
      <trkpt lat="44.51128" lon="4.40626">
        <ele>209.4</ele>
        <time>2022-06-05T08:54:01Z</time>
      </trkpt>
      <trkpt lat="44.51114" lon="4.40612">
        <ele>209.4</ele>
        <time>2022-06-05T08:54:08Z</time>
      </trkpt>
      <trkpt lat="44.51112" lon="4.4061">
        <ele>209.8</ele>
        <time>2022-06-05T08:54:09Z</time>
      </trkpt>
      <trkpt lat="44.51111" lon="4.40607">
        <ele>210.2</ele>
        <time>2022-06-05T08:54:10Z</time>
      </trkpt>
      <trkpt lat="44.51109" lon="4.40604">
        <ele>210.6</ele>
        <time>2022-06-05T08:54:11Z</time>
      </trkpt>
      <trkpt lat="44.51108" lon="4.40602">
        <ele>211</ele>
        <time>2022-06-05T08:54:12Z</time>
      </trkpt>
      <trkpt lat="44.51106" lon="4.40599">
        <ele>211.6</ele>
        <time>2022-06-05T08:54:13Z</time>
      </trkpt>
      <trkpt lat="44.51098" lon="4.40591">
        <ele>211.6</ele>
        <time>2022-06-05T08:54:17Z</time>
      </trkpt>
      <trkpt lat="44.51084" lon="4.40583">
        <ele>212</ele>
        <time>2022-06-05T08:54:23Z</time>
      </trkpt>
      <trkpt lat="44.51081" lon="4.40583">
        <ele>212.4</ele>
        <time>2022-06-05T08:54:24Z</time>
      </trkpt>
      <trkpt lat="44.51079" lon="4.40582">
        <ele>212.8</ele>
        <time>2022-06-05T08:54:25Z</time>
      </trkpt>
      <trkpt lat="44.51076" lon="4.40581">
        <ele>213.2</ele>
        <time>2022-06-05T08:54:26Z</time>
      </trkpt>
      <trkpt lat="44.51074" lon="4.4058">
        <ele>213.6</ele>
        <time>2022-06-05T08:54:27Z</time>
      </trkpt>
      <trkpt lat="44.51062" lon="4.40574">
        <ele>214</ele>
        <time>2022-06-05T08:54:32Z</time>
      </trkpt>
      <trkpt lat="44.5106" lon="4.40572">
        <ele>214.6</ele>
        <time>2022-06-05T08:54:33Z</time>
      </trkpt>
      <trkpt lat="44.51058" lon="4.4057">
        <ele>215</ele>
        <time>2022-06-05T08:54:34Z</time>
      </trkpt>
      <trkpt lat="44.51056" lon="4.40568">
        <ele>215.4</ele>
        <time>2022-06-05T08:54:35Z</time>
      </trkpt>
      <trkpt lat="44.51055" lon="4.40564">
        <ele>216</ele>
        <time>2022-06-05T08:54:36Z</time>
      </trkpt>
      <trkpt lat="44.51052" lon="4.40556">
        <ele>216</ele>
        <time>2022-06-05T08:54:39Z</time>
      </trkpt>
      <trkpt lat="44.51055" lon="4.40537">
        <ele>216</ele>
        <time>2022-06-05T08:54:44Z</time>
      </trkpt>
      <trkpt lat="44.51056" lon="4.40534">
        <ele>216.4</ele>
        <time>2022-06-05T08:54:45Z</time>
      </trkpt>
      <trkpt lat="44.51057" lon="4.4053">
        <ele>216.8</ele>
        <time>2022-06-05T08:54:46Z</time>
      </trkpt>
      <trkpt lat="44.51058" lon="4.40526">
        <ele>217.6</ele>
        <time>2022-06-05T08:54:47Z</time>
      </trkpt>
      <trkpt lat="44.51059" lon="4.40522">
        <ele>218</ele>
        <time>2022-06-05T08:54:48Z</time>
      </trkpt>
      <trkpt lat="44.51058" lon="4.40508">
        <ele>218</ele>
        <time>2022-06-05T08:54:52Z</time>
      </trkpt>
      <trkpt lat="44.51056" lon="4.40498">
        <ele>218.4</ele>
        <time>2022-06-05T08:54:55Z</time>
      </trkpt>
      <trkpt lat="44.51054" lon="4.40495">
        <ele>218.8</ele>
        <time>2022-06-05T08:54:56Z</time>
      </trkpt>
      <trkpt lat="44.51053" lon="4.40492">
        <ele>219.2</ele>
        <time>2022-06-05T08:54:57Z</time>
      </trkpt>
      <trkpt lat="44.5105" lon="4.40491">
        <ele>219.6</ele>
        <time>2022-06-05T08:54:58Z</time>
      </trkpt>
      <trkpt lat="44.51048" lon="4.40489">
        <ele>220</ele>
        <time>2022-06-05T08:54:59Z</time>
      </trkpt>
      <trkpt lat="44.51036" lon="4.40487">
        <ele>220</ele>
        <time>2022-06-05T08:55:04Z</time>
      </trkpt>
      <trkpt lat="44.51014" lon="4.40482">
        <ele>220</ele>
        <time>2022-06-05T08:55:12Z</time>
      </trkpt>
      <trkpt lat="44.51013" lon="4.40482">
        <ele>220</ele>
        <time>2022-06-05T08:55:14Z</time>
      </trkpt>
      <trkpt lat="44.5101" lon="4.40477">
        <ele>218</ele>
        <time>2022-06-05T09:09:22Z</time>
      </trkpt>
      <trkpt lat="44.50996" lon="4.40471">
        <ele>217.6</ele>
        <time>2022-06-05T09:09:29Z</time>
      </trkpt>
      <trkpt lat="44.50993" lon="4.4047">
        <ele>217.2</ele>
        <time>2022-06-05T09:09:30Z</time>
      </trkpt>
      <trkpt lat="44.5099" lon="4.40469">
        <ele>216.8</ele>
        <time>2022-06-05T09:09:31Z</time>
      </trkpt>
      <trkpt lat="44.50987" lon="4.40468">
        <ele>216.4</ele>
        <time>2022-06-05T09:09:32Z</time>
      </trkpt>
      <trkpt lat="44.50983" lon="4.40467">
        <ele>216</ele>
        <time>2022-06-05T09:09:33Z</time>
      </trkpt>
      <trkpt lat="44.50974" lon="4.40464">
        <ele>216</ele>
        <time>2022-06-05T09:09:36Z</time>
      </trkpt>
      <trkpt lat="44.50959" lon="4.40454">
        <ele>216</ele>
        <time>2022-06-05T09:09:42Z</time>
      </trkpt>
      <trkpt lat="44.50957" lon="4.40452">
        <ele>216</ele>
        <time>2022-06-05T09:09:44Z</time>
      </trkpt>
      <trkpt lat="44.50954" lon="4.40445">
        <ele>216</ele>
        <time>2022-06-05T09:10:09Z</time>
      </trkpt>
      <trkpt lat="44.50954" lon="4.40441">
        <ele>216</ele>
        <time>2022-06-05T09:10:11Z</time>
      </trkpt>
      <trkpt lat="44.50955" lon="4.40436">
        <ele>216</ele>
        <time>2022-06-05T09:10:14Z</time>
      </trkpt>
      <trkpt lat="44.50959" lon="4.40422">
        <ele>216</ele>
        <time>2022-06-05T09:10:20Z</time>
      </trkpt>
      <trkpt lat="44.50962" lon="4.40403">
        <ele>216</ele>
        <time>2022-06-05T09:10:28Z</time>
      </trkpt>
      <trkpt lat="44.5095" lon="4.40393">
        <ele>216</ele>
        <time>2022-06-05T09:10:34Z</time>
      </trkpt>
      <trkpt lat="44.50944" lon="4.40372">
        <ele>216</ele>
        <time>2022-06-05T09:10:40Z</time>
      </trkpt>
      <trkpt lat="44.50945" lon="4.40361">
        <ele>215.4</ele>
        <time>2022-06-05T09:10:42Z</time>
      </trkpt>
      <trkpt lat="44.50946" lon="4.40355">
        <ele>215</ele>
        <time>2022-06-05T09:10:43Z</time>
      </trkpt>
      <trkpt lat="44.50947" lon="4.4035">
        <ele>214.6</ele>
        <time>2022-06-05T09:10:44Z</time>
      </trkpt>
      <trkpt lat="44.50948" lon="4.40345">
        <ele>214</ele>
        <time>2022-06-05T09:10:45Z</time>
      </trkpt>
      <trkpt lat="44.50949" lon="4.40341">
        <ele>213.6</ele>
        <time>2022-06-05T09:10:46Z</time>
      </trkpt>
      <trkpt lat="44.50954" lon="4.40325">
        <ele>213.2</ele>
        <time>2022-06-05T09:10:49Z</time>
      </trkpt>
      <trkpt lat="44.50955" lon="4.4032">
        <ele>212.6</ele>
        <time>2022-06-05T09:10:50Z</time>
      </trkpt>
      <trkpt lat="44.50956" lon="4.40315">
        <ele>212.2</ele>
        <time>2022-06-05T09:10:51Z</time>
      </trkpt>
      <trkpt lat="44.50957" lon="4.4031">
        <ele>211.8</ele>
        <time>2022-06-05T09:10:52Z</time>
      </trkpt>
      <trkpt lat="44.50958" lon="4.40304">
        <ele>211.2</ele>
        <time>2022-06-05T09:10:53Z</time>
      </trkpt>
      <trkpt lat="44.50959" lon="4.40294">
        <ele>211.2</ele>
        <time>2022-06-05T09:10:55Z</time>
      </trkpt>
      <trkpt lat="44.50965" lon="4.40249">
        <ele>211.2</ele>
        <time>2022-06-05T09:11:04Z</time>
      </trkpt>
      <trkpt lat="44.5097" lon="4.402">
        <ele>211.2</ele>
        <time>2022-06-05T09:11:14Z</time>
      </trkpt>
      <trkpt lat="44.50973" lon="4.40178">
        <ele>211.6</ele>
        <time>2022-06-05T09:11:19Z</time>
      </trkpt>
      <trkpt lat="44.50974" lon="4.40173">
        <ele>212</ele>
        <time>2022-06-05T09:11:20Z</time>
      </trkpt>
      <trkpt lat="44.50974" lon="4.40169">
        <ele>212.4</ele>
        <time>2022-06-05T09:11:21Z</time>
      </trkpt>
      <trkpt lat="44.50975" lon="4.40165">
        <ele>212.8</ele>
        <time>2022-06-05T09:11:22Z</time>
      </trkpt>
      <trkpt lat="44.50976" lon="4.40161">
        <ele>213.4</ele>
        <time>2022-06-05T09:11:23Z</time>
      </trkpt>
      <trkpt lat="44.50989" lon="4.40125">
        <ele>213.4</ele>
        <time>2022-06-05T09:11:32Z</time>
      </trkpt>
      <trkpt lat="44.50996" lon="4.40108">
        <ele>212.8</ele>
        <time>2022-06-05T09:11:35Z</time>
      </trkpt>
      <trkpt lat="44.50998" lon="4.40103">
        <ele>212.4</ele>
        <time>2022-06-05T09:11:36Z</time>
      </trkpt>
      <trkpt lat="44.51" lon="4.40097">
        <ele>212</ele>
        <time>2022-06-05T09:11:37Z</time>
      </trkpt>
      <trkpt lat="44.51002" lon="4.40091">
        <ele>211.6</ele>
        <time>2022-06-05T09:11:38Z</time>
      </trkpt>
      <trkpt lat="44.51004" lon="4.40085">
        <ele>211.2</ele>
        <time>2022-06-05T09:11:39Z</time>
      </trkpt>
      <trkpt lat="44.51006" lon="4.40079">
        <ele>211.2</ele>
        <time>2022-06-05T09:11:40Z</time>
      </trkpt>
      <trkpt lat="44.51023" lon="4.40039">
        <ele>211.2</ele>
        <time>2022-06-05T09:11:48Z</time>
      </trkpt>
      <trkpt lat="44.5103" lon="4.40017">
        <ele>211.2</ele>
        <time>2022-06-05T09:11:55Z</time>
      </trkpt>
      <trkpt lat="44.51034" lon="4.40002">
        <ele>211.2</ele>
        <time>2022-06-05T09:12:02Z</time>
      </trkpt>
      <trkpt lat="44.51034" lon="4.39999">
        <ele>211.2</ele>
        <time>2022-06-05T09:13:49Z</time>
      </trkpt>
      <trkpt lat="44.51036" lon="4.3998">
        <ele>211.2</ele>
        <time>2022-06-05T09:13:55Z</time>
      </trkpt>
      <trkpt lat="44.51047" lon="4.39939">
        <ele>211.2</ele>
        <time>2022-06-05T09:14:05Z</time>
      </trkpt>
      <trkpt lat="44.51061" lon="4.39894">
        <ele>211.2</ele>
        <time>2022-06-05T09:14:15Z</time>
      </trkpt>
      <trkpt lat="44.51075" lon="4.39851">
        <ele>211.2</ele>
        <time>2022-06-05T09:14:24Z</time>
      </trkpt>
      <trkpt lat="44.51092" lon="4.39788">
        <ele>211.2</ele>
        <time>2022-06-05T09:14:35Z</time>
      </trkpt>
      <trkpt lat="44.51108" lon="4.39749">
        <ele>211.2</ele>
        <time>2022-06-05T09:14:42Z</time>
      </trkpt>
      <trkpt lat="44.51126" lon="4.39705">
        <ele>211.2</ele>
        <time>2022-06-05T09:14:50Z</time>
      </trkpt>
      <trkpt lat="44.51152" lon="4.39652">
        <ele>211.2</ele>
        <time>2022-06-05T09:15:01Z</time>
      </trkpt>
      <trkpt lat="44.51171" lon="4.39618">
        <ele>211.2</ele>
        <time>2022-06-05T09:15:10Z</time>
      </trkpt>
      <trkpt lat="44.51181" lon="4.39589">
        <ele>211.2</ele>
        <time>2022-06-05T09:15:17Z</time>
      </trkpt>
      <trkpt lat="44.51183" lon="4.3956">
        <ele>211.2</ele>
        <time>2022-06-05T09:15:23Z</time>
      </trkpt>
      <trkpt lat="44.5119" lon="4.3953">
        <ele>211.2</ele>
        <time>2022-06-05T09:15:31Z</time>
      </trkpt>
      <trkpt lat="44.51198" lon="4.39509">
        <ele>211.6</ele>
        <time>2022-06-05T09:15:37Z</time>
      </trkpt>
      <trkpt lat="44.51199" lon="4.39505">
        <ele>212.2</ele>
        <time>2022-06-05T09:15:38Z</time>
      </trkpt>
      <trkpt lat="44.51201" lon="4.39502">
        <ele>212.6</ele>
        <time>2022-06-05T09:15:39Z</time>
      </trkpt>
      <trkpt lat="44.51203" lon="4.39498">
        <ele>213</ele>
        <time>2022-06-05T09:15:40Z</time>
      </trkpt>
      <trkpt lat="44.51205" lon="4.39494">
        <ele>213.4</ele>
        <time>2022-06-05T09:15:41Z</time>
      </trkpt>
      <trkpt lat="44.51214" lon="4.39462">
        <ele>213.4</ele>
        <time>2022-06-05T09:15:49Z</time>
      </trkpt>
      <trkpt lat="44.51215" lon="4.39442">
        <ele>213.8</ele>
        <time>2022-06-05T09:15:55Z</time>
      </trkpt>
      <trkpt lat="44.51216" lon="4.39439">
        <ele>214.2</ele>
        <time>2022-06-05T09:15:56Z</time>
      </trkpt>
      <trkpt lat="44.51216" lon="4.39434">
        <ele>214.6</ele>
        <time>2022-06-05T09:15:57Z</time>
      </trkpt>
      <trkpt lat="44.51216" lon="4.3943">
        <ele>215</ele>
        <time>2022-06-05T09:15:58Z</time>
      </trkpt>
      <trkpt lat="44.51216" lon="4.39425">
        <ele>215.4</ele>
        <time>2022-06-05T09:15:59Z</time>
      </trkpt>
      <trkpt lat="44.51214" lon="4.39421">
        <ele>215.4</ele>
        <time>2022-06-05T09:16:00Z</time>
      </trkpt>
      <trkpt lat="44.51212" lon="4.39418">
        <ele>215.4</ele>
        <time>2022-06-05T09:16:01Z</time>
      </trkpt>
      <trkpt lat="44.51204" lon="4.39412">
        <ele>215</ele>
        <time>2022-06-05T09:16:03Z</time>
      </trkpt>
      <trkpt lat="44.51199" lon="4.39411">
        <ele>214.6</ele>
        <time>2022-06-05T09:16:04Z</time>
      </trkpt>
      <trkpt lat="44.51194" lon="4.3941">
        <ele>214</ele>
        <time>2022-06-05T09:16:05Z</time>
      </trkpt>
      <trkpt lat="44.51188" lon="4.39411">
        <ele>213.6</ele>
        <time>2022-06-05T09:16:06Z</time>
      </trkpt>
      <trkpt lat="44.51183" lon="4.39412">
        <ele>213.2</ele>
        <time>2022-06-05T09:16:07Z</time>
      </trkpt>
      <trkpt lat="44.51178" lon="4.39413">
        <ele>213.2</ele>
        <time>2022-06-05T09:16:08Z</time>
      </trkpt>
      <trkpt lat="44.51173" lon="4.39414">
        <ele>213.2</ele>
        <time>2022-06-05T09:16:09Z</time>
      </trkpt>
      <trkpt lat="44.51149" lon="4.39416">
        <ele>213.2</ele>
        <time>2022-06-05T09:16:15Z</time>
      </trkpt>
      <trkpt lat="44.51118" lon="4.39409">
        <ele>213.2</ele>
        <time>2022-06-05T09:16:24Z</time>
      </trkpt>
      <trkpt lat="44.51115" lon="4.39407">
        <ele>212.2</ele>
        <time>2022-06-05T09:16:25Z</time>
      </trkpt>
      <trkpt lat="44.51112" lon="4.39405">
        <ele>211.8</ele>
        <time>2022-06-05T09:16:26Z</time>
      </trkpt>
      <trkpt lat="44.51109" lon="4.39401">
        <ele>211.4</ele>
        <time>2022-06-05T09:16:27Z</time>
      </trkpt>
      <trkpt lat="44.51105" lon="4.39398">
        <ele>211</ele>
        <time>2022-06-05T09:16:28Z</time>
      </trkpt>
      <trkpt lat="44.51102" lon="4.39394">
        <ele>211</ele>
        <time>2022-06-05T09:16:29Z</time>
      </trkpt>
      <trkpt lat="44.51098" lon="4.39389">
        <ele>210.6</ele>
        <time>2022-06-05T09:16:30Z</time>
      </trkpt>
      <trkpt lat="44.51095" lon="4.39384">
        <ele>210.2</ele>
        <time>2022-06-05T09:16:31Z</time>
      </trkpt>
      <trkpt lat="44.51091" lon="4.3938">
        <ele>209.6</ele>
        <time>2022-06-05T09:16:32Z</time>
      </trkpt>
      <trkpt lat="44.51088" lon="4.39375">
        <ele>209.2</ele>
        <time>2022-06-05T09:16:33Z</time>
      </trkpt>
      <trkpt lat="44.51085" lon="4.3937">
        <ele>208.8</ele>
        <time>2022-06-05T09:16:34Z</time>
      </trkpt>
      <trkpt lat="44.51079" lon="4.39361">
        <ele>208.4</ele>
        <time>2022-06-05T09:16:36Z</time>
      </trkpt>
      <trkpt lat="44.51077" lon="4.39357">
        <ele>208</ele>
        <time>2022-06-05T09:16:37Z</time>
      </trkpt>
      <trkpt lat="44.51074" lon="4.39353">
        <ele>207.4</ele>
        <time>2022-06-05T09:16:38Z</time>
      </trkpt>
      <trkpt lat="44.51071" lon="4.39349">
        <ele>207</ele>
        <time>2022-06-05T09:16:39Z</time>
      </trkpt>
      <trkpt lat="44.51068" lon="4.39345">
        <ele>206.4</ele>
        <time>2022-06-05T09:16:40Z</time>
      </trkpt>
      <trkpt lat="44.51063" lon="4.39336">
        <ele>206</ele>
        <time>2022-06-05T09:16:42Z</time>
      </trkpt>
      <trkpt lat="44.5106" lon="4.39331">
        <ele>205.6</ele>
        <time>2022-06-05T09:16:43Z</time>
      </trkpt>
      <trkpt lat="44.51057" lon="4.39327">
        <ele>205</ele>
        <time>2022-06-05T09:16:44Z</time>
      </trkpt>
      <trkpt lat="44.51054" lon="4.39322">
        <ele>204.6</ele>
        <time>2022-06-05T09:16:45Z</time>
      </trkpt>
      <trkpt lat="44.51051" lon="4.39317">
        <ele>204</ele>
        <time>2022-06-05T09:16:46Z</time>
      </trkpt>
      <trkpt lat="44.51048" lon="4.39313">
        <ele>203.4</ele>
        <time>2022-06-05T09:16:47Z</time>
      </trkpt>
      <trkpt lat="44.51043" lon="4.3931">
        <ele>203</ele>
        <time>2022-06-05T09:16:48Z</time>
      </trkpt>
      <trkpt lat="44.51038" lon="4.39308">
        <ele>201.8</ele>
        <time>2022-06-05T09:16:49Z</time>
      </trkpt>
      <trkpt lat="44.51032" lon="4.39305">
        <ele>201</ele>
        <time>2022-06-05T09:16:50Z</time>
      </trkpt>
      <trkpt lat="44.51027" lon="4.39302">
        <ele>200.4</ele>
        <time>2022-06-05T09:16:51Z</time>
      </trkpt>
      <trkpt lat="44.51021" lon="4.393">
        <ele>199.6</ele>
        <time>2022-06-05T09:16:52Z</time>
      </trkpt>
      <trkpt lat="44.51016" lon="4.39298">
        <ele>199</ele>
        <time>2022-06-05T09:16:53Z</time>
      </trkpt>
      <trkpt lat="44.51011" lon="4.39296">
        <ele>198.2</ele>
        <time>2022-06-05T09:16:54Z</time>
      </trkpt>
      <trkpt lat="44.51006" lon="4.39294">
        <ele>197.6</ele>
        <time>2022-06-05T09:16:55Z</time>
      </trkpt>
      <trkpt lat="44.51002" lon="4.39291">
        <ele>196.8</ele>
        <time>2022-06-05T09:16:56Z</time>
      </trkpt>
      <trkpt lat="44.50997" lon="4.39289">
        <ele>196</ele>
        <time>2022-06-05T09:16:57Z</time>
      </trkpt>
      <trkpt lat="44.50993" lon="4.39286">
        <ele>195.4</ele>
        <time>2022-06-05T09:16:58Z</time>
      </trkpt>
      <trkpt lat="44.5099" lon="4.39285">
        <ele>194.6</ele>
        <time>2022-06-05T09:16:59Z</time>
      </trkpt>
      <trkpt lat="44.50987" lon="4.39284">
        <ele>194</ele>
        <time>2022-06-05T09:17:00Z</time>
      </trkpt>
      <trkpt lat="44.50984" lon="4.39283">
        <ele>193.4</ele>
        <time>2022-06-05T09:17:01Z</time>
      </trkpt>
      <trkpt lat="44.50981" lon="4.39282">
        <ele>192.8</ele>
        <time>2022-06-05T09:17:02Z</time>
      </trkpt>
      <trkpt lat="44.50978" lon="4.39281">
        <ele>192.2</ele>
        <time>2022-06-05T09:17:03Z</time>
      </trkpt>
      <trkpt lat="44.50975" lon="4.3928">
        <ele>191.6</ele>
        <time>2022-06-05T09:17:04Z</time>
      </trkpt>
      <trkpt lat="44.50972" lon="4.39278">
        <ele>191</ele>
        <time>2022-06-05T09:17:05Z</time>
      </trkpt>
      <trkpt lat="44.50969" lon="4.39277">
        <ele>190.6</ele>
        <time>2022-06-05T09:17:06Z</time>
      </trkpt>
      <trkpt lat="44.50965" lon="4.39274">
        <ele>190.2</ele>
        <time>2022-06-05T09:17:07Z</time>
      </trkpt>
      <trkpt lat="44.50961" lon="4.39272">
        <ele>189.6</ele>
        <time>2022-06-05T09:17:08Z</time>
      </trkpt>
      <trkpt lat="44.50957" lon="4.39269">
        <ele>189.2</ele>
        <time>2022-06-05T09:17:09Z</time>
      </trkpt>
      <trkpt lat="44.50952" lon="4.39266">
        <ele>188.6</ele>
        <time>2022-06-05T09:17:10Z</time>
      </trkpt>
      <trkpt lat="44.50947" lon="4.39263">
        <ele>188.2</ele>
        <time>2022-06-05T09:17:11Z</time>
      </trkpt>
      <trkpt lat="44.50941" lon="4.39259">
        <ele>187.6</ele>
        <time>2022-06-05T09:17:12Z</time>
      </trkpt>
      <trkpt lat="44.50935" lon="4.39256">
        <ele>187</ele>
        <time>2022-06-05T09:17:13Z</time>
      </trkpt>
      <trkpt lat="44.50928" lon="4.39252">
        <ele>185.6</ele>
        <time>2022-06-05T09:17:14Z</time>
      </trkpt>
      <trkpt lat="44.50922" lon="4.39249">
        <ele>185</ele>
        <time>2022-06-05T09:17:15Z</time>
      </trkpt>
      <trkpt lat="44.50916" lon="4.39246">
        <ele>184.4</ele>
        <time>2022-06-05T09:17:16Z</time>
      </trkpt>
      <trkpt lat="44.5091" lon="4.39243">
        <ele>183.6</ele>
        <time>2022-06-05T09:17:17Z</time>
      </trkpt>
      <trkpt lat="44.50905" lon="4.3924">
        <ele>183</ele>
        <time>2022-06-05T09:17:18Z</time>
      </trkpt>
      <trkpt lat="44.50899" lon="4.39237">
        <ele>182.2</ele>
        <time>2022-06-05T09:17:19Z</time>
      </trkpt>
      <trkpt lat="44.50894" lon="4.39234">
        <ele>181.6</ele>
        <time>2022-06-05T09:17:20Z</time>
      </trkpt>
      <trkpt lat="44.50889" lon="4.39231">
        <ele>181</ele>
        <time>2022-06-05T09:17:21Z</time>
      </trkpt>
      <trkpt lat="44.50884" lon="4.39229">
        <ele>180.6</ele>
        <time>2022-06-05T09:17:22Z</time>
      </trkpt>
      <trkpt lat="44.5088" lon="4.39226">
        <ele>180</ele>
        <time>2022-06-05T09:17:23Z</time>
      </trkpt>
      <trkpt lat="44.50877" lon="4.39224">
        <ele>179.6</ele>
        <time>2022-06-05T09:17:24Z</time>
      </trkpt>
      <trkpt lat="44.50874" lon="4.39222">
        <ele>179</ele>
        <time>2022-06-05T09:17:25Z</time>
      </trkpt>
      <trkpt lat="44.50869" lon="4.39219">
        <ele>178.6</ele>
        <time>2022-06-05T09:17:27Z</time>
      </trkpt>
      <trkpt lat="44.50866" lon="4.39218">
        <ele>178.2</ele>
        <time>2022-06-05T09:17:28Z</time>
      </trkpt>
      <trkpt lat="44.50864" lon="4.39216">
        <ele>177.8</ele>
        <time>2022-06-05T09:17:29Z</time>
      </trkpt>
      <trkpt lat="44.50862" lon="4.39214">
        <ele>177.4</ele>
        <time>2022-06-05T09:17:30Z</time>
      </trkpt>
      <trkpt lat="44.5086" lon="4.39211">
        <ele>177</ele>
        <time>2022-06-05T09:17:31Z</time>
      </trkpt>
      <trkpt lat="44.50857" lon="4.39207">
        <ele>177</ele>
        <time>2022-06-05T09:17:33Z</time>
      </trkpt>
      <trkpt lat="44.50856" lon="4.39204">
        <ele>176.4</ele>
        <time>2022-06-05T09:17:34Z</time>
      </trkpt>
      <trkpt lat="44.50855" lon="4.39202">
        <ele>176</ele>
        <time>2022-06-05T09:17:35Z</time>
      </trkpt>
      <trkpt lat="44.50854" lon="4.39199">
        <ele>175.6</ele>
        <time>2022-06-05T09:17:36Z</time>
      </trkpt>
      <trkpt lat="44.50852" lon="4.39196">
        <ele>175.2</ele>
        <time>2022-06-05T09:17:37Z</time>
      </trkpt>
      <trkpt lat="44.50851" lon="4.39193">
        <ele>174.6</ele>
        <time>2022-06-05T09:17:38Z</time>
      </trkpt>
      <trkpt lat="44.50846" lon="4.39185">
        <ele>174.6</ele>
        <time>2022-06-05T09:17:41Z</time>
      </trkpt>
      <trkpt lat="44.50844" lon="4.39182">
        <ele>174.2</ele>
        <time>2022-06-05T09:17:42Z</time>
      </trkpt>
      <trkpt lat="44.50843" lon="4.3918">
        <ele>173.8</ele>
        <time>2022-06-05T09:17:43Z</time>
      </trkpt>
      <trkpt lat="44.50841" lon="4.39178">
        <ele>173.4</ele>
        <time>2022-06-05T09:17:44Z</time>
      </trkpt>
      <trkpt lat="44.50839" lon="4.39176">
        <ele>173</ele>
        <time>2022-06-05T09:17:45Z</time>
      </trkpt>
      <trkpt lat="44.50837" lon="4.39174">
        <ele>172.6</ele>
        <time>2022-06-05T09:17:46Z</time>
      </trkpt>
      <trkpt lat="44.50833" lon="4.39171">
        <ele>172.6</ele>
        <time>2022-06-05T09:17:48Z</time>
      </trkpt>
      <trkpt lat="44.50827" lon="4.39167">
        <ele>172</ele>
        <time>2022-06-05T09:17:51Z</time>
      </trkpt>
      <trkpt lat="44.50826" lon="4.39165">
        <ele>171.6</ele>
        <time>2022-06-05T09:17:52Z</time>
      </trkpt>
      <trkpt lat="44.50824" lon="4.39164">
        <ele>171.2</ele>
        <time>2022-06-05T09:17:53Z</time>
      </trkpt>
      <trkpt lat="44.50822" lon="4.39163">
        <ele>170.6</ele>
        <time>2022-06-05T09:17:54Z</time>
      </trkpt>
      <trkpt lat="44.5082" lon="4.39163">
        <ele>170.2</ele>
        <time>2022-06-05T09:17:55Z</time>
      </trkpt>
      <trkpt lat="44.50817" lon="4.39163">
        <ele>170.2</ele>
        <time>2022-06-05T09:17:56Z</time>
      </trkpt>
      <trkpt lat="44.50806" lon="4.39173">
        <ele>170.2</ele>
        <time>2022-06-05T09:18:00Z</time>
      </trkpt>
      <trkpt lat="44.50804" lon="4.39177">
        <ele>169.8</ele>
        <time>2022-06-05T09:18:01Z</time>
      </trkpt>
      <trkpt lat="44.50801" lon="4.39181">
        <ele>169.4</ele>
        <time>2022-06-05T09:18:02Z</time>
      </trkpt>
      <trkpt lat="44.50798" lon="4.39184">
        <ele>168.6</ele>
        <time>2022-06-05T09:18:03Z</time>
      </trkpt>
      <trkpt lat="44.50796" lon="4.39188">
        <ele>168.2</ele>
        <time>2022-06-05T09:18:04Z</time>
      </trkpt>
      <trkpt lat="44.50778" lon="4.39213">
        <ele>168.2</ele>
        <time>2022-06-05T09:18:11Z</time>
      </trkpt>
      <trkpt lat="44.50757" lon="4.39255">
        <ele>168.2</ele>
        <time>2022-06-05T09:18:21Z</time>
      </trkpt>
      <trkpt lat="44.50754" lon="4.3929">
        <ele>168.2</ele>
        <time>2022-06-05T09:18:29Z</time>
      </trkpt>
      <trkpt lat="44.50755" lon="4.39328">
        <ele>168.2</ele>
        <time>2022-06-05T09:18:39Z</time>
      </trkpt>
      <trkpt lat="44.50752" lon="4.39334">
        <ele>168.2</ele>
        <time>2022-06-05T09:18:42Z</time>
      </trkpt>
      <trkpt lat="44.5075" lon="4.39334">
        <ele>168.2</ele>
        <time>2022-06-05T09:18:43Z</time>
      </trkpt>
      <trkpt lat="44.50742" lon="4.39323">
        <ele>167.8</ele>
        <time>2022-06-05T09:18:47Z</time>
      </trkpt>
      <trkpt lat="44.50741" lon="4.39319">
        <ele>167.4</ele>
        <time>2022-06-05T09:18:48Z</time>
      </trkpt>
      <trkpt lat="44.5074" lon="4.39314">
        <ele>167</ele>
        <time>2022-06-05T09:18:49Z</time>
      </trkpt>
      <trkpt lat="44.50738" lon="4.39309">
        <ele>166.6</ele>
        <time>2022-06-05T09:18:50Z</time>
      </trkpt>
      <trkpt lat="44.50737" lon="4.39304">
        <ele>166</ele>
        <time>2022-06-05T09:18:51Z</time>
      </trkpt>
      <trkpt lat="44.50734" lon="4.39289">
        <ele>165.6</ele>
        <time>2022-06-05T09:18:54Z</time>
      </trkpt>
      <trkpt lat="44.50733" lon="4.39283">
        <ele>165.2</ele>
        <time>2022-06-05T09:18:55Z</time>
      </trkpt>
      <trkpt lat="44.50733" lon="4.39277">
        <ele>164.8</ele>
        <time>2022-06-05T09:18:56Z</time>
      </trkpt>
      <trkpt lat="44.50733" lon="4.39272">
        <ele>164.4</ele>
        <time>2022-06-05T09:18:57Z</time>
      </trkpt>
      <trkpt lat="44.50734" lon="4.39266">
        <ele>164</ele>
        <time>2022-06-05T09:18:58Z</time>
      </trkpt>
      <trkpt lat="44.50734" lon="4.39261">
        <ele>163.6</ele>
        <time>2022-06-05T09:18:59Z</time>
      </trkpt>
      <trkpt lat="44.50735" lon="4.39256">
        <ele>163.2</ele>
        <time>2022-06-05T09:19:00Z</time>
      </trkpt>
      <trkpt lat="44.50736" lon="4.39251">
        <ele>162.8</ele>
        <time>2022-06-05T09:19:01Z</time>
      </trkpt>
      <trkpt lat="44.50736" lon="4.39245">
        <ele>162.2</ele>
        <time>2022-06-05T09:19:02Z</time>
      </trkpt>
      <trkpt lat="44.50737" lon="4.3924">
        <ele>161.8</ele>
        <time>2022-06-05T09:19:03Z</time>
      </trkpt>
      <trkpt lat="44.50737" lon="4.39228">
        <ele>161.4</ele>
        <time>2022-06-05T09:19:06Z</time>
      </trkpt>
      <trkpt lat="44.50737" lon="4.39225">
        <ele>161</ele>
        <time>2022-06-05T09:19:07Z</time>
      </trkpt>
      <trkpt lat="44.50737" lon="4.39224">
        <ele>160.4</ele>
        <time>2022-06-05T09:19:08Z</time>
      </trkpt>
      <trkpt lat="44.50737" lon="4.39222">
        <ele>160</ele>
        <time>2022-06-05T09:19:09Z</time>
      </trkpt>
      <trkpt lat="44.50738" lon="4.39217">
        <ele>159.6</ele>
        <time>2022-06-05T09:19:23Z</time>
      </trkpt>
      <trkpt lat="44.50737" lon="4.39215">
        <ele>159.6</ele>
        <time>2022-06-05T09:19:24Z</time>
      </trkpt>
      <trkpt lat="44.50736" lon="4.3919">
        <ele>160</ele>
        <time>2022-06-05T09:19:32Z</time>
      </trkpt>
      <trkpt lat="44.50737" lon="4.39186">
        <ele>160.4</ele>
        <time>2022-06-05T09:19:33Z</time>
      </trkpt>
      <trkpt lat="44.50737" lon="4.39182">
        <ele>160.8</ele>
        <time>2022-06-05T09:19:34Z</time>
      </trkpt>
      <trkpt lat="44.50738" lon="4.39179">
        <ele>161.2</ele>
        <time>2022-06-05T09:19:35Z</time>
      </trkpt>
      <trkpt lat="44.50738" lon="4.39175">
        <ele>161.6</ele>
        <time>2022-06-05T09:19:36Z</time>
      </trkpt>
      <trkpt lat="44.50736" lon="4.39156">
        <ele>162.4</ele>
        <time>2022-06-05T09:19:41Z</time>
      </trkpt>
      <trkpt lat="44.50736" lon="4.39153">
        <ele>162.8</ele>
        <time>2022-06-05T09:19:42Z</time>
      </trkpt>
      <trkpt lat="44.50735" lon="4.39149">
        <ele>163.2</ele>
        <time>2022-06-05T09:19:43Z</time>
      </trkpt>
      <trkpt lat="44.50734" lon="4.39145">
        <ele>163.8</ele>
        <time>2022-06-05T09:19:44Z</time>
      </trkpt>
      <trkpt lat="44.50733" lon="4.3912">
        <ele>163.8</ele>
        <time>2022-06-05T09:19:51Z</time>
      </trkpt>
      <trkpt lat="44.50733" lon="4.39111">
        <ele>164.2</ele>
        <time>2022-06-05T09:19:54Z</time>
      </trkpt>
      <trkpt lat="44.50733" lon="4.39108">
        <ele>164.6</ele>
        <time>2022-06-05T09:19:55Z</time>
      </trkpt>
      <trkpt lat="44.50733" lon="4.39105">
        <ele>165</ele>
        <time>2022-06-05T09:19:56Z</time>
      </trkpt>
      <trkpt lat="44.50732" lon="4.39102">
        <ele>165.4</ele>
        <time>2022-06-05T09:19:57Z</time>
      </trkpt>
      <trkpt lat="44.50733" lon="4.39099">
        <ele>165.8</ele>
        <time>2022-06-05T09:19:58Z</time>
      </trkpt>
      <trkpt lat="44.50733" lon="4.39096">
        <ele>165.8</ele>
        <time>2022-06-05T09:19:59Z</time>
      </trkpt>
      <trkpt lat="44.50739" lon="4.39079">
        <ele>166.6</ele>
        <time>2022-06-05T09:20:06Z</time>
      </trkpt>
      <trkpt lat="44.5074" lon="4.39077">
        <ele>167</ele>
        <time>2022-06-05T09:20:07Z</time>
      </trkpt>
      <trkpt lat="44.50741" lon="4.39076">
        <ele>167.4</ele>
        <time>2022-06-05T09:20:08Z</time>
      </trkpt>
      <trkpt lat="44.50742" lon="4.39074">
        <ele>167.8</ele>
        <time>2022-06-05T09:20:09Z</time>
      </trkpt>
      <trkpt lat="44.50747" lon="4.39064">
        <ele>168.2</ele>
        <time>2022-06-05T09:20:15Z</time>
      </trkpt>
      <trkpt lat="44.50748" lon="4.39063">
        <ele>168.6</ele>
        <time>2022-06-05T09:20:16Z</time>
      </trkpt>
      <trkpt lat="44.50749" lon="4.39061">
        <ele>169.2</ele>
        <time>2022-06-05T09:20:17Z</time>
      </trkpt>
      <trkpt lat="44.5075" lon="4.39059">
        <ele>169.6</ele>
        <time>2022-06-05T09:20:18Z</time>
      </trkpt>
      <trkpt lat="44.50752" lon="4.39057">
        <ele>170</ele>
        <time>2022-06-05T09:20:19Z</time>
      </trkpt>
      <trkpt lat="44.50756" lon="4.39048">
        <ele>170.4</ele>
        <time>2022-06-05T09:20:24Z</time>
      </trkpt>
      <trkpt lat="44.50757" lon="4.39046">
        <ele>170.8</ele>
        <time>2022-06-05T09:20:25Z</time>
      </trkpt>
      <trkpt lat="44.50758" lon="4.39044">
        <ele>171.2</ele>
        <time>2022-06-05T09:20:26Z</time>
      </trkpt>
      <trkpt lat="44.50758" lon="4.39041">
        <ele>171.6</ele>
        <time>2022-06-05T09:20:27Z</time>
      </trkpt>
      <trkpt lat="44.50759" lon="4.39039">
        <ele>172</ele>
        <time>2022-06-05T09:20:28Z</time>
      </trkpt>
      <trkpt lat="44.50766" lon="4.39027">
        <ele>172</ele>
        <time>2022-06-05T09:20:34Z</time>
      </trkpt>
      <trkpt lat="44.50767" lon="4.39025">
        <ele>172.4</ele>
        <time>2022-06-05T09:20:35Z</time>
      </trkpt>
      <trkpt lat="44.50769" lon="4.39023">
        <ele>172.8</ele>
        <time>2022-06-05T09:20:36Z</time>
      </trkpt>
      <trkpt lat="44.5077" lon="4.3902">
        <ele>173.2</ele>
        <time>2022-06-05T09:20:37Z</time>
      </trkpt>
      <trkpt lat="44.50771" lon="4.39018">
        <ele>173.6</ele>
        <time>2022-06-05T09:20:38Z</time>
      </trkpt>
      <trkpt lat="44.50773" lon="4.39016">
        <ele>174.2</ele>
        <time>2022-06-05T09:20:39Z</time>
      </trkpt>
      <trkpt lat="44.50778" lon="4.39002">
        <ele>174.2</ele>
        <time>2022-06-05T09:20:45Z</time>
      </trkpt>
      <trkpt lat="44.50779" lon="4.38999">
        <ele>174.6</ele>
        <time>2022-06-05T09:20:46Z</time>
      </trkpt>
      <trkpt lat="44.50779" lon="4.38997">
        <ele>175</ele>
        <time>2022-06-05T09:20:47Z</time>
      </trkpt>
      <trkpt lat="44.50779" lon="4.38995">
        <ele>175.4</ele>
        <time>2022-06-05T09:20:48Z</time>
      </trkpt>
      <trkpt lat="44.50779" lon="4.38992">
        <ele>175.8</ele>
        <time>2022-06-05T09:20:49Z</time>
      </trkpt>
      <trkpt lat="44.50779" lon="4.38989">
        <ele>176.2</ele>
        <time>2022-06-05T09:20:50Z</time>
      </trkpt>
      <trkpt lat="44.50777" lon="4.38982">
        <ele>176.2</ele>
        <time>2022-06-05T09:20:53Z</time>
      </trkpt>
      <trkpt lat="44.50774" lon="4.38965">
        <ele>176.2</ele>
        <time>2022-06-05T09:21:01Z</time>
      </trkpt>
      <trkpt lat="44.50776" lon="4.38959">
        <ele>176.6</ele>
        <time>2022-06-05T09:21:04Z</time>
      </trkpt>
      <trkpt lat="44.50777" lon="4.38957">
        <ele>177</ele>
        <time>2022-06-05T09:21:05Z</time>
      </trkpt>
      <trkpt lat="44.50779" lon="4.38955">
        <ele>177.6</ele>
        <time>2022-06-05T09:21:06Z</time>
      </trkpt>
      <trkpt lat="44.5078" lon="4.38953">
        <ele>178</ele>
        <time>2022-06-05T09:21:07Z</time>
      </trkpt>
      <trkpt lat="44.50782" lon="4.38951">
        <ele>178.4</ele>
        <time>2022-06-05T09:21:08Z</time>
      </trkpt>
      <trkpt lat="44.50793" lon="4.38941">
        <ele>178.8</ele>
        <time>2022-06-05T09:21:15Z</time>
      </trkpt>
      <trkpt lat="44.50795" lon="4.38939">
        <ele>179.2</ele>
        <time>2022-06-05T09:21:16Z</time>
      </trkpt>
      <trkpt lat="44.50797" lon="4.38937">
        <ele>179.8</ele>
        <time>2022-06-05T09:21:17Z</time>
      </trkpt>
      <trkpt lat="44.50798" lon="4.38936">
        <ele>180.2</ele>
        <time>2022-06-05T09:21:18Z</time>
      </trkpt>
      <trkpt lat="44.508" lon="4.38934">
        <ele>180.6</ele>
        <time>2022-06-05T09:21:19Z</time>
      </trkpt>
      <trkpt lat="44.50803" lon="4.3893">
        <ele>180.6</ele>
        <time>2022-06-05T09:21:21Z</time>
      </trkpt>
      <trkpt lat="44.50818" lon="4.38906">
        <ele>180.6</ele>
        <time>2022-06-05T09:21:31Z</time>
      </trkpt>
      <trkpt lat="44.50823" lon="4.38896">
        <ele>181</ele>
        <time>2022-06-05T09:21:35Z</time>
      </trkpt>
      <trkpt lat="44.50824" lon="4.38893">
        <ele>181.4</ele>
        <time>2022-06-05T09:21:36Z</time>
      </trkpt>
      <trkpt lat="44.50825" lon="4.38891">
        <ele>181.8</ele>
        <time>2022-06-05T09:21:37Z</time>
      </trkpt>
      <trkpt lat="44.50826" lon="4.38888">
        <ele>182.2</ele>
        <time>2022-06-05T09:21:38Z</time>
      </trkpt>
      <trkpt lat="44.50828" lon="4.38885">
        <ele>182.6</ele>
        <time>2022-06-05T09:21:39Z</time>
      </trkpt>
      <trkpt lat="44.50832" lon="4.38878">
        <ele>182.6</ele>
        <time>2022-06-05T09:21:42Z</time>
      </trkpt>
      <trkpt lat="44.50847" lon="4.38843">
        <ele>182.6</ele>
        <time>2022-06-05T09:21:54Z</time>
      </trkpt>
      <trkpt lat="44.50847" lon="4.38819">
        <ele>182.6</ele>
        <time>2022-06-05T09:22:00Z</time>
      </trkpt>
      <trkpt lat="44.50847" lon="4.38774">
        <ele>182.6</ele>
        <time>2022-06-05T09:22:08Z</time>
      </trkpt>
      <trkpt lat="44.50848" lon="4.38744">
        <ele>182.6</ele>
        <time>2022-06-05T09:22:14Z</time>
      </trkpt>
      <trkpt lat="44.50849" lon="4.38738">
        <ele>182.2</ele>
        <time>2022-06-05T09:22:17Z</time>
      </trkpt>
      <trkpt lat="44.50849" lon="4.38736">
        <ele>181.8</ele>
        <time>2022-06-05T09:22:18Z</time>
      </trkpt>
      <trkpt lat="44.5085" lon="4.38733">
        <ele>181.4</ele>
        <time>2022-06-05T09:22:19Z</time>
      </trkpt>
      <trkpt lat="44.5085" lon="4.3873">
        <ele>181</ele>
        <time>2022-06-05T09:22:20Z</time>
      </trkpt>
      <trkpt lat="44.5085" lon="4.38727">
        <ele>180.6</ele>
        <time>2022-06-05T09:22:21Z</time>
      </trkpt>
      <trkpt lat="44.50852" lon="4.38703">
        <ele>180.6</ele>
        <time>2022-06-05T09:22:26Z</time>
      </trkpt>
      <trkpt lat="44.50852" lon="4.38698">
        <ele>180.2</ele>
        <time>2022-06-05T09:22:27Z</time>
      </trkpt>
      <trkpt lat="44.50852" lon="4.38694">
        <ele>179.8</ele>
        <time>2022-06-05T09:22:28Z</time>
      </trkpt>
      <trkpt lat="44.50852" lon="4.38689">
        <ele>179.4</ele>
        <time>2022-06-05T09:22:29Z</time>
      </trkpt>
      <trkpt lat="44.50851" lon="4.38685">
        <ele>179</ele>
        <time>2022-06-05T09:22:30Z</time>
      </trkpt>
      <trkpt lat="44.50851" lon="4.38681">
        <ele>178.6</ele>
        <time>2022-06-05T09:22:31Z</time>
      </trkpt>
      <trkpt lat="44.50851" lon="4.38672">
        <ele>178.2</ele>
        <time>2022-06-05T09:22:33Z</time>
      </trkpt>
      <trkpt lat="44.50851" lon="4.38668">
        <ele>177.8</ele>
        <time>2022-06-05T09:22:34Z</time>
      </trkpt>
      <trkpt lat="44.50851" lon="4.38665">
        <ele>177.4</ele>
        <time>2022-06-05T09:22:35Z</time>
      </trkpt>
      <trkpt lat="44.50852" lon="4.38662">
        <ele>176.4</ele>
        <time>2022-06-05T09:22:36Z</time>
      </trkpt>
      <trkpt lat="44.50853" lon="4.38652">
        <ele>176.4</ele>
        <time>2022-06-05T09:22:40Z</time>
      </trkpt>
      <trkpt lat="44.50854" lon="4.38649">
        <ele>176.4</ele>
        <time>2022-06-05T09:22:42Z</time>
      </trkpt>
      <trkpt lat="44.50854" lon="4.38645">
        <ele>174.2</ele>
        <time>2022-06-05T09:22:51Z</time>
      </trkpt>
      <trkpt lat="44.50854" lon="4.38639">
        <ele>174.2</ele>
        <time>2022-06-05T09:22:53Z</time>
      </trkpt>
      <trkpt lat="44.5086" lon="4.38608">
        <ele>174.2</ele>
        <time>2022-06-05T09:23:00Z</time>
      </trkpt>
      <trkpt lat="44.5086" lon="4.38603">
        <ele>173.6</ele>
        <time>2022-06-05T09:23:01Z</time>
      </trkpt>
      <trkpt lat="44.5086" lon="4.38598">
        <ele>173</ele>
        <time>2022-06-05T09:23:02Z</time>
      </trkpt>
      <trkpt lat="44.5086" lon="4.38593">
        <ele>172.6</ele>
        <time>2022-06-05T09:23:03Z</time>
      </trkpt>
      <trkpt lat="44.5086" lon="4.38589">
        <ele>172</ele>
        <time>2022-06-05T09:23:04Z</time>
      </trkpt>
      <trkpt lat="44.5086" lon="4.38584">
        <ele>171.6</ele>
        <time>2022-06-05T09:23:05Z</time>
      </trkpt>
      <trkpt lat="44.50861" lon="4.3858">
        <ele>171</ele>
        <time>2022-06-05T09:23:06Z</time>
      </trkpt>
      <trkpt lat="44.50861" lon="4.38575">
        <ele>170.6</ele>
        <time>2022-06-05T09:23:07Z</time>
      </trkpt>
      <trkpt lat="44.50861" lon="4.38572">
        <ele>170</ele>
        <time>2022-06-05T09:23:08Z</time>
      </trkpt>
      <trkpt lat="44.50861" lon="4.38569">
        <ele>169.4</ele>
        <time>2022-06-05T09:23:09Z</time>
      </trkpt>
      <trkpt lat="44.50861" lon="4.38567">
        <ele>168.8</ele>
        <time>2022-06-05T09:23:10Z</time>
      </trkpt>
      <trkpt lat="44.50862" lon="4.38565">
        <ele>168.2</ele>
        <time>2022-06-05T09:23:11Z</time>
      </trkpt>
      <trkpt lat="44.50862" lon="4.38563">
        <ele>167.6</ele>
        <time>2022-06-05T09:23:12Z</time>
      </trkpt>
      <trkpt lat="44.50863" lon="4.38561">
        <ele>167</ele>
        <time>2022-06-05T09:23:13Z</time>
      </trkpt>
      <trkpt lat="44.50863" lon="4.38559">
        <ele>167</ele>
        <time>2022-06-05T09:23:14Z</time>
      </trkpt>
      <trkpt lat="44.50862" lon="4.38547">
        <ele>160.6</ele>
        <time>2022-06-05T09:24:01Z</time>
      </trkpt>
      <trkpt lat="44.50861" lon="4.38539">
        <ele>160.6</ele>
        <time>2022-06-05T09:24:04Z</time>
      </trkpt>
      <trkpt lat="44.5086" lon="4.38536">
        <ele>160.6</ele>
        <time>2022-06-05T09:24:06Z</time>
      </trkpt>
      <trkpt lat="44.50857" lon="4.38527">
        <ele>160.6</ele>
        <time>2022-06-05T09:24:39Z</time>
      </trkpt>
      <trkpt lat="44.50856" lon="4.3852">
        <ele>160.6</ele>
        <time>2022-06-05T09:24:43Z</time>
      </trkpt>
      <trkpt lat="44.50856" lon="4.38516">
        <ele>160.6</ele>
        <time>2022-06-05T09:24:59Z</time>
      </trkpt>
      <trkpt lat="44.50855" lon="4.38504">
        <ele>160.6</ele>
        <time>2022-06-05T09:25:03Z</time>
      </trkpt>
      <trkpt lat="44.50855" lon="4.38495">
        <ele>160.2</ele>
        <time>2022-06-05T09:25:05Z</time>
      </trkpt>
      <trkpt lat="44.50855" lon="4.38491">
        <ele>159.8</ele>
        <time>2022-06-05T09:25:06Z</time>
      </trkpt>
      <trkpt lat="44.50854" lon="4.38486">
        <ele>159.4</ele>
        <time>2022-06-05T09:25:07Z</time>
      </trkpt>
      <trkpt lat="44.50854" lon="4.3848">
        <ele>159</ele>
        <time>2022-06-05T09:25:08Z</time>
      </trkpt>
      <trkpt lat="44.50853" lon="4.38474">
        <ele>158</ele>
        <time>2022-06-05T09:25:09Z</time>
      </trkpt>
      <trkpt lat="44.50852" lon="4.38468">
        <ele>157.6</ele>
        <time>2022-06-05T09:25:10Z</time>
      </trkpt>
      <trkpt lat="44.50851" lon="4.38461">
        <ele>157.2</ele>
        <time>2022-06-05T09:25:11Z</time>
      </trkpt>
      <trkpt lat="44.50849" lon="4.38455">
        <ele>156.8</ele>
        <time>2022-06-05T09:25:12Z</time>
      </trkpt>
      <trkpt lat="44.50847" lon="4.38447">
        <ele>156.4</ele>
        <time>2022-06-05T09:25:13Z</time>
      </trkpt>
      <trkpt lat="44.50845" lon="4.3844">
        <ele>156.4</ele>
        <time>2022-06-05T09:25:14Z</time>
      </trkpt>
      <trkpt lat="44.50833" lon="4.38409">
        <ele>156.4</ele>
        <time>2022-06-05T09:25:20Z</time>
      </trkpt>
      <trkpt lat="44.50827" lon="4.38393">
        <ele>156.4</ele>
        <time>2022-06-05T09:25:25Z</time>
      </trkpt>
      <trkpt lat="44.50822" lon="4.3837">
        <ele>156.4</ele>
        <time>2022-06-05T09:25:32Z</time>
      </trkpt>
      <trkpt lat="44.50819" lon="4.38349">
        <ele>156.8</ele>
        <time>2022-06-05T09:25:39Z</time>
      </trkpt>
      <trkpt lat="44.50818" lon="4.38347">
        <ele>157.2</ele>
        <time>2022-06-05T09:25:40Z</time>
      </trkpt>
      <trkpt lat="44.50818" lon="4.38345">
        <ele>157.6</ele>
        <time>2022-06-05T09:25:41Z</time>
      </trkpt>
      <trkpt lat="44.50817" lon="4.38343">
        <ele>158</ele>
        <time>2022-06-05T09:25:42Z</time>
      </trkpt>
      <trkpt lat="44.50817" lon="4.38341">
        <ele>158.4</ele>
        <time>2022-06-05T09:25:43Z</time>
      </trkpt>
      <trkpt lat="44.50817" lon="4.38334">
        <ele>158.4</ele>
        <time>2022-06-05T09:26:08Z</time>
      </trkpt>
      <trkpt lat="44.50816" lon="4.38327">
        <ele>158.4</ele>
        <time>2022-06-05T09:26:11Z</time>
      </trkpt>
      <trkpt lat="44.50815" lon="4.3832">
        <ele>158.8</ele>
        <time>2022-06-05T09:26:14Z</time>
      </trkpt>
      <trkpt lat="44.50815" lon="4.38317">
        <ele>159.2</ele>
        <time>2022-06-05T09:26:15Z</time>
      </trkpt>
      <trkpt lat="44.50815" lon="4.38314">
        <ele>159.6</ele>
        <time>2022-06-05T09:26:16Z</time>
      </trkpt>
      <trkpt lat="44.50815" lon="4.38311">
        <ele>160</ele>
        <time>2022-06-05T09:26:17Z</time>
      </trkpt>
      <trkpt lat="44.50815" lon="4.38308">
        <ele>160.6</ele>
        <time>2022-06-05T09:26:18Z</time>
      </trkpt>
      <trkpt lat="44.50816" lon="4.38305">
        <ele>160.6</ele>
        <time>2022-06-05T09:26:19Z</time>
      </trkpt>
      <trkpt lat="44.50816" lon="4.38302">
        <ele>161</ele>
        <time>2022-06-05T09:26:20Z</time>
      </trkpt>
      <trkpt lat="44.50816" lon="4.38298">
        <ele>161.4</ele>
        <time>2022-06-05T09:26:21Z</time>
      </trkpt>
      <trkpt lat="44.50817" lon="4.38295">
        <ele>161.8</ele>
        <time>2022-06-05T09:26:22Z</time>
      </trkpt>
      <trkpt lat="44.50817" lon="4.38292">
        <ele>162.6</ele>
        <time>2022-06-05T09:26:23Z</time>
      </trkpt>
      <trkpt lat="44.50818" lon="4.38287">
        <ele>163</ele>
        <time>2022-06-05T09:26:25Z</time>
      </trkpt>
      <trkpt lat="44.50818" lon="4.38285">
        <ele>163.4</ele>
        <time>2022-06-05T09:26:26Z</time>
      </trkpt>
      <trkpt lat="44.50818" lon="4.38282">
        <ele>163.8</ele>
        <time>2022-06-05T09:26:27Z</time>
      </trkpt>
      <trkpt lat="44.50818" lon="4.3828">
        <ele>164.2</ele>
        <time>2022-06-05T09:26:28Z</time>
      </trkpt>
      <trkpt lat="44.50818" lon="4.38278">
        <ele>164.6</ele>
        <time>2022-06-05T09:26:29Z</time>
      </trkpt>
      <trkpt lat="44.50818" lon="4.38271">
        <ele>165.2</ele>
        <time>2022-06-05T09:26:32Z</time>
      </trkpt>
      <trkpt lat="44.50819" lon="4.38268">
        <ele>165.6</ele>
        <time>2022-06-05T09:26:33Z</time>
      </trkpt>
      <trkpt lat="44.50819" lon="4.38266">
        <ele>166</ele>
        <time>2022-06-05T09:26:34Z</time>
      </trkpt>
      <trkpt lat="44.5082" lon="4.38263">
        <ele>166.4</ele>
        <time>2022-06-05T09:26:35Z</time>
      </trkpt>
      <trkpt lat="44.5082" lon="4.38261">
        <ele>167</ele>
        <time>2022-06-05T09:26:36Z</time>
      </trkpt>
      <trkpt lat="44.5082" lon="4.38258">
        <ele>167</ele>
        <time>2022-06-05T09:26:37Z</time>
      </trkpt>
      <trkpt lat="44.5082" lon="4.38249">
        <ele>167.4</ele>
        <time>2022-06-05T09:26:41Z</time>
      </trkpt>
      <trkpt lat="44.5082" lon="4.38246">
        <ele>168</ele>
        <time>2022-06-05T09:26:42Z</time>
      </trkpt>
      <trkpt lat="44.50821" lon="4.38244">
        <ele>168.6</ele>
        <time>2022-06-05T09:26:43Z</time>
      </trkpt>
      <trkpt lat="44.50821" lon="4.38241">
        <ele>169</ele>
        <time>2022-06-05T09:26:44Z</time>
      </trkpt>
      <trkpt lat="44.50821" lon="4.38239">
        <ele>169.6</ele>
        <time>2022-06-05T09:26:45Z</time>
      </trkpt>
      <trkpt lat="44.50822" lon="4.38232">
        <ele>170</ele>
        <time>2022-06-05T09:26:47Z</time>
      </trkpt>
      <trkpt lat="44.50822" lon="4.3823">
        <ele>170.8</ele>
        <time>2022-06-05T09:26:48Z</time>
      </trkpt>
      <trkpt lat="44.50823" lon="4.38228">
        <ele>171.4</ele>
        <time>2022-06-05T09:26:49Z</time>
      </trkpt>
      <trkpt lat="44.50823" lon="4.38226">
        <ele>171.8</ele>
        <time>2022-06-05T09:26:50Z</time>
      </trkpt>
      <trkpt lat="44.50823" lon="4.38219">
        <ele>172.2</ele>
        <time>2022-06-05T09:26:53Z</time>
      </trkpt>
      <trkpt lat="44.50824" lon="4.38216">
        <ele>172.6</ele>
        <time>2022-06-05T09:26:54Z</time>
      </trkpt>
      <trkpt lat="44.50824" lon="4.38213">
        <ele>173</ele>
        <time>2022-06-05T09:26:55Z</time>
      </trkpt>
      <trkpt lat="44.50825" lon="4.38211">
        <ele>173.4</ele>
        <time>2022-06-05T09:26:56Z</time>
      </trkpt>
      <trkpt lat="44.50825" lon="4.38209">
        <ele>174</ele>
        <time>2022-06-05T09:26:57Z</time>
      </trkpt>
      <trkpt lat="44.50826" lon="4.38207">
        <ele>174</ele>
        <time>2022-06-05T09:26:58Z</time>
      </trkpt>
      <trkpt lat="44.50838" lon="4.38119">
        <ele>196</ele>
        <time>2022-06-05T09:31:18Z</time>
      </trkpt>
      <trkpt lat="44.50838" lon="4.38116">
        <ele>196</ele>
        <time>2022-06-05T09:31:19Z</time>
      </trkpt>
      <trkpt lat="44.50837" lon="4.38113">
        <ele>196.4</ele>
        <time>2022-06-05T09:31:20Z</time>
      </trkpt>
      <trkpt lat="44.50837" lon="4.38111">
        <ele>196.8</ele>
        <time>2022-06-05T09:31:21Z</time>
      </trkpt>
      <trkpt lat="44.50837" lon="4.38108">
        <ele>197.2</ele>
        <time>2022-06-05T09:31:22Z</time>
      </trkpt>
      <trkpt lat="44.50837" lon="4.38105">
        <ele>197.6</ele>
        <time>2022-06-05T09:31:23Z</time>
      </trkpt>
      <trkpt lat="44.50837" lon="4.38103">
        <ele>198</ele>
        <time>2022-06-05T09:31:24Z</time>
      </trkpt>
      <trkpt lat="44.50837" lon="4.38101">
        <ele>198.6</ele>
        <time>2022-06-05T09:31:25Z</time>
      </trkpt>
      <trkpt lat="44.50837" lon="4.38098">
        <ele>199</ele>
        <time>2022-06-05T09:31:26Z</time>
      </trkpt>
      <trkpt lat="44.50837" lon="4.38095">
        <ele>199.4</ele>
        <time>2022-06-05T09:31:27Z</time>
      </trkpt>
      <trkpt lat="44.50837" lon="4.38092">
        <ele>199.8</ele>
        <time>2022-06-05T09:31:28Z</time>
      </trkpt>
      <trkpt lat="44.50837" lon="4.3809">
        <ele>200.2</ele>
        <time>2022-06-05T09:31:29Z</time>
      </trkpt>
      <trkpt lat="44.50838" lon="4.38083">
        <ele>200.6</ele>
        <time>2022-06-05T09:31:32Z</time>
      </trkpt>
      <trkpt lat="44.50838" lon="4.38081">
        <ele>201</ele>
        <time>2022-06-05T09:31:33Z</time>
      </trkpt>
      <trkpt lat="44.50839" lon="4.38078">
        <ele>201.6</ele>
        <time>2022-06-05T09:31:34Z</time>
      </trkpt>
      <trkpt lat="44.5084" lon="4.38076">
        <ele>202</ele>
        <time>2022-06-05T09:31:35Z</time>
      </trkpt>
      <trkpt lat="44.5084" lon="4.38074">
        <ele>202.4</ele>
        <time>2022-06-05T09:31:36Z</time>
      </trkpt>
      <trkpt lat="44.50842" lon="4.38061">
        <ele>202.4</ele>
        <time>2022-06-05T09:31:42Z</time>
      </trkpt>
      <trkpt lat="44.50842" lon="4.38059">
        <ele>202.8</ele>
        <time>2022-06-05T09:31:43Z</time>
      </trkpt>
      <trkpt lat="44.50842" lon="4.38057">
        <ele>203.2</ele>
        <time>2022-06-05T09:31:44Z</time>
      </trkpt>
      <trkpt lat="44.50842" lon="4.38055">
        <ele>204.2</ele>
        <time>2022-06-05T09:31:45Z</time>
      </trkpt>
      <trkpt lat="44.50842" lon="4.38052">
        <ele>204.6</ele>
        <time>2022-06-05T09:31:46Z</time>
      </trkpt>
      <trkpt lat="44.50846" lon="4.38035">
        <ele>204.6</ele>
        <time>2022-06-05T09:31:53Z</time>
      </trkpt>
      <trkpt lat="44.50852" lon="4.38009">
        <ele>204.6</ele>
        <time>2022-06-05T09:32:02Z</time>
      </trkpt>
      <trkpt lat="44.50854" lon="4.37999">
        <ele>204.6</ele>
        <time>2022-06-05T09:32:08Z</time>
      </trkpt>
      <trkpt lat="44.50862" lon="4.37989">
        <ele>204.6</ele>
        <time>2022-06-05T09:32:23Z</time>
      </trkpt>
      <trkpt lat="44.50863" lon="4.37986">
        <ele>204.6</ele>
        <time>2022-06-05T09:32:24Z</time>
      </trkpt>
      <trkpt lat="44.50869" lon="4.37959">
        <ele>204.6</ele>
        <time>2022-06-05T09:32:30Z</time>
      </trkpt>
      <trkpt lat="44.50872" lon="4.37942">
        <ele>204.2</ele>
        <time>2022-06-05T09:32:33Z</time>
      </trkpt>
      <trkpt lat="44.50873" lon="4.37935">
        <ele>203.6</ele>
        <time>2022-06-05T09:32:34Z</time>
      </trkpt>
      <trkpt lat="44.50874" lon="4.37927">
        <ele>202.8</ele>
        <time>2022-06-05T09:32:35Z</time>
      </trkpt>
      <trkpt lat="44.50875" lon="4.3792">
        <ele>202.4</ele>
        <time>2022-06-05T09:32:36Z</time>
      </trkpt>
      <trkpt lat="44.50875" lon="4.37892">
        <ele>201.8</ele>
        <time>2022-06-05T09:32:40Z</time>
      </trkpt>
      <trkpt lat="44.50874" lon="4.37885">
        <ele>201.4</ele>
        <time>2022-06-05T09:32:41Z</time>
      </trkpt>
      <trkpt lat="44.50873" lon="4.37878">
        <ele>201</ele>
        <time>2022-06-05T09:32:42Z</time>
      </trkpt>
      <trkpt lat="44.50872" lon="4.3787">
        <ele>200.6</ele>
        <time>2022-06-05T09:32:43Z</time>
      </trkpt>
      <trkpt lat="44.50871" lon="4.37863">
        <ele>200</ele>
        <time>2022-06-05T09:32:44Z</time>
      </trkpt>
      <trkpt lat="44.50872" lon="4.37839">
        <ele>199.6</ele>
        <time>2022-06-05T09:32:48Z</time>
      </trkpt>
      <trkpt lat="44.50872" lon="4.37833">
        <ele>199</ele>
        <time>2022-06-05T09:32:49Z</time>
      </trkpt>
      <trkpt lat="44.50873" lon="4.37827">
        <ele>198.6</ele>
        <time>2022-06-05T09:32:50Z</time>
      </trkpt>
      <trkpt lat="44.50873" lon="4.37821">
        <ele>198</ele>
        <time>2022-06-05T09:32:51Z</time>
      </trkpt>
      <trkpt lat="44.50874" lon="4.37814">
        <ele>197.4</ele>
        <time>2022-06-05T09:32:52Z</time>
      </trkpt>
      <trkpt lat="44.50874" lon="4.37807">
        <ele>196.8</ele>
        <time>2022-06-05T09:32:53Z</time>
      </trkpt>
      <trkpt lat="44.50875" lon="4.37801">
        <ele>196.2</ele>
        <time>2022-06-05T09:32:54Z</time>
      </trkpt>
      <trkpt lat="44.50876" lon="4.37794">
        <ele>195.6</ele>
        <time>2022-06-05T09:32:55Z</time>
      </trkpt>
      <trkpt lat="44.50878" lon="4.37787">
        <ele>195.6</ele>
        <time>2022-06-05T09:32:56Z</time>
      </trkpt>
      <trkpt lat="44.50881" lon="4.37754">
        <ele>195.6</ele>
        <time>2022-06-05T09:33:02Z</time>
      </trkpt>
      <trkpt lat="44.50888" lon="4.37735">
        <ele>195.6</ele>
        <time>2022-06-05T09:33:08Z</time>
      </trkpt>
      <trkpt lat="44.50892" lon="4.37724">
        <ele>196</ele>
        <time>2022-06-05T09:33:12Z</time>
      </trkpt>
      <trkpt lat="44.50894" lon="4.37721">
        <ele>196.4</ele>
        <time>2022-06-05T09:33:13Z</time>
      </trkpt>
      <trkpt lat="44.50895" lon="4.37718">
        <ele>196.8</ele>
        <time>2022-06-05T09:33:14Z</time>
      </trkpt>
      <trkpt lat="44.50896" lon="4.37716">
        <ele>197.2</ele>
        <time>2022-06-05T09:33:15Z</time>
      </trkpt>
      <trkpt lat="44.50897" lon="4.37713">
        <ele>197.6</ele>
        <time>2022-06-05T09:33:16Z</time>
      </trkpt>
      <trkpt lat="44.50904" lon="4.37694">
        <ele>198.2</ele>
        <time>2022-06-05T09:33:22Z</time>
      </trkpt>
      <trkpt lat="44.50905" lon="4.37692">
        <ele>198.6</ele>
        <time>2022-06-05T09:33:23Z</time>
      </trkpt>
      <trkpt lat="44.50906" lon="4.3769">
        <ele>199.4</ele>
        <time>2022-06-05T09:33:24Z</time>
      </trkpt>
      <trkpt lat="44.50907" lon="4.37688">
        <ele>200</ele>
        <time>2022-06-05T09:33:25Z</time>
      </trkpt>
      <trkpt lat="44.50908" lon="4.37685">
        <ele>200</ele>
        <time>2022-06-05T09:33:26Z</time>
      </trkpt>
      <trkpt lat="44.50911" lon="4.37673">
        <ele>200.4</ele>
        <time>2022-06-05T09:33:31Z</time>
      </trkpt>
      <trkpt lat="44.50911" lon="4.3767">
        <ele>200.8</ele>
        <time>2022-06-05T09:33:32Z</time>
      </trkpt>
      <trkpt lat="44.50911" lon="4.37668">
        <ele>201.2</ele>
        <time>2022-06-05T09:33:33Z</time>
      </trkpt>
      <trkpt lat="44.50912" lon="4.37665">
        <ele>201.6</ele>
        <time>2022-06-05T09:33:34Z</time>
      </trkpt>
      <trkpt lat="44.50912" lon="4.37662">
        <ele>202</ele>
        <time>2022-06-05T09:33:35Z</time>
      </trkpt>
      <trkpt lat="44.50915" lon="4.37645">
        <ele>202</ele>
        <time>2022-06-05T09:33:40Z</time>
      </trkpt>
      <trkpt lat="44.50915" lon="4.37639">
        <ele>202.4</ele>
        <time>2022-06-05T09:33:42Z</time>
      </trkpt>
      <trkpt lat="44.50915" lon="4.37636">
        <ele>202.8</ele>
        <time>2022-06-05T09:33:43Z</time>
      </trkpt>
      <trkpt lat="44.50916" lon="4.37632">
        <ele>203.2</ele>
        <time>2022-06-05T09:33:44Z</time>
      </trkpt>
      <trkpt lat="44.50919" lon="4.37626">
        <ele>203.6</ele>
        <time>2022-06-05T09:33:45Z</time>
      </trkpt>
      <trkpt lat="44.50921" lon="4.37621">
        <ele>204</ele>
        <time>2022-06-05T09:33:46Z</time>
      </trkpt>
      <trkpt lat="44.50924" lon="4.37612">
        <ele>204</ele>
        <time>2022-06-05T09:33:48Z</time>
      </trkpt>
      <trkpt lat="44.50928" lon="4.37593">
        <ele>204</ele>
        <time>2022-06-05T09:33:54Z</time>
      </trkpt>
      <trkpt lat="44.50927" lon="4.37571">
        <ele>204</ele>
        <time>2022-06-05T09:34:01Z</time>
      </trkpt>
      <trkpt lat="44.50928" lon="4.3754">
        <ele>204</ele>
        <time>2022-06-05T09:34:09Z</time>
      </trkpt>
      <trkpt lat="44.50931" lon="4.37504">
        <ele>204</ele>
        <time>2022-06-05T09:34:17Z</time>
      </trkpt>
      <trkpt lat="44.50936" lon="4.37474">
        <ele>204</ele>
        <time>2022-06-05T09:34:25Z</time>
      </trkpt>
      <trkpt lat="44.50937" lon="4.3747">
        <ele>204.4</ele>
        <time>2022-06-05T09:34:26Z</time>
      </trkpt>
      <trkpt lat="44.50937" lon="4.37466">
        <ele>204.8</ele>
        <time>2022-06-05T09:34:27Z</time>
      </trkpt>
      <trkpt lat="44.50937" lon="4.37463">
        <ele>205.2</ele>
        <time>2022-06-05T09:34:28Z</time>
      </trkpt>
      <trkpt lat="44.50937" lon="4.37459">
        <ele>205.6</ele>
        <time>2022-06-05T09:34:29Z</time>
      </trkpt>
      <trkpt lat="44.50937" lon="4.37455">
        <ele>206</ele>
        <time>2022-06-05T09:34:30Z</time>
      </trkpt>
      <trkpt lat="44.50935" lon="4.37444">
        <ele>206</ele>
        <time>2022-06-05T09:34:33Z</time>
      </trkpt>
      <trkpt lat="44.50924" lon="4.3742">
        <ele>206</ele>
        <time>2022-06-05T09:34:39Z</time>
      </trkpt>
      <trkpt lat="44.50921" lon="4.37407">
        <ele>206</ele>
        <time>2022-06-05T09:34:41Z</time>
      </trkpt>
      <trkpt lat="44.50921" lon="4.37388">
        <ele>206</ele>
        <time>2022-06-05T09:34:44Z</time>
      </trkpt>
      <trkpt lat="44.50921" lon="4.37382">
        <ele>205.6</ele>
        <time>2022-06-05T09:34:45Z</time>
      </trkpt>
      <trkpt lat="44.50921" lon="4.37375">
        <ele>205.2</ele>
        <time>2022-06-05T09:34:46Z</time>
      </trkpt>
      <trkpt lat="44.50919" lon="4.37368">
        <ele>204.6</ele>
        <time>2022-06-05T09:34:47Z</time>
      </trkpt>
      <trkpt lat="44.50918" lon="4.37362">
        <ele>204.2</ele>
        <time>2022-06-05T09:34:48Z</time>
      </trkpt>
      <trkpt lat="44.50917" lon="4.37356">
        <ele>203.6</ele>
        <time>2022-06-05T09:34:49Z</time>
      </trkpt>
      <trkpt lat="44.50916" lon="4.37351">
        <ele>203</ele>
        <time>2022-06-05T09:34:50Z</time>
      </trkpt>
      <trkpt lat="44.50915" lon="4.37346">
        <ele>202.4</ele>
        <time>2022-06-05T09:34:51Z</time>
      </trkpt>
      <trkpt lat="44.50915" lon="4.37342">
        <ele>201.8</ele>
        <time>2022-06-05T09:34:52Z</time>
      </trkpt>
      <trkpt lat="44.50916" lon="4.3734">
        <ele>201.4</ele>
        <time>2022-06-05T09:34:53Z</time>
      </trkpt>
      <trkpt lat="44.50917" lon="4.37336">
        <ele>200.8</ele>
        <time>2022-06-05T09:34:54Z</time>
      </trkpt>
      <trkpt lat="44.50918" lon="4.37333">
        <ele>200.2</ele>
        <time>2022-06-05T09:34:55Z</time>
      </trkpt>
      <trkpt lat="44.50918" lon="4.3733">
        <ele>199.6</ele>
        <time>2022-06-05T09:34:56Z</time>
      </trkpt>
      <trkpt lat="44.50918" lon="4.37326">
        <ele>199.2</ele>
        <time>2022-06-05T09:34:57Z</time>
      </trkpt>
      <trkpt lat="44.50917" lon="4.37323">
        <ele>199.2</ele>
        <time>2022-06-05T09:34:58Z</time>
      </trkpt>
      <trkpt lat="44.50915" lon="4.37321">
        <ele>198.8</ele>
        <time>2022-06-05T09:34:59Z</time>
      </trkpt>
      <trkpt lat="44.50913" lon="4.3732">
        <ele>198.4</ele>
        <time>2022-06-05T09:35:00Z</time>
      </trkpt>
      <trkpt lat="44.5091" lon="4.37319">
        <ele>198</ele>
        <time>2022-06-05T09:35:01Z</time>
      </trkpt>
      <trkpt lat="44.50907" lon="4.3732">
        <ele>197.6</ele>
        <time>2022-06-05T09:35:02Z</time>
      </trkpt>
      <trkpt lat="44.50903" lon="4.37321">
        <ele>197.2</ele>
        <time>2022-06-05T09:35:03Z</time>
      </trkpt>
      <trkpt lat="44.509" lon="4.37322">
        <ele>197.2</ele>
        <time>2022-06-05T09:35:04Z</time>
      </trkpt>
      <trkpt lat="44.5089" lon="4.37321">
        <ele>196.8</ele>
        <time>2022-06-05T09:35:06Z</time>
      </trkpt>
      <trkpt lat="44.50887" lon="4.3732">
        <ele>196.4</ele>
        <time>2022-06-05T09:35:07Z</time>
      </trkpt>
      <trkpt lat="44.50884" lon="4.37319">
        <ele>196</ele>
        <time>2022-06-05T09:35:08Z</time>
      </trkpt>
      <trkpt lat="44.50881" lon="4.37317">
        <ele>195.6</ele>
        <time>2022-06-05T09:35:09Z</time>
      </trkpt>
      <trkpt lat="44.50878" lon="4.37315">
        <ele>195</ele>
        <time>2022-06-05T09:35:10Z</time>
      </trkpt>
      <trkpt lat="44.5087" lon="4.37309">
        <ele>195</ele>
        <time>2022-06-05T09:35:13Z</time>
      </trkpt>
      <trkpt lat="44.50863" lon="4.37304">
        <ele>194.6</ele>
        <time>2022-06-05T09:35:15Z</time>
      </trkpt>
      <trkpt lat="44.50858" lon="4.37302">
        <ele>194.2</ele>
        <time>2022-06-05T09:35:16Z</time>
      </trkpt>
      <trkpt lat="44.50855" lon="4.37299">
        <ele>193.8</ele>
        <time>2022-06-05T09:35:17Z</time>
      </trkpt>
      <trkpt lat="44.50851" lon="4.37296">
        <ele>193.4</ele>
        <time>2022-06-05T09:35:18Z</time>
      </trkpt>
      <trkpt lat="44.50847" lon="4.37293">
        <ele>192.8</ele>
        <time>2022-06-05T09:35:19Z</time>
      </trkpt>
      <trkpt lat="44.50842" lon="4.37292">
        <ele>192.8</ele>
        <time>2022-06-05T09:35:20Z</time>
      </trkpt>
      <trkpt lat="44.50834" lon="4.3729">
        <ele>192.4</ele>
        <time>2022-06-05T09:35:22Z</time>
      </trkpt>
      <trkpt lat="44.5083" lon="4.37289">
        <ele>192</ele>
        <time>2022-06-05T09:35:23Z</time>
      </trkpt>
      <trkpt lat="44.50826" lon="4.37288">
        <ele>191.4</ele>
        <time>2022-06-05T09:35:24Z</time>
      </trkpt>
      <trkpt lat="44.50822" lon="4.37288">
        <ele>191</ele>
        <time>2022-06-05T09:35:25Z</time>
      </trkpt>
      <trkpt lat="44.50817" lon="4.37289">
        <ele>190.6</ele>
        <time>2022-06-05T09:35:26Z</time>
      </trkpt>
      <trkpt lat="44.50798" lon="4.37294">
        <ele>190.6</ele>
        <time>2022-06-05T09:35:31Z</time>
      </trkpt>
      <trkpt lat="44.50786" lon="4.37306">
        <ele>190.6</ele>
        <time>2022-06-05T09:35:36Z</time>
      </trkpt>
      <trkpt lat="44.50778" lon="4.37327">
        <ele>190.6</ele>
        <time>2022-06-05T09:35:43Z</time>
      </trkpt>
      <trkpt lat="44.50772" lon="4.37342">
        <ele>190.6</ele>
        <time>2022-06-05T09:35:48Z</time>
      </trkpt>
      <trkpt lat="44.50771" lon="4.37341">
        <ele>190.6</ele>
        <time>2022-06-05T09:35:49Z</time>
      </trkpt>
      <trkpt lat="44.5077" lon="4.37337">
        <ele>190.6</ele>
        <time>2022-06-05T09:35:51Z</time>
      </trkpt>
      <trkpt lat="44.50769" lon="4.37334">
        <ele>190.2</ele>
        <time>2022-06-05T09:35:52Z</time>
      </trkpt>
      <trkpt lat="44.50769" lon="4.3733">
        <ele>189.6</ele>
        <time>2022-06-05T09:35:53Z</time>
      </trkpt>
      <trkpt lat="44.5077" lon="4.37326">
        <ele>189.2</ele>
        <time>2022-06-05T09:35:54Z</time>
      </trkpt>
      <trkpt lat="44.5077" lon="4.37322">
        <ele>188.8</ele>
        <time>2022-06-05T09:35:55Z</time>
      </trkpt>
      <trkpt lat="44.50771" lon="4.37317">
        <ele>188.4</ele>
        <time>2022-06-05T09:35:56Z</time>
      </trkpt>
      <trkpt lat="44.50775" lon="4.37298">
        <ele>188.4</ele>
        <time>2022-06-05T09:36:00Z</time>
      </trkpt>
      <trkpt lat="44.50784" lon="4.37283">
        <ele>188.4</ele>
        <time>2022-06-05T09:36:03Z</time>
      </trkpt>
      <trkpt lat="44.5079" lon="4.37277">
        <ele>188.4</ele>
        <time>2022-06-05T09:36:04Z</time>
      </trkpt>
      <trkpt lat="44.50795" lon="4.37272">
        <ele>188</ele>
        <time>2022-06-05T09:36:05Z</time>
      </trkpt>
      <trkpt lat="44.508" lon="4.37267">
        <ele>187.4</ele>
        <time>2022-06-05T09:36:06Z</time>
      </trkpt>
      <trkpt lat="44.50804" lon="4.37262">
        <ele>187</ele>
        <time>2022-06-05T09:36:07Z</time>
      </trkpt>
      <trkpt lat="44.50807" lon="4.37259">
        <ele>186.6</ele>
        <time>2022-06-05T09:36:08Z</time>
      </trkpt>
      <trkpt lat="44.5081" lon="4.37257">
        <ele>186.2</ele>
        <time>2022-06-05T09:36:09Z</time>
      </trkpt>
      <trkpt lat="44.50818" lon="4.3725">
        <ele>186.2</ele>
        <time>2022-06-05T09:36:15Z</time>
      </trkpt>
      <trkpt lat="44.50822" lon="4.37263">
        <ele>186</ele>
        <time>2022-06-05T09:54:17Z</time>
      </trkpt>
      <trkpt lat="44.50821" lon="4.37263">
        <ele>186</ele>
        <time>2022-06-05T09:54:18Z</time>
      </trkpt>
      <trkpt lat="44.50825" lon="4.37265">
        <ele>186</ele>
        <time>2022-06-05T09:58:04Z</time>
      </trkpt>
      <trkpt lat="44.50834" lon="4.37257">
        <ele>186</ele>
        <time>2022-06-05T09:58:11Z</time>
      </trkpt>
      <trkpt lat="44.50839" lon="4.37253">
        <ele>186</ele>
        <time>2022-06-05T09:58:44Z</time>
      </trkpt>
      <trkpt lat="44.50846" lon="4.37254">
        <ele>186</ele>
        <time>2022-06-05T09:58:47Z</time>
      </trkpt>
      <trkpt lat="44.50859" lon="4.37244">
        <ele>186</ele>
        <time>2022-06-05T09:58:53Z</time>
      </trkpt>
      <trkpt lat="44.50862" lon="4.37231">
        <ele>186</ele>
        <time>2022-06-05T09:58:57Z</time>
      </trkpt>
      <trkpt lat="44.50861" lon="4.37216">
        <ele>185.6</ele>
        <time>2022-06-05T09:59:00Z</time>
      </trkpt>
      <trkpt lat="44.50861" lon="4.37211">
        <ele>184.6</ele>
        <time>2022-06-05T09:59:01Z</time>
      </trkpt>
      <trkpt lat="44.50861" lon="4.37206">
        <ele>184.2</ele>
        <time>2022-06-05T09:59:02Z</time>
      </trkpt>
      <trkpt lat="44.50862" lon="4.372">
        <ele>183.8</ele>
        <time>2022-06-05T09:59:03Z</time>
      </trkpt>
      <trkpt lat="44.50862" lon="4.37195">
        <ele>183.8</ele>
        <time>2022-06-05T09:59:04Z</time>
      </trkpt>
      <trkpt lat="44.50874" lon="4.37162">
        <ele>183.8</ele>
        <time>2022-06-05T09:59:10Z</time>
      </trkpt>
      <trkpt lat="44.50877" lon="4.3716">
        <ele>183.8</ele>
        <time>2022-06-05T09:59:11Z</time>
      </trkpt>
      <trkpt lat="44.50885" lon="4.37155">
        <ele>183.2</ele>
        <time>2022-06-05T09:59:13Z</time>
      </trkpt>
      <trkpt lat="44.50901" lon="4.37154">
        <ele>182.8</ele>
        <time>2022-06-05T09:59:14Z</time>
      </trkpt>
      <trkpt lat="44.50907" lon="4.37151">
        <ele>182.4</ele>
        <time>2022-06-05T09:59:15Z</time>
      </trkpt>
      <trkpt lat="44.50912" lon="4.37148">
        <ele>182</ele>
        <time>2022-06-05T09:59:16Z</time>
      </trkpt>
      <trkpt lat="44.50915" lon="4.37146">
        <ele>181.6</ele>
        <time>2022-06-05T09:59:17Z</time>
      </trkpt>
      <trkpt lat="44.50939" lon="4.37133">
        <ele>181.2</ele>
        <time>2022-06-05T09:59:23Z</time>
      </trkpt>
      <trkpt lat="44.50943" lon="4.37131">
        <ele>180.8</ele>
        <time>2022-06-05T09:59:24Z</time>
      </trkpt>
      <trkpt lat="44.50948" lon="4.37128">
        <ele>180.4</ele>
        <time>2022-06-05T09:59:25Z</time>
      </trkpt>
      <trkpt lat="44.50952" lon="4.37125">
        <ele>179.6</ele>
        <time>2022-06-05T09:59:26Z</time>
      </trkpt>
      <trkpt lat="44.50965" lon="4.37115">
        <ele>179.6</ele>
        <time>2022-06-05T09:59:30Z</time>
      </trkpt>
      <trkpt lat="44.50983" lon="4.37115">
        <ele>179</ele>
        <time>2022-06-05T09:59:36Z</time>
      </trkpt>
      <trkpt lat="44.50986" lon="4.37116">
        <ele>178.6</ele>
        <time>2022-06-05T09:59:37Z</time>
      </trkpt>
      <trkpt lat="44.5099" lon="4.37116">
        <ele>178.2</ele>
        <time>2022-06-05T09:59:38Z</time>
      </trkpt>
      <trkpt lat="44.50993" lon="4.37118">
        <ele>177.8</ele>
        <time>2022-06-05T09:59:39Z</time>
      </trkpt>
      <trkpt lat="44.50996" lon="4.3712">
        <ele>177.4</ele>
        <time>2022-06-05T09:59:40Z</time>
      </trkpt>
      <trkpt lat="44.50998" lon="4.37122">
        <ele>176.8</ele>
        <time>2022-06-05T09:59:41Z</time>
      </trkpt>
      <trkpt lat="44.51" lon="4.37124">
        <ele>176.4</ele>
        <time>2022-06-05T09:59:42Z</time>
      </trkpt>
      <trkpt lat="44.51002" lon="4.37129">
        <ele>176</ele>
        <time>2022-06-05T09:59:43Z</time>
      </trkpt>
      <trkpt lat="44.51004" lon="4.37133">
        <ele>175.4</ele>
        <time>2022-06-05T09:59:44Z</time>
      </trkpt>
      <trkpt lat="44.51005" lon="4.37138">
        <ele>175</ele>
        <time>2022-06-05T09:59:45Z</time>
      </trkpt>
      <trkpt lat="44.51008" lon="4.37147">
        <ele>174.6</ele>
        <time>2022-06-05T09:59:47Z</time>
      </trkpt>
      <trkpt lat="44.51009" lon="4.37152">
        <ele>174.2</ele>
        <time>2022-06-05T09:59:48Z</time>
      </trkpt>
      <trkpt lat="44.5101" lon="4.37156">
        <ele>173.8</ele>
        <time>2022-06-05T09:59:49Z</time>
      </trkpt>
      <trkpt lat="44.51011" lon="4.3716">
        <ele>173</ele>
        <time>2022-06-05T09:59:50Z</time>
      </trkpt>
      <trkpt lat="44.51011" lon="4.37164">
        <ele>173</ele>
        <time>2022-06-05T09:59:52Z</time>
      </trkpt>
      <trkpt lat="44.51014" lon="4.37172">
        <ele>173</ele>
        <time>2022-06-05T10:00:22Z</time>
      </trkpt>
      <trkpt lat="44.51015" lon="4.37175">
        <ele>173</ele>
        <time>2022-06-05T10:00:23Z</time>
      </trkpt>
      <trkpt lat="44.51021" lon="4.37198">
        <ele>172.4</ele>
        <time>2022-06-05T10:00:27Z</time>
      </trkpt>
      <trkpt lat="44.51022" lon="4.37205">
        <ele>172</ele>
        <time>2022-06-05T10:00:28Z</time>
      </trkpt>
      <trkpt lat="44.51024" lon="4.37213">
        <ele>171.6</ele>
        <time>2022-06-05T10:00:29Z</time>
      </trkpt>
      <trkpt lat="44.51025" lon="4.3722">
        <ele>171.2</ele>
        <time>2022-06-05T10:00:30Z</time>
      </trkpt>
      <trkpt lat="44.51027" lon="4.37227">
        <ele>170.8</ele>
        <time>2022-06-05T10:00:31Z</time>
      </trkpt>
      <trkpt lat="44.51028" lon="4.37234">
        <ele>170.4</ele>
        <time>2022-06-05T10:00:32Z</time>
      </trkpt>
      <trkpt lat="44.5103" lon="4.37241">
        <ele>170</ele>
        <time>2022-06-05T10:00:33Z</time>
      </trkpt>
      <trkpt lat="44.51032" lon="4.37247">
        <ele>169.4</ele>
        <time>2022-06-05T10:00:34Z</time>
      </trkpt>
      <trkpt lat="44.51034" lon="4.37252">
        <ele>169</ele>
        <time>2022-06-05T10:00:35Z</time>
      </trkpt>
      <trkpt lat="44.51036" lon="4.37256">
        <ele>168.6</ele>
        <time>2022-06-05T10:00:36Z</time>
      </trkpt>
      <trkpt lat="44.51037" lon="4.37259">
        <ele>168.2</ele>
        <time>2022-06-05T10:00:37Z</time>
      </trkpt>
      <trkpt lat="44.51038" lon="4.37261">
        <ele>167.6</ele>
        <time>2022-06-05T10:00:38Z</time>
      </trkpt>
      <trkpt lat="44.5104" lon="4.37263">
        <ele>167.2</ele>
        <time>2022-06-05T10:00:39Z</time>
      </trkpt>
      <trkpt lat="44.51042" lon="4.37265">
        <ele>166.4</ele>
        <time>2022-06-05T10:00:40Z</time>
      </trkpt>
      <trkpt lat="44.51047" lon="4.37266">
        <ele>166.4</ele>
        <time>2022-06-05T10:00:42Z</time>
      </trkpt>
      <trkpt lat="44.5105" lon="4.37265">
        <ele>166</ele>
        <time>2022-06-05T10:00:43Z</time>
      </trkpt>
      <trkpt lat="44.51053" lon="4.37263">
        <ele>165.4</ele>
        <time>2022-06-05T10:00:44Z</time>
      </trkpt>
      <trkpt lat="44.51056" lon="4.37261">
        <ele>165</ele>
        <time>2022-06-05T10:00:45Z</time>
      </trkpt>
      <trkpt lat="44.5106" lon="4.37259">
        <ele>164.6</ele>
        <time>2022-06-05T10:00:46Z</time>
      </trkpt>
      <trkpt lat="44.51064" lon="4.37257">
        <ele>164.2</ele>
        <time>2022-06-05T10:00:47Z</time>
      </trkpt>
      <trkpt lat="44.51081" lon="4.37246">
        <ele>163.6</ele>
        <time>2022-06-05T10:00:51Z</time>
      </trkpt>
      <trkpt lat="44.51086" lon="4.37243">
        <ele>163</ele>
        <time>2022-06-05T10:00:52Z</time>
      </trkpt>
      <trkpt lat="44.51091" lon="4.3724">
        <ele>162.6</ele>
        <time>2022-06-05T10:00:53Z</time>
      </trkpt>
      <trkpt lat="44.51096" lon="4.37237">
        <ele>162</ele>
        <time>2022-06-05T10:00:54Z</time>
      </trkpt>
      <trkpt lat="44.51101" lon="4.37234">
        <ele>161.6</ele>
        <time>2022-06-05T10:00:55Z</time>
      </trkpt>
      <trkpt lat="44.51107" lon="4.37231">
        <ele>161</ele>
        <time>2022-06-05T10:00:56Z</time>
      </trkpt>
      <trkpt lat="44.51112" lon="4.37228">
        <ele>160.6</ele>
        <time>2022-06-05T10:00:57Z</time>
      </trkpt>
      <trkpt lat="44.51117" lon="4.37225">
        <ele>160.2</ele>
        <time>2022-06-05T10:00:58Z</time>
      </trkpt>
      <trkpt lat="44.51122" lon="4.37222">
        <ele>159.6</ele>
        <time>2022-06-05T10:00:59Z</time>
      </trkpt>
      <trkpt lat="44.51126" lon="4.37218">
        <ele>159.2</ele>
        <time>2022-06-05T10:01:00Z</time>
      </trkpt>
      <trkpt lat="44.51144" lon="4.37194">
        <ele>159.2</ele>
        <time>2022-06-05T10:01:06Z</time>
      </trkpt>
      <trkpt lat="44.51161" lon="4.3717">
        <ele>159.2</ele>
        <time>2022-06-05T10:01:13Z</time>
      </trkpt>
      <trkpt lat="44.51185" lon="4.3714">
        <ele>159.2</ele>
        <time>2022-06-05T10:01:24Z</time>
      </trkpt>
      <trkpt lat="44.51203" lon="4.37126">
        <ele>159.2</ele>
        <time>2022-06-05T10:01:32Z</time>
      </trkpt>
      <trkpt lat="44.51217" lon="4.37131">
        <ele>159.2</ele>
        <time>2022-06-05T10:01:38Z</time>
      </trkpt>
      <trkpt lat="44.51232" lon="4.37149">
        <ele>159.2</ele>
        <time>2022-06-05T10:01:45Z</time>
      </trkpt>
      <trkpt lat="44.51247" lon="4.37171">
        <ele>159.2</ele>
        <time>2022-06-05T10:01:54Z</time>
      </trkpt>
      <trkpt lat="44.51254" lon="4.37196">
        <ele>159.2</ele>
        <time>2022-06-05T10:02:02Z</time>
      </trkpt>
      <trkpt lat="44.51253" lon="4.37225">
        <ele>159.2</ele>
        <time>2022-06-05T10:02:10Z</time>
      </trkpt>
      <trkpt lat="44.51256" lon="4.37266">
        <ele>159.2</ele>
        <time>2022-06-05T10:02:17Z</time>
      </trkpt>
      <trkpt lat="44.5126" lon="4.37332">
        <ele>159.2</ele>
        <time>2022-06-05T10:02:27Z</time>
      </trkpt>
      <trkpt lat="44.51269" lon="4.37393">
        <ele>159.2</ele>
        <time>2022-06-05T10:02:37Z</time>
      </trkpt>
      <trkpt lat="44.5127" lon="4.37418">
        <ele>159.6</ele>
        <time>2022-06-05T10:02:42Z</time>
      </trkpt>
      <trkpt lat="44.5127" lon="4.37422">
        <ele>160</ele>
        <time>2022-06-05T10:02:43Z</time>
      </trkpt>
      <trkpt lat="44.5127" lon="4.37427">
        <ele>160.8</ele>
        <time>2022-06-05T10:02:44Z</time>
      </trkpt>
      <trkpt lat="44.5127" lon="4.37432">
        <ele>161.2</ele>
        <time>2022-06-05T10:02:45Z</time>
      </trkpt>
      <trkpt lat="44.5127" lon="4.37437">
        <ele>161.2</ele>
        <time>2022-06-05T10:02:46Z</time>
      </trkpt>
      <trkpt lat="44.51267" lon="4.37487">
        <ele>161.2</ele>
        <time>2022-06-05T10:02:56Z</time>
      </trkpt>
      <trkpt lat="44.51258" lon="4.37519">
        <ele>161.2</ele>
        <time>2022-06-05T10:03:04Z</time>
      </trkpt>
      <trkpt lat="44.51247" lon="4.3756">
        <ele>161.2</ele>
        <time>2022-06-05T10:03:14Z</time>
      </trkpt>
      <trkpt lat="44.51238" lon="4.37588">
        <ele>161.2</ele>
        <time>2022-06-05T10:03:22Z</time>
      </trkpt>
      <trkpt lat="44.51223" lon="4.37605">
        <ele>161.2</ele>
        <time>2022-06-05T10:03:30Z</time>
      </trkpt>
      <trkpt lat="44.51214" lon="4.37626">
        <ele>161.2</ele>
        <time>2022-06-05T10:03:35Z</time>
      </trkpt>
      <trkpt lat="44.51205" lon="4.37653">
        <ele>161.2</ele>
        <time>2022-06-05T10:03:42Z</time>
      </trkpt>
      <trkpt lat="44.51203" lon="4.37662">
        <ele>161.6</ele>
        <time>2022-06-05T10:03:44Z</time>
      </trkpt>
      <trkpt lat="44.51203" lon="4.37666">
        <ele>162</ele>
        <time>2022-06-05T10:03:45Z</time>
      </trkpt>
      <trkpt lat="44.51203" lon="4.37671">
        <ele>162.4</ele>
        <time>2022-06-05T10:03:46Z</time>
      </trkpt>
      <trkpt lat="44.51203" lon="4.37675">
        <ele>162.8</ele>
        <time>2022-06-05T10:03:47Z</time>
      </trkpt>
      <trkpt lat="44.51203" lon="4.37679">
        <ele>163.2</ele>
        <time>2022-06-05T10:03:48Z</time>
      </trkpt>
      <trkpt lat="44.51202" lon="4.37692">
        <ele>163.2</ele>
        <time>2022-06-05T10:03:51Z</time>
      </trkpt>
      <trkpt lat="44.51203" lon="4.37732">
        <ele>163.2</ele>
        <time>2022-06-05T10:04:01Z</time>
      </trkpt>
      <trkpt lat="44.51208" lon="4.37774">
        <ele>163.2</ele>
        <time>2022-06-05T10:04:09Z</time>
      </trkpt>
      <trkpt lat="44.51206" lon="4.37815">
        <ele>163.2</ele>
        <time>2022-06-05T10:04:14Z</time>
      </trkpt>
      <trkpt lat="44.51203" lon="4.37847">
        <ele>163.2</ele>
        <time>2022-06-05T10:04:18Z</time>
      </trkpt>
      <trkpt lat="44.51204" lon="4.37855">
        <ele>163.2</ele>
        <time>2022-06-05T10:04:19Z</time>
      </trkpt>
      <trkpt lat="44.51205" lon="4.37871">
        <ele>162.8</ele>
        <time>2022-06-05T10:04:21Z</time>
      </trkpt>
      <trkpt lat="44.51205" lon="4.3788">
        <ele>162</ele>
        <time>2022-06-05T10:04:22Z</time>
      </trkpt>
      <trkpt lat="44.51205" lon="4.37888">
        <ele>161.6</ele>
        <time>2022-06-05T10:04:23Z</time>
      </trkpt>
      <trkpt lat="44.51204" lon="4.37895">
        <ele>161.2</ele>
        <time>2022-06-05T10:04:24Z</time>
      </trkpt>
      <trkpt lat="44.51202" lon="4.37916">
        <ele>161.2</ele>
        <time>2022-06-05T10:04:28Z</time>
      </trkpt>
      <trkpt lat="44.51198" lon="4.37929">
        <ele>161.2</ele>
        <time>2022-06-05T10:04:34Z</time>
      </trkpt>
      <trkpt lat="44.51198" lon="4.37931">
        <ele>161.2</ele>
        <time>2022-06-05T10:04:35Z</time>
      </trkpt>
      <trkpt lat="44.512" lon="4.37934">
        <ele>161.6</ele>
        <time>2022-06-05T10:04:37Z</time>
      </trkpt>
      <trkpt lat="44.51201" lon="4.37935">
        <ele>162</ele>
        <time>2022-06-05T10:04:38Z</time>
      </trkpt>
      <trkpt lat="44.51202" lon="4.37936">
        <ele>162.4</ele>
        <time>2022-06-05T10:04:39Z</time>
      </trkpt>
      <trkpt lat="44.51203" lon="4.37937">
        <ele>162.8</ele>
        <time>2022-06-05T10:04:40Z</time>
      </trkpt>
      <trkpt lat="44.51205" lon="4.37939">
        <ele>163.4</ele>
        <time>2022-06-05T10:04:41Z</time>
      </trkpt>
      <trkpt lat="44.51206" lon="4.3794">
        <ele>163.4</ele>
        <time>2022-06-05T10:04:43Z</time>
      </trkpt>
      <trkpt lat="44.5121" lon="4.37946">
        <ele>165.6</ele>
        <time>2022-06-05T10:05:04Z</time>
      </trkpt>
      <trkpt lat="44.5121" lon="4.3795">
        <ele>165.6</ele>
        <time>2022-06-05T10:05:06Z</time>
      </trkpt>
      <trkpt lat="44.51212" lon="4.37959">
        <ele>165.6</ele>
        <time>2022-06-05T10:05:11Z</time>
      </trkpt>
      <trkpt lat="44.5121" lon="4.37963">
        <ele>164.6</ele>
        <time>2022-06-05T10:06:28Z</time>
      </trkpt>
      <trkpt lat="44.51209" lon="4.37966">
        <ele>164.6</ele>
        <time>2022-06-05T10:06:30Z</time>
      </trkpt>
      <trkpt lat="44.5121" lon="4.37976">
        <ele>164.6</ele>
        <time>2022-06-05T10:06:37Z</time>
      </trkpt>
      <trkpt lat="44.5121" lon="4.37978">
        <ele>165</ele>
        <time>2022-06-05T10:06:38Z</time>
      </trkpt>
      <trkpt lat="44.51211" lon="4.37979">
        <ele>165.6</ele>
        <time>2022-06-05T10:06:39Z</time>
      </trkpt>
      <trkpt lat="44.51212" lon="4.37981">
        <ele>166</ele>
        <time>2022-06-05T10:06:40Z</time>
      </trkpt>
      <trkpt lat="44.51216" lon="4.37983">
        <ele>166.8</ele>
        <time>2022-06-05T10:06:43Z</time>
      </trkpt>
      <trkpt lat="44.51231" lon="4.37976">
        <ele>166.8</ele>
        <time>2022-06-05T10:06:52Z</time>
      </trkpt>
      <trkpt lat="44.51233" lon="4.37994">
        <ele>167.2</ele>
        <time>2022-06-05T10:06:56Z</time>
      </trkpt>
      <trkpt lat="44.51231" lon="4.38001">
        <ele>167.6</ele>
        <time>2022-06-05T10:06:57Z</time>
      </trkpt>
      <trkpt lat="44.51247" lon="4.38044">
        <ele>171</ele>
        <time>2022-06-05T10:07:37Z</time>
      </trkpt>
      <trkpt lat="44.51254" lon="4.38049">
        <ele>171</ele>
        <time>2022-06-05T10:07:41Z</time>
      </trkpt>
      <trkpt lat="44.51262" lon="4.38055">
        <ele>171</ele>
        <time>2022-06-05T10:07:46Z</time>
      </trkpt>
      <trkpt lat="44.51279" lon="4.38066">
        <ele>171</ele>
        <time>2022-06-05T10:07:57Z</time>
      </trkpt>
      <trkpt lat="44.51283" lon="4.38068">
        <ele>171</ele>
        <time>2022-06-05T10:08:00Z</time>
      </trkpt>
      <trkpt lat="44.51291" lon="4.38101">
        <ele>171</ele>
        <time>2022-06-05T10:08:10Z</time>
      </trkpt>
      <trkpt lat="44.51292" lon="4.38108">
        <ele>171</ele>
        <time>2022-06-05T10:08:12Z</time>
      </trkpt>
      <trkpt lat="44.51292" lon="4.38114">
        <ele>171</ele>
        <time>2022-06-05T10:08:14Z</time>
      </trkpt>
      <trkpt lat="44.51291" lon="4.38121">
        <ele>170.6</ele>
        <time>2022-06-05T10:08:16Z</time>
      </trkpt>
      <trkpt lat="44.51291" lon="4.38124">
        <ele>170.2</ele>
        <time>2022-06-05T10:08:17Z</time>
      </trkpt>
      <trkpt lat="44.5129" lon="4.38127">
        <ele>169.8</ele>
        <time>2022-06-05T10:08:18Z</time>
      </trkpt>
      <trkpt lat="44.51289" lon="4.3813">
        <ele>169.4</ele>
        <time>2022-06-05T10:08:19Z</time>
      </trkpt>
      <trkpt lat="44.51289" lon="4.38134">
        <ele>169</ele>
        <time>2022-06-05T10:08:20Z</time>
      </trkpt>
      <trkpt lat="44.51289" lon="4.38137">
        <ele>169</ele>
        <time>2022-06-05T10:08:21Z</time>
      </trkpt>
      <trkpt lat="44.5129" lon="4.38144">
        <ele>169</ele>
        <time>2022-06-05T10:08:23Z</time>
      </trkpt>
      <trkpt lat="44.51292" lon="4.38154">
        <ele>169</ele>
        <time>2022-06-05T10:08:26Z</time>
      </trkpt>
      <trkpt lat="44.51294" lon="4.38162">
        <ele>169</ele>
        <time>2022-06-05T10:08:28Z</time>
      </trkpt>
      <trkpt lat="44.51305" lon="4.38183">
        <ele>169</ele>
        <time>2022-06-05T10:08:35Z</time>
      </trkpt>
      <trkpt lat="44.51313" lon="4.38194">
        <ele>169</ele>
        <time>2022-06-05T10:08:40Z</time>
      </trkpt>
      <trkpt lat="44.5133" lon="4.38199">
        <ele>169</ele>
        <time>2022-06-05T10:09:24Z</time>
      </trkpt>
      <trkpt lat="44.51333" lon="4.38202">
        <ele>169</ele>
        <time>2022-06-05T10:09:26Z</time>
      </trkpt>
      <trkpt lat="44.51335" lon="4.38205">
        <ele>169</ele>
        <time>2022-06-05T10:09:29Z</time>
      </trkpt>
      <trkpt lat="44.51339" lon="4.3822">
        <ele>166.8</ele>
        <time>2022-06-05T10:09:45Z</time>
      </trkpt>
      <trkpt lat="44.51342" lon="4.38223">
        <ele>166.8</ele>
        <time>2022-06-05T10:09:47Z</time>
      </trkpt>
      <trkpt lat="44.51349" lon="4.38236">
        <ele>166.8</ele>
        <time>2022-06-05T10:09:54Z</time>
      </trkpt>
      <trkpt lat="44.51366" lon="4.38254">
        <ele>166.8</ele>
        <time>2022-06-05T10:10:01Z</time>
      </trkpt>
      <trkpt lat="44.5139" lon="4.38275">
        <ele>166.8</ele>
        <time>2022-06-05T10:10:10Z</time>
      </trkpt>
      <trkpt lat="44.51408" lon="4.38295">
        <ele>166.8</ele>
        <time>2022-06-05T10:10:18Z</time>
      </trkpt>
      <trkpt lat="44.51436" lon="4.38312">
        <ele>166.8</ele>
        <time>2022-06-05T10:10:28Z</time>
      </trkpt>
      <trkpt lat="44.51465" lon="4.38317">
        <ele>166.8</ele>
        <time>2022-06-05T10:10:37Z</time>
      </trkpt>
      <trkpt lat="44.5147" lon="4.38319">
        <ele>167.2</ele>
        <time>2022-06-05T10:10:39Z</time>
      </trkpt>
      <trkpt lat="44.51472" lon="4.38321">
        <ele>167.8</ele>
        <time>2022-06-05T10:10:40Z</time>
      </trkpt>
      <trkpt lat="44.51474" lon="4.38322">
        <ele>168.2</ele>
        <time>2022-06-05T10:10:41Z</time>
      </trkpt>
      <trkpt lat="44.51476" lon="4.38324">
        <ele>168.6</ele>
        <time>2022-06-05T10:10:42Z</time>
      </trkpt>
      <trkpt lat="44.51478" lon="4.38325">
        <ele>169</ele>
        <time>2022-06-05T10:10:43Z</time>
      </trkpt>
      <trkpt lat="44.515" lon="4.38339">
        <ele>169</ele>
        <time>2022-06-05T10:10:52Z</time>
      </trkpt>
      <trkpt lat="44.51508" lon="4.38343">
        <ele>169</ele>
        <time>2022-06-05T10:10:55Z</time>
      </trkpt>
      <trkpt lat="44.51513" lon="4.3835">
        <ele>169</ele>
        <time>2022-06-05T10:10:58Z</time>
      </trkpt>
      <trkpt lat="44.51517" lon="4.38359">
        <ele>168.6</ele>
        <time>2022-06-05T10:11:02Z</time>
      </trkpt>
      <trkpt lat="44.51518" lon="4.3836">
        <ele>168.2</ele>
        <time>2022-06-05T10:11:03Z</time>
      </trkpt>
      <trkpt lat="44.51551" lon="4.38398">
        <ele>162.8</ele>
        <time>2022-06-05T10:12:44Z</time>
      </trkpt>
      <trkpt lat="44.51554" lon="4.384">
        <ele>162.8</ele>
        <time>2022-06-05T10:12:45Z</time>
      </trkpt>
      <trkpt lat="44.51562" lon="4.38421">
        <ele>162.8</ele>
        <time>2022-06-05T10:12:51Z</time>
      </trkpt>
      <trkpt lat="44.51564" lon="4.38428">
        <ele>162.4</ele>
        <time>2022-06-05T10:12:53Z</time>
      </trkpt>
      <trkpt lat="44.51565" lon="4.38431">
        <ele>162</ele>
        <time>2022-06-05T10:12:54Z</time>
      </trkpt>
      <trkpt lat="44.51566" lon="4.38434">
        <ele>161.6</ele>
        <time>2022-06-05T10:12:55Z</time>
      </trkpt>
      <trkpt lat="44.51568" lon="4.38437">
        <ele>161.2</ele>
        <time>2022-06-05T10:12:56Z</time>
      </trkpt>
      <trkpt lat="44.51569" lon="4.3844">
        <ele>160.8</ele>
        <time>2022-06-05T10:12:57Z</time>
      </trkpt>
      <trkpt lat="44.51571" lon="4.38444">
        <ele>160.8</ele>
        <time>2022-06-05T10:12:59Z</time>
      </trkpt>
      <trkpt lat="44.51572" lon="4.38449">
        <ele>160.8</ele>
        <time>2022-06-05T10:13:01Z</time>
      </trkpt>
      <trkpt lat="44.51572" lon="4.38451">
        <ele>160.8</ele>
        <time>2022-06-05T10:13:02Z</time>
      </trkpt>
      <trkpt lat="44.51648" lon="4.3857">
        <ele>154.6</ele>
        <time>2022-06-05T10:15:29Z</time>
      </trkpt>
      <trkpt lat="44.5165" lon="4.38572">
        <ele>154.6</ele>
        <time>2022-06-05T10:15:30Z</time>
      </trkpt>
      <trkpt lat="44.5166" lon="4.38573">
        <ele>155</ele>
        <time>2022-06-05T10:15:35Z</time>
      </trkpt>
      <trkpt lat="44.51661" lon="4.38574">
        <ele>155.6</ele>
        <time>2022-06-05T10:15:36Z</time>
      </trkpt>
      <trkpt lat="44.51663" lon="4.38574">
        <ele>156</ele>
        <time>2022-06-05T10:15:37Z</time>
      </trkpt>
      <trkpt lat="44.51665" lon="4.38574">
        <ele>156.6</ele>
        <time>2022-06-05T10:15:38Z</time>
      </trkpt>
      <trkpt lat="44.51667" lon="4.38573">
        <ele>157</ele>
        <time>2022-06-05T10:15:39Z</time>
      </trkpt>
      <trkpt lat="44.51676" lon="4.38578">
        <ele>157.4</ele>
        <time>2022-06-05T10:15:44Z</time>
      </trkpt>
      <trkpt lat="44.51677" lon="4.38578">
        <ele>157.8</ele>
        <time>2022-06-05T10:15:45Z</time>
      </trkpt>
      <trkpt lat="44.5168" lon="4.38581">
        <ele>158.2</ele>
        <time>2022-06-05T10:15:46Z</time>
      </trkpt>
      <trkpt lat="44.51681" lon="4.38583">
        <ele>158.6</ele>
        <time>2022-06-05T10:15:47Z</time>
      </trkpt>
      <trkpt lat="44.51684" lon="4.38584">
        <ele>159</ele>
        <time>2022-06-05T10:15:48Z</time>
      </trkpt>
      <trkpt lat="44.51704" lon="4.38603">
        <ele>159</ele>
        <time>2022-06-05T10:15:58Z</time>
      </trkpt>
      <trkpt lat="44.51725" lon="4.38618">
        <ele>159</ele>
        <time>2022-06-05T10:16:07Z</time>
      </trkpt>
      <trkpt lat="44.51753" lon="4.38644">
        <ele>159</ele>
        <time>2022-06-05T10:16:16Z</time>
      </trkpt>
      <trkpt lat="44.5177" lon="4.38663">
        <ele>159.6</ele>
        <time>2022-06-05T10:16:22Z</time>
      </trkpt>
      <trkpt lat="44.51772" lon="4.38665">
        <ele>160</ele>
        <time>2022-06-05T10:16:23Z</time>
      </trkpt>
      <trkpt lat="44.51774" lon="4.38667">
        <ele>160.4</ele>
        <time>2022-06-05T10:16:24Z</time>
      </trkpt>
      <trkpt lat="44.51776" lon="4.38669">
        <ele>160.8</ele>
        <time>2022-06-05T10:16:25Z</time>
      </trkpt>
      <trkpt lat="44.51778" lon="4.38674">
        <ele>161.4</ele>
        <time>2022-06-05T10:16:26Z</time>
      </trkpt>
      <trkpt lat="44.51781" lon="4.38683">
        <ele>161.4</ele>
        <time>2022-06-05T10:16:30Z</time>
      </trkpt>
      <trkpt lat="44.51783" lon="4.38685">
        <ele>161.4</ele>
        <time>2022-06-05T10:16:31Z</time>
      </trkpt>
      <trkpt lat="44.51797" lon="4.38696">
        <ele>161.4</ele>
        <time>2022-06-05T10:16:36Z</time>
      </trkpt>
      <trkpt lat="44.51812" lon="4.38716">
        <ele>161.4</ele>
        <time>2022-06-05T10:16:42Z</time>
      </trkpt>
      <trkpt lat="44.51832" lon="4.3874">
        <ele>161.4</ele>
        <time>2022-06-05T10:16:50Z</time>
      </trkpt>
      <trkpt lat="44.51852" lon="4.38758">
        <ele>161.4</ele>
        <time>2022-06-05T10:16:58Z</time>
      </trkpt>
      <trkpt lat="44.51869" lon="4.38771">
        <ele>161.4</ele>
        <time>2022-06-05T10:17:07Z</time>
      </trkpt>
      <trkpt lat="44.51884" lon="4.38787">
        <ele>161.4</ele>
        <time>2022-06-05T10:17:13Z</time>
      </trkpt>
      <trkpt lat="44.51891" lon="4.38795">
        <ele>160.8</ele>
        <time>2022-06-05T10:17:16Z</time>
      </trkpt>
      <trkpt lat="44.51894" lon="4.38798">
        <ele>160.4</ele>
        <time>2022-06-05T10:17:17Z</time>
      </trkpt>
      <trkpt lat="44.51896" lon="4.388">
        <ele>159.8</ele>
        <time>2022-06-05T10:17:18Z</time>
      </trkpt>
      <trkpt lat="44.51899" lon="4.38805">
        <ele>159.4</ele>
        <time>2022-06-05T10:17:19Z</time>
      </trkpt>
      <trkpt lat="44.51901" lon="4.38808">
        <ele>158.8</ele>
        <time>2022-06-05T10:17:20Z</time>
      </trkpt>
      <trkpt lat="44.51905" lon="4.38814">
        <ele>158.8</ele>
        <time>2022-06-05T10:17:22Z</time>
      </trkpt>
      <trkpt lat="44.51922" lon="4.38844">
        <ele>158.8</ele>
        <time>2022-06-05T10:17:32Z</time>
      </trkpt>
      <trkpt lat="44.51925" lon="4.38849">
        <ele>158.8</ele>
        <time>2022-06-05T10:17:34Z</time>
      </trkpt>
      <trkpt lat="44.51992" lon="4.38937">
        <ele>173.8</ele>
        <time>2022-06-05T10:21:35Z</time>
      </trkpt>
      <trkpt lat="44.51996" lon="4.3894">
        <ele>173.8</ele>
        <time>2022-06-05T10:21:37Z</time>
      </trkpt>
      <trkpt lat="44.52009" lon="4.3895">
        <ele>173.8</ele>
        <time>2022-06-05T10:21:45Z</time>
      </trkpt>
      <trkpt lat="44.52019" lon="4.38956">
        <ele>173.8</ele>
        <time>2022-06-05T10:21:50Z</time>
      </trkpt>
      <trkpt lat="44.52033" lon="4.38971">
        <ele>172.6</ele>
        <time>2022-06-05T10:22:00Z</time>
      </trkpt>
      <trkpt lat="44.52035" lon="4.38973">
        <ele>172.2</ele>
        <time>2022-06-05T10:22:01Z</time>
      </trkpt>
      <trkpt lat="44.52039" lon="4.38975">
        <ele>171.8</ele>
        <time>2022-06-05T10:22:02Z</time>
      </trkpt>
      <trkpt lat="44.52052" lon="4.38983">
        <ele>171.8</ele>
        <time>2022-06-05T10:22:07Z</time>
      </trkpt>
      <trkpt lat="44.52066" lon="4.38994">
        <ele>171.4</ele>
        <time>2022-06-05T10:22:12Z</time>
      </trkpt>
      <trkpt lat="44.52069" lon="4.38997">
        <ele>170.8</ele>
        <time>2022-06-05T10:22:13Z</time>
      </trkpt>
      <trkpt lat="44.52072" lon="4.38999">
        <ele>170.4</ele>
        <time>2022-06-05T10:22:14Z</time>
      </trkpt>
      <trkpt lat="44.52074" lon="4.39002">
        <ele>170</ele>
        <time>2022-06-05T10:22:15Z</time>
      </trkpt>
      <trkpt lat="44.52077" lon="4.39004">
        <ele>169.6</ele>
        <time>2022-06-05T10:22:16Z</time>
      </trkpt>
      <trkpt lat="44.52081" lon="4.39007">
        <ele>169.2</ele>
        <time>2022-06-05T10:22:17Z</time>
      </trkpt>
      <trkpt lat="44.52084" lon="4.39009">
        <ele>168.8</ele>
        <time>2022-06-05T10:22:18Z</time>
      </trkpt>
      <trkpt lat="44.52088" lon="4.39011">
        <ele>168.4</ele>
        <time>2022-06-05T10:22:19Z</time>
      </trkpt>
      <trkpt lat="44.52091" lon="4.39013">
        <ele>168</ele>
        <time>2022-06-05T10:22:20Z</time>
      </trkpt>
      <trkpt lat="44.52095" lon="4.39015">
        <ele>167.6</ele>
        <time>2022-06-05T10:22:21Z</time>
      </trkpt>
      <trkpt lat="44.52106" lon="4.39025">
        <ele>167.6</ele>
        <time>2022-06-05T10:22:26Z</time>
      </trkpt>
      <trkpt lat="44.52109" lon="4.39032">
        <ele>167.6</ele>
        <time>2022-06-05T10:22:29Z</time>
      </trkpt>
      <trkpt lat="44.52114" lon="4.39061">
        <ele>167.6</ele>
        <time>2022-06-05T10:24:27Z</time>
      </trkpt>
      <trkpt lat="44.52114" lon="4.39065">
        <ele>167.6</ele>
        <time>2022-06-05T10:24:29Z</time>
      </trkpt>
      <trkpt lat="44.52115" lon="4.39064">
        <ele>167.6</ele>
        <time>2022-06-05T10:24:30Z</time>
      </trkpt>
      <trkpt lat="44.5212" lon="4.39061">
        <ele>168.4</ele>
        <time>2022-06-05T10:35:06Z</time>
      </trkpt>
      <trkpt lat="44.52121" lon="4.39058">
        <ele>168.4</ele>
        <time>2022-06-05T10:35:07Z</time>
      </trkpt>
      <trkpt lat="44.52119" lon="4.39047">
        <ele>168.4</ele>
        <time>2022-06-05T10:35:13Z</time>
      </trkpt>
      <trkpt lat="44.52119" lon="4.39073">
        <ele>168.4</ele>
        <time>2022-06-05T10:47:38Z</time>
      </trkpt>
      <trkpt lat="44.5212" lon="4.39075">
        <ele>168.4</ele>
        <time>2022-06-05T10:47:39Z</time>
      </trkpt>
      <trkpt lat="44.52121" lon="4.39077">
        <ele>168</ele>
        <time>2022-06-05T10:47:40Z</time>
      </trkpt>
      <trkpt lat="44.52122" lon="4.3908">
        <ele>167.6</ele>
        <time>2022-06-05T10:47:41Z</time>
      </trkpt>
      <trkpt lat="44.52122" lon="4.39083">
        <ele>167.2</ele>
        <time>2022-06-05T10:47:42Z</time>
      </trkpt>
      <trkpt lat="44.52123" lon="4.39086">
        <ele>166.6</ele>
        <time>2022-06-05T10:47:43Z</time>
      </trkpt>
      <trkpt lat="44.52123" lon="4.39088">
        <ele>165.8</ele>
        <time>2022-06-05T10:47:44Z</time>
      </trkpt>
      <trkpt lat="44.52124" lon="4.39091">
        <ele>165.4</ele>
        <time>2022-06-05T10:47:45Z</time>
      </trkpt>
      <trkpt lat="44.52124" lon="4.39094">
        <ele>164.8</ele>
        <time>2022-06-05T10:47:46Z</time>
      </trkpt>
      <trkpt lat="44.52125" lon="4.39096">
        <ele>164.4</ele>
        <time>2022-06-05T10:47:47Z</time>
      </trkpt>
      <trkpt lat="44.52127" lon="4.39099">
        <ele>164</ele>
        <time>2022-06-05T10:47:48Z</time>
      </trkpt>
      <trkpt lat="44.52141" lon="4.39115">
        <ele>164</ele>
        <time>2022-06-05T10:47:52Z</time>
      </trkpt>
      <trkpt lat="44.52173" lon="4.39135">
        <ele>164</ele>
        <time>2022-06-05T10:48:01Z</time>
      </trkpt>
      <trkpt lat="44.5222" lon="4.39164">
        <ele>164</ele>
        <time>2022-06-05T10:48:09Z</time>
      </trkpt>
      <trkpt lat="44.52263" lon="4.3918">
        <ele>164</ele>
        <time>2022-06-05T10:48:18Z</time>
      </trkpt>
      <trkpt lat="44.5229" lon="4.39188">
        <ele>164</ele>
        <time>2022-06-05T10:48:26Z</time>
      </trkpt>
      <trkpt lat="44.52311" lon="4.392">
        <ele>164</ele>
        <time>2022-06-05T10:48:34Z</time>
      </trkpt>
      <trkpt lat="44.52329" lon="4.39211">
        <ele>164</ele>
        <time>2022-06-05T10:48:38Z</time>
      </trkpt>
      <trkpt lat="44.52338" lon="4.3921">
        <ele>164</ele>
        <time>2022-06-05T10:48:40Z</time>
      </trkpt>
      <trkpt lat="44.52357" lon="4.39225">
        <ele>164</ele>
        <time>2022-06-05T10:48:47Z</time>
      </trkpt>
      <trkpt lat="44.52383" lon="4.39239">
        <ele>164</ele>
        <time>2022-06-05T10:48:56Z</time>
      </trkpt>
      <trkpt lat="44.52406" lon="4.39271">
        <ele>164</ele>
        <time>2022-06-05T10:49:04Z</time>
      </trkpt>
      <trkpt lat="44.52424" lon="4.39286">
        <ele>164</ele>
        <time>2022-06-05T10:49:13Z</time>
      </trkpt>
      <trkpt lat="44.52454" lon="4.39311">
        <ele>164</ele>
        <time>2022-06-05T10:49:22Z</time>
      </trkpt>
      <trkpt lat="44.52497" lon="4.39344">
        <ele>164</ele>
        <time>2022-06-05T10:49:32Z</time>
      </trkpt>
      <trkpt lat="44.52529" lon="4.39367">
        <ele>164</ele>
        <time>2022-06-05T10:49:42Z</time>
      </trkpt>
      <trkpt lat="44.52549" lon="4.39389">
        <ele>164.4</ele>
        <time>2022-06-05T10:49:48Z</time>
      </trkpt>
      <trkpt lat="44.52551" lon="4.39392">
        <ele>164.8</ele>
        <time>2022-06-05T10:49:49Z</time>
      </trkpt>
      <trkpt lat="44.52553" lon="4.39395">
        <ele>165.2</ele>
        <time>2022-06-05T10:49:50Z</time>
      </trkpt>
      <trkpt lat="44.52555" lon="4.39398">
        <ele>165.8</ele>
        <time>2022-06-05T10:49:51Z</time>
      </trkpt>
      <trkpt lat="44.52558" lon="4.39401">
        <ele>166.2</ele>
        <time>2022-06-05T10:49:52Z</time>
      </trkpt>
      <trkpt lat="44.52593" lon="4.39439">
        <ele>166.2</ele>
        <time>2022-06-05T10:50:02Z</time>
      </trkpt>
      <trkpt lat="44.52624" lon="4.39469">
        <ele>166.2</ele>
        <time>2022-06-05T10:50:10Z</time>
      </trkpt>
      <trkpt lat="44.52662" lon="4.39515">
        <ele>166.2</ele>
        <time>2022-06-05T10:50:21Z</time>
      </trkpt>
      <trkpt lat="44.52692" lon="4.39565">
        <ele>166.2</ele>
        <time>2022-06-05T10:50:31Z</time>
      </trkpt>
      <trkpt lat="44.5271" lon="4.39609">
        <ele>166.2</ele>
        <time>2022-06-05T10:50:38Z</time>
      </trkpt>
      <trkpt lat="44.52725" lon="4.39669">
        <ele>166.2</ele>
        <time>2022-06-05T10:50:47Z</time>
      </trkpt>
      <trkpt lat="44.52733" lon="4.39703">
        <ele>166.2</ele>
        <time>2022-06-05T10:50:54Z</time>
      </trkpt>
      <trkpt lat="44.52746" lon="4.39715">
        <ele>166.2</ele>
        <time>2022-06-05T10:50:59Z</time>
      </trkpt>
      <trkpt lat="44.52775" lon="4.39735">
        <ele>166.2</ele>
        <time>2022-06-05T10:51:08Z</time>
      </trkpt>
      <trkpt lat="44.52799" lon="4.39764">
        <ele>166.2</ele>
        <time>2022-06-05T10:51:16Z</time>
      </trkpt>
      <trkpt lat="44.52829" lon="4.39799">
        <ele>166.2</ele>
        <time>2022-06-05T10:51:26Z</time>
      </trkpt>
      <trkpt lat="44.52859" lon="4.39831">
        <ele>166.2</ele>
        <time>2022-06-05T10:51:35Z</time>
      </trkpt>
      <trkpt lat="44.5289" lon="4.39875">
        <ele>166.2</ele>
        <time>2022-06-05T10:51:46Z</time>
      </trkpt>
      <trkpt lat="44.52919" lon="4.39902">
        <ele>166.2</ele>
        <time>2022-06-05T10:51:54Z</time>
      </trkpt>
      <trkpt lat="44.52949" lon="4.39928">
        <ele>166.2</ele>
        <time>2022-06-05T10:52:03Z</time>
      </trkpt>
      <trkpt lat="44.52958" lon="4.3994">
        <ele>166.6</ele>
        <time>2022-06-05T10:52:06Z</time>
      </trkpt>
      <trkpt lat="44.52961" lon="4.39945">
        <ele>167</ele>
        <time>2022-06-05T10:52:07Z</time>
      </trkpt>
      <trkpt lat="44.52964" lon="4.39949">
        <ele>167.4</ele>
        <time>2022-06-05T10:52:08Z</time>
      </trkpt>
      <trkpt lat="44.52966" lon="4.39954">
        <ele>167.8</ele>
        <time>2022-06-05T10:52:09Z</time>
      </trkpt>
      <trkpt lat="44.52968" lon="4.39959">
        <ele>168.2</ele>
        <time>2022-06-05T10:52:10Z</time>
      </trkpt>
      <trkpt lat="44.52982" lon="4.3997">
        <ele>168.2</ele>
        <time>2022-06-05T10:52:17Z</time>
      </trkpt>
      <trkpt lat="44.52995" lon="4.39961">
        <ele>168.2</ele>
        <time>2022-06-05T10:52:23Z</time>
      </trkpt>
      <trkpt lat="44.53015" lon="4.3994">
        <ele>168.2</ele>
        <time>2022-06-05T10:52:32Z</time>
      </trkpt>
      <trkpt lat="44.53025" lon="4.39936">
        <ele>168.6</ele>
        <time>2022-06-05T10:52:38Z</time>
      </trkpt>
      <trkpt lat="44.53029" lon="4.39947">
        <ele>170.2</ele>
        <time>2022-06-05T10:52:44Z</time>
      </trkpt>
      <trkpt lat="44.53033" lon="4.39958">
        <ele>170.8</ele>
        <time>2022-06-05T10:52:49Z</time>
      </trkpt>
      <trkpt lat="44.53033" lon="4.3996">
        <ele>171.2</ele>
        <time>2022-06-05T10:52:50Z</time>
      </trkpt>
      <trkpt lat="44.53034" lon="4.39962">
        <ele>171.6</ele>
        <time>2022-06-05T10:52:51Z</time>
      </trkpt>
      <trkpt lat="44.5304" lon="4.39968">
        <ele>172.8</ele>
        <time>2022-06-05T10:52:58Z</time>
      </trkpt>
      <trkpt lat="44.53042" lon="4.39968">
        <ele>173.4</ele>
        <time>2022-06-05T10:52:59Z</time>
      </trkpt>
      <trkpt lat="44.53043" lon="4.39969">
        <ele>173.8</ele>
        <time>2022-06-05T10:53:00Z</time>
      </trkpt>
      <trkpt lat="44.5306" lon="4.39997">
        <ele>176.8</ele>
        <time>2022-06-05T10:53:16Z</time>
      </trkpt>
      <trkpt lat="44.53093" lon="4.40049">
        <ele>174.6</ele>
        <time>2022-06-05T10:53:30Z</time>
      </trkpt>
      <trkpt lat="44.53099" lon="4.4006">
        <ele>174.2</ele>
        <time>2022-06-05T10:53:33Z</time>
      </trkpt>
      <trkpt lat="44.531" lon="4.40063">
        <ele>173.8</ele>
        <time>2022-06-05T10:53:34Z</time>
      </trkpt>
      <trkpt lat="44.53101" lon="4.40066">
        <ele>173.4</ele>
        <time>2022-06-05T10:53:35Z</time>
      </trkpt>
      <trkpt lat="44.53102" lon="4.40068">
        <ele>173</ele>
        <time>2022-06-05T10:53:36Z</time>
      </trkpt>
      <trkpt lat="44.53103" lon="4.40071">
        <ele>172.6</ele>
        <time>2022-06-05T10:53:37Z</time>
      </trkpt>
      <trkpt lat="44.53106" lon="4.40072">
        <ele>172.6</ele>
        <time>2022-06-05T10:53:39Z</time>
      </trkpt>
      <trkpt lat="44.53109" lon="4.40071">
        <ele>172.6</ele>
        <time>2022-06-05T10:53:40Z</time>
      </trkpt>
      <trkpt lat="44.53131" lon="4.40078">
        <ele>172.6</ele>
        <time>2022-06-05T10:53:48Z</time>
      </trkpt>
      <trkpt lat="44.53136" lon="4.40091">
        <ele>172.6</ele>
        <time>2022-06-05T10:53:50Z</time>
      </trkpt>
      <trkpt lat="44.53141" lon="4.40103">
        <ele>172.6</ele>
        <time>2022-06-05T10:53:52Z</time>
      </trkpt>
      <trkpt lat="44.53151" lon="4.40115">
        <ele>172.2</ele>
        <time>2022-06-05T10:53:55Z</time>
      </trkpt>
      <trkpt lat="44.53156" lon="4.40118">
        <ele>171.6</ele>
        <time>2022-06-05T10:53:56Z</time>
      </trkpt>
      <trkpt lat="44.5316" lon="4.40121">
        <ele>171.2</ele>
        <time>2022-06-05T10:53:57Z</time>
      </trkpt>
      <trkpt lat="44.53165" lon="4.40125">
        <ele>170.6</ele>
        <time>2022-06-05T10:53:58Z</time>
      </trkpt>
      <trkpt lat="44.53169" lon="4.40129">
        <ele>170.2</ele>
        <time>2022-06-05T10:53:59Z</time>
      </trkpt>
      <trkpt lat="44.53177" lon="4.40138">
        <ele>169.8</ele>
        <time>2022-06-05T10:54:01Z</time>
      </trkpt>
      <trkpt lat="44.5318" lon="4.40141">
        <ele>169.4</ele>
        <time>2022-06-05T10:54:02Z</time>
      </trkpt>
      <trkpt lat="44.53184" lon="4.40145">
        <ele>169</ele>
        <time>2022-06-05T10:54:03Z</time>
      </trkpt>
      <trkpt lat="44.53188" lon="4.4015">
        <ele>168.4</ele>
        <time>2022-06-05T10:54:04Z</time>
      </trkpt>
      <trkpt lat="44.53192" lon="4.40153">
        <ele>167.8</ele>
        <time>2022-06-05T10:54:05Z</time>
      </trkpt>
      <trkpt lat="44.53195" lon="4.40155">
        <ele>167.2</ele>
        <time>2022-06-05T10:54:06Z</time>
      </trkpt>
      <trkpt lat="44.53197" lon="4.40158">
        <ele>166.6</ele>
        <time>2022-06-05T10:54:07Z</time>
      </trkpt>
      <trkpt lat="44.532" lon="4.4016">
        <ele>166</ele>
        <time>2022-06-05T10:54:08Z</time>
      </trkpt>
      <trkpt lat="44.53203" lon="4.40163">
        <ele>165.4</ele>
        <time>2022-06-05T10:54:09Z</time>
      </trkpt>
      <trkpt lat="44.53206" lon="4.40165">
        <ele>165.4</ele>
        <time>2022-06-05T10:54:10Z</time>
      </trkpt>
      <trkpt lat="44.53228" lon="4.40176">
        <ele>165.4</ele>
        <time>2022-06-05T10:54:18Z</time>
      </trkpt>
      <trkpt lat="44.53236" lon="4.4018">
        <ele>165.8</ele>
        <time>2022-06-05T10:54:22Z</time>
      </trkpt>
      <trkpt lat="44.53237" lon="4.40182">
        <ele>166.2</ele>
        <time>2022-06-05T10:54:23Z</time>
      </trkpt>
      <trkpt lat="44.53239" lon="4.40183">
        <ele>166.6</ele>
        <time>2022-06-05T10:54:24Z</time>
      </trkpt>
      <trkpt lat="44.53242" lon="4.40185">
        <ele>167</ele>
        <time>2022-06-05T10:54:25Z</time>
      </trkpt>
      <trkpt lat="44.53244" lon="4.40186">
        <ele>167.4</ele>
        <time>2022-06-05T10:54:26Z</time>
      </trkpt>
      <trkpt lat="44.53251" lon="4.4019">
        <ele>167.8</ele>
        <time>2022-06-05T10:54:29Z</time>
      </trkpt>
      <trkpt lat="44.53253" lon="4.40192">
        <ele>168.2</ele>
        <time>2022-06-05T10:54:30Z</time>
      </trkpt>
      <trkpt lat="44.53254" lon="4.40193">
        <ele>168.6</ele>
        <time>2022-06-05T10:54:31Z</time>
      </trkpt>
      <trkpt lat="44.53255" lon="4.40194">
        <ele>169</ele>
        <time>2022-06-05T10:54:32Z</time>
      </trkpt>
      <trkpt lat="44.53256" lon="4.40196">
        <ele>169.4</ele>
        <time>2022-06-05T10:54:33Z</time>
      </trkpt>
      <trkpt lat="44.53258" lon="4.40198">
        <ele>169.4</ele>
        <time>2022-06-05T10:54:34Z</time>
      </trkpt>
      <trkpt lat="44.53274" lon="4.40209">
        <ele>169.8</ele>
        <time>2022-06-05T10:54:41Z</time>
      </trkpt>
      <trkpt lat="44.53275" lon="4.4021">
        <ele>170.2</ele>
        <time>2022-06-05T10:54:42Z</time>
      </trkpt>
      <trkpt lat="44.53277" lon="4.40211">
        <ele>170.6</ele>
        <time>2022-06-05T10:54:43Z</time>
      </trkpt>
      <trkpt lat="44.5328" lon="4.40212">
        <ele>171.4</ele>
        <time>2022-06-05T10:54:44Z</time>
      </trkpt>
      <trkpt lat="44.53289" lon="4.40215">
        <ele>171.4</ele>
        <time>2022-06-05T10:54:48Z</time>
      </trkpt>
      <trkpt lat="44.53304" lon="4.40218">
        <ele>171.8</ele>
        <time>2022-06-05T10:54:55Z</time>
      </trkpt>
      <trkpt lat="44.53306" lon="4.40219">
        <ele>172.4</ele>
        <time>2022-06-05T10:54:56Z</time>
      </trkpt>
      <trkpt lat="44.53308" lon="4.40219">
        <ele>172.8</ele>
        <time>2022-06-05T10:54:57Z</time>
      </trkpt>
      <trkpt lat="44.5331" lon="4.40219">
        <ele>173.2</ele>
        <time>2022-06-05T10:54:58Z</time>
      </trkpt>
      <trkpt lat="44.53312" lon="4.40218">
        <ele>173.6</ele>
        <time>2022-06-05T10:54:59Z</time>
      </trkpt>
      <trkpt lat="44.53319" lon="4.40215">
        <ele>173.6</ele>
        <time>2022-06-05T10:55:02Z</time>
      </trkpt>
      <trkpt lat="44.53332" lon="4.40206">
        <ele>174</ele>
        <time>2022-06-05T10:55:09Z</time>
      </trkpt>
      <trkpt lat="44.53334" lon="4.40204">
        <ele>174.8</ele>
        <time>2022-06-05T10:55:10Z</time>
      </trkpt>
      <trkpt lat="44.53336" lon="4.40202">
        <ele>175.2</ele>
        <time>2022-06-05T10:55:11Z</time>
      </trkpt>
      <trkpt lat="44.53338" lon="4.402">
        <ele>175.8</ele>
        <time>2022-06-05T10:55:12Z</time>
      </trkpt>
      <trkpt lat="44.53347" lon="4.40195">
        <ele>175.8</ele>
        <time>2022-06-05T10:55:16Z</time>
      </trkpt>
      <trkpt lat="44.5336" lon="4.40195">
        <ele>175.8</ele>
        <time>2022-06-05T10:55:22Z</time>
      </trkpt>
      <trkpt lat="44.53381" lon="4.40191">
        <ele>175.8</ele>
        <time>2022-06-05T10:55:30Z</time>
      </trkpt>
      <trkpt lat="44.53393" lon="4.40198">
        <ele>176.2</ele>
        <time>2022-06-05T10:55:34Z</time>
      </trkpt>
      <trkpt lat="44.53395" lon="4.402">
        <ele>176.6</ele>
        <time>2022-06-05T10:55:35Z</time>
      </trkpt>
      <trkpt lat="44.53396" lon="4.40201">
        <ele>177</ele>
        <time>2022-06-05T10:55:36Z</time>
      </trkpt>
      <trkpt lat="44.53397" lon="4.40201">
        <ele>177.4</ele>
        <time>2022-06-05T10:55:37Z</time>
      </trkpt>
      <trkpt lat="44.53401" lon="4.40205">
        <ele>177.8</ele>
        <time>2022-06-05T10:55:44Z</time>
      </trkpt>
      <trkpt lat="44.53405" lon="4.40207">
        <ele>177.8</ele>
        <time>2022-06-05T10:55:46Z</time>
      </trkpt>
      <trkpt lat="44.53407" lon="4.40209">
        <ele>177.8</ele>
        <time>2022-06-05T10:55:48Z</time>
      </trkpt>
      <trkpt lat="44.53425" lon="4.40221">
        <ele>175.8</ele>
        <time>2022-06-05T10:56:41Z</time>
      </trkpt>
      <trkpt lat="44.53427" lon="4.40226">
        <ele>175.8</ele>
        <time>2022-06-05T10:56:43Z</time>
      </trkpt>
      <trkpt lat="44.53427" lon="4.40228">
        <ele>175.4</ele>
        <time>2022-06-05T10:56:44Z</time>
      </trkpt>
      <trkpt lat="44.53428" lon="4.4023">
        <ele>174.8</ele>
        <time>2022-06-05T10:56:45Z</time>
      </trkpt>
      <trkpt lat="44.53429" lon="4.40232">
        <ele>174.4</ele>
        <time>2022-06-05T10:56:46Z</time>
      </trkpt>
      <trkpt lat="44.5343" lon="4.40233">
        <ele>174</ele>
        <time>2022-06-05T10:56:47Z</time>
      </trkpt>
      <trkpt lat="44.53431" lon="4.40235">
        <ele>173.6</ele>
        <time>2022-06-05T10:56:48Z</time>
      </trkpt>
      <trkpt lat="44.53435" lon="4.40241">
        <ele>173.6</ele>
        <time>2022-06-05T10:56:52Z</time>
      </trkpt>
      <trkpt lat="44.53437" lon="4.40243">
        <ele>173.6</ele>
        <time>2022-06-05T10:56:54Z</time>
      </trkpt>
      <trkpt lat="44.53435" lon="4.40233">
        <ele>173.6</ele>
        <time>2022-06-05T10:57:33Z</time>
      </trkpt>
      <trkpt lat="44.53437" lon="4.40243">
        <ele>173.6</ele>
        <time>2022-06-05T10:57:37Z</time>
      </trkpt>
      <trkpt lat="44.53437" lon="4.40246">
        <ele>173.2</ele>
        <time>2022-06-05T10:57:38Z</time>
      </trkpt>
      <trkpt lat="44.53438" lon="4.4025">
        <ele>172.8</ele>
        <time>2022-06-05T10:57:39Z</time>
      </trkpt>
      <trkpt lat="44.53439" lon="4.40254">
        <ele>171.8</ele>
        <time>2022-06-05T10:57:40Z</time>
      </trkpt>
      <trkpt lat="44.5344" lon="4.40258">
        <ele>171.4</ele>
        <time>2022-06-05T10:57:41Z</time>
      </trkpt>
      <trkpt lat="44.53443" lon="4.40264">
        <ele>171.4</ele>
        <time>2022-06-05T10:57:43Z</time>
      </trkpt>
      <trkpt lat="44.53452" lon="4.40279">
        <ele>171.4</ele>
        <time>2022-06-05T10:57:48Z</time>
      </trkpt>
      <trkpt lat="44.53458" lon="4.40286">
        <ele>171</ele>
        <time>2022-06-05T10:57:50Z</time>
      </trkpt>
      <trkpt lat="44.53461" lon="4.4029">
        <ele>170.6</ele>
        <time>2022-06-05T10:57:51Z</time>
      </trkpt>
      <trkpt lat="44.53465" lon="4.40294">
        <ele>170.2</ele>
        <time>2022-06-05T10:57:52Z</time>
      </trkpt>
      <trkpt lat="44.53468" lon="4.40297">
        <ele>169.8</ele>
        <time>2022-06-05T10:57:53Z</time>
      </trkpt>
      <trkpt lat="44.53471" lon="4.403">
        <ele>169.4</ele>
        <time>2022-06-05T10:57:54Z</time>
      </trkpt>
      <trkpt lat="44.53476" lon="4.40305">
        <ele>169.4</ele>
        <time>2022-06-05T10:57:56Z</time>
      </trkpt>
      <trkpt lat="44.53498" lon="4.40313">
        <ele>169.4</ele>
        <time>2022-06-05T10:58:03Z</time>
      </trkpt>
      <trkpt lat="44.53516" lon="4.40317">
        <ele>169.4</ele>
        <time>2022-06-05T10:58:10Z</time>
      </trkpt>
      <trkpt lat="44.53528" lon="4.40322">
        <ele>169</ele>
        <time>2022-06-05T10:58:16Z</time>
      </trkpt>
      <trkpt lat="44.53531" lon="4.40324">
        <ele>168.6</ele>
        <time>2022-06-05T10:58:17Z</time>
      </trkpt>
      <trkpt lat="44.53535" lon="4.40328">
        <ele>168</ele>
        <time>2022-06-05T10:58:18Z</time>
      </trkpt>
      <trkpt lat="44.53541" lon="4.40332">
        <ele>167.6</ele>
        <time>2022-06-05T10:58:19Z</time>
      </trkpt>
      <trkpt lat="44.53547" lon="4.40337">
        <ele>167.2</ele>
        <time>2022-06-05T10:58:20Z</time>
      </trkpt>
      <trkpt lat="44.53561" lon="4.40345">
        <ele>167.2</ele>
        <time>2022-06-05T10:58:23Z</time>
      </trkpt>
      <trkpt lat="44.53592" lon="4.40366">
        <ele>167.2</ele>
        <time>2022-06-05T10:58:31Z</time>
      </trkpt>
      <trkpt lat="44.53619" lon="4.40383">
        <ele>167.2</ele>
        <time>2022-06-05T10:58:40Z</time>
      </trkpt>
      <trkpt lat="44.5364" lon="4.4038">
        <ele>167.2</ele>
        <time>2022-06-05T10:58:47Z</time>
      </trkpt>
      <trkpt lat="44.53659" lon="4.40383">
        <ele>167.2</ele>
        <time>2022-06-05T10:58:56Z</time>
      </trkpt>
      <trkpt lat="44.5368" lon="4.40394">
        <ele>167.2</ele>
        <time>2022-06-05T10:59:05Z</time>
      </trkpt>
      <trkpt lat="44.53704" lon="4.40411">
        <ele>167.2</ele>
        <time>2022-06-05T10:59:15Z</time>
      </trkpt>
      <trkpt lat="44.53713" lon="4.40412">
        <ele>168.2</ele>
        <time>2022-06-05T10:59:20Z</time>
      </trkpt>
      <trkpt lat="44.53714" lon="4.40412">
        <ele>168.6</ele>
        <time>2022-06-05T10:59:21Z</time>
      </trkpt>
      <trkpt lat="44.53716" lon="4.40411">
        <ele>169</ele>
        <time>2022-06-05T10:59:22Z</time>
      </trkpt>
      <trkpt lat="44.53717" lon="4.40411">
        <ele>169.6</ele>
        <time>2022-06-05T10:59:23Z</time>
      </trkpt>
      <trkpt lat="44.53721" lon="4.40408">
        <ele>170</ele>
        <time>2022-06-05T10:59:25Z</time>
      </trkpt>
      <trkpt lat="44.53723" lon="4.40408">
        <ele>170.4</ele>
        <time>2022-06-05T10:59:26Z</time>
      </trkpt>
      <trkpt lat="44.53725" lon="4.40407">
        <ele>170.8</ele>
        <time>2022-06-05T10:59:27Z</time>
      </trkpt>
      <trkpt lat="44.53727" lon="4.40407">
        <ele>171.4</ele>
        <time>2022-06-05T10:59:28Z</time>
      </trkpt>
      <trkpt lat="44.5373" lon="4.40406">
        <ele>171.8</ele>
        <time>2022-06-05T10:59:29Z</time>
      </trkpt>
      <trkpt lat="44.53738" lon="4.40403">
        <ele>172.2</ele>
        <time>2022-06-05T10:59:33Z</time>
      </trkpt>
      <trkpt lat="44.5374" lon="4.40403">
        <ele>172.6</ele>
        <time>2022-06-05T10:59:34Z</time>
      </trkpt>
      <trkpt lat="44.53741" lon="4.40402">
        <ele>173</ele>
        <time>2022-06-05T10:59:35Z</time>
      </trkpt>
      <trkpt lat="44.53742" lon="4.40401">
        <ele>173.6</ele>
        <time>2022-06-05T10:59:36Z</time>
      </trkpt>
      <trkpt lat="44.53744" lon="4.40399">
        <ele>174</ele>
        <time>2022-06-05T10:59:37Z</time>
      </trkpt>
      <trkpt lat="44.53745" lon="4.40398">
        <ele>174</ele>
        <time>2022-06-05T10:59:38Z</time>
      </trkpt>
      <trkpt lat="44.53743" lon="4.40396">
        <ele>174</ele>
        <time>2022-06-05T10:59:40Z</time>
      </trkpt>
      <trkpt lat="44.5374" lon="4.40394">
        <ele>174</ele>
        <time>2022-06-05T10:59:42Z</time>
      </trkpt>
      <trkpt lat="44.53734" lon="4.40393">
        <ele>174</ele>
        <time>2022-06-05T10:59:47Z</time>
      </trkpt>
      <trkpt lat="44.5373" lon="4.40393">
        <ele>174</ele>
        <time>2022-06-05T10:59:51Z</time>
      </trkpt>
      <trkpt lat="44.53729" lon="4.40392">
        <ele>174</ele>
        <time>2022-06-05T10:59:52Z</time>
      </trkpt>
      <trkpt lat="44.53725" lon="4.40389">
        <ele>174</ele>
        <time>2022-06-05T10:59:55Z</time>
      </trkpt>
      <trkpt lat="44.53722" lon="4.40375">
        <ele>174.4</ele>
        <time>2022-06-05T11:00:00Z</time>
      </trkpt>
      <trkpt lat="44.53727" lon="4.4037">
        <ele>176.2</ele>
        <time>2022-06-05T11:00:05Z</time>
      </trkpt>
      <trkpt lat="44.53736" lon="4.40371">
        <ele>176.8</ele>
        <time>2022-06-05T11:00:09Z</time>
      </trkpt>
      <trkpt lat="44.53739" lon="4.40372">
        <ele>177.2</ele>
        <time>2022-06-05T11:00:10Z</time>
      </trkpt>
      <trkpt lat="44.53741" lon="4.40373">
        <ele>177.6</ele>
        <time>2022-06-05T11:00:11Z</time>
      </trkpt>
      <trkpt lat="44.53743" lon="4.40374">
        <ele>178</ele>
        <time>2022-06-05T11:00:12Z</time>
      </trkpt>
      <trkpt lat="44.53745" lon="4.40376">
        <ele>178.6</ele>
        <time>2022-06-05T11:00:13Z</time>
      </trkpt>
      <trkpt lat="44.53754" lon="4.40396">
        <ele>178.6</ele>
        <time>2022-06-05T11:00:20Z</time>
      </trkpt>
      <trkpt lat="44.5377" lon="4.40413">
        <ele>178.6</ele>
        <time>2022-06-05T11:00:27Z</time>
      </trkpt>
      <trkpt lat="44.53797" lon="4.40421">
        <ele>178.6</ele>
        <time>2022-06-05T11:00:34Z</time>
      </trkpt>
      <trkpt lat="44.53824" lon="4.4042">
        <ele>178.6</ele>
        <time>2022-06-05T11:00:40Z</time>
      </trkpt>
      <trkpt lat="44.53866" lon="4.4041">
        <ele>178.6</ele>
        <time>2022-06-05T11:00:49Z</time>
      </trkpt>
      <trkpt lat="44.53881" lon="4.40411">
        <ele>178.6</ele>
        <time>2022-06-05T11:00:53Z</time>
      </trkpt>
      <trkpt lat="44.53886" lon="4.40416">
        <ele>178.6</ele>
        <time>2022-06-05T11:00:55Z</time>
      </trkpt>
      <trkpt lat="44.53899" lon="4.40434">
        <ele>178.6</ele>
        <time>2022-06-05T11:01:00Z</time>
      </trkpt>
      <trkpt lat="44.53914" lon="4.40473">
        <ele>178.6</ele>
        <time>2022-06-05T11:01:06Z</time>
      </trkpt>
      <trkpt lat="44.53917" lon="4.40518">
        <ele>178.6</ele>
        <time>2022-06-05T11:01:14Z</time>
      </trkpt>
      <trkpt lat="44.53916" lon="4.40548">
        <ele>179</ele>
        <time>2022-06-05T11:01:20Z</time>
      </trkpt>
      <trkpt lat="44.53915" lon="4.40554">
        <ele>179.4</ele>
        <time>2022-06-05T11:01:21Z</time>
      </trkpt>
      <trkpt lat="44.53915" lon="4.40559">
        <ele>179.8</ele>
        <time>2022-06-05T11:01:22Z</time>
      </trkpt>
      <trkpt lat="44.53915" lon="4.40564">
        <ele>180.6</ele>
        <time>2022-06-05T11:01:23Z</time>
      </trkpt>
      <trkpt lat="44.53922" lon="4.40597">
        <ele>180.6</ele>
        <time>2022-06-05T11:01:30Z</time>
      </trkpt>
      <trkpt lat="44.53934" lon="4.40644">
        <ele>181</ele>
        <time>2022-06-05T11:01:41Z</time>
      </trkpt>
      <trkpt lat="44.53936" lon="4.40647">
        <ele>181.4</ele>
        <time>2022-06-05T11:01:42Z</time>
      </trkpt>
      <trkpt lat="44.53938" lon="4.40652">
        <ele>181.8</ele>
        <time>2022-06-05T11:01:43Z</time>
      </trkpt>
      <trkpt lat="44.5394" lon="4.40655">
        <ele>182.2</ele>
        <time>2022-06-05T11:01:44Z</time>
      </trkpt>
      <trkpt lat="44.53942" lon="4.40658">
        <ele>182.8</ele>
        <time>2022-06-05T11:01:45Z</time>
      </trkpt>
      <trkpt lat="44.53946" lon="4.40661">
        <ele>182.8</ele>
        <time>2022-06-05T11:01:47Z</time>
      </trkpt>
      <trkpt lat="44.53964" lon="4.40662">
        <ele>182.8</ele>
        <time>2022-06-05T11:01:53Z</time>
      </trkpt>
      <trkpt lat="44.53973" lon="4.4066">
        <ele>183.2</ele>
        <time>2022-06-05T11:01:56Z</time>
      </trkpt>
      <trkpt lat="44.53976" lon="4.4066">
        <ele>183.6</ele>
        <time>2022-06-05T11:01:57Z</time>
      </trkpt>
      <trkpt lat="44.53978" lon="4.40659">
        <ele>184</ele>
        <time>2022-06-05T11:01:58Z</time>
      </trkpt>
      <trkpt lat="44.53981" lon="4.40659">
        <ele>184.4</ele>
        <time>2022-06-05T11:01:59Z</time>
      </trkpt>
      <trkpt lat="44.53985" lon="4.40658">
        <ele>184.8</ele>
        <time>2022-06-05T11:02:00Z</time>
      </trkpt>
      <trkpt lat="44.53991" lon="4.40656">
        <ele>184.8</ele>
        <time>2022-06-05T11:02:02Z</time>
      </trkpt>
      <trkpt lat="44.54016" lon="4.40644">
        <ele>184.8</ele>
        <time>2022-06-05T11:02:10Z</time>
      </trkpt>
      <trkpt lat="44.54036" lon="4.40636">
        <ele>184.8</ele>
        <time>2022-06-05T11:02:18Z</time>
      </trkpt>
      <trkpt lat="44.54038" lon="4.40635">
        <ele>185.2</ele>
        <time>2022-06-05T11:02:19Z</time>
      </trkpt>
      <trkpt lat="44.5404" lon="4.40634">
        <ele>185.6</ele>
        <time>2022-06-05T11:02:20Z</time>
      </trkpt>
      <trkpt lat="44.54042" lon="4.40634">
        <ele>186</ele>
        <time>2022-06-05T11:02:21Z</time>
      </trkpt>
      <trkpt lat="44.54045" lon="4.40633">
        <ele>186.4</ele>
        <time>2022-06-05T11:02:22Z</time>
      </trkpt>
      <trkpt lat="44.54047" lon="4.40633">
        <ele>187</ele>
        <time>2022-06-05T11:02:23Z</time>
      </trkpt>
      <trkpt lat="44.54055" lon="4.40635">
        <ele>187</ele>
        <time>2022-06-05T11:02:27Z</time>
      </trkpt>
      <trkpt lat="44.54066" lon="4.40646">
        <ele>187</ele>
        <time>2022-06-05T11:02:34Z</time>
      </trkpt>
      <trkpt lat="44.54074" lon="4.40667">
        <ele>187</ele>
        <time>2022-06-05T11:02:40Z</time>
      </trkpt>
      <trkpt lat="44.54089" lon="4.40697">
        <ele>187.4</ele>
        <time>2022-06-05T11:02:44Z</time>
      </trkpt>
      <trkpt lat="44.54092" lon="4.40704">
        <ele>187.8</ele>
        <time>2022-06-05T11:02:45Z</time>
      </trkpt>
      <trkpt lat="44.54095" lon="4.4071">
        <ele>188.2</ele>
        <time>2022-06-05T11:02:46Z</time>
      </trkpt>
      <trkpt lat="44.54098" lon="4.40716">
        <ele>188.6</ele>
        <time>2022-06-05T11:02:47Z</time>
      </trkpt>
      <trkpt lat="44.541" lon="4.40721">
        <ele>189.2</ele>
        <time>2022-06-05T11:02:48Z</time>
      </trkpt>
      <trkpt lat="44.54105" lon="4.40737">
        <ele>189.2</ele>
        <time>2022-06-05T11:02:51Z</time>
      </trkpt>
      <trkpt lat="44.54122" lon="4.40777">
        <ele>189.2</ele>
        <time>2022-06-05T11:02:59Z</time>
      </trkpt>
      <trkpt lat="44.54134" lon="4.40791">
        <ele>189.6</ele>
        <time>2022-06-05T11:03:04Z</time>
      </trkpt>
      <trkpt lat="44.54137" lon="4.40793">
        <ele>190</ele>
        <time>2022-06-05T11:03:05Z</time>
      </trkpt>
      <trkpt lat="44.54141" lon="4.40795">
        <ele>190.4</ele>
        <time>2022-06-05T11:03:06Z</time>
      </trkpt>
      <trkpt lat="44.54144" lon="4.40798">
        <ele>190.8</ele>
        <time>2022-06-05T11:03:07Z</time>
      </trkpt>
      <trkpt lat="44.54148" lon="4.40801">
        <ele>191.2</ele>
        <time>2022-06-05T11:03:08Z</time>
      </trkpt>
      <trkpt lat="44.54163" lon="4.40814">
        <ele>191.2</ele>
        <time>2022-06-05T11:03:13Z</time>
      </trkpt>
      <trkpt lat="44.54173" lon="4.40833">
        <ele>191.6</ele>
        <time>2022-06-05T11:03:17Z</time>
      </trkpt>
      <trkpt lat="44.54176" lon="4.40838">
        <ele>192</ele>
        <time>2022-06-05T11:03:18Z</time>
      </trkpt>
      <trkpt lat="44.54178" lon="4.40843">
        <ele>192.4</ele>
        <time>2022-06-05T11:03:19Z</time>
      </trkpt>
      <trkpt lat="44.5418" lon="4.40847">
        <ele>192.8</ele>
        <time>2022-06-05T11:03:20Z</time>
      </trkpt>
      <trkpt lat="44.54182" lon="4.40851">
        <ele>193.2</ele>
        <time>2022-06-05T11:03:21Z</time>
      </trkpt>
      <trkpt lat="44.54199" lon="4.40871">
        <ele>193.6</ele>
        <time>2022-06-05T11:03:27Z</time>
      </trkpt>
      <trkpt lat="44.54201" lon="4.40874">
        <ele>194</ele>
        <time>2022-06-05T11:03:28Z</time>
      </trkpt>
      <trkpt lat="44.54203" lon="4.40876">
        <ele>194.4</ele>
        <time>2022-06-05T11:03:29Z</time>
      </trkpt>
      <trkpt lat="44.54206" lon="4.40878">
        <ele>194.8</ele>
        <time>2022-06-05T11:03:30Z</time>
      </trkpt>
      <trkpt lat="44.5421" lon="4.40881">
        <ele>195.4</ele>
        <time>2022-06-05T11:03:31Z</time>
      </trkpt>
      <trkpt lat="44.54226" lon="4.40889">
        <ele>195.4</ele>
        <time>2022-06-05T11:03:35Z</time>
      </trkpt>
      <trkpt lat="44.54265" lon="4.40908">
        <ele>195.4</ele>
        <time>2022-06-05T11:03:45Z</time>
      </trkpt>
      <trkpt lat="44.54314" lon="4.40916">
        <ele>195.4</ele>
        <time>2022-06-05T11:03:55Z</time>
      </trkpt>
      <trkpt lat="44.54362" lon="4.40923">
        <ele>195.4</ele>
        <time>2022-06-05T11:04:04Z</time>
      </trkpt>
      <trkpt lat="44.54386" lon="4.40929">
        <ele>194.8</ele>
        <time>2022-06-05T11:04:09Z</time>
      </trkpt>
      <trkpt lat="44.54391" lon="4.40931">
        <ele>194.4</ele>
        <time>2022-06-05T11:04:10Z</time>
      </trkpt>
      <trkpt lat="44.54396" lon="4.40932">
        <ele>194</ele>
        <time>2022-06-05T11:04:11Z</time>
      </trkpt>
      <trkpt lat="44.54401" lon="4.40934">
        <ele>193.6</ele>
        <time>2022-06-05T11:04:12Z</time>
      </trkpt>
      <trkpt lat="44.54406" lon="4.40937">
        <ele>193.2</ele>
        <time>2022-06-05T11:04:13Z</time>
      </trkpt>
      <trkpt lat="44.54425" lon="4.40949">
        <ele>192.8</ele>
        <time>2022-06-05T11:04:17Z</time>
      </trkpt>
      <trkpt lat="44.54429" lon="4.40952">
        <ele>192.4</ele>
        <time>2022-06-05T11:04:18Z</time>
      </trkpt>
      <trkpt lat="44.54433" lon="4.40957">
        <ele>192</ele>
        <time>2022-06-05T11:04:19Z</time>
      </trkpt>
      <trkpt lat="44.54437" lon="4.40963">
        <ele>191.4</ele>
        <time>2022-06-05T11:04:20Z</time>
      </trkpt>
      <trkpt lat="44.54443" lon="4.40971">
        <ele>191</ele>
        <time>2022-06-05T11:04:21Z</time>
      </trkpt>
      <trkpt lat="44.54455" lon="4.40996">
        <ele>191</ele>
        <time>2022-06-05T11:04:24Z</time>
      </trkpt>
      <trkpt lat="44.54459" lon="4.41017">
        <ele>191</ele>
        <time>2022-06-05T11:04:28Z</time>
      </trkpt>
      <trkpt lat="44.54457" lon="4.41052">
        <ele>191</ele>
        <time>2022-06-05T11:04:34Z</time>
      </trkpt>
      <trkpt lat="44.54465" lon="4.41075">
        <ele>191</ele>
        <time>2022-06-05T11:04:39Z</time>
      </trkpt>
      <trkpt lat="44.54481" lon="4.41086">
        <ele>191</ele>
        <time>2022-06-05T11:04:44Z</time>
      </trkpt>
      <trkpt lat="44.5451" lon="4.41097">
        <ele>191</ele>
        <time>2022-06-05T11:04:52Z</time>
      </trkpt>
      <trkpt lat="44.54531" lon="4.41113">
        <ele>191</ele>
        <time>2022-06-05T11:04:59Z</time>
      </trkpt>
      <trkpt lat="44.54549" lon="4.41134">
        <ele>191</ele>
        <time>2022-06-05T11:05:08Z</time>
      </trkpt>
      <trkpt lat="44.54577" lon="4.41171">
        <ele>191</ele>
        <time>2022-06-05T11:05:18Z</time>
      </trkpt>
      <trkpt lat="44.54604" lon="4.41212">
        <ele>191</ele>
        <time>2022-06-05T11:05:28Z</time>
      </trkpt>
      <trkpt lat="44.54625" lon="4.4124">
        <ele>191</ele>
        <time>2022-06-05T11:05:38Z</time>
      </trkpt>
      <trkpt lat="44.54646" lon="4.41263">
        <ele>191</ele>
        <time>2022-06-05T11:05:44Z</time>
      </trkpt>
      <trkpt lat="44.54653" lon="4.41293">
        <ele>191</ele>
        <time>2022-06-05T11:05:49Z</time>
      </trkpt>
      <trkpt lat="44.54651" lon="4.41316">
        <ele>191</ele>
        <time>2022-06-05T11:05:59Z</time>
      </trkpt>
      <trkpt lat="44.5465" lon="4.41318">
        <ele>191</ele>
        <time>2022-06-05T11:06:01Z</time>
      </trkpt>
      <trkpt lat="44.5464" lon="4.41298">
        <ele>191</ele>
        <time>2022-06-05T11:06:03Z</time>
      </trkpt>
      <trkpt lat="44.54625" lon="4.41284">
        <ele>191</ele>
        <time>2022-06-05T11:06:04Z</time>
      </trkpt>
      <trkpt lat="44.54597" lon="4.41258">
        <ele>191</ele>
        <time>2022-06-05T11:06:12Z</time>
      </trkpt>
      <trkpt lat="44.54592" lon="4.41252">
        <ele>191</ele>
        <time>2022-06-05T11:06:15Z</time>
      </trkpt>
    </trkseg>
  </trk>
</gpx>